Wetterdaten: Sonntag, 02.07.2017
Datum Zeit Temp. A. Temp. A. max Feuchte A. Luftdruck Regen Wind Richtung Richtung Sonnenschein ET UV Solar Taupunkt Windchill Windböen
02.07.2017 00:00 13,3 °C 13,3 °C 78 % 1014,9 hPa 0,0 mm 7,0 km/h (2 Bft) W-SW 252 ° 0 min 0,000 mm 0,0 UV-I 0 W/m² 9,5 °C 13,3 °C 9,7 km/h (2 Bft)
02.07.2017 00:01 13,3 °C 13,3 °C 78 % 1014,9 hPa 0,0 mm 6,3 km/h (2 Bft) W 273 ° 0 min 0,000 mm 0,0 UV-I 0 W/m² 9,5 °C 13,3 °C 11,3 km/h (2 Bft)
02.07.2017 00:02 13,3 °C 13,3 °C 78 % 1014,9 hPa 0,0 mm 5,9 km/h (2 Bft) W 260 ° 0 min 0,000 mm 0,0 UV-I 0 W/m² 9,5 °C 13,3 °C 11,3 km/h (2 Bft)
02.07.2017 00:03 13,3 °C 13,3 °C 78 % 1014,9 hPa 0,0 mm 7,7 km/h (2 Bft) SW 236 ° 0 min 0,000 mm 0,0 UV-I 0 W/m² 9,5 °C 13,3 °C 12,9 km/h (3 Bft)
02.07.2017 00:04 13,3 °C 13,3 °C 78 % 1014,9 hPa 0,0 mm 6,5 km/h (2 Bft) W-SW 256 ° 0 min 0,000 mm 0,0 UV-I 0 W/m² 9,5 °C 13,3 °C 9,7 km/h (2 Bft)
02.07.2017 00:05 13,3 °C 13,3 °C 78 % 1014,9 hPa 0,0 mm 7,0 km/h (2 Bft) W-SW 256 ° 0 min 0,000 mm 0,0 UV-I 0 W/m² 9,5 °C 13,3 °C 11,3 km/h (2 Bft)
02.07.2017 00:06 13,3 °C 13,3 °C 78 % 1015,0 hPa 0,0 mm 7,6 km/h (2 Bft) W-NW 301 ° 0 min 0,000 mm 0,0 UV-I 0 W/m² 9,5 °C 13,3 °C 11,3 km/h (2 Bft)
02.07.2017 00:07 13,3 °C 13,3 °C 78 % 1014,9 hPa 0,0 mm 8,0 km/h (2 Bft) W 273 ° 0 min 0,000 mm 0,0 UV-I 0 W/m² 9,5 °C 13,3 °C 11,3 km/h (2 Bft)
02.07.2017 00:08 13,3 °C 13,3 °C 79 % 1015,0 hPa 0,0 mm 7,3 km/h (2 Bft) W 261 ° 0 min 0,000 mm 0,0 UV-I 0 W/m² 9,7 °C 13,3 °C 14,5 km/h (3 Bft)
02.07.2017 00:09 13,2 °C 13,3 °C 78 % 1015,0 hPa 0,0 mm 9,2 km/h (2 Bft) SW 227 ° 0 min 0,000 mm 0,0 UV-I 0 W/m² 9,4 °C 13,2 °C 12,9 km/h (3 Bft)
02.07.2017 00:10 13,2 °C 13,2 °C 78 % 1015,0 hPa 0,0 mm 4,8 km/h (1 Bft) W-NW 288 ° 0 min 0,000 mm 0,0 UV-I 0 W/m² 9,4 °C 13,2 °C 8,0 km/h (2 Bft)
02.07.2017 00:11 13,2 °C 13,2 °C 79 % 1015,0 hPa 0,0 mm 7,4 km/h (2 Bft) W-SW 255 ° 0 min 0,000 mm 0,0 UV-I 0 W/m² 9,6 °C 13,2 °C 11,3 km/h (2 Bft)
02.07.2017 00:12 13,2 °C 13,2 °C 78 % 1014,9 hPa 0,0 mm 7,1 km/h (2 Bft) W 263 ° 0 min 0,000 mm 0,0 UV-I 0 W/m² 9,4 °C 13,2 °C 12,9 km/h (3 Bft)
02.07.2017 00:13 13,2 °C 13,2 °C 78 % 1015,0 hPa 0,0 mm 4,0 km/h (1 Bft) SW 221 ° 0 min 0,000 mm 0,0 UV-I 0 W/m² 9,4 °C 13,2 °C 6,4 km/h (2 Bft)
02.07.2017 00:14 13,3 °C 13,3 °C 78 % 1015,0 hPa 0,0 mm 4,2 km/h (1 Bft) W 271 ° 0 min 0,000 mm 0,0 UV-I 0 W/m² 9,5 °C 13,3 °C 6,4 km/h (2 Bft)
02.07.2017 00:15 13,3 °C 13,3 °C 79 % 1015,0 hPa 0,0 mm 11,3 km/h (2 Bft) W 269 ° 0 min 0,000 mm 0,0 UV-I 0 W/m² 9,7 °C 13,3 °C 17,7 km/h (3 Bft)
02.07.2017 00:16 13,3 °C 13,3 °C 78 % 1015,0 hPa 0,0 mm 12,8 km/h (3 Bft) W 269 ° 0 min 0,000 mm 0,0 UV-I 0 W/m² 9,5 °C 13,3 °C 16,1 km/h (3 Bft)
02.07.2017 00:17 13,3 °C 13,3 °C 78 % 1015,0 hPa 0,0 mm 5,4 km/h (1 Bft) W-NW 296 ° 0 min 0,000 mm 0,0 UV-I 0 W/m² 9,5 °C 13,3 °C 12,9 km/h (3 Bft)
02.07.2017 00:18 13,3 °C 13,3 °C 78 % 1015,0 hPa 0,0 mm 2,3 km/h (1 Bft) W 279 ° 0 min 0,000 mm 0,0 UV-I 0 W/m² 9,5 °C 13,3 °C 4,8 km/h (1 Bft)
02.07.2017 00:19 13,3 °C 13,3 °C 79 % 1015,0 hPa 0,0 mm 4,0 km/h (1 Bft) W 275 ° 0 min 0,000 mm 0,0 UV-I 0 W/m² 9,7 °C 13,3 °C 9,7 km/h (2 Bft)
02.07.2017 00:20 13,3 °C 13,3 °C 79 % 1015,0 hPa 0,0 mm 4,1 km/h (1 Bft) W-NW 292 ° 0 min 0,000 mm 0,0 UV-I 0 W/m² 9,7 °C 13,3 °C 6,4 km/h (2 Bft)
02.07.2017 00:21 13,3 °C 13,3 °C 79 % 1015,0 hPa 0,0 mm 5,1 km/h (1 Bft) W-SW 254 ° 0 min 0,000 mm 0,0 UV-I 0 W/m² 9,7 °C 13,3 °C 9,7 km/h (2 Bft)
02.07.2017 00:22 13,3 °C 13,3 °C 79 % 1015,1 hPa 0,0 mm 3,2 km/h (1 Bft) W 281 ° 0 min 0,000 mm 0,0 UV-I 0 W/m² 9,7 °C 13,3 °C 4,8 km/h (1 Bft)
02.07.2017 00:23 13,3 °C 13,3 °C 79 % 1015,0 hPa 0,0 mm 8,2 km/h (2 Bft) W-NW 289 ° 0 min 0,000 mm 0,0 UV-I 0 W/m² 9,7 °C 13,3 °C 14,5 km/h (3 Bft)
02.07.2017 00:24 13,3 °C 13,3 °C 79 % 1015,0 hPa 0,0 mm 9,9 km/h (2 Bft) W-SW 257 ° 0 min 0,000 mm 0,0 UV-I 0 W/m² 9,7 °C 13,3 °C 16,1 km/h (3 Bft)
02.07.2017 00:25 13,3 °C 13,3 °C 79 % 1015,0 hPa 0,0 mm 6,4 km/h (2 Bft) SW 230 ° 0 min 0,000 mm 0,0 UV-I 0 W/m² 9,7 °C 13,3 °C 11,3 km/h (2 Bft)
02.07.2017 00:26 13,3 °C 13,3 °C 79 % 1015,0 hPa 0,0 mm 5,8 km/h (2 Bft) W-SW 248 ° 0 min 0,000 mm 0,0 UV-I 0 W/m² 9,7 °C 13,3 °C 11,3 km/h (2 Bft)
02.07.2017 00:27 13,3 °C 13,3 °C 79 % 1015,0 hPa 0,0 mm 4,0 km/h (1 Bft) W-SW 238 ° 0 min 0,000 mm 0,0 UV-I 0 W/m² 9,7 °C 13,3 °C 6,4 km/h (2 Bft)
02.07.2017 00:28 13,3 °C 13,3 °C 79 % 1015,0 hPa 0,0 mm 6,0 km/h (2 Bft) W-SW 256 ° 0 min 0,000 mm 0,0 UV-I 0 W/m² 9,7 °C 13,3 °C 11,3 km/h (2 Bft)
02.07.2017 00:29 13,3 °C 13,3 °C 79 % 1015,0 hPa 0,0 mm 7,4 km/h (2 Bft) W 265 ° 0 min 0,000 mm 0,0 UV-I 0 W/m² 9,7 °C 13,3 °C 11,3 km/h (2 Bft)
02.07.2017 00:30 13,3 °C 13,3 °C 79 % 1015,1 hPa 0,0 mm 1,1 km/h (1 Bft) SW 236 ° 0 min 0,000 mm 0,0 UV-I 0 W/m² 9,7 °C 13,3 °C 4,8 km/h (1 Bft)
02.07.2017 00:31 13,3 °C 13,3 °C 79 % 1015,0 hPa 0,0 mm 3,1 km/h (1 Bft) SW 233 ° 0 min 0,000 mm 0,0 UV-I 0 W/m² 9,7 °C 13,3 °C 4,8 km/h (1 Bft)
02.07.2017 00:32 13,3 °C 13,3 °C 79 % 1015,1 hPa 0,0 mm 5,2 km/h (1 Bft) W-SW 242 ° 0 min 0,000 mm 0,0 UV-I 0 W/m² 9,7 °C 13,3 °C 9,7 km/h (2 Bft)
02.07.2017 00:33 13,2 °C 13,3 °C 80 % 1015,1 hPa 0,0 mm 5,2 km/h (1 Bft) W 274 ° 0 min 0,000 mm 0,0 UV-I 0 W/m² 9,8 °C 13,2 °C 8,0 km/h (2 Bft)
02.07.2017 00:34 13,2 °C 13,3 °C 79 % 1015,1 hPa 0,0 mm 4,4 km/h (1 Bft) SW 228 ° 0 min 0,000 mm 0,0 UV-I 0 W/m² 9,6 °C 13,2 °C 8,0 km/h (2 Bft)
02.07.2017 00:35 13,2 °C 13,3 °C 79 % 1015,1 hPa 0,0 mm 5,0 km/h (1 Bft) SW 234 ° 0 min 0,000 mm 0,0 UV-I 0 W/m² 9,6 °C 13,2 °C 9,7 km/h (2 Bft)
02.07.2017 00:36 13,2 °C 13,2 °C 79 % 1015,2 hPa 0,0 mm 5,0 km/h (1 Bft) W 269 ° 0 min 0,000 mm 0,0 UV-I 0 W/m² 9,6 °C 13,2 °C 9,7 km/h (2 Bft)
02.07.2017 00:37 13,2 °C 13,2 °C 79 % 1015,1 hPa 0,0 mm 3,4 km/h (1 Bft) W-NW 288 ° 0 min 0,000 mm 0,0 UV-I 0 W/m² 9,6 °C 13,2 °C 9,7 km/h (2 Bft)
02.07.2017 00:38 13,2 °C 13,2 °C 79 % 1015,1 hPa 0,0 mm 0,1 km/h (0 Bft) W-NW 288 ° 0 min 0,000 mm 0,0 UV-I 0 W/m² 9,6 °C 13,2 °C 1,6 km/h (1 Bft)
02.07.2017 00:39 13,2 °C 13,2 °C 79 % 1015,2 hPa 0,0 mm 3,0 km/h (1 Bft) W-SW 254 ° 0 min 0,000 mm 0,0 UV-I 0 W/m² 9,6 °C 13,2 °C 6,4 km/h (2 Bft)
02.07.2017 00:40 13,2 °C 13,2 °C 79 % 1015,2 hPa 0,0 mm 4,1 km/h (1 Bft) SW 233 ° 0 min 0,000 mm 0,0 UV-I 0 W/m² 9,6 °C 13,2 °C 6,4 km/h (2 Bft)
02.07.2017 00:41 13,2 °C 13,2 °C 80 % 1015,2 hPa 0,0 mm 2,7 km/h (1 Bft) SW 234 ° 0 min 0,000 mm 0,0 UV-I 0 W/m² 9,8 °C 13,2 °C 4,8 km/h (1 Bft)
02.07.2017 00:42 13,2 °C 13,2 °C 80 % 1015,2 hPa 0,0 mm 3,0 km/h (1 Bft) W-NW 297 ° 0 min 0,000 mm 0,0 UV-I 0 W/m² 9,8 °C 13,2 °C 4,8 km/h (1 Bft)
02.07.2017 00:43 13,2 °C 13,2 °C 80 % 1015,2 hPa 0,0 mm 7,0 km/h (2 Bft) W-SW 258 ° 0 min 0,000 mm 0,0 UV-I 0 W/m² 9,8 °C 13,2 °C 11,3 km/h (2 Bft)
02.07.2017 00:44 13,2 °C 13,2 °C 80 % 1015,2 hPa 0,0 mm 5,0 km/h (1 Bft) W 269 ° 0 min 0,000 mm 0,0 UV-I 0 W/m² 9,8 °C 13,2 °C 8,0 km/h (2 Bft)
02.07.2017 00:45 13,2 °C 13,2 °C 80 % 1015,2 hPa 0,0 mm 5,2 km/h (1 Bft) W 275 ° 0 min 0,000 mm 0,0 UV-I 0 W/m² 9,8 °C 13,2 °C 11,3 km/h (2 Bft)
02.07.2017 00:46 13,1 °C 13,2 °C 80 % 1015,1 hPa 0,0 mm 3,9 km/h (1 Bft) S-SW 205 ° 0 min 0,000 mm 0,0 UV-I 0 W/m² 9,7 °C 13,1 °C 6,4 km/h (2 Bft)
02.07.2017 00:47 13,1 °C 13,2 °C 81 % 1015,2 hPa 0,0 mm 2,8 km/h (1 Bft) W 261 ° 0 min 0,000 mm 0,0 UV-I 0 W/m² 9,9 °C 13,1 °C 11,3 km/h (2 Bft)
02.07.2017 00:48 13,1 °C 13,1 °C 80 % 1015,2 hPa 0,0 mm 5,2 km/h (1 Bft) W 280 ° 0 min 0,000 mm 0,0 UV-I 0 W/m² 9,7 °C 13,1 °C 9,7 km/h (2 Bft)
02.07.2017 00:49 13,1 °C 13,1 °C 80 % 1015,2 hPa 0,0 mm 4,3 km/h (1 Bft) W 281 ° 0 min 0,000 mm 0,0 UV-I 0 W/m² 9,7 °C 13,1 °C 9,7 km/h (2 Bft)
02.07.2017 00:50 13,1 °C 13,1 °C 81 % 1015,2 hPa 0,0 mm 6,0 km/h (2 Bft) W-NW 296 ° 0 min 0,000 mm 0,0 UV-I 0 W/m² 9,9 °C 13,1 °C 9,7 km/h (2 Bft)
02.07.2017 00:51 13,1 °C 13,1 °C 81 % 1015,1 hPa 0,0 mm 7,5 km/h (2 Bft) W-SW 240 ° 0 min 0,000 mm 0,0 UV-I 0 W/m² 9,9 °C 13,1 °C 14,5 km/h (3 Bft)
02.07.2017 00:52 13,1 °C 13,1 °C 81 % 1015,2 hPa 0,0 mm 5,9 km/h (2 Bft) SW 214 ° 0 min 0,000 mm 0,0 UV-I 0 W/m² 9,9 °C 13,1 °C 11,3 km/h (2 Bft)
02.07.2017 00:53 13,1 °C 13,1 °C 81 % 1015,2 hPa 0,0 mm 4,0 km/h (1 Bft) W-SW 240 ° 0 min 0,000 mm 0,0 UV-I 0 W/m² 9,9 °C 13,1 °C 8,0 km/h (2 Bft)
02.07.2017 00:54 13,0 °C 13,1 °C 81 % 1015,2 hPa 0,0 mm 5,9 km/h (2 Bft) W 273 ° 0 min 0,000 mm 0,0 UV-I 0 W/m² 9,8 °C 13,0 °C 9,7 km/h (2 Bft)
02.07.2017 00:55 12,9 °C 13,0 °C 82 % 1015,2 hPa 0,0 mm 4,7 km/h (1 Bft) W 260 ° 0 min 0,000 mm 0,0 UV-I 0 W/m² 9,9 °C 12,9 °C 9,7 km/h (2 Bft)
02.07.2017 00:56 12,9 °C 13,0 °C 82 % 1015,2 hPa 0,0 mm 6,8 km/h (2 Bft) W-SW 250 ° 0 min 0,000 mm 0,0 UV-I 0 W/m² 9,9 °C 12,9 °C 11,3 km/h (2 Bft)
02.07.2017 00:57 12,9 °C 12,9 °C 82 % 1015,2 hPa 0,0 mm 4,5 km/h (1 Bft) W 265 ° 0 min 0,000 mm 0,0 UV-I 0 W/m² 9,9 °C 12,9 °C 9,7 km/h (2 Bft)
02.07.2017 00:58 12,8 °C 12,9 °C 83 % 1015,2 hPa 0,0 mm 1,4 km/h (1 Bft) W 265 ° 0 min 0,000 mm 0,0 UV-I 0 W/m² 10,0 °C 12,8 °C 3,2 km/h (1 Bft)
02.07.2017 00:59 12,8 °C 12,8 °C 83 % 1015,1 hPa 0,0 mm 1,5 km/h (1 Bft) W-SW 242 ° 0 min 0,000 mm 0,0 UV-I 0 W/m² 10,0 °C 12,8 °C 4,8 km/h (1 Bft)
02.07.2017 01:00 12,8 °C 12,8 °C 83 % 1015,2 hPa 0,0 mm 2,3 km/h (1 Bft) W-SW 241 ° 0 min 0,000 mm 0,0 UV-I 0 W/m² 10,0 °C 12,8 °C 4,8 km/h (1 Bft)
02.07.2017 01:01 12,7 °C 12,8 °C 83 % 1015,1 hPa 0,0 mm 2,8 km/h (1 Bft) W-NW 286 ° 0 min 0,025 mm 0,0 UV-I 0 W/m² 9,9 °C 12,7 °C 9,7 km/h (2 Bft)
02.07.2017 01:02 12,7 °C 12,7 °C 84 % 1015,2 hPa 0,0 mm 3,8 km/h (1 Bft) W-SW 243 ° 0 min 0,000 mm 0,0 UV-I 0 W/m² 10,1 °C 12,7 °C 11,3 km/h (2 Bft)
02.07.2017 01:03 12,7 °C 12,7 °C 84 % 1015,1 hPa 0,0 mm 4,8 km/h (1 Bft) SW 229 ° 0 min 0,000 mm 0,0 UV-I 0 W/m² 10,1 °C 12,7 °C 11,3 km/h (2 Bft)
02.07.2017 01:04 12,6 °C 12,7 °C 84 % 1015,1 hPa 0,0 mm 3,2 km/h (1 Bft) W-SW 256 ° 0 min 0,000 mm 0,0 UV-I 0 W/m² 10,0 °C 12,6 °C 6,4 km/h (2 Bft)
02.07.2017 01:05 12,6 °C 12,6 °C 84 % 1015,1 hPa 0,0 mm 0,5 km/h (0 Bft) W-SW 256 ° 0 min 0,000 mm 0,0 UV-I 0 W/m² 10,0 °C 12,6 °C 1,6 km/h (1 Bft)
02.07.2017 01:06 12,6 °C 12,6 °C 84 % 1015,1 hPa 0,0 mm 1,8 km/h (1 Bft) W 259 ° 0 min 0,000 mm 0,0 UV-I 0 W/m² 10,0 °C 12,6 °C 4,8 km/h (1 Bft)
02.07.2017 01:07 12,6 °C 12,6 °C 84 % 1015,1 hPa 0,0 mm 0,9 km/h (0 Bft) W-SW 258 ° 0 min 0,000 mm 0,0 UV-I 0 W/m² 10,0 °C 12,6 °C 3,2 km/h (1 Bft)
02.07.2017 01:08 12,5 °C 12,6 °C 84 % 1015,0 hPa 0,0 mm 1,3 km/h (1 Bft) W-SW 252 ° 0 min 0,000 mm 0,0 UV-I 0 W/m² 9,9 °C 12,5 °C 6,4 km/h (2 Bft)
02.07.2017 01:09 12,5 °C 12,5 °C 84 % 1015,0 hPa 0,0 mm 2,0 km/h (1 Bft) W 264 ° 0 min 0,000 mm 0,0 UV-I 0 W/m² 9,9 °C 12,5 °C 4,8 km/h (1 Bft)
02.07.2017 01:10 12,5 °C 12,5 °C 85 % 1015,0 hPa 0,0 mm 3,5 km/h (1 Bft) W 273 ° 0 min 0,000 mm 0,0 UV-I 0 W/m² 10,0 °C 12,5 °C 4,8 km/h (1 Bft)
02.07.2017 01:11 12,4 °C 12,5 °C 85 % 1015,0 hPa 0,0 mm 4,0 km/h (1 Bft) W 279 ° 0 min 0,000 mm 0,0 UV-I 0 W/m² 9,9 °C 12,4 °C 9,7 km/h (2 Bft)
02.07.2017 01:12 12,4 °C 12,4 °C 85 % 1015,0 hPa 0,0 mm 4,4 km/h (1 Bft) W 262 ° 0 min 0,000 mm 0,0 UV-I 0 W/m² 9,9 °C 12,4 °C 6,4 km/h (2 Bft)
02.07.2017 01:13 12,4 °C 12,4 °C 85 % 1015,0 hPa 0,0 mm 4,8 km/h (1 Bft) W-SW 243 ° 0 min 0,000 mm 0,0 UV-I 0 W/m² 9,9 °C 12,4 °C 9,7 km/h (2 Bft)
02.07.2017 01:14 12,4 °C 12,4 °C 85 % 1015,0 hPa 0,0 mm 5,4 km/h (1 Bft) W 267 ° 0 min 0,000 mm 0,0 UV-I 0 W/m² 9,9 °C 12,4 °C 11,3 km/h (2 Bft)
02.07.2017 01:15 12,4 °C 12,4 °C 85 % 1015,0 hPa 0,0 mm 4,9 km/h (1 Bft) W-SW 248 ° 0 min 0,000 mm 0,0 UV-I 0 W/m² 9,9 °C 12,4 °C 9,7 km/h (2 Bft)
02.07.2017 01:16 12,4 °C 12,4 °C 86 % 1015,0 hPa 0,0 mm 3,8 km/h (1 Bft) W-NW 295 ° 0 min 0,000 mm 0,0 UV-I 0 W/m² 10,1 °C 12,4 °C 6,4 km/h (2 Bft)
02.07.2017 01:17 12,4 °C 12,4 °C 86 % 1015,1 hPa 0,0 mm 4,4 km/h (1 Bft) W 261 ° 0 min 0,000 mm 0,0 UV-I 0 W/m² 10,1 °C 12,4 °C 8,0 km/h (2 Bft)
02.07.2017 01:18 12,4 °C 12,4 °C 86 % 1015,1 hPa 0,0 mm 4,1 km/h (1 Bft) W-NW 288 ° 0 min 0,000 mm 0,0 UV-I 0 W/m² 10,1 °C 12,4 °C 6,4 km/h (2 Bft)
02.07.2017 01:19 12,4 °C 12,4 °C 86 % 1015,1 hPa 0,0 mm 3,9 km/h (1 Bft) W 265 ° 0 min 0,000 mm 0,0 UV-I 0 W/m² 10,1 °C 12,4 °C 6,4 km/h (2 Bft)
02.07.2017 01:20 12,4 °C 12,4 °C 86 % 1015,1 hPa 0,0 mm 6,2 km/h (2 Bft) W 269 ° 0 min 0,000 mm 0,0 UV-I 0 W/m² 10,1 °C 12,4 °C 11,3 km/h (2 Bft)
02.07.2017 01:21 12,3 °C 12,4 °C 86 % 1015,1 hPa 0,0 mm 1,9 km/h (1 Bft) W 269 ° 0 min 0,000 mm 0,0 UV-I 0 W/m² 10,0 °C 12,3 °C 3,2 km/h (1 Bft)
02.07.2017 01:22 12,3 °C 12,3 °C 86 % 1015,1 hPa 0,0 mm 3,4 km/h (1 Bft) W 269 ° 0 min 0,000 mm 0,0 UV-I 0 W/m² 10,0 °C 12,3 °C 4,8 km/h (1 Bft)
02.07.2017 01:23 12,3 °C 12,3 °C 86 % 1015,1 hPa 0,0 mm 2,6 km/h (1 Bft) W 269 ° 0 min 0,000 mm 0,0 UV-I 0 W/m² 10,0 °C 12,3 °C 3,2 km/h (1 Bft)
02.07.2017 01:24 12,3 °C 12,3 °C 86 % 1015,1 hPa 0,0 mm 1,1 km/h (1 Bft) W 269 ° 0 min 0,000 mm 0,0 UV-I 0 W/m² 10,0 °C 12,3 °C 3,2 km/h (1 Bft)
02.07.2017 01:25 12,3 °C 12,3 °C 86 % 1015,1 hPa 0,0 mm 4,6 km/h (1 Bft) W-SW 255 ° 0 min 0,000 mm 0,0 UV-I 0 W/m² 10,0 °C 12,3 °C 8,0 km/h (2 Bft)
02.07.2017 01:26 12,3 °C 12,3 °C 87 % 1015,1 hPa 0,0 mm 1,6 km/h (1 Bft) W-SW 255 ° 0 min 0,000 mm 0,0 UV-I 0 W/m² 10,2 °C 12,3 °C 3,2 km/h (1 Bft)
02.07.2017 01:27 12,2 °C 12,3 °C 86 % 1015,0 hPa 0,0 mm 0,9 km/h (0 Bft) W 270 ° 0 min 0,000 mm 0,0 UV-I 0 W/m² 9,9 °C 12,2 °C 4,8 km/h (1 Bft)
02.07.2017 01:28 12,3 °C 12,3 °C 86 % 1015,0 hPa 0,0 mm 2,3 km/h (1 Bft) W 270 ° 0 min 0,000 mm 0,0 UV-I 0 W/m² 10,0 °C 12,3 °C 4,8 km/h (1 Bft)
02.07.2017 01:29 12,2 °C 12,3 °C 86 % 1015,0 hPa 0,0 mm 3,9 km/h (1 Bft) W-SW 241 ° 0 min 0,000 mm 0,0 UV-I 0 W/m² 9,9 °C 12,2 °C 6,4 km/h (2 Bft)
02.07.2017 01:30 12,2 °C 12,3 °C 86 % 1014,9 hPa 0,0 mm 5,2 km/h (1 Bft) S 180 ° 0 min 0,000 mm 0,0 UV-I 0 W/m² 9,9 °C 12,2 °C 9,7 km/h (2 Bft)
02.07.2017 01:31 12,3 °C 12,3 °C 85 % 1015,0 hPa 0,0 mm 2,3 km/h (1 Bft) S 191 ° 0 min 0,000 mm 0,0 UV-I 0 W/m² 9,9 °C 12,3 °C 6,4 km/h (2 Bft)
02.07.2017 01:32 12,3 °C 12,3 °C 85 % 1015,0 hPa 0,0 mm 3,5 km/h (1 Bft) W 261 ° 0 min 0,000 mm 0,0 UV-I 0 W/m² 9,9 °C 12,3 °C 4,8 km/h (1 Bft)
02.07.2017 01:33 12,3 °C 12,3 °C 85 % 1014,9 hPa 0,0 mm 2,0 km/h (1 Bft) W 261 ° 0 min 0,000 mm 0,0 UV-I 0 W/m² 9,9 °C 12,3 °C 3,2 km/h (1 Bft)
02.07.2017 01:34 12,3 °C 12,4 °C 85 % 1014,9 hPa 0,0 mm 3,3 km/h (1 Bft) W-SW 243 ° 0 min 0,000 mm 0,0 UV-I 0 W/m² 9,9 °C 12,3 °C 6,4 km/h (2 Bft)
02.07.2017 01:35 12,4 °C 12,4 °C 85 % 1014,9 hPa 0,0 mm 7,5 km/h (2 Bft) W-SW 248 ° 0 min 0,000 mm 0,0 UV-I 0 W/m² 9,9 °C 12,4 °C 11,3 km/h (2 Bft)
02.07.2017 01:36 12,4 °C 12,4 °C 85 % 1014,9 hPa 0,0 mm 6,6 km/h (2 Bft) W-SW 250 ° 0 min 0,000 mm 0,0 UV-I 0 W/m² 9,9 °C 12,4 °C 11,3 km/h (2 Bft)
02.07.2017 01:37 12,4 °C 12,4 °C 85 % 1014,9 hPa 0,0 mm 5,4 km/h (1 Bft) W 261 ° 0 min 0,000 mm 0,0 UV-I 0 W/m² 9,9 °C 12,4 °C 8,0 km/h (2 Bft)
02.07.2017 01:38 12,4 °C 12,4 °C 85 % 1014,9 hPa 0,0 mm 4,3 km/h (1 Bft) S-SW 213 ° 0 min 0,000 mm 0,0 UV-I 0 W/m² 9,9 °C 12,4 °C 6,4 km/h (2 Bft)
02.07.2017 01:39 12,4 °C 12,4 °C 84 % 1014,9 hPa 0,0 mm 3,4 km/h (1 Bft) W-SW 244 ° 0 min 0,000 mm 0,0 UV-I 0 W/m² 9,8 °C 12,4 °C 6,4 km/h (2 Bft)
02.07.2017 01:40 12,4 °C 12,4 °C 85 % 1014,9 hPa 0,0 mm 1,9 km/h (1 Bft) W-SW 244 ° 0 min 0,000 mm 0,0 UV-I 0 W/m² 9,9 °C 12,4 °C 3,2 km/h (1 Bft)
02.07.2017 01:41 12,4 °C 12,4 °C 85 % 1014,9 hPa 0,0 mm 0,4 km/h (0 Bft) W-SW 244 ° 0 min 0,000 mm 0,0 UV-I 0 W/m² 9,9 °C 12,4 °C 1,6 km/h (1 Bft)
02.07.2017 01:42 12,4 °C 12,4 °C 86 % 1014,9 hPa 0,0 mm 3,4 km/h (1 Bft) W-SW 256 ° 0 min 0,000 mm 0,0 UV-I 0 W/m² 10,1 °C 12,4 °C 6,4 km/h (2 Bft)
02.07.2017 01:43 12,4 °C 12,4 °C 86 % 1014,9 hPa 0,0 mm 4,4 km/h (1 Bft) W-SW 242 ° 0 min 0,000 mm 0,0 UV-I 0 W/m² 10,1 °C 12,4 °C 9,7 km/h (2 Bft)
02.07.2017 01:44 12,4 °C 12,4 °C 85 % 1014,9 hPa 0,0 mm 2,7 km/h (1 Bft) W 277 ° 0 min 0,000 mm 0,0 UV-I 0 W/m² 9,9 °C 12,4 °C 4,8 km/h (1 Bft)
02.07.2017 01:45 12,4 °C 12,4 °C 85 % 1014,9 hPa 0,0 mm 3,1 km/h (1 Bft) W 263 ° 0 min 0,000 mm 0,0 UV-I 0 W/m² 9,9 °C 12,4 °C 4,8 km/h (1 Bft)
02.07.2017 01:46 12,4 °C 12,4 °C 85 % 1014,9 hPa 0,0 mm 5,6 km/h (1 Bft) W 281 ° 0 min 0,000 mm 0,0 UV-I 0 W/m² 9,9 °C 12,4 °C 11,3 km/h (2 Bft)
02.07.2017 01:47 12,4 °C 12,4 °C 85 % 1014,9 hPa 0,0 mm 4,5 km/h (1 Bft) W 263 ° 0 min 0,000 mm 0,0 UV-I 0 W/m² 9,9 °C 12,4 °C 6,4 km/h (2 Bft)
02.07.2017 01:48 12,4 °C 12,4 °C 85 % 1014,9 hPa 0,0 mm 3,9 km/h (1 Bft) W-SW 244 ° 0 min 0,000 mm 0,0 UV-I 0 W/m² 9,9 °C 12,4 °C 6,4 km/h (2 Bft)
02.07.2017 01:49 12,4 °C 12,4 °C 85 % 1014,9 hPa 0,0 mm 3,6 km/h (1 Bft) W 269 ° 0 min 0,000 mm 0,0 UV-I 0 W/m² 9,9 °C 12,4 °C 6,4 km/h (2 Bft)
02.07.2017 01:50 12,4 °C 12,4 °C 86 % 1015,0 hPa 0,0 mm 11,5 km/h (2 Bft) W-NW 290 ° 0 min 0,000 mm 0,0 UV-I 0 W/m² 10,1 °C 12,4 °C 17,7 km/h (3 Bft)
02.07.2017 01:51 12,4 °C 12,4 °C 86 % 1015,0 hPa 0,0 mm 7,5 km/h (2 Bft) W-SW 250 ° 0 min 0,000 mm 0,0 UV-I 0 W/m² 10,1 °C 12,4 °C 11,3 km/h (2 Bft)
02.07.2017 01:52 12,4 °C 12,4 °C 86 % 1015,0 hPa 0,0 mm 6,5 km/h (2 Bft) W 278 ° 0 min 0,000 mm 0,0 UV-I 0 W/m² 10,1 °C 12,4 °C 11,3 km/h (2 Bft)
02.07.2017 01:53 12,4 °C 12,4 °C 86 % 1015,0 hPa 0,0 mm 5,3 km/h (1 Bft) W 264 ° 0 min 0,000 mm 0,0 UV-I 0 W/m² 10,1 °C 12,4 °C 11,3 km/h (2 Bft)
02.07.2017 01:54 12,4 °C 12,4 °C 86 % 1015,0 hPa 0,0 mm 7,8 km/h (2 Bft) W 259 ° 0 min 0,000 mm 0,0 UV-I 0 W/m² 10,1 °C 12,4 °C 12,9 km/h (3 Bft)
02.07.2017 01:55 12,4 °C 12,4 °C 85 % 1015,0 hPa 0,0 mm 3,4 km/h (1 Bft) W 267 ° 0 min 0,000 mm 0,0 UV-I 0 W/m² 9,9 °C 12,4 °C 6,4 km/h (2 Bft)
02.07.2017 01:56 12,4 °C 12,4 °C 85 % 1015,0 hPa 0,0 mm 4,8 km/h (1 Bft) W 272 ° 0 min 0,000 mm 0,0 UV-I 0 W/m² 9,9 °C 12,4 °C 9,7 km/h (2 Bft)
02.07.2017 01:57 12,5 °C 12,5 °C 85 % 1015,1 hPa 0,0 mm 4,8 km/h (1 Bft) W 264 ° 0 min 0,000 mm 0,0 UV-I 0 W/m² 10,0 °C 12,5 °C 6,4 km/h (2 Bft)
02.07.2017 01:58 12,4 °C 12,5 °C 85 % 1015,0 hPa 0,0 mm 2,4 km/h (1 Bft) W 273 ° 0 min 0,000 mm 0,0 UV-I 0 W/m² 9,9 °C 12,4 °C 4,8 km/h (1 Bft)
02.07.2017 01:59 12,5 °C 12,5 °C 85 % 1015,1 hPa 0,0 mm 4,7 km/h (1 Bft) W 269 ° 0 min 0,000 mm 0,0 UV-I 0 W/m² 10,0 °C 12,5 °C 9,7 km/h (2 Bft)
02.07.2017 02:00 12,5 °C 12,6 °C 85 % 1015,1 hPa 0,0 mm 7,4 km/h (2 Bft) W 272 ° 0 min 0,000 mm 0,0 UV-I 0 W/m² 10,0 °C 12,5 °C 11,3 km/h (2 Bft)
02.07.2017 02:01 12,6 °C 12,6 °C 86 % 1015,1 hPa 0,0 mm 4,8 km/h (1 Bft) W 274 ° 0 min 0,026 mm 0,0 UV-I 0 W/m² 10,3 °C 12,6 °C 8,0 km/h (2 Bft)
02.07.2017 02:02 12,6 °C 12,6 °C 85 % 1015,1 hPa 0,0 mm 6,8 km/h (2 Bft) W 259 ° 0 min 0,000 mm 0,0 UV-I 0 W/m² 10,1 °C 12,6 °C 11,3 km/h (2 Bft)
02.07.2017 02:03 12,6 °C 12,6 °C 85 % 1015,1 hPa 0,0 mm 8,4 km/h (2 Bft) W 270 ° 0 min 0,000 mm 0,0 UV-I 0 W/m² 10,1 °C 12,6 °C 12,9 km/h (3 Bft)
02.07.2017 02:04 12,6 °C 12,6 °C 86 % 1015,1 hPa 0,0 mm 8,0 km/h (2 Bft) W 263 ° 0 min 0,000 mm 0,0 UV-I 0 W/m² 10,3 °C 12,6 °C 11,3 km/h (2 Bft)
02.07.2017 02:05 12,6 °C 12,6 °C 85 % 1015,1 hPa 0,0 mm 2,7 km/h (1 Bft) W-SW 251 ° 0 min 0,000 mm 0,0 UV-I 0 W/m² 10,1 °C 12,6 °C 6,4 km/h (2 Bft)
02.07.2017 02:06 12,6 °C 12,6 °C 85 % 1015,1 hPa 0,0 mm 5,4 km/h (1 Bft) W 266 ° 0 min 0,000 mm 0,0 UV-I 0 W/m² 10,1 °C 12,6 °C 9,7 km/h (2 Bft)
02.07.2017 02:07 12,6 °C 12,6 °C 85 % 1015,1 hPa 0,0 mm 4,4 km/h (1 Bft) W 275 ° 0 min 0,000 mm 0,0 UV-I 0 W/m² 10,1 °C 12,6 °C 8,0 km/h (2 Bft)
02.07.2017 02:08 12,6 °C 12,6 °C 85 % 1015,1 hPa 0,0 mm 4,8 km/h (1 Bft) W-SW 248 ° 0 min 0,000 mm 0,0 UV-I 0 W/m² 10,1 °C 12,6 °C 8,0 km/h (2 Bft)
02.07.2017 02:09 12,6 °C 12,6 °C 85 % 1015,1 hPa 0,0 mm 6,2 km/h (2 Bft) W 261 ° 0 min 0,000 mm 0,0 UV-I 0 W/m² 10,1 °C 12,6 °C 11,3 km/h (2 Bft)
02.07.2017 02:10 12,6 °C 12,6 °C 85 % 1015,1 hPa 0,0 mm 6,2 km/h (2 Bft) W-NW 296 ° 0 min 0,000 mm 0,0 UV-I 0 W/m² 10,1 °C 12,6 °C 9,7 km/h (2 Bft)
02.07.2017 02:11 12,6 °C 12,7 °C 85 % 1015,1 hPa 0,0 mm 9,9 km/h (2 Bft) W 265 ° 0 min 0,000 mm 0,0 UV-I 0 W/m² 10,1 °C 12,6 °C 16,1 km/h (3 Bft)
02.07.2017 02:12 12,6 °C 12,7 °C 85 % 1015,1 hPa 0,0 mm 12,1 km/h (2 Bft) W-NW 299 ° 0 min 0,000 mm 0,0 UV-I 0 W/m² 10,1 °C 12,6 °C 17,7 km/h (3 Bft)
02.07.2017 02:13 12,7 °C 12,7 °C 85 % 1015,1 hPa 0,0 mm 12,1 km/h (2 Bft) W 271 ° 0 min 0,000 mm 0,0 UV-I 0 W/m² 10,2 °C 12,7 °C 17,7 km/h (3 Bft)
02.07.2017 02:14 12,7 °C 12,7 °C 85 % 1015,1 hPa 0,0 mm 12,0 km/h (2 Bft) W 281 ° 0 min 0,000 mm 0,0 UV-I 0 W/m² 10,2 °C 12,7 °C 17,7 km/h (3 Bft)
02.07.2017 02:15 12,7 °C 12,7 °C 85 % 1015,1 hPa 0,0 mm 6,0 km/h (2 Bft) W-NW 302 ° 0 min 0,000 mm 0,0 UV-I 0 W/m² 10,2 °C 12,7 °C 9,7 km/h (2 Bft)
02.07.2017 02:16 12,7 °C 12,7 °C 85 % 1015,1 hPa 0,0 mm 7,9 km/h (2 Bft) NW 305 ° 0 min 0,000 mm 0,0 UV-I 0 W/m² 10,2 °C 12,7 °C 11,3 km/h (2 Bft)
02.07.2017 02:17 12,6 °C 12,7 °C 85 % 1015,1 hPa 0,0 mm 6,6 km/h (2 Bft) NW 323 ° 0 min 0,000 mm 0,0 UV-I 0 W/m² 10,1 °C 12,6 °C 11,3 km/h (2 Bft)
02.07.2017 02:18 12,6 °C 12,7 °C 85 % 1015,1 hPa 0,0 mm 5,8 km/h (2 Bft) W 273 ° 0 min 0,000 mm 0,0 UV-I 0 W/m² 10,1 °C 12,6 °C 11,3 km/h (2 Bft)
02.07.2017 02:19 12,6 °C 12,6 °C 85 % 1015,1 hPa 0,0 mm 10,8 km/h (2 Bft) W 277 ° 0 min 0,000 mm 0,0 UV-I 0 W/m² 10,1 °C 12,6 °C 16,1 km/h (3 Bft)
02.07.2017 02:20 12,6 °C 12,6 °C 85 % 1015,2 hPa 0,0 mm 8,3 km/h (2 Bft) W 267 ° 0 min 0,000 mm 0,0 UV-I 0 W/m² 10,1 °C 12,6 °C 12,9 km/h (3 Bft)
02.07.2017 02:21 12,6 °C 12,6 °C 86 % 1015,2 hPa 0,0 mm 7,3 km/h (2 Bft) W-NW 296 ° 0 min 0,000 mm 0,0 UV-I 0 W/m² 10,3 °C 12,6 °C 14,5 km/h (3 Bft)
02.07.2017 02:22 12,6 °C 12,6 °C 86 % 1015,3 hPa 0,0 mm 12,5 km/h (3 Bft) W 262 ° 0 min 0,000 mm 0,0 UV-I 0 W/m² 10,3 °C 12,6 °C 17,7 km/h (3 Bft)
02.07.2017 02:23 12,6 °C 12,6 °C 86 % 1015,2 hPa 0,0 mm 8,9 km/h (2 Bft) W-NW 292 ° 0 min 0,000 mm 0,0 UV-I 0 W/m² 10,3 °C 12,6 °C 16,1 km/h (3 Bft)
02.07.2017 02:24 12,6 °C 12,6 °C 86 % 1015,2 hPa 0,0 mm 5,5 km/h (1 Bft) W 265 ° 0 min 0,000 mm 0,0 UV-I 0 W/m² 10,3 °C 12,6 °C 14,5 km/h (3 Bft)
02.07.2017 02:25 12,5 °C 12,6 °C 86 % 1015,2 hPa 0,0 mm 11,7 km/h (2 Bft) W 266 ° 0 min 0,000 mm 0,0 UV-I 0 W/m² 10,2 °C 12,5 °C 22,5 km/h (4 Bft)
02.07.2017 02:26 12,5 °C 12,5 °C 86 % 1015,2 hPa 0,0 mm 6,8 km/h (2 Bft) W 274 ° 0 min 0,000 mm 0,0 UV-I 0 W/m² 10,2 °C 12,5 °C 11,3 km/h (2 Bft)
02.07.2017 02:27 12,5 °C 12,5 °C 87 % 1015,3 hPa 0,0 mm 6,2 km/h (2 Bft) W-NW 289 ° 0 min 0,000 mm 0,0 UV-I 0 W/m² 10,4 °C 12,5 °C 11,3 km/h (2 Bft)
02.07.2017 02:28 12,5 °C 12,5 °C 87 % 1015,3 hPa 0,0 mm 11,5 km/h (2 Bft) NW 310 ° 0 min 0,000 mm 0,0 UV-I 0 W/m² 10,4 °C 12,5 °C 17,7 km/h (3 Bft)
02.07.2017 02:29 12,4 °C 12,5 °C 87 % 1015,3 hPa 0,0 mm 13,3 km/h (3 Bft) W-NW 288 ° 0 min 0,000 mm 0,0 UV-I 0 W/m² 10,3 °C 12,4 °C 17,7 km/h (3 Bft)
02.07.2017 02:30 12,4 °C 12,4 °C 87 % 1015,3 hPa 0,0 mm 7,4 km/h (2 Bft) W 281 ° 0 min 0,000 mm 0,0 UV-I 0 W/m² 10,3 °C 12,4 °C 12,9 km/h (3 Bft)
02.07.2017 02:31 12,4 °C 12,4 °C 87 % 1015,3 hPa 0,0 mm 8,0 km/h (2 Bft) W 279 ° 0 min 0,000 mm 0,0 UV-I 0 W/m² 10,3 °C 12,4 °C 14,5 km/h (3 Bft)
02.07.2017 02:32 12,4 °C 12,4 °C 87 % 1015,3 hPa 0,0 mm 10,5 km/h (2 Bft) W 260 ° 0 min 0,000 mm 0,0 UV-I 0 W/m² 10,3 °C 12,4 °C 14,5 km/h (3 Bft)
02.07.2017 02:33 12,4 °C 12,4 °C 88 % 1015,3 hPa 0,0 mm 9,5 km/h (2 Bft) W-SW 247 ° 0 min 0,000 mm 0,0 UV-I 0 W/m² 10,5 °C 12,4 °C 14,5 km/h (3 Bft)
02.07.2017 02:34 12,3 °C 12,4 °C 87 % 1015,4 hPa 0,0 mm 9,0 km/h (2 Bft) W 272 ° 0 min 0,000 mm 0,0 UV-I 0 W/m² 10,2 °C 12,3 °C 14,5 km/h (3 Bft)
02.07.2017 02:35 12,3 °C 12,3 °C 88 % 1015,4 hPa 0,0 mm 10,9 km/h (2 Bft) W-NW 285 ° 0 min 0,000 mm 0,0 UV-I 0 W/m² 10,4 °C 12,3 °C 17,7 km/h (3 Bft)
02.07.2017 02:36 12,3 °C 12,3 °C 88 % 1015,3 hPa 0,0 mm 15,5 km/h (3 Bft) W-NW 286 ° 0 min 0,000 mm 0,0 UV-I 0 W/m² 10,4 °C 12,3 °C 24,1 km/h (4 Bft)
02.07.2017 02:37 12,3 °C 12,3 °C 88 % 1015,4 hPa 0,0 mm 9,0 km/h (2 Bft) W 268 ° 0 min 0,000 mm 0,0 UV-I 0 W/m² 10,4 °C 12,3 °C 12,9 km/h (3 Bft)
02.07.2017 02:38 12,2 °C 12,3 °C 88 % 1015,4 hPa 0,0 mm 13,3 km/h (3 Bft) W-NW 296 ° 0 min 0,000 mm 0,0 UV-I 0 W/m² 10,3 °C 12,2 °C 19,3 km/h (3 Bft)
02.07.2017 02:39 12,2 °C 12,2 °C 88 % 1015,4 hPa 0,0 mm 12,4 km/h (3 Bft) SW 229 ° 0 min 0,000 mm 0,0 UV-I 0 W/m² 10,3 °C 12,2 °C 19,3 km/h (3 Bft)
02.07.2017 02:40 12,1 °C 12,2 °C 88 % 1015,4 hPa 0,0 mm 11,5 km/h (2 Bft) W-SW 258 ° 0 min 0,000 mm 0,0 UV-I 0 W/m² 10,2 °C 12,1 °C 19,3 km/h (3 Bft)
02.07.2017 02:41 12,1 °C 12,1 °C 88 % 1015,4 hPa 0,0 mm 11,3 km/h (2 Bft) W 269 ° 0 min 0,000 mm 0,0 UV-I 0 W/m² 10,2 °C 12,1 °C 19,3 km/h (3 Bft)
02.07.2017 02:42 11,9 °C 12,1 °C 89 % 1015,4 hPa 0,0 mm 13,3 km/h (3 Bft) W-NW 300 ° 0 min 0,000 mm 0,0 UV-I 0 W/m² 10,1 °C 11,9 °C 19,3 km/h (3 Bft)
02.07.2017 02:43 11,9 °C 12,0 °C 89 % 1015,4 hPa 0,0 mm 9,0 km/h (2 Bft) W-NW 286 ° 0 min 0,000 mm 0,0 UV-I 0 W/m² 10,1 °C 11,9 °C 14,5 km/h (3 Bft)
02.07.2017 02:44 11,9 °C 11,9 °C 89 % 1015,4 hPa 0,0 mm 3,0 km/h (1 Bft) W-NW 282 ° 0 min 0,000 mm 0,0 UV-I 0 W/m² 10,1 °C 11,9 °C 4,8 km/h (1 Bft)
02.07.2017 02:45 11,9 °C 11,9 °C 89 % 1015,4 hPa 0,0 mm 12,3 km/h (3 Bft) W-NW 283 ° 0 min 0,000 mm 0,0 UV-I 0 W/m² 10,1 °C 11,9 °C 16,1 km/h (3 Bft)
02.07.2017 02:46 11,8 °C 11,9 °C 89 % 1015,5 hPa 0,0 mm 11,1 km/h (2 Bft) W-NW 299 ° 0 min 0,000 mm 0,0 UV-I 0 W/m² 10,0 °C 11,8 °C 16,1 km/h (3 Bft)
02.07.2017 02:47 11,8 °C 11,8 °C 90 % 1015,4 hPa 0,0 mm 9,8 km/h (2 Bft) W-SW 250 ° 0 min 0,000 mm 0,0 UV-I 0 W/m² 10,2 °C 11,8 °C 14,5 km/h (3 Bft)
02.07.2017 02:48 11,8 °C 11,8 °C 90 % 1015,4 hPa 0,0 mm 8,5 km/h (2 Bft) W-SW 252 ° 0 min 0,000 mm 0,0 UV-I 0 W/m² 10,2 °C 11,8 °C 16,1 km/h (3 Bft)
02.07.2017 02:49 11,8 °C 11,8 °C 90 % 1015,4 hPa 0,0 mm 12,6 km/h (3 Bft) W-SW 251 ° 0 min 0,000 mm 0,0 UV-I 0 W/m² 10,2 °C 11,8 °C 19,3 km/h (3 Bft)
02.07.2017 02:50 11,8 °C 11,8 °C 90 % 1015,4 hPa 0,0 mm 8,7 km/h (2 Bft) W-SW 248 ° 0 min 0,000 mm 0,0 UV-I 0 W/m² 10,2 °C 11,8 °C 20,9 km/h (4 Bft)
02.07.2017 02:51 11,7 °C 11,8 °C 90 % 1015,4 hPa 0,0 mm 13,0 km/h (3 Bft) W 281 ° 0 min 0,000 mm 0,0 UV-I 0 W/m² 10,1 °C 11,7 °C 17,7 km/h (3 Bft)
02.07.2017 02:52 11,7 °C 11,8 °C 90 % 1015,5 hPa 0,0 mm 11,5 km/h (2 Bft) W 278 ° 0 min 0,000 mm 0,0 UV-I 0 W/m² 10,1 °C 11,7 °C 16,1 km/h (3 Bft)
02.07.2017 02:53 11,7 °C 11,7 °C 90 % 1015,4 hPa 0,0 mm 9,9 km/h (2 Bft) W-SW 257 ° 0 min 0,000 mm 0,0 UV-I 0 W/m² 10,1 °C 11,7 °C 14,5 km/h (3 Bft)
02.07.2017 02:54 11,7 °C 11,7 °C 90 % 1015,4 hPa 0,0 mm 7,8 km/h (2 Bft) W 279 ° 0 min 0,000 mm 0,0 UV-I 0 W/m² 10,1 °C 11,7 °C 12,9 km/h (3 Bft)
02.07.2017 02:55 11,7 °C 11,7 °C 90 % 1015,4 hPa 0,0 mm 9,7 km/h (2 Bft) W-SW 254 ° 0 min 0,000 mm 0,0 UV-I 0 W/m² 10,1 °C 11,7 °C 16,1 km/h (3 Bft)
02.07.2017 02:56 11,7 °C 11,7 °C 91 % 1015,4 hPa 0,2 mm 13,3 km/h (3 Bft) W-SW 258 ° 0 min 0,000 mm 0,0 UV-I 0 W/m² 10,3 °C 11,7 °C 19,3 km/h (3 Bft)
02.07.2017 02:57 11,7 °C 11,7 °C 90 % 1015,4 hPa 0,0 mm 14,6 km/h (3 Bft) SW 220 ° 0 min 0,000 mm 0,0 UV-I 0 W/m² 10,1 °C 11,7 °C 24,1 km/h (4 Bft)
02.07.2017 02:58 11,7 °C 11,7 °C 90 % 1015,4 hPa 0,0 mm 8,6 km/h (2 Bft) W 260 ° 0 min 0,000 mm 0,0 UV-I 0 W/m² 10,1 °C 11,7 °C 14,5 km/h (3 Bft)
02.07.2017 02:59 11,6 °C 11,7 °C 90 % 1015,4 hPa 0,0 mm 10,4 km/h (2 Bft) W 267 ° 0 min 0,000 mm 0,0 UV-I 0 W/m² 10,0 °C 11,6 °C 14,5 km/h (3 Bft)
02.07.2017 03:00 11,6 °C 11,6 °C 90 % 1015,4 hPa 0,0 mm 10,3 km/h (2 Bft) S 185 ° 0 min 0,025 mm 0,0 UV-I 0 W/m² 10,0 °C 11,6 °C 16,1 km/h (3 Bft)
02.07.2017 03:01 11,6 °C 11,7 °C 90 % 1015,4 hPa 0,0 mm 5,5 km/h (1 Bft) W-SW 242 ° 0 min 0,000 mm 0,0 UV-I 0 W/m² 10,0 °C 11,6 °C 11,3 km/h (2 Bft)
02.07.2017 03:02 11,6 °C 11,6 °C 90 % 1015,4 hPa 0,0 mm 9,4 km/h (2 Bft) W 270 ° 0 min 0,000 mm 0,0 UV-I 0 W/m² 10,0 °C 11,6 °C 12,9 km/h (3 Bft)
02.07.2017 03:03 11,6 °C 11,6 °C 90 % 1015,4 hPa 0,0 mm 6,8 km/h (2 Bft) W-SW 257 ° 0 min 0,000 mm 0,0 UV-I 0 W/m² 10,0 °C 11,6 °C 11,3 km/h (2 Bft)
02.07.2017 03:04 11,6 °C 11,6 °C 90 % 1015,4 hPa 0,0 mm 7,5 km/h (2 Bft) W 263 ° 0 min 0,000 mm 0,0 UV-I 0 W/m² 10,0 °C 11,6 °C 12,9 km/h (3 Bft)
02.07.2017 03:05 11,6 °C 11,6 °C 90 % 1015,4 hPa 0,0 mm 11,0 km/h (2 Bft) W-SW 250 ° 0 min 0,000 mm 0,0 UV-I 0 W/m² 10,0 °C 11,6 °C 17,7 km/h (3 Bft)
02.07.2017 03:06 11,6 °C 11,6 °C 90 % 1015,4 hPa 0,0 mm 6,7 km/h (2 Bft) SW 218 ° 0 min 0,000 mm 0,0 UV-I 0 W/m² 10,0 °C 11,6 °C 11,3 km/h (2 Bft)
02.07.2017 03:07 11,6 °C 11,6 °C 90 % 1015,3 hPa 0,0 mm 9,1 km/h (2 Bft) W 263 ° 0 min 0,000 mm 0,0 UV-I 0 W/m² 10,0 °C 11,6 °C 14,5 km/h (3 Bft)
02.07.2017 03:08 11,6 °C 11,6 °C 90 % 1015,4 hPa 0,0 mm 9,1 km/h (2 Bft) SW 217 ° 0 min 0,000 mm 0,0 UV-I 0 W/m² 10,0 °C 11,6 °C 14,5 km/h (3 Bft)
02.07.2017 03:09 11,6 °C 11,6 °C 90 % 1015,3 hPa 0,0 mm 6,7 km/h (2 Bft) W-SW 254 ° 0 min 0,000 mm 0,0 UV-I 0 W/m² 10,0 °C 11,6 °C 11,3 km/h (2 Bft)
02.07.2017 03:10 11,6 °C 11,6 °C 90 % 1015,3 hPa 0,0 mm 8,0 km/h (2 Bft) S-SW 200 ° 0 min 0,000 mm 0,0 UV-I 0 W/m² 10,0 °C 11,6 °C 12,9 km/h (3 Bft)
02.07.2017 03:11 11,6 °C 11,6 °C 90 % 1015,3 hPa 0,0 mm 2,9 km/h (1 Bft) SW 216 ° 0 min 0,000 mm 0,0 UV-I 0 W/m² 10,0 °C 11,6 °C 8,0 km/h (2 Bft)
02.07.2017 03:12 11,5 °C 11,6 °C 90 % 1015,3 hPa 0,0 mm 7,3 km/h (2 Bft) W 270 ° 0 min 0,000 mm 0,0 UV-I 0 W/m² 9,9 °C 11,5 °C 11,3 km/h (2 Bft)
02.07.2017 03:13 11,5 °C 11,6 °C 90 % 1015,2 hPa 0,0 mm 4,0 km/h (1 Bft) W 275 ° 0 min 0,000 mm 0,0 UV-I 0 W/m² 9,9 °C 11,5 °C 8,0 km/h (2 Bft)
02.07.2017 03:14 11,5 °C 11,6 °C 90 % 1015,2 hPa 0,0 mm 4,4 km/h (1 Bft) W 270 ° 0 min 0,000 mm 0,0 UV-I 0 W/m² 9,9 °C 11,5 °C 12,9 km/h (3 Bft)
02.07.2017 03:15 11,5 °C 11,5 °C 90 % 1015,2 hPa 0,0 mm 6,8 km/h (2 Bft) W 272 ° 0 min 0,000 mm 0,0 UV-I 0 W/m² 9,9 °C 11,5 °C 9,7 km/h (2 Bft)
02.07.2017 03:16 11,5 °C 11,5 °C 90 % 1015,2 hPa 0,0 mm 5,6 km/h (1 Bft) W 261 ° 0 min 0,000 mm 0,0 UV-I 0 W/m² 9,9 °C 11,5 °C 11,3 km/h (2 Bft)
02.07.2017 03:17 11,5 °C 11,5 °C 90 % 1015,2 hPa 0,0 mm 5,2 km/h (1 Bft) W-SW 253 ° 0 min 0,000 mm 0,0 UV-I 0 W/m² 9,9 °C 11,5 °C 11,3 km/h (2 Bft)
02.07.2017 03:18 11,5 °C 11,5 °C 90 % 1015,2 hPa 0,0 mm 6,4 km/h (2 Bft) W-SW 257 ° 0 min 0,000 mm 0,0 UV-I 0 W/m² 9,9 °C 11,5 °C 11,3 km/h (2 Bft)
02.07.2017 03:19 11,4 °C 11,5 °C 89 % 1015,2 hPa 0,0 mm 5,6 km/h (1 Bft) W-SW 256 ° 0 min 0,000 mm 0,0 UV-I 0 W/m² 9,7 °C 11,4 °C 9,7 km/h (2 Bft)
02.07.2017 03:20 11,4 °C 11,4 °C 89 % 1015,2 hPa 0,0 mm 6,6 km/h (2 Bft) W 270 ° 0 min 0,000 mm 0,0 UV-I 0 W/m² 9,7 °C 11,4 °C 11,3 km/h (2 Bft)
02.07.2017 03:21 11,4 °C 11,4 °C 90 % 1015,2 hPa 0,0 mm 6,0 km/h (2 Bft) W-SW 242 ° 0 min 0,000 mm 0,0 UV-I 0 W/m² 9,8 °C 11,4 °C 9,7 km/h (2 Bft)
02.07.2017 03:22 11,4 °C 11,5 °C 90 % 1015,2 hPa 0,0 mm 4,7 km/h (1 Bft) W-SW 249 ° 0 min 0,000 mm 0,0 UV-I 0 W/m² 9,8 °C 11,4 °C 8,0 km/h (2 Bft)
02.07.2017 03:23 11,4 °C 11,4 °C 90 % 1015,2 hPa 0,0 mm 4,8 km/h (1 Bft) W 266 ° 0 min 0,000 mm 0,0 UV-I 0 W/m² 9,8 °C 11,4 °C 11,3 km/h (2 Bft)
02.07.2017 03:24 11,4 °C 11,4 °C 90 % 1015,2 hPa 0,0 mm 9,7 km/h (2 Bft) W-NW 291 ° 0 min 0,000 mm 0,0 UV-I 0 W/m² 9,8 °C 11,4 °C 19,3 km/h (3 Bft)
02.07.2017 03:25 11,4 °C 11,4 °C 90 % 1015,2 hPa 0,0 mm 11,1 km/h (2 Bft) S-SW 210 ° 0 min 0,000 mm 0,0 UV-I 0 W/m² 9,8 °C 11,4 °C 16,1 km/h (3 Bft)
02.07.2017 03:26 11,4 °C 11,4 °C 90 % 1015,2 hPa 0,0 mm 2,5 km/h (1 Bft) W 263 ° 0 min 0,000 mm 0,0 UV-I 0 W/m² 9,8 °C 11,4 °C 4,8 km/h (1 Bft)
02.07.2017 03:27 11,4 °C 11,4 °C 90 % 1015,2 hPa 0,0 mm 6,4 km/h (2 Bft) W 265 ° 0 min 0,000 mm 0,0 UV-I 0 W/m² 9,8 °C 11,4 °C 11,3 km/h (2 Bft)
02.07.2017 03:28 11,3 °C 11,4 °C 90 % 1015,2 hPa 0,0 mm 5,4 km/h (1 Bft) W-SW 246 ° 0 min 0,000 mm 0,0 UV-I 0 W/m² 9,7 °C 11,3 °C 11,3 km/h (2 Bft)
02.07.2017 03:29 11,4 °C 11,4 °C 90 % 1015,2 hPa 0,0 mm 8,9 km/h (2 Bft) W 277 ° 0 min 0,000 mm 0,0 UV-I 0 W/m² 9,8 °C 11,4 °C 11,3 km/h (2 Bft)
02.07.2017 03:30 11,3 °C 11,4 °C 90 % 1015,2 hPa 0,0 mm 6,7 km/h (2 Bft) W 270 ° 0 min 0,000 mm 0,0 UV-I 0 W/m² 9,7 °C 11,3 °C 11,3 km/h (2 Bft)
02.07.2017 03:31 11,3 °C 11,4 °C 90 % 1015,2 hPa 0,0 mm 2,0 km/h (1 Bft) W 270 ° 0 min 0,000 mm 0,0 UV-I 0 W/m² 9,7 °C 11,3 °C 4,8 km/h (1 Bft)
02.07.2017 03:32 11,3 °C 11,3 °C 90 % 1015,1 hPa 0,0 mm 5,0 km/h (1 Bft) W-SW 251 ° 0 min 0,000 mm 0,0 UV-I 0 W/m² 9,7 °C 11,3 °C 9,7 km/h (2 Bft)
02.07.2017 03:33 11,3 °C 11,3 °C 90 % 1015,2 hPa 0,0 mm 4,5 km/h (1 Bft) W 272 ° 0 min 0,000 mm 0,0 UV-I 0 W/m² 9,7 °C 11,3 °C 8,0 km/h (2 Bft)
02.07.2017 03:34 11,3 °C 11,3 °C 90 % 1015,2 hPa 0,0 mm 1,9 km/h (1 Bft) W 273 ° 0 min 0,000 mm 0,0 UV-I 0 W/m² 9,7 °C 11,3 °C 4,8 km/h (1 Bft)
02.07.2017 03:35 11,3 °C 11,3 °C 90 % 1015,2 hPa 0,0 mm 1,3 km/h (1 Bft) W 273 ° 0 min 0,000 mm 0,0 UV-I 0 W/m² 9,7 °C 11,3 °C 3,2 km/h (1 Bft)
02.07.2017 03:36 11,3 °C 11,3 °C 90 % 1015,3 hPa 0,2 mm 5,6 km/h (1 Bft) W 273 ° 0 min 0,000 mm 0,0 UV-I 0 W/m² 9,7 °C 11,3 °C 12,9 km/h (3 Bft)
02.07.2017 03:37 11,3 °C 11,3 °C 91 % 1015,2 hPa 0,0 mm 3,8 km/h (1 Bft) W 272 ° 0 min 0,000 mm 0,0 UV-I 0 W/m² 9,9 °C 11,3 °C 6,4 km/h (2 Bft)
02.07.2017 03:38 11,3 °C 11,3 °C 91 % 1015,3 hPa 0,0 mm 2,4 km/h (1 Bft) SW 226 ° 0 min 0,000 mm 0,0 UV-I 0 W/m² 9,9 °C 11,3 °C 4,8 km/h (1 Bft)
02.07.2017 03:39 11,3 °C 11,3 °C 91 % 1015,2 hPa 0,0 mm 3,2 km/h (1 Bft) W-SW 252 ° 0 min 0,000 mm 0,0 UV-I 0 W/m² 9,9 °C 11,3 °C 4,8 km/h (1 Bft)
02.07.2017 03:40 11,3 °C 11,3 °C 91 % 1015,3 hPa 0,0 mm 2,1 km/h (1 Bft) W 267 ° 0 min 0,000 mm 0,0 UV-I 0 W/m² 9,9 °C 11,3 °C 4,8 km/h (1 Bft)
02.07.2017 03:41 11,3 °C 11,3 °C 91 % 1015,2 hPa 0,0 mm 2,6 km/h (1 Bft) W 267 ° 0 min 0,000 mm 0,0 UV-I 0 W/m² 9,9 °C 11,3 °C 4,8 km/h (1 Bft)
02.07.2017 03:42 11,3 °C 11,3 °C 91 % 1015,3 hPa 0,0 mm 10,0 km/h (2 Bft) W 264 ° 0 min 0,000 mm 0,0 UV-I 0 W/m² 9,9 °C 11,3 °C 14,5 km/h (3 Bft)
02.07.2017 03:43 11,3 °C 11,3 °C 91 % 1015,3 hPa 0,0 mm 4,2 km/h (1 Bft) W 263 ° 0 min 0,000 mm 0,0 UV-I 0 W/m² 9,9 °C 11,3 °C 6,4 km/h (2 Bft)
02.07.2017 03:44 11,3 °C 11,3 °C 91 % 1015,3 hPa 0,0 mm 3,0 km/h (1 Bft) W 263 ° 0 min 0,000 mm 0,0 UV-I 0 W/m² 9,9 °C 11,3 °C 4,8 km/h (1 Bft)
02.07.2017 03:45 11,3 °C 11,3 °C 91 % 1015,3 hPa 0,0 mm 2,8 km/h (1 Bft) W 273 ° 0 min 0,000 mm 0,0 UV-I 0 W/m² 9,9 °C 11,3 °C 6,4 km/h (2 Bft)
02.07.2017 03:46 11,3 °C 11,3 °C 91 % 1015,2 hPa 0,0 mm 3,8 km/h (1 Bft) W 277 ° 0 min 0,000 mm 0,0 UV-I 0 W/m² 9,9 °C 11,3 °C 4,8 km/h (1 Bft)
02.07.2017 03:47 11,3 °C 11,3 °C 91 % 1015,3 hPa 0,0 mm 3,3 km/h (1 Bft) SW 236 ° 0 min 0,000 mm 0,0 UV-I 0 W/m² 9,9 °C 11,3 °C 4,8 km/h (1 Bft)
02.07.2017 03:48 11,3 °C 11,3 °C 91 % 1015,3 hPa 0,0 mm 2,4 km/h (1 Bft) SW 236 ° 0 min 0,000 mm 0,0 UV-I 0 W/m² 9,9 °C 11,3 °C 4,8 km/h (1 Bft)
02.07.2017 03:49 11,3 °C 11,3 °C 91 % 1015,2 hPa 0,0 mm 0,6 km/h (0 Bft) SW 236 ° 0 min 0,000 mm 0,0 UV-I 0 W/m² 9,9 °C 11,3 °C 3,2 km/h (1 Bft)
02.07.2017 03:50 11,3 °C 11,3 °C 91 % 1015,3 hPa 0,0 mm 2,7 km/h (1 Bft) W-SW 252 ° 0 min 0,000 mm 0,0 UV-I 0 W/m² 9,9 °C 11,3 °C 4,8 km/h (1 Bft)
02.07.2017 03:51 11,3 °C 11,3 °C 91 % 1015,2 hPa 0,0 mm 5,1 km/h (1 Bft) W-NW 298 ° 0 min 0,000 mm 0,0 UV-I 0 W/m² 9,9 °C 11,3 °C 6,4 km/h (2 Bft)
02.07.2017 03:52 11,3 °C 11,4 °C 91 % 1015,3 hPa 0,0 mm 5,8 km/h (2 Bft) W 277 ° 0 min 0,000 mm 0,0 UV-I 0 W/m² 9,9 °C 11,3 °C 9,7 km/h (2 Bft)
02.07.2017 03:53 11,3 °C 11,3 °C 91 % 1015,3 hPa 0,0 mm 1,2 km/h (1 Bft) W 277 ° 0 min 0,000 mm 0,0 UV-I 0 W/m² 9,9 °C 11,3 °C 3,2 km/h (1 Bft)
02.07.2017 03:54 11,3 °C 11,3 °C 91 % 1015,3 hPa 0,0 mm 0,8 km/h (0 Bft) W 277 ° 0 min 0,000 mm 0,0 UV-I 0 W/m² 9,9 °C 11,3 °C 1,6 km/h (1 Bft)
02.07.2017 03:55 11,3 °C 11,3 °C 91 % 1015,3 hPa 0,0 mm 1,3 km/h (1 Bft) W 276 ° 0 min 0,000 mm 0,0 UV-I 0 W/m² 9,9 °C 11,3 °C 3,2 km/h (1 Bft)
02.07.2017 03:56 11,3 °C 11,3 °C 91 % 1015,2 hPa 0,0 mm 1,3 km/h (1 Bft) W 276 ° 0 min 0,000 mm 0,0 UV-I 0 W/m² 9,9 °C 11,3 °C 1,6 km/h (1 Bft)
02.07.2017 03:57 11,3 °C 11,3 °C 91 % 1015,2 hPa 0,0 mm 1,3 km/h (1 Bft) W 276 ° 0 min 0,000 mm 0,0 UV-I 0 W/m² 9,9 °C 11,3 °C 3,2 km/h (1 Bft)
02.07.2017 03:58 11,3 °C 11,3 °C 91 % 1015,2 hPa 0,0 mm 4,6 km/h (1 Bft) S-SO 150 ° 0 min 0,000 mm 0,0 UV-I 0 W/m² 9,9 °C 11,3 °C 6,4 km/h (2 Bft)
02.07.2017 03:59 11,3 °C 11,3 °C 91 % 1015,2 hPa 0,0 mm 3,1 km/h (1 Bft) W-SW 256 ° 0 min 0,000 mm 0,0 UV-I 0 W/m² 9,9 °C 11,3 °C 6,4 km/h (2 Bft)
02.07.2017 04:00 11,3 °C 11,3 °C 91 % 1015,2 hPa 0,0 mm 1,1 km/h (1 Bft) W-SW 256 ° 0 min 0,000 mm 0,0 UV-I 0 W/m² 9,9 °C 11,3 °C 3,2 km/h (1 Bft)
02.07.2017 04:02 11,3 °C 11,3 °C 91 % 1015,2 hPa 0,0 mm 4,6 km/h (1 Bft) W-SW 240 ° 0 min 0,000 mm 0,0 UV-I 0 W/m² 9,9 °C 11,3 °C 8,0 km/h (2 Bft)
02.07.2017 04:03 11,3 °C 11,3 °C 91 % 1015,2 hPa 0,0 mm 3,5 km/h (1 Bft) S-SW 201 ° 0 min 0,000 mm 0,0 UV-I 0 W/m² 9,9 °C 11,3 °C 6,4 km/h (2 Bft)
02.07.2017 04:04 11,3 °C 11,3 °C 91 % 1015,2 hPa 0,0 mm 2,7 km/h (1 Bft) S-SW 206 ° 0 min 0,000 mm 0,0 UV-I 0 W/m² 9,9 °C 11,3 °C 4,8 km/h (1 Bft)
02.07.2017 04:05 11,3 °C 11,3 °C 91 % 1015,2 hPa 0,0 mm 5,0 km/h (1 Bft) SW 234 ° 0 min 0,000 mm 0,0 UV-I 0 W/m² 9,9 °C 11,3 °C 9,7 km/h (2 Bft)
02.07.2017 04:06 11,3 °C 11,3 °C 91 % 1015,2 hPa 0,0 mm 4,0 km/h (1 Bft) SW 232 ° 0 min 0,000 mm 0,0 UV-I 0 W/m² 9,9 °C 11,3 °C 4,8 km/h (1 Bft)
02.07.2017 04:07 11,3 °C 11,3 °C 91 % 1015,2 hPa 0,0 mm 3,7 km/h (1 Bft) W-SW 248 ° 0 min 0,000 mm 0,0 UV-I 0 W/m² 9,9 °C 11,3 °C 4,8 km/h (1 Bft)
02.07.2017 04:08 11,3 °C 11,4 °C 91 % 1015,2 hPa 0,0 mm 1,5 km/h (1 Bft) W-SW 248 ° 0 min 0,000 mm 0,0 UV-I 0 W/m² 9,9 °C 11,3 °C 4,8 km/h (1 Bft)
02.07.2017 04:09 11,3 °C 11,3 °C 91 % 1015,2 hPa 0,0 mm 1,1 km/h (1 Bft) SW 217 ° 0 min 0,000 mm 0,0 UV-I 0 W/m² 9,9 °C 11,3 °C 3,2 km/h (1 Bft)
02.07.2017 04:10 11,3 °C 11,3 °C 91 % 1015,2 hPa 0,0 mm 1,5 km/h (1 Bft) SW 217 ° 0 min 0,000 mm 0,0 UV-I 0 W/m² 9,9 °C 11,3 °C 3,2 km/h (1 Bft)
02.07.2017 04:11 11,3 °C 11,3 °C 91 % 1015,1 hPa 0,0 mm 2,8 km/h (1 Bft) W-SW 237 ° 0 min 0,000 mm 0,0 UV-I 0 W/m² 9,9 °C 11,3 °C 6,4 km/h (2 Bft)
02.07.2017 04:12 11,3 °C 11,3 °C 91 % 1015,2 hPa 0,0 mm 4,0 km/h (1 Bft) W 264 ° 0 min 0,000 mm 0,0 UV-I 0 W/m² 9,9 °C 11,3 °C 9,7 km/h (2 Bft)
02.07.2017 04:13 11,3 °C 11,3 °C 91 % 1015,1 hPa 0,0 mm 5,3 km/h (1 Bft) W 259 ° 0 min 0,000 mm 0,0 UV-I 0 W/m² 9,9 °C 11,3 °C 9,7 km/h (2 Bft)
02.07.2017 04:14 11,3 °C 11,3 °C 91 % 1015,1 hPa 0,0 mm 2,7 km/h (1 Bft) W 259 ° 0 min 0,000 mm 0,0 UV-I 0 W/m² 9,9 °C 11,3 °C 4,8 km/h (1 Bft)
02.07.2017 04:15 11,3 °C 11,3 °C 91 % 1015,1 hPa 0,0 mm 2,2 km/h (1 Bft) W 260 ° 0 min 0,000 mm 0,0 UV-I 0 W/m² 9,9 °C 11,3 °C 3,2 km/h (1 Bft)
02.07.2017 04:16 11,3 °C 11,3 °C 91 % 1015,1 hPa 0,0 mm 4,6 km/h (1 Bft) W-SW 250 ° 0 min 0,000 mm 0,0 UV-I 0 W/m² 9,9 °C 11,3 °C 8,0 km/h (2 Bft)
02.07.2017 04:17 11,3 °C 11,3 °C 91 % 1015,1 hPa 0,0 mm 3,4 km/h (1 Bft) W-SW 242 ° 0 min 0,000 mm 0,0 UV-I 0 W/m² 9,9 °C 11,3 °C 4,8 km/h (1 Bft)
02.07.2017 04:18 11,3 °C 11,3 °C 91 % 1015,1 hPa 0,0 mm 1,4 km/h (1 Bft) W-SW 243 ° 0 min 0,000 mm 0,0 UV-I 0 W/m² 9,9 °C 11,3 °C 3,2 km/h (1 Bft)
02.07.2017 04:19 11,3 °C 11,3 °C 91 % 1015,1 hPa 0,0 mm 2,1 km/h (1 Bft) SW 221 ° 0 min 0,000 mm 0,0 UV-I 0 W/m² 9,9 °C 11,3 °C 4,8 km/h (1 Bft)
02.07.2017 04:20 11,3 °C 11,3 °C 91 % 1015,2 hPa 0,0 mm 1,8 km/h (1 Bft) SW 221 ° 0 min 0,000 mm 0,0 UV-I 0 W/m² 9,9 °C 11,3 °C 3,2 km/h (1 Bft)
02.07.2017 04:21 11,3 °C 11,3 °C 91 % 1015,2 hPa 0,0 mm 2,6 km/h (1 Bft) W-SW 250 ° 0 min 0,000 mm 0,0 UV-I 0 W/m² 9,9 °C 11,3 °C 8,0 km/h (2 Bft)
02.07.2017 04:22 11,3 °C 11,3 °C 91 % 1015,2 hPa 0,0 mm 6,4 km/h (2 Bft) W 267 ° 0 min 0,000 mm 0,0 UV-I 0 W/m² 9,9 °C 11,3 °C 14,5 km/h (3 Bft)
02.07.2017 04:23 11,3 °C 11,3 °C 91 % 1015,1 hPa 0,0 mm 2,2 km/h (1 Bft) SW 232 ° 0 min 0,000 mm 0,0 UV-I 0 W/m² 9,9 °C 11,3 °C 4,8 km/h (1 Bft)
02.07.2017 04:24 11,3 °C 11,3 °C 91 % 1015,1 hPa 0,0 mm 2,5 km/h (1 Bft) W 265 ° 0 min 0,000 mm 0,0 UV-I 0 W/m² 9,9 °C 11,3 °C 3,2 km/h (1 Bft)
02.07.2017 04:25 11,3 °C 11,3 °C 91 % 1015,2 hPa 0,0 mm 5,8 km/h (2 Bft) W-NW 283 ° 0 min 0,000 mm 0,0 UV-I 0 W/m² 9,9 °C 11,3 °C 11,3 km/h (2 Bft)
02.07.2017 04:26 11,3 °C 11,3 °C 91 % 1015,2 hPa 0,0 mm 5,7 km/h (1 Bft) W 277 ° 0 min 0,000 mm 0,0 UV-I 0 W/m² 9,9 °C 11,3 °C 9,7 km/h (2 Bft)
02.07.2017 04:27 11,3 °C 11,3 °C 91 % 1015,2 hPa 0,0 mm 0,8 km/h (0 Bft) W 277 ° 0 min 0,000 mm 0,0 UV-I 0 W/m² 9,9 °C 11,3 °C 3,2 km/h (1 Bft)
02.07.2017 04:28 11,3 °C 11,3 °C 91 % 1015,2 hPa 0,0 mm 2,9 km/h (1 Bft) W-SW 237 ° 0 min 0,000 mm 0,0 UV-I 0 W/m² 9,9 °C 11,3 °C 6,4 km/h (2 Bft)
02.07.2017 04:29 11,3 °C 11,3 °C 91 % 1015,2 hPa 0,0 mm 4,6 km/h (1 Bft) W 263 ° 0 min 0,000 mm 0,0 UV-I 0 W/m² 9,9 °C 11,3 °C 6,4 km/h (2 Bft)
02.07.2017 04:30 11,3 °C 11,3 °C 91 % 1015,2 hPa 0,0 mm 2,3 km/h (1 Bft) W 261 ° 0 min 0,000 mm 0,0 UV-I 0 W/m² 9,9 °C 11,3 °C 4,8 km/h (1 Bft)
02.07.2017 04:31 11,3 °C 11,3 °C 91 % 1015,2 hPa 0,0 mm 1,2 km/h (1 Bft) W 261 ° 0 min 0,000 mm 0,0 UV-I 0 W/m² 9,9 °C 11,3 °C 3,2 km/h (1 Bft)
02.07.2017 04:32 11,3 °C 11,3 °C 91 % 1015,2 hPa 0,0 mm 3,8 km/h (1 Bft) W 261 ° 0 min 0,000 mm 0,0 UV-I 0 W/m² 9,9 °C 11,3 °C 4,8 km/h (1 Bft)
02.07.2017 04:33 11,3 °C 11,3 °C 91 % 1015,2 hPa 0,0 mm 3,0 km/h (1 Bft) W 261 ° 0 min 0,000 mm 0,0 UV-I 0 W/m² 9,9 °C 11,3 °C 6,4 km/h (2 Bft)
02.07.2017 04:34 11,3 °C 11,3 °C 91 % 1015,2 hPa 0,0 mm 3,7 km/h (1 Bft) W-SW 240 ° 0 min 0,000 mm 0,0 UV-I 0 W/m² 9,9 °C 11,3 °C 4,8 km/h (1 Bft)
02.07.2017 04:35 11,3 °C 11,3 °C 91 % 1015,2 hPa 0,0 mm 1,9 km/h (1 Bft) W-SW 240 ° 0 min 0,000 mm 0,0 UV-I 0 W/m² 9,9 °C 11,3 °C 4,8 km/h (1 Bft)
02.07.2017 04:36 11,2 °C 11,3 °C 91 % 1015,2 hPa 0,0 mm 1,0 km/h (0 Bft) W-SW 242 ° 0 min 0,000 mm 0,0 UV-I 0 W/m² 9,8 °C 11,2 °C 3,2 km/h (1 Bft)
02.07.2017 04:37 11,2 °C 11,3 °C 91 % 1015,2 hPa 0,0 mm 5,6 km/h (1 Bft) W-NW 284 ° 0 min 0,000 mm 0,0 UV-I 0 W/m² 9,8 °C 11,2 °C 9,7 km/h (2 Bft)
02.07.2017 04:38 11,3 °C 11,3 °C 91 % 1015,2 hPa 0,0 mm 5,5 km/h (1 Bft) W 265 ° 0 min 0,000 mm 0,0 UV-I 0 W/m² 9,9 °C 11,3 °C 9,7 km/h (2 Bft)
02.07.2017 04:39 11,3 °C 11,3 °C 91 % 1015,2 hPa 0,0 mm 3,4 km/h (1 Bft) W 261 ° 0 min 0,000 mm 0,0 UV-I 0 W/m² 9,9 °C 11,3 °C 9,7 km/h (2 Bft)
02.07.2017 04:40 11,2 °C 11,3 °C 91 % 1015,2 hPa 0,0 mm 3,9 km/h (1 Bft) W 263 ° 0 min 0,000 mm 0,0 UV-I 0 W/m² 9,8 °C 11,2 °C 6,4 km/h (2 Bft)
02.07.2017 04:41 11,2 °C 11,3 °C 91 % 1015,2 hPa 0,0 mm 3,2 km/h (1 Bft) W 272 ° 0 min 0,000 mm 0,0 UV-I 0 W/m² 9,8 °C 11,2 °C 6,4 km/h (2 Bft)
02.07.2017 04:42 11,3 °C 11,3 °C 91 % 1015,1 hPa 0,0 mm 3,7 km/h (1 Bft) W 272 ° 0 min 0,000 mm 0,0 UV-I 0 W/m² 9,9 °C 11,3 °C 4,8 km/h (1 Bft)
02.07.2017 04:43 11,3 °C 11,3 °C 91 % 1015,1 hPa 0,0 mm 2,9 km/h (1 Bft) W 272 ° 0 min 0,000 mm 0,0 UV-I 0 W/m² 9,9 °C 11,3 °C 4,8 km/h (1 Bft)
02.07.2017 04:44 11,3 °C 11,3 °C 91 % 1015,2 hPa 0,0 mm 3,8 km/h (1 Bft) W 271 ° 0 min 0,000 mm 0,0 UV-I 0 W/m² 9,9 °C 11,3 °C 4,8 km/h (1 Bft)
02.07.2017 04:45 11,3 °C 11,3 °C 91 % 1015,2 hPa 0,0 mm 5,2 km/h (1 Bft) W-SW 256 ° 0 min 0,000 mm 0,0 UV-I 0 W/m² 9,9 °C 11,3 °C 12,9 km/h (3 Bft)
02.07.2017 04:46 11,3 °C 11,3 °C 91 % 1015,2 hPa 0,0 mm 3,6 km/h (1 Bft) W 267 ° 0 min 0,000 mm 0,0 UV-I 0 W/m² 9,9 °C 11,3 °C 6,4 km/h (2 Bft)
02.07.2017 04:47 11,3 °C 11,3 °C 91 % 1015,3 hPa 0,0 mm 7,8 km/h (2 Bft) NW 305 ° 0 min 0,000 mm 0,0 UV-I 0 W/m² 9,9 °C 11,3 °C 12,9 km/h (3 Bft)
02.07.2017 04:48 11,3 °C 11,3 °C 91 % 1015,3 hPa 0,0 mm 3,7 km/h (1 Bft) W 271 ° 0 min 0,000 mm 0,0 UV-I 0 W/m² 9,9 °C 11,3 °C 8,0 km/h (2 Bft)
02.07.2017 04:49 11,3 °C 11,3 °C 91 % 1015,3 hPa 0,0 mm 3,4 km/h (1 Bft) W-SW 253 ° 0 min 0,000 mm 0,0 UV-I 0 W/m² 9,9 °C 11,3 °C 6,4 km/h (2 Bft)
02.07.2017 04:50 11,3 °C 11,3 °C 91 % 1015,3 hPa 0,0 mm 6,1 km/h (2 Bft) W-SW 254 ° 0 min 0,000 mm 0,0 UV-I 0 W/m² 9,9 °C 11,3 °C 11,3 km/h (2 Bft)
02.07.2017 04:51 11,3 °C 11,3 °C 91 % 1015,3 hPa 0,0 mm 2,3 km/h (1 Bft) S-SW 213 ° 0 min 0,000 mm 0,0 UV-I 0 W/m² 9,9 °C 11,3 °C 4,8 km/h (1 Bft)
02.07.2017 04:52 11,3 °C 11,3 °C 90 % 1015,2 hPa 0,0 mm 7,8 km/h (2 Bft) W-SW 250 ° 0 min 0,000 mm 0,0 UV-I 0 W/m² 9,7 °C 11,3 °C 14,5 km/h (3 Bft)
02.07.2017 04:53 11,3 °C 11,3 °C 90 % 1015,2 hPa 0,0 mm 4,1 km/h (1 Bft) W 261 ° 0 min 0,000 mm 0,0 UV-I 0 W/m² 9,7 °C 11,3 °C 6,4 km/h (2 Bft)
02.07.2017 04:54 11,3 °C 11,3 °C 90 % 1015,2 hPa 0,0 mm 5,1 km/h (1 Bft) W-SW 245 ° 0 min 0,000 mm 0,0 UV-I 0 W/m² 9,7 °C 11,3 °C 14,5 km/h (3 Bft)
02.07.2017 04:55 11,3 °C 11,3 °C 90 % 1015,2 hPa 0,0 mm 7,0 km/h (2 Bft) W 273 ° 0 min 0,000 mm 0,0 UV-I 0 W/m² 9,7 °C 11,3 °C 16,1 km/h (3 Bft)
02.07.2017 04:56 11,3 °C 11,3 °C 90 % 1015,2 hPa 0,0 mm 7,8 km/h (2 Bft) W 261 ° 0 min 0,000 mm 0,0 UV-I 0 W/m² 9,7 °C 11,3 °C 14,5 km/h (3 Bft)
02.07.2017 04:57 11,3 °C 11,3 °C 90 % 1015,2 hPa 0,0 mm 5,0 km/h (1 Bft) W 273 ° 0 min 0,000 mm 0,0 UV-I 0 W/m² 9,7 °C 11,3 °C 9,7 km/h (2 Bft)
02.07.2017 04:58 11,3 °C 11,4 °C 90 % 1015,2 hPa 0,0 mm 5,8 km/h (2 Bft) SW 234 ° 0 min 0,000 mm 0,0 UV-I 0 W/m² 9,7 °C 11,3 °C 11,3 km/h (2 Bft)
02.07.2017 04:59 11,3 °C 11,4 °C 90 % 1015,3 hPa 0,0 mm 4,6 km/h (1 Bft) W-SW 252 ° 0 min 0,000 mm 0,0 UV-I 0 W/m² 9,7 °C 11,3 °C 6,4 km/h (2 Bft)
02.07.2017 05:00 11,4 °C 11,4 °C 90 % 1015,2 hPa 0,0 mm 3,1 km/h (1 Bft) W-SW 246 ° 0 min 0,000 mm 0,0 UV-I 0 W/m² 9,8 °C 11,4 °C 6,4 km/h (2 Bft)
02.07.2017 05:01 11,3 °C 11,4 °C 90 % 1015,3 hPa 0,0 mm 2,5 km/h (1 Bft) W 270 ° 0 min 0,000 mm 0,0 UV-I 0 W/m² 9,7 °C 11,3 °C 3,2 km/h (1 Bft)
02.07.2017 05:02 11,3 °C 11,4 °C 90 % 1015,2 hPa 0,0 mm 8,6 km/h (2 Bft) W 269 ° 0 min 0,000 mm 0,0 UV-I 0 W/m² 9,7 °C 11,3 °C 14,5 km/h (3 Bft)
02.07.2017 05:03 11,3 °C 11,4 °C 90 % 1015,2 hPa 0,0 mm 5,2 km/h (1 Bft) W 267 ° 0 min 0,000 mm 0,0 UV-I 0 W/m² 9,7 °C 11,3 °C 12,9 km/h (3 Bft)
02.07.2017 05:04 11,4 °C 11,4 °C 90 % 1015,2 hPa 0,0 mm 3,0 km/h (1 Bft) W 265 ° 0 min 0,000 mm 0,0 UV-I 0 W/m² 9,8 °C 11,4 °C 4,8 km/h (1 Bft)
02.07.2017 05:05 11,3 °C 11,4 °C 90 % 1015,2 hPa 0,0 mm 6,1 km/h (2 Bft) W 275 ° 0 min 0,000 mm 0,0 UV-I 0 W/m² 9,7 °C 11,3 °C 11,3 km/h (2 Bft)
02.07.2017 05:06 11,3 °C 11,3 °C 90 % 1015,3 hPa 0,0 mm 2,2 km/h (1 Bft) W 275 ° 0 min 0,000 mm 0,0 UV-I 0 W/m² 9,7 °C 11,3 °C 6,4 km/h (2 Bft)
02.07.2017 05:07 11,3 °C 11,3 °C 90 % 1015,2 hPa 0,0 mm 3,6 km/h (1 Bft) SW 232 ° 0 min 0,000 mm 0,0 UV-I 0 W/m² 9,7 °C 11,3 °C 6,4 km/h (2 Bft)
02.07.2017 05:08 11,3 °C 11,3 °C 90 % 1015,2 hPa 0,0 mm 2,4 km/h (1 Bft) W-SW 249 ° 0 min 0,000 mm 0,0 UV-I 0 W/m² 9,7 °C 11,3 °C 4,8 km/h (1 Bft)
02.07.2017 05:09 11,3 °C 11,3 °C 90 % 1015,2 hPa 0,0 mm 4,8 km/h (1 Bft) W-SW 244 ° 0 min 0,000 mm 0,0 UV-I 0 W/m² 9,7 °C 11,3 °C 9,7 km/h (2 Bft)
02.07.2017 05:10 11,3 °C 11,3 °C 90 % 1015,2 hPa 0,0 mm 6,6 km/h (2 Bft) W 265 ° 0 min 0,000 mm 0,0 UV-I 0 W/m² 9,7 °C 11,3 °C 11,3 km/h (2 Bft)
02.07.2017 05:11 11,3 °C 11,3 °C 90 % 1015,2 hPa 0,0 mm 6,4 km/h (2 Bft) W 261 ° 0 min 0,000 mm 0,0 UV-I 0 W/m² 9,7 °C 11,3 °C 9,7 km/h (2 Bft)
02.07.2017 05:12 11,3 °C 11,4 °C 90 % 1015,3 hPa 0,0 mm 4,4 km/h (1 Bft) S 186 ° 0 min 0,000 mm 0,0 UV-I 0 W/m² 9,7 °C 11,3 °C 6,4 km/h (2 Bft)
02.07.2017 05:13 11,4 °C 11,4 °C 90 % 1015,3 hPa 0,0 mm 5,7 km/h (1 Bft) W 273 ° 0 min 0,000 mm 0,0 UV-I 0 W/m² 9,8 °C 11,4 °C 11,3 km/h (2 Bft)
02.07.2017 05:14 11,4 °C 11,4 °C 90 % 1015,2 hPa 0,0 mm 6,5 km/h (2 Bft) W 263 ° 0 min 0,000 mm 0,0 UV-I 0 W/m² 9,8 °C 11,4 °C 11,3 km/h (2 Bft)
02.07.2017 05:15 11,4 °C 11,4 °C 90 % 1015,2 hPa 0,0 mm 8,9 km/h (2 Bft) W-SW 256 ° 0 min 0,000 mm 0,0 UV-I 0 W/m² 9,8 °C 11,4 °C 17,7 km/h (3 Bft)
02.07.2017 05:16 11,4 °C 11,4 °C 90 % 1015,2 hPa 0,0 mm 7,5 km/h (2 Bft) SW 235 ° 0 min 0,000 mm 0,0 UV-I 0 W/m² 9,8 °C 11,4 °C 14,5 km/h (3 Bft)
02.07.2017 05:17 11,4 °C 11,4 °C 90 % 1015,3 hPa 0,0 mm 3,5 km/h (1 Bft) W-NW 297 ° 0 min 0,000 mm 0,0 UV-I 0 W/m² 9,8 °C 11,4 °C 6,4 km/h (2 Bft)
02.07.2017 05:18 11,4 °C 11,4 °C 90 % 1015,3 hPa 0,0 mm 3,7 km/h (1 Bft) W 262 ° 0 min 0,000 mm 0,0 UV-I 0 W/m² 9,8 °C 11,4 °C 11,3 km/h (2 Bft)
02.07.2017 05:19 11,4 °C 11,4 °C 90 % 1015,3 hPa 0,0 mm 7,7 km/h (2 Bft) SW 219 ° 0 min 0,000 mm 0,0 UV-I 0 W/m² 9,8 °C 11,4 °C 11,3 km/h (2 Bft)
02.07.2017 05:20 11,4 °C 11,4 °C 90 % 1015,3 hPa 0,0 mm 9,5 km/h (2 Bft) W 276 ° 0 min 0,000 mm 0,0 UV-I 0 W/m² 9,8 °C 11,4 °C 16,1 km/h (3 Bft)
02.07.2017 05:21 11,4 °C 11,4 °C 90 % 1015,3 hPa 0,0 mm 6,8 km/h (2 Bft) SW 228 ° 0 min 0,000 mm 0,0 UV-I 0 W/m² 9,8 °C 11,4 °C 11,3 km/h (2 Bft)
02.07.2017 05:22 11,4 °C 11,4 °C 90 % 1015,3 hPa 0,0 mm 4,1 km/h (1 Bft) W 265 ° 0 min 0,000 mm 0,0 UV-I 0 W/m² 9,8 °C 11,4 °C 6,4 km/h (2 Bft)
02.07.2017 05:23 11,4 °C 11,4 °C 90 % 1015,3 hPa 0,0 mm 3,8 km/h (1 Bft) SW 235 ° 0 min 0,000 mm 0,0 UV-I 0 W/m² 9,8 °C 11,4 °C 4,8 km/h (1 Bft)
02.07.2017 05:24 11,4 °C 11,4 °C 90 % 1015,4 hPa 0,0 mm 4,1 km/h (1 Bft) W 269 ° 0 min 0,000 mm 0,0 UV-I 0 W/m² 9,8 °C 11,4 °C 8,0 km/h (2 Bft)
02.07.2017 05:25 11,4 °C 11,4 °C 90 % 1015,4 hPa 0,0 mm 9,3 km/h (2 Bft) W-SW 253 ° 0 min 0,000 mm 0,0 UV-I 0 W/m² 9,8 °C 11,4 °C 17,7 km/h (3 Bft)
02.07.2017 05:26 11,4 °C 11,4 °C 90 % 1015,4 hPa 0,0 mm 1,4 km/h (1 Bft) W-SW 252 ° 0 min 0,000 mm 0,0 UV-I 0 W/m² 9,8 °C 11,4 °C 3,2 km/h (1 Bft)
02.07.2017 05:27 11,4 °C 11,4 °C 90 % 1015,4 hPa 0,0 mm 4,4 km/h (1 Bft) W 271 ° 0 min 0,000 mm 0,0 UV-I 0 W/m² 9,8 °C 11,4 °C 9,7 km/h (2 Bft)
02.07.2017 05:28 11,4 °C 11,4 °C 90 % 1015,4 hPa 0,0 mm 5,7 km/h (1 Bft) W 278 ° 0 min 0,000 mm 0,0 UV-I 0 W/m² 9,8 °C 11,4 °C 8,0 km/h (2 Bft)
02.07.2017 05:29 11,4 °C 11,4 °C 90 % 1015,4 hPa 0,0 mm 3,2 km/h (1 Bft) W 269 ° 0 min 0,000 mm 0,0 UV-I 0 W/m² 9,8 °C 11,4 °C 6,4 km/h (2 Bft)
02.07.2017 05:30 11,4 °C 11,4 °C 90 % 1015,3 hPa 0,0 mm 1,3 km/h (1 Bft) W 269 ° 0 min 0,000 mm 0,0 UV-I 0 W/m² 9,8 °C 11,4 °C 3,2 km/h (1 Bft)
02.07.2017 05:31 11,4 °C 11,4 °C 90 % 1015,3 hPa 0,0 mm 1,7 km/h (1 Bft) W 275 ° 0 min 0,000 mm 0,0 UV-I 0 W/m² 9,8 °C 11,4 °C 3,2 km/h (1 Bft)
02.07.2017 05:32 11,4 °C 11,4 °C 90 % 1015,3 hPa 0,0 mm 6,9 km/h (2 Bft) SW 221 ° 0 min 0,000 mm 0,0 UV-I 0 W/m² 9,8 °C 11,4 °C 11,3 km/h (2 Bft)
02.07.2017 05:33 11,5 °C 11,5 °C 90 % 1015,3 hPa 0,0 mm 5,8 km/h (2 Bft) W 265 ° 0 min 0,000 mm 0,0 UV-I 0 W/m² 9,9 °C 11,5 °C 9,7 km/h (2 Bft)
02.07.2017 05:34 11,5 °C 11,5 °C 90 % 1015,4 hPa 0,0 mm 5,8 km/h (2 Bft) W 260 ° 0 min 0,000 mm 0,0 UV-I 5 W/m² 9,9 °C 11,5 °C 11,3 km/h (2 Bft)
02.07.2017 05:35 11,4 °C 11,5 °C 90 % 1015,3 hPa 0,0 mm 5,3 km/h (1 Bft) S-SW 213 ° 0 min 0,000 mm 0,0 UV-I 5 W/m² 9,8 °C 11,4 °C 9,7 km/h (2 Bft)
02.07.2017 05:36 11,4 °C 11,5 °C 90 % 1015,4 hPa 0,0 mm 5,5 km/h (1 Bft) W 261 ° 0 min 0,000 mm 0,0 UV-I 5 W/m² 9,8 °C 11,4 °C 9,7 km/h (2 Bft)
02.07.2017 05:37 11,5 °C 11,5 °C 90 % 1015,4 hPa 0,0 mm 7,6 km/h (2 Bft) W-SW 257 ° 0 min 0,000 mm 0,0 UV-I 7 W/m² 9,9 °C 11,5 °C 12,9 km/h (3 Bft)
02.07.2017 05:38 11,4 °C 11,5 °C 90 % 1015,4 hPa 0,0 mm 3,8 km/h (1 Bft) W 261 ° 0 min 0,000 mm 0,0 UV-I 7 W/m² 9,8 °C 11,4 °C 11,3 km/h (2 Bft)
02.07.2017 05:39 11,5 °C 11,5 °C 90 % 1015,4 hPa 0,0 mm 7,1 km/h (2 Bft) W-SW 256 ° 0 min 0,000 mm 0,0 UV-I 9 W/m² 9,9 °C 11,5 °C 11,3 km/h (2 Bft)
02.07.2017 05:40 11,4 °C 11,5 °C 90 % 1015,4 hPa 0,0 mm 6,5 km/h (2 Bft) W-SW 250 ° 0 min 0,000 mm 0,0 UV-I 9 W/m² 9,8 °C 11,4 °C 11,3 km/h (2 Bft)
02.07.2017 05:41 11,5 °C 11,5 °C 90 % 1015,4 hPa 0,0 mm 2,6 km/h (1 Bft) W-SW 238 ° 0 min 0,000 mm 0,0 UV-I 11 W/m² 9,9 °C 11,5 °C 6,4 km/h (2 Bft)
02.07.2017 05:42 11,5 °C 11,5 °C 90 % 1015,4 hPa 0,0 mm 3,2 km/h (1 Bft) S-SW 192 ° 0 min 0,000 mm 0,0 UV-I 11 W/m² 9,9 °C 11,5 °C 6,4 km/h (2 Bft)
02.07.2017 05:43 11,5 °C 11,5 °C 89 % 1015,4 hPa 0,0 mm 5,4 km/h (1 Bft) W 280 ° 0 min 0,000 mm 0,0 UV-I 11 W/m² 9,8 °C 11,5 °C 9,7 km/h (2 Bft)
02.07.2017 05:44 11,5 °C 11,5 °C 90 % 1015,4 hPa 0,0 mm 3,8 km/h (1 Bft) W 266 ° 0 min 0,000 mm 0,0 UV-I 11 W/m² 9,9 °C 11,5 °C 6,4 km/h (2 Bft)
02.07.2017 05:45 11,6 °C 11,6 °C 90 % 1015,4 hPa 0,0 mm 3,8 km/h (1 Bft) W-SW 253 ° 0 min 0,000 mm 0,0 UV-I 11 W/m² 10,0 °C 11,6 °C 4,8 km/h (1 Bft)
02.07.2017 05:46 11,5 °C 11,6 °C 90 % 1015,4 hPa 0,0 mm 3,6 km/h (1 Bft) W-SW 244 ° 0 min 0,000 mm 0,0 UV-I 11 W/m² 9,9 °C 11,5 °C 9,7 km/h (2 Bft)
02.07.2017 05:47 11,5 °C 11,6 °C 89 % 1015,5 hPa 0,0 mm 2,8 km/h (1 Bft) W-SW 248 ° 0 min 0,000 mm 0,0 UV-I 9 W/m² 9,8 °C 11,5 °C 4,8 km/h (1 Bft)
02.07.2017 05:48 11,5 °C 11,6 °C 90 % 1015,5 hPa 0,0 mm 3,4 km/h (1 Bft) W-SW 252 ° 0 min 0,000 mm 0,0 UV-I 9 W/m² 9,9 °C 11,5 °C 6,4 km/h (2 Bft)
02.07.2017 05:49 11,6 °C 11,6 °C 90 % 1015,5 hPa 0,0 mm 3,4 km/h (1 Bft) S-SW 199 ° 0 min 0,000 mm 0,0 UV-I 9 W/m² 10,0 °C 11,6 °C 8,0 km/h (2 Bft)
02.07.2017 05:50 11,5 °C 11,6 °C 89 % 1015,5 hPa 0,0 mm 5,0 km/h (1 Bft) W 263 ° 0 min 0,000 mm 0,0 UV-I 9 W/m² 9,8 °C 11,5 °C 9,7 km/h (2 Bft)
02.07.2017 05:51 11,5 °C 11,5 °C 89 % 1015,5 hPa 0,0 mm 4,3 km/h (1 Bft) W 267 ° 0 min 0,000 mm 0,0 UV-I 7 W/m² 9,8 °C 11,5 °C 6,4 km/h (2 Bft)
02.07.2017 05:52 11,6 °C 11,6 °C 90 % 1015,5 hPa 0,0 mm 2,4 km/h (1 Bft) W-SW 257 ° 0 min 0,000 mm 0,0 UV-I 7 W/m² 10,0 °C 11,6 °C 4,8 km/h (1 Bft)
02.07.2017 05:53 11,6 °C 11,6 °C 90 % 1015,5 hPa 0,0 mm 4,0 km/h (1 Bft) W-SW 252 ° 0 min 0,000 mm 0,0 UV-I 7 W/m² 10,0 °C 11,6 °C 6,4 km/h (2 Bft)
02.07.2017 05:54 11,6 °C 11,6 °C 90 % 1015,5 hPa 0,0 mm 4,3 km/h (1 Bft) W 259 ° 0 min 0,000 mm 0,0 UV-I 7 W/m² 10,0 °C 11,6 °C 6,4 km/h (2 Bft)
02.07.2017 05:55 11,6 °C 11,6 °C 90 % 1015,6 hPa 0,0 mm 1,3 km/h (1 Bft) W 259 ° 0 min 0,000 mm 0,0 UV-I 7 W/m² 10,0 °C 11,6 °C 4,8 km/h (1 Bft)
02.07.2017 05:56 11,6 °C 11,6 °C 89 % 1015,6 hPa 0,0 mm 3,2 km/h (1 Bft) W-SW 242 ° 0 min 0,000 mm 0,0 UV-I 7 W/m² 9,8 °C 11,6 °C 6,4 km/h (2 Bft)
02.07.2017 05:57 11,6 °C 11,6 °C 89 % 1015,6 hPa 0,0 mm 0,0 km/h (0 Bft) W-SW 242 ° 0 min 0,000 mm 0,0 UV-I 7 W/m² 9,8 °C 11,6 °C 0,0 km/h (0 Bft)
02.07.2017 05:58 11,6 °C 11,6 °C 90 % 1015,5 hPa 0,0 mm 0,1 km/h (0 Bft) W-SW 242 ° 0 min 0,000 mm 0,0 UV-I 9 W/m² 10,0 °C 11,6 °C 1,6 km/h (1 Bft)
02.07.2017 05:59 11,6 °C 11,6 °C 90 % 1015,5 hPa 0,0 mm 0,2 km/h (0 Bft) W-SW 242 ° 0 min 0,000 mm 0,0 UV-I 7 W/m² 10,0 °C 11,6 °C 1,6 km/h (1 Bft)
02.07.2017 06:00 11,6 °C 11,6 °C 90 % 1015,5 hPa 0,0 mm 2,9 km/h (1 Bft) S-SW 202 ° 0 min 0,000 mm 0,0 UV-I 7 W/m² 10,0 °C 11,6 °C 4,8 km/h (1 Bft)
02.07.2017 06:01 11,6 °C 11,6 °C 89 % 1015,6 hPa 0,0 mm 0,7 km/h (0 Bft) S-SW 202 ° 0 min 0,000 mm 0,0 UV-I 9 W/m² 9,8 °C 11,6 °C 3,2 km/h (1 Bft)
02.07.2017 06:02 11,6 °C 11,6 °C 90 % 1015,6 hPa 0,0 mm 0,5 km/h (0 Bft) S-SW 202 ° 0 min 0,000 mm 0,0 UV-I 9 W/m² 10,0 °C 11,6 °C 1,6 km/h (1 Bft)
02.07.2017 06:03 11,6 °C 11,6 °C 90 % 1015,5 hPa 0,0 mm 0,4 km/h (0 Bft) S-SW 202 ° 0 min 0,000 mm 0,0 UV-I 11 W/m² 10,0 °C 11,6 °C 1,6 km/h (1 Bft)
02.07.2017 06:04 11,6 °C 11,6 °C 89 % 1015,6 hPa 0,0 mm 0,7 km/h (0 Bft) S-SW 202 ° 0 min 0,000 mm 0,0 UV-I 11 W/m² 9,8 °C 11,6 °C 3,2 km/h (1 Bft)
02.07.2017 06:05 11,6 °C 11,6 °C 90 % 1015,6 hPa 0,0 mm 1,2 km/h (1 Bft) W-SW 239 ° 0 min 0,000 mm 0,0 UV-I 12 W/m² 10,0 °C 11,6 °C 3,2 km/h (1 Bft)
02.07.2017 06:06 11,6 °C 11,6 °C 90 % 1015,6 hPa 0,0 mm 2,9 km/h (1 Bft) W-SW 242 ° 0 min 0,000 mm 0,0 UV-I 12 W/m² 10,0 °C 11,6 °C 4,8 km/h (1 Bft)
02.07.2017 06:07 11,6 °C 11,6 °C 90 % 1015,6 hPa 0,0 mm 1,6 km/h (1 Bft) W-SW 242 ° 0 min 0,000 mm 0,0 UV-I 14 W/m² 10,0 °C 11,6 °C 3,2 km/h (1 Bft)
02.07.2017 06:08 11,6 °C 11,6 °C 89 % 1015,6 hPa 0,0 mm 3,4 km/h (1 Bft) S-SW 205 ° 0 min 0,000 mm 0,0 UV-I 14 W/m² 9,8 °C 11,6 °C 4,8 km/h (1 Bft)
02.07.2017 06:09 11,6 °C 11,6 °C 89 % 1015,6 hPa 0,0 mm 3,0 km/h (1 Bft) W-NW 284 ° 0 min 0,000 mm 0,0 UV-I 16 W/m² 9,8 °C 11,6 °C 4,8 km/h (1 Bft)
02.07.2017 06:10 11,6 °C 11,6 °C 89 % 1015,6 hPa 0,0 mm 0,8 km/h (0 Bft) W-NW 284 ° 0 min 0,000 mm 0,0 UV-I 18 W/m² 9,8 °C 11,6 °C 1,6 km/h (1 Bft)
02.07.2017 06:11 11,6 °C 11,7 °C 89 % 1015,6 hPa 0,0 mm 0,0 km/h (0 Bft) W-NW 284 ° 0 min 0,000 mm 0,0 UV-I 21 W/m² 9,8 °C 11,6 °C 0,0 km/h (0 Bft)
02.07.2017 06:12 11,7 °C 11,7 °C 89 % 1015,6 hPa 0,0 mm 2,2 km/h (1 Bft) W-SW 243 ° 0 min 0,000 mm 0,0 UV-I 23 W/m² 9,9 °C 11,7 °C 9,7 km/h (2 Bft)
02.07.2017 06:13 11,7 °C 11,7 °C 90 % 1015,6 hPa 0,0 mm 3,4 km/h (1 Bft) W 265 ° 0 min 0,000 mm 0,0 UV-I 25 W/m² 10,1 °C 11,7 °C 8,0 km/h (2 Bft)
02.07.2017 06:14 11,7 °C 11,7 °C 89 % 1015,6 hPa 0,0 mm 3,6 km/h (1 Bft) W 264 ° 0 min 0,000 mm 0,0 UV-I 26 W/m² 9,9 °C 11,7 °C 6,4 km/h (2 Bft)
02.07.2017 06:15 11,7 °C 11,7 °C 89 % 1015,6 hPa 0,0 mm 3,6 km/h (1 Bft) W-NW 282 ° 0 min 0,000 mm 0,0 UV-I 28 W/m² 9,9 °C 11,7 °C 6,4 km/h (2 Bft)
02.07.2017 06:16 11,7 °C 11,7 °C 89 % 1015,7 hPa 0,0 mm 1,7 km/h (1 Bft) W-NW 282 ° 0 min 0,000 mm 0,0 UV-I 28 W/m² 9,9 °C 11,7 °C 4,8 km/h (1 Bft)
02.07.2017 06:17 11,7 °C 11,7 °C 90 % 1015,6 hPa 0,0 mm 4,0 km/h (1 Bft) SW 222 ° 0 min 0,000 mm 0,0 UV-I 28 W/m² 10,1 °C 11,7 °C 6,4 km/h (2 Bft)
02.07.2017 06:18 11,7 °C 11,8 °C 90 % 1015,7 hPa 0,0 mm 1,2 km/h (1 Bft) SW 222 ° 0 min 0,000 mm 0,0 UV-I 28 W/m² 10,1 °C 11,7 °C 3,2 km/h (1 Bft)
02.07.2017 06:19 11,8 °C 11,8 °C 89 % 1015,8 hPa 0,0 mm 1,3 km/h (1 Bft) W 265 ° 0 min 0,000 mm 0,0 UV-I 28 W/m² 10,0 °C 11,8 °C 6,4 km/h (2 Bft)
02.07.2017 06:20 11,8 °C 11,8 °C 90 % 1015,8 hPa 0,0 mm 4,0 km/h (1 Bft) W 281 ° 0 min 0,000 mm 0,0 UV-I 28 W/m² 10,2 °C 11,8 °C 9,7 km/h (2 Bft)
02.07.2017 06:21 11,8 °C 11,8 °C 89 % 1015,8 hPa 0,0 mm 3,0 km/h (1 Bft) W 280 ° 0 min 0,000 mm 0,0 UV-I 28 W/m² 10,0 °C 11,8 °C 4,8 km/h (1 Bft)
02.07.2017 06:22 11,8 °C 11,8 °C 90 % 1015,8 hPa 0,0 mm 3,8 km/h (1 Bft) W 267 ° 0 min 0,000 mm 0,0 UV-I 28 W/m² 10,2 °C 11,8 °C 6,4 km/h (2 Bft)
02.07.2017 06:23 11,8 °C 11,8 °C 90 % 1015,8 hPa 0,0 mm 3,8 km/h (1 Bft) W 267 ° 0 min 0,000 mm 0,0 UV-I 28 W/m² 10,2 °C 11,8 °C 4,8 km/h (1 Bft)
02.07.2017 06:24 11,8 °C 11,8 °C 90 % 1015,8 hPa 0,0 mm 1,2 km/h (1 Bft) W 267 ° 0 min 0,000 mm 0,0 UV-I 28 W/m² 10,2 °C 11,8 °C 3,2 km/h (1 Bft)
02.07.2017 06:25 11,8 °C 11,8 °C 90 % 1015,8 hPa 0,0 mm 3,9 km/h (1 Bft) W-NW 284 ° 0 min 0,000 mm 0,0 UV-I 28 W/m² 10,2 °C 11,8 °C 9,7 km/h (2 Bft)
02.07.2017 06:26 11,8 °C 11,8 °C 90 % 1015,8 hPa 0,0 mm 3,8 km/h (1 Bft) W 271 ° 0 min 0,000 mm 0,0 UV-I 28 W/m² 10,2 °C 11,8 °C 6,4 km/h (2 Bft)
02.07.2017 06:27 11,8 °C 11,8 °C 90 % 1015,9 hPa 0,0 mm 3,7 km/h (1 Bft) W 273 ° 0 min 0,000 mm 0,0 UV-I 26 W/m² 10,2 °C 11,8 °C 8,0 km/h (2 Bft)
02.07.2017 06:28 11,8 °C 11,8 °C 89 % 1015,9 hPa 0,0 mm 3,1 km/h (1 Bft) W 273 ° 0 min 0,000 mm 0,0 UV-I 26 W/m² 10,0 °C 11,8 °C 4,8 km/h (1 Bft)
02.07.2017 06:29 11,8 °C 11,8 °C 90 % 1015,9 hPa 0,0 mm 2,2 km/h (1 Bft) W 273 ° 0 min 0,000 mm 0,0 UV-I 26 W/m² 10,2 °C 11,8 °C 4,8 km/h (1 Bft)
02.07.2017 06:30 11,8 °C 11,8 °C 90 % 1015,9 hPa 0,0 mm 3,0 km/h (1 Bft) W 265 ° 0 min 0,000 mm 0,0 UV-I 25 W/m² 10,2 °C 11,8 °C 6,4 km/h (2 Bft)
02.07.2017 06:31 11,9 °C 11,9 °C 89 % 1016,0 hPa 0,0 mm 4,5 km/h (1 Bft) W-SW 250 ° 0 min 0,000 mm 0,0 UV-I 25 W/m² 10,1 °C 11,9 °C 6,4 km/h (2 Bft)
02.07.2017 06:32 11,9 °C 11,9 °C 90 % 1015,9 hPa 0,0 mm 2,1 km/h (1 Bft) W 266 ° 0 min 0,000 mm 0,0 UV-I 25 W/m² 10,3 °C 11,9 °C 4,8 km/h (1 Bft)
02.07.2017 06:33 11,9 °C 11,9 °C 90 % 1015,9 hPa 0,0 mm 8,7 km/h (2 Bft) W 271 ° 0 min 0,000 mm 0,0 UV-I 26 W/m² 10,3 °C 11,9 °C 14,5 km/h (3 Bft)
02.07.2017 06:34 11,9 °C 11,9 °C 90 % 1015,9 hPa 0,0 mm 13,7 km/h (3 Bft) SW 234 ° 0 min 0,000 mm 0,0 UV-I 32 W/m² 10,3 °C 11,9 °C 19,3 km/h (3 Bft)
02.07.2017 06:35 11,9 °C 11,9 °C 89 % 1015,9 hPa 0,0 mm 8,3 km/h (2 Bft) W 260 ° 0 min 0,000 mm 0,0 UV-I 35 W/m² 10,1 °C 11,9 °C 17,7 km/h (3 Bft)
02.07.2017 06:36 11,9 °C 11,9 °C 89 % 1015,9 hPa 0,0 mm 13,0 km/h (3 Bft) W-SW 239 ° 0 min 0,000 mm 0,0 UV-I 37 W/m² 10,1 °C 11,9 °C 19,3 km/h (3 Bft)
02.07.2017 06:37 11,9 °C 11,9 °C 89 % 1015,8 hPa 0,0 mm 8,3 km/h (2 Bft) W 266 ° 0 min 0,000 mm 0,0 UV-I 39 W/m² 10,1 °C 11,9 °C 14,5 km/h (3 Bft)
02.07.2017 06:38 11,9 °C 12,0 °C 89 % 1015,9 hPa 0,0 mm 6,5 km/h (2 Bft) W-SW 251 ° 0 min 0,000 mm 0,0 UV-I 40 W/m² 10,1 °C 11,9 °C 11,3 km/h (2 Bft)
02.07.2017 06:39 12,0 °C 12,0 °C 89 % 1015,9 hPa 0,0 mm 11,6 km/h (2 Bft) W-NW 300 ° 0 min 0,000 mm 0,0 UV-I 42 W/m² 10,2 °C 12,0 °C 17,7 km/h (3 Bft)
02.07.2017 06:40 11,9 °C 12,0 °C 89 % 1015,9 hPa 0,0 mm 7,2 km/h (2 Bft) W-SW 242 ° 0 min 0,000 mm 0,0 UV-I 44 W/m² 10,1 °C 11,9 °C 14,5 km/h (3 Bft)
02.07.2017 06:41 11,9 °C 12,0 °C 88 % 1015,8 hPa 0,0 mm 10,7 km/h (2 Bft) SW 231 ° 0 min 0,000 mm 0,0 UV-I 49 W/m² 10,0 °C 11,9 °C 16,1 km/h (3 Bft)
02.07.2017 06:42 11,9 °C 12,0 °C 88 % 1015,9 hPa 0,0 mm 8,6 km/h (2 Bft) SW 221 ° 0 min 0,000 mm 0,0 UV-I 51 W/m² 10,0 °C 11,9 °C 11,3 km/h (2 Bft)
02.07.2017 06:43 12,0 °C 12,0 °C 89 % 1015,8 hPa 0,0 mm 7,6 km/h (2 Bft) W-SW 243 ° 0 min 0,000 mm 0,0 UV-I 51 W/m² 10,2 °C 12,0 °C 14,5 km/h (3 Bft)
02.07.2017 06:44 12,0 °C 12,0 °C 88 % 1015,9 hPa 0,0 mm 7,5 km/h (2 Bft) W-NW 282 ° 0 min 0,000 mm 0,0 UV-I 53 W/m² 10,1 °C 12,0 °C 14,5 km/h (3 Bft)
02.07.2017 06:45 12,0 °C 12,0 °C 88 % 1015,9 hPa 0,0 mm 8,0 km/h (2 Bft) SW 216 ° 0 min 0,000 mm 0,0 UV-I 53 W/m² 10,1 °C 12,0 °C 12,9 km/h (3 Bft)
02.07.2017 06:46 12,0 °C 12,1 °C 88 % 1015,9 hPa 0,0 mm 5,2 km/h (1 Bft) W 266 ° 0 min 0,000 mm 0,0 UV-I 53 W/m² 10,1 °C 12,0 °C 8,0 km/h (2 Bft)
02.07.2017 06:47 12,0 °C 12,1 °C 88 % 1015,9 hPa 0,0 mm 8,6 km/h (2 Bft) W-SW 239 ° 0 min 0,000 mm 0,0 UV-I 54 W/m² 10,1 °C 12,0 °C 16,1 km/h (3 Bft)
02.07.2017 06:48 12,0 °C 12,1 °C 88 % 1015,9 hPa 0,0 mm 10,7 km/h (2 Bft) W-NW 283 ° 0 min 0,000 mm 0,0 UV-I 54 W/m² 10,1 °C 12,0 °C 17,7 km/h (3 Bft)
02.07.2017 06:49 12,1 °C 12,1 °C 88 % 1015,9 hPa 0,0 mm 9,1 km/h (2 Bft) W 263 ° 0 min 0,000 mm 0,0 UV-I 56 W/m² 10,2 °C 12,1 °C 14,5 km/h (3 Bft)
02.07.2017 06:50 12,1 °C 12,1 °C 88 % 1015,9 hPa 0,0 mm 10,1 km/h (2 Bft) W 269 ° 0 min 0,000 mm 0,0 UV-I 56 W/m² 10,2 °C 12,1 °C 12,9 km/h (3 Bft)
02.07.2017 06:51 12,1 °C 12,1 °C 88 % 1015,9 hPa 0,0 mm 2,5 km/h (1 Bft) W-SW 252 ° 0 min 0,000 mm 0,0 UV-I 58 W/m² 10,2 °C 12,1 °C 6,4 km/h (2 Bft)
02.07.2017 06:52 12,0 °C 12,1 °C 88 % 1015,9 hPa 0,0 mm 8,0 km/h (2 Bft) S-SW 211 ° 0 min 0,000 mm 0,0 UV-I 56 W/m² 10,1 °C 12,0 °C 17,7 km/h (3 Bft)
02.07.2017 06:53 12,0 °C 12,1 °C 89 % 1015,9 hPa 0,0 mm 9,1 km/h (2 Bft) W-SW 250 ° 0 min 0,000 mm 0,0 UV-I 54 W/m² 10,2 °C 12,0 °C 17,7 km/h (3 Bft)
02.07.2017 06:54 12,0 °C 12,1 °C 89 % 1015,9 hPa 0,0 mm 8,6 km/h (2 Bft) W-SW 251 ° 0 min 0,000 mm 0,0 UV-I 54 W/m² 10,2 °C 12,0 °C 16,1 km/h (3 Bft)
02.07.2017 06:55 12,1 °C 12,1 °C 89 % 1015,8 hPa 0,0 mm 3,4 km/h (1 Bft) W 266 ° 0 min 0,000 mm 0,0 UV-I 53 W/m² 10,3 °C 12,1 °C 6,4 km/h (2 Bft)
02.07.2017 06:56 12,0 °C 12,1 °C 89 % 1015,9 hPa 0,0 mm 4,8 km/h (1 Bft) W 273 ° 0 min 0,000 mm 0,0 UV-I 51 W/m² 10,2 °C 12,0 °C 9,7 km/h (2 Bft)
02.07.2017 06:57 12,0 °C 12,1 °C 89 % 1015,9 hPa 0,0 mm 7,5 km/h (2 Bft) W-SW 252 ° 0 min 0,000 mm 0,0 UV-I 49 W/m² 10,2 °C 12,0 °C 14,5 km/h (3 Bft)
02.07.2017 06:58 12,0 °C 12,1 °C 89 % 1015,9 hPa 0,0 mm 10,5 km/h (2 Bft) W 264 ° 0 min 0,000 mm 0,0 UV-I 49 W/m² 10,2 °C 12,0 °C 16,1 km/h (3 Bft)
02.07.2017 06:59 12,1 °C 12,1 °C 90 % 1015,9 hPa 0,0 mm 7,3 km/h (2 Bft) W-SW 251 ° 0 min 0,000 mm 0,0 UV-I 46 W/m² 10,5 °C 12,1 °C 14,5 km/h (3 Bft)
02.07.2017 07:00 12,0 °C 12,1 °C 89 % 1016,0 hPa 0,0 mm 4,7 km/h (1 Bft) W-NW 292 ° 0 min 0,026 mm 0,0 UV-I 44 W/m² 10,2 °C 12,0 °C 6,4 km/h (2 Bft)
02.07.2017 07:01 12,0 °C 12,1 °C 89 % 1015,9 hPa 0,0 mm 3,6 km/h (1 Bft) W-NW 294 ° 0 min 0,000 mm 0,0 UV-I 44 W/m² 10,2 °C 12,0 °C 4,8 km/h (1 Bft)
02.07.2017 07:02 12,0 °C 12,0 °C 89 % 1015,9 hPa 0,0 mm 7,3 km/h (2 Bft) W 260 ° 0 min 0,000 mm 0,0 UV-I 44 W/m² 10,2 °C 12,0 °C 12,9 km/h (3 Bft)
02.07.2017 07:03 11,9 °C 12,0 °C 89 % 1016,0 hPa 0,0 mm 6,2 km/h (2 Bft) N-NW 333 ° 0 min 0,000 mm 0,0 UV-I 42 W/m² 10,1 °C 11,9 °C 14,5 km/h (3 Bft)
02.07.2017 07:04 12,0 °C 12,0 °C 89 % 1016,0 hPa 0,0 mm 6,9 km/h (2 Bft) W 267 ° 0 min 0,000 mm 0,0 UV-I 40 W/m² 10,2 °C 12,0 °C 11,3 km/h (2 Bft)
02.07.2017 07:05 12,0 °C 12,0 °C 89 % 1015,9 hPa 0,0 mm 1,5 km/h (1 Bft) W 279 ° 0 min 0,000 mm 0,0 UV-I 40 W/m² 10,2 °C 12,0 °C 6,4 km/h (2 Bft)
02.07.2017 07:06 12,0 °C 12,0 °C 89 % 1016,0 hPa 0,0 mm 9,6 km/h (2 Bft) W-SW 241 ° 0 min 0,000 mm 0,0 UV-I 40 W/m² 10,2 °C 12,0 °C 16,1 km/h (3 Bft)
02.07.2017 07:07 11,9 °C 12,0 °C 89 % 1016,0 hPa 0,0 mm 9,1 km/h (2 Bft) W-SW 257 ° 0 min 0,000 mm 0,0 UV-I 40 W/m² 10,1 °C 11,9 °C 16,1 km/h (3 Bft)
02.07.2017 07:08 12,0 °C 12,0 °C 89 % 1015,9 hPa 0,0 mm 14,8 km/h (3 Bft) W-SW 257 ° 0 min 0,000 mm 0,0 UV-I 42 W/m² 10,2 °C 12,0 °C 20,9 km/h (4 Bft)
02.07.2017 07:09 11,9 °C 12,0 °C 89 % 1016,0 hPa 0,0 mm 9,8 km/h (2 Bft) W-SW 246 ° 0 min 0,000 mm 0,0 UV-I 44 W/m² 10,1 °C 11,9 °C 16,1 km/h (3 Bft)
02.07.2017 07:10 11,9 °C 12,0 °C 89 % 1016,0 hPa 0,0 mm 10,2 km/h (2 Bft) W 266 ° 0 min 0,000 mm 0,0 UV-I 44 W/m² 10,1 °C 11,9 °C 14,5 km/h (3 Bft)
02.07.2017 07:11 11,9 °C 12,0 °C 89 % 1016,0 hPa 0,0 mm 10,3 km/h (2 Bft) W 271 ° 0 min 0,000 mm 0,0 UV-I 46 W/m² 10,1 °C 11,9 °C 16,1 km/h (3 Bft)
02.07.2017 07:12 12,0 °C 12,0 °C 89 % 1015,9 hPa 0,0 mm 10,7 km/h (2 Bft) W-SW 251 ° 0 min 0,000 mm 0,0 UV-I 47 W/m² 10,2 °C 12,0 °C 16,1 km/h (3 Bft)
02.07.2017 07:13 11,9 °C 12,0 °C 89 % 1015,9 hPa 0,0 mm 7,6 km/h (2 Bft) S 189 ° 0 min 0,000 mm 0,0 UV-I 47 W/m² 10,1 °C 11,9 °C 12,9 km/h (3 Bft)
02.07.2017 07:14 11,9 °C 11,9 °C 88 % 1015,9 hPa 0,0 mm 8,2 km/h (2 Bft) W 275 ° 0 min 0,000 mm 0,0 UV-I 47 W/m² 10,0 °C 11,9 °C 17,7 km/h (3 Bft)
02.07.2017 07:15 12,0 °C 12,0 °C 89 % 1015,9 hPa 0,0 mm 10,7 km/h (2 Bft) S-SW 205 ° 0 min 0,000 mm 0,0 UV-I 51 W/m² 10,2 °C 12,0 °C 16,1 km/h (3 Bft)
02.07.2017 07:16 12,0 °C 12,0 °C 89 % 1015,9 hPa 0,0 mm 6,6 km/h (2 Bft) W-SW 254 ° 0 min 0,000 mm 0,0 UV-I 51 W/m² 10,2 °C 12,0 °C 11,3 km/h (2 Bft)
02.07.2017 07:17 12,0 °C 12,0 °C 88 % 1015,9 hPa 0,0 mm 8,8 km/h (2 Bft) W 259 ° 0 min 0,000 mm 0,0 UV-I 56 W/m² 10,1 °C 12,0 °C 14,5 km/h (3 Bft)
02.07.2017 07:18 12,0 °C 12,0 °C 89 % 1016,0 hPa 0,0 mm 4,9 km/h (1 Bft) W 264 ° 0 min 0,000 mm 0,0 UV-I 56 W/m² 10,2 °C 12,0 °C 9,7 km/h (2 Bft)
02.07.2017 07:19 12,1 °C 12,1 °C 89 % 1016,0 hPa 0,0 mm 7,1 km/h (2 Bft) W 272 ° 0 min 0,000 mm 0,0 UV-I 58 W/m² 10,3 °C 12,1 °C 11,3 km/h (2 Bft)
02.07.2017 07:20 12,1 °C 12,1 °C 89 % 1016,0 hPa 0,0 mm 9,1 km/h (2 Bft) SW 231 ° 0 min 0,000 mm 0,0 UV-I 60 W/m² 10,3 °C 12,1 °C 16,1 km/h (3 Bft)
02.07.2017 07:21 12,1 °C 12,1 °C 89 % 1016,0 hPa 0,0 mm 9,2 km/h (2 Bft) SW 227 ° 0 min 0,000 mm 0,0 UV-I 58 W/m² 10,3 °C 12,1 °C 16,1 km/h (3 Bft)
02.07.2017 07:22 12,1 °C 12,1 °C 89 % 1016,0 hPa 0,0 mm 5,8 km/h (2 Bft) W 265 ° 0 min 0,000 mm 0,0 UV-I 58 W/m² 10,3 °C 12,1 °C 9,7 km/h (2 Bft)
02.07.2017 07:23 12,1 °C 12,1 °C 89 % 1016,0 hPa 0,0 mm 7,4 km/h (2 Bft) W-SW 249 ° 0 min 0,000 mm 0,0 UV-I 58 W/m² 10,3 °C 12,1 °C 12,9 km/h (3 Bft)
02.07.2017 07:24 12,1 °C 12,1 °C 89 % 1016,0 hPa 0,0 mm 9,6 km/h (2 Bft) W-SW 242 ° 0 min 0,000 mm 0,0 UV-I 56 W/m² 10,3 °C 12,1 °C 14,5 km/h (3 Bft)
02.07.2017 07:25 12,1 °C 12,1 °C 89 % 1016,0 hPa 0,0 mm 8,6 km/h (2 Bft) W-SW 240 ° 0 min 0,000 mm 0,0 UV-I 54 W/m² 10,3 °C 12,1 °C 12,9 km/h (3 Bft)
02.07.2017 07:26 12,1 °C 12,1 °C 89 % 1016,0 hPa 0,0 mm 7,3 km/h (2 Bft) W-SW 238 ° 0 min 0,000 mm 0,0 UV-I 54 W/m² 10,3 °C 12,1 °C 14,5 km/h (3 Bft)
02.07.2017 07:27 12,1 °C 12,1 °C 89 % 1016,0 hPa 0,0 mm 7,2 km/h (2 Bft) W 268 ° 0 min 0,000 mm 0,0 UV-I 53 W/m² 10,3 °C 12,1 °C 11,3 km/h (2 Bft)
02.07.2017 07:28 12,1 °C 12,1 °C 89 % 1016,1 hPa 0,0 mm 9,7 km/h (2 Bft) W 267 ° 0 min 0,000 mm 0,0 UV-I 54 W/m² 10,3 °C 12,1 °C 14,5 km/h (3 Bft)
02.07.2017 07:29 12,1 °C 12,1 °C 89 % 1016,0 hPa 0,0 mm 7,8 km/h (2 Bft) W-SW 257 ° 0 min 0,000 mm 0,0 UV-I 54 W/m² 10,3 °C 12,1 °C 14,5 km/h (3 Bft)
02.07.2017 07:30 12,1 °C 12,1 °C 89 % 1016,1 hPa 0,0 mm 7,7 km/h (2 Bft) W 261 ° 0 min 0,000 mm 0,0 UV-I 56 W/m² 10,3 °C 12,1 °C 14,5 km/h (3 Bft)
02.07.2017 07:31 12,1 °C 12,1 °C 89 % 1016,1 hPa 0,0 mm 6,2 km/h (2 Bft) W 259 ° 0 min 0,000 mm 0,0 UV-I 58 W/m² 10,3 °C 12,1 °C 11,3 km/h (2 Bft)
02.07.2017 07:32 12,1 °C 12,1 °C 89 % 1016,1 hPa 0,0 mm 6,5 km/h (2 Bft) W 280 ° 0 min 0,000 mm 0,0 UV-I 58 W/m² 10,3 °C 12,1 °C 11,3 km/h (2 Bft)
02.07.2017 07:33 12,1 °C 12,1 °C 89 % 1016,1 hPa 0,0 mm 5,5 km/h (1 Bft) W 274 ° 0 min 0,000 mm 0,0 UV-I 58 W/m² 10,3 °C 12,1 °C 12,9 km/h (3 Bft)
02.07.2017 07:34 12,1 °C 12,1 °C 89 % 1016,1 hPa 0,0 mm 7,8 km/h (2 Bft) W 269 ° 0 min 0,000 mm 0,0 UV-I 58 W/m² 10,3 °C 12,1 °C 12,9 km/h (3 Bft)
02.07.2017 07:35 12,1 °C 12,1 °C 89 % 1016,1 hPa 0,0 mm 7,8 km/h (2 Bft) SW 231 ° 0 min 0,000 mm 0,0 UV-I 60 W/m² 10,3 °C 12,1 °C 12,9 km/h (3 Bft)
02.07.2017 07:36 12,1 °C 12,2 °C 89 % 1016,1 hPa 0,0 mm 4,0 km/h (1 Bft) W-SW 250 ° 0 min 0,000 mm 0,0 UV-I 60 W/m² 10,3 °C 12,1 °C 6,4 km/h (2 Bft)
02.07.2017 07:37 12,1 °C 12,2 °C 89 % 1016,1 hPa 0,0 mm 5,4 km/h (1 Bft) W-NW 296 ° 0 min 0,000 mm 0,0 UV-I 60 W/m² 10,3 °C 12,1 °C 6,4 km/h (2 Bft)
02.07.2017 07:38 12,2 °C 12,2 °C 89 % 1016,1 hPa 0,0 mm 5,7 km/h (1 Bft) W-SW 253 ° 0 min 0,000 mm 0,0 UV-I 60 W/m² 10,4 °C 12,2 °C 9,7 km/h (2 Bft)
02.07.2017 07:39 12,2 °C 12,2 °C 89 % 1016,1 hPa 0,0 mm 3,2 km/h (1 Bft) W-SW 256 ° 0 min 0,000 mm 0,0 UV-I 58 W/m² 10,4 °C 12,2 °C 4,8 km/h (1 Bft)
02.07.2017 07:40 12,2 °C 12,2 °C 89 % 1016,1 hPa 0,0 mm 6,7 km/h (2 Bft) S-SW 194 ° 0 min 0,000 mm 0,0 UV-I 56 W/m² 10,4 °C 12,2 °C 14,5 km/h (3 Bft)
02.07.2017 07:41 12,2 °C 12,2 °C 89 % 1016,2 hPa 0,0 mm 9,7 km/h (2 Bft) W 270 ° 0 min 0,000 mm 0,0 UV-I 54 W/m² 10,4 °C 12,2 °C 17,7 km/h (3 Bft)
02.07.2017 07:42 12,2 °C 12,2 °C 89 % 1016,2 hPa 0,0 mm 5,3 km/h (1 Bft) W-SW 258 ° 0 min 0,000 mm 0,0 UV-I 51 W/m² 10,4 °C 12,2 °C 8,0 km/h (2 Bft)
02.07.2017 07:43 12,2 °C 12,2 °C 89 % 1016,1 hPa 0,0 mm 3,9 km/h (1 Bft) W 260 ° 0 min 0,000 mm 0,0 UV-I 49 W/m² 10,4 °C 12,2 °C 9,7 km/h (2 Bft)
02.07.2017 07:44 12,2 °C 12,2 °C 89 % 1016,2 hPa 0,0 mm 9,7 km/h (2 Bft) S-SW 210 ° 0 min 0,000 mm 0,0 UV-I 46 W/m² 10,4 °C 12,2 °C 17,7 km/h (3 Bft)
02.07.2017 07:45 12,2 °C 12,2 °C 88 % 1016,2 hPa 0,0 mm 1,5 km/h (1 Bft) S-SW 210 ° 0 min 0,000 mm 0,0 UV-I 44 W/m² 10,3 °C 12,2 °C 3,2 km/h (1 Bft)
02.07.2017 07:46 12,2 °C 12,2 °C 88 % 1016,1 hPa 0,0 mm 3,8 km/h (1 Bft) W 264 ° 0 min 0,000 mm 0,0 UV-I 44 W/m² 10,3 °C 12,2 °C 12,9 km/h (3 Bft)
02.07.2017 07:47 12,2 °C 12,2 °C 88 % 1016,2 hPa 0,0 mm 10,4 km/h (2 Bft) SW 221 ° 0 min 0,000 mm 0,0 UV-I 44 W/m² 10,3 °C 12,2 °C 14,5 km/h (3 Bft)
02.07.2017 07:48 12,2 °C 12,2 °C 88 % 1016,2 hPa 0,0 mm 5,5 km/h (1 Bft) W-NW 285 ° 0 min 0,000 mm 0,0 UV-I 44 W/m² 10,3 °C 12,2 °C 11,3 km/h (2 Bft)
02.07.2017 07:49 12,2 °C 12,2 °C 89 % 1016,2 hPa 0,0 mm 7,8 km/h (2 Bft) W 273 ° 0 min 0,000 mm 0,0 UV-I 46 W/m² 10,4 °C 12,2 °C 12,9 km/h (3 Bft)
02.07.2017 07:50 12,2 °C 12,2 °C 89 % 1016,2 hPa 0,0 mm 8,5 km/h (2 Bft) SW 224 ° 0 min 0,000 mm 0,0 UV-I 47 W/m² 10,4 °C 12,2 °C 16,1 km/h (3 Bft)
02.07.2017 07:51 12,2 °C 12,2 °C 88 % 1016,2 hPa 0,0 mm 8,7 km/h (2 Bft) W-SW 257 ° 0 min 0,000 mm 0,0 UV-I 49 W/m² 10,3 °C 12,2 °C 16,1 km/h (3 Bft)
02.07.2017 07:52 12,2 °C 12,2 °C 88 % 1016,2 hPa 0,0 mm 4,2 km/h (1 Bft) W 259 ° 0 min 0,000 mm 0,0 UV-I 49 W/m² 10,3 °C 12,2 °C 6,4 km/h (2 Bft)
02.07.2017 07:53 12,2 °C 12,2 °C 88 % 1016,2 hPa 0,0 mm 4,7 km/h (1 Bft) W-SW 243 ° 0 min 0,000 mm 0,0 UV-I 49 W/m² 10,3 °C 12,2 °C 6,4 km/h (2 Bft)
02.07.2017 07:54 12,2 °C 12,2 °C 88 % 1016,2 hPa 0,0 mm 2,7 km/h (1 Bft) NW 310 ° 0 min 0,000 mm 0,0 UV-I 49 W/m² 10,3 °C 12,2 °C 4,8 km/h (1 Bft)
02.07.2017 07:55 12,2 °C 12,2 °C 89 % 1016,2 hPa 0,0 mm 6,2 km/h (2 Bft) SW 229 ° 0 min 0,000 mm 0,0 UV-I 47 W/m² 10,4 °C 12,2 °C 9,7 km/h (2 Bft)
02.07.2017 07:56 12,2 °C 12,2 °C 89 % 1016,2 hPa 0,0 mm 8,0 km/h (2 Bft) W 265 ° 0 min 0,000 mm 0,0 UV-I 46 W/m² 10,4 °C 12,2 °C 14,5 km/h (3 Bft)
02.07.2017 07:57 12,2 °C 12,2 °C 88 % 1016,2 hPa 0,0 mm 4,5 km/h (1 Bft) SW 219 ° 0 min 0,000 mm 0,0 UV-I 46 W/m² 10,3 °C 12,2 °C 8,0 km/h (2 Bft)
02.07.2017 07:58 12,2 °C 12,2 °C 88 % 1016,3 hPa 0,0 mm 4,8 km/h (1 Bft) W-SW 241 ° 0 min 0,000 mm 0,0 UV-I 46 W/m² 10,3 °C 12,2 °C 8,0 km/h (2 Bft)
02.07.2017 07:59 12,2 °C 12,2 °C 88 % 1016,3 hPa 0,0 mm 7,1 km/h (2 Bft) W 278 ° 0 min 0,000 mm 0,0 UV-I 46 W/m² 10,3 °C 12,2 °C 11,3 km/h (2 Bft)
02.07.2017 08:00 12,2 °C 12,2 °C 88 % 1016,3 hPa 0,0 mm 4,0 km/h (1 Bft) W 261 ° 0 min 0,000 mm 0,0 UV-I 46 W/m² 10,3 °C 12,2 °C 6,4 km/h (2 Bft)
02.07.2017 08:01 12,2 °C 12,2 °C 88 % 1016,3 hPa 0,0 mm 9,1 km/h (2 Bft) W 261 ° 0 min 0,025 mm 0,0 UV-I 47 W/m² 10,3 °C 12,2 °C 14,5 km/h (3 Bft)
02.07.2017 08:02 12,2 °C 12,2 °C 88 % 1016,3 hPa 0,0 mm 7,1 km/h (2 Bft) NW 316 ° 0 min 0,000 mm 0,0 UV-I 51 W/m² 10,3 °C 12,2 °C 12,9 km/h (3 Bft)
02.07.2017 08:03 12,2 °C 12,2 °C 88 % 1016,4 hPa 0,0 mm 8,3 km/h (2 Bft) W 271 ° 0 min 0,000 mm 0,0 UV-I 54 W/m² 10,3 °C 12,2 °C 14,5 km/h (3 Bft)
02.07.2017 08:04 12,2 °C 12,2 °C 88 % 1016,4 hPa 0,0 mm 5,8 km/h (2 Bft) W 274 ° 0 min 0,000 mm 0,0 UV-I 58 W/m² 10,3 °C 12,2 °C 9,7 km/h (2 Bft)
02.07.2017 08:05 12,2 °C 12,2 °C 89 % 1016,4 hPa 0,0 mm 7,0 km/h (2 Bft) W 267 ° 0 min 0,000 mm 0,0 UV-I 62 W/m² 10,4 °C 12,2 °C 12,9 km/h (3 Bft)
02.07.2017 08:06 12,2 °C 12,2 °C 89 % 1016,4 hPa 0,0 mm 7,3 km/h (2 Bft) W 265 ° 0 min 0,000 mm 0,5 UV-I 65 W/m² 10,4 °C 12,2 °C 12,9 km/h (3 Bft)
02.07.2017 08:07 12,2 °C 12,2 °C 89 % 1016,3 hPa 0,0 mm 6,9 km/h (2 Bft) W 273 ° 0 min 0,000 mm 0,5 UV-I 69 W/m² 10,4 °C 12,2 °C 11,3 km/h (2 Bft)
02.07.2017 08:08 12,2 °C 12,2 °C 89 % 1016,4 hPa 0,0 mm 8,3 km/h (2 Bft) W-SW 249 ° 0 min 0,000 mm 0,5 UV-I 76 W/m² 10,4 °C 12,2 °C 12,9 km/h (3 Bft)
02.07.2017 08:09 12,3 °C 12,3 °C 89 % 1016,4 hPa 0,0 mm 8,4 km/h (2 Bft) W 270 ° 0 min 0,000 mm 0,5 UV-I 79 W/m² 10,5 °C 12,3 °C 12,9 km/h (3 Bft)
02.07.2017 08:10 12,3 °C 12,3 °C 89 % 1016,3 hPa 0,0 mm 7,4 km/h (2 Bft) W-NW 298 ° 0 min 0,000 mm 0,6 UV-I 79 W/m² 10,5 °C 12,3 °C 12,9 km/h (3 Bft)
02.07.2017 08:11 12,3 °C 12,3 °C 89 % 1016,4 hPa 0,0 mm 7,2 km/h (2 Bft) W 272 ° 0 min 0,000 mm 0,6 UV-I 88 W/m² 10,5 °C 12,3 °C 12,9 km/h (3 Bft)
02.07.2017 08:12 12,3 °C 12,3 °C 89 % 1016,4 hPa 0,0 mm 11,1 km/h (2 Bft) W-SW 250 ° 0 min 0,000 mm 0,6 UV-I 90 W/m² 10,5 °C 12,3 °C 17,7 km/h (3 Bft)
02.07.2017 08:13 12,3 °C 12,3 °C 88 % 1016,4 hPa 0,0 mm 8,0 km/h (2 Bft) W 267 ° 0 min 0,000 mm 0,6 UV-I 93 W/m² 10,4 °C 12,3 °C 11,3 km/h (2 Bft)
02.07.2017 08:14 12,3 °C 12,3 °C 88 % 1016,4 hPa 0,0 mm 12,4 km/h (3 Bft) W 265 ° 0 min 0,000 mm 0,6 UV-I 93 W/m² 10,4 °C 12,3 °C 16,1 km/h (3 Bft)
02.07.2017 08:15 12,3 °C 12,3 °C 89 % 1016,5 hPa 0,0 mm 9,0 km/h (2 Bft) W-NW 297 ° 0 min 0,000 mm 0,6 UV-I 95 W/m² 10,5 °C 12,3 °C 12,9 km/h (3 Bft)
02.07.2017 08:16 12,3 °C 12,3 °C 89 % 1016,4 hPa 0,0 mm 6,4 km/h (2 Bft) W-SW 246 ° 0 min 0,000 mm 0,7 UV-I 95 W/m² 10,5 °C 12,3 °C 12,9 km/h (3 Bft)
02.07.2017 08:17 12,3 °C 12,3 °C 90 % 1016,5 hPa 0,0 mm 11,1 km/h (2 Bft) W 273 ° 0 min 0,000 mm 0,7 UV-I 97 W/m² 10,7 °C 12,3 °C 16,1 km/h (3 Bft)
02.07.2017 08:18 12,3 °C 12,3 °C 90 % 1016,5 hPa 0,0 mm 5,0 km/h (1 Bft) W-SW 258 ° 0 min 0,000 mm 0,7 UV-I 97 W/m² 10,7 °C 12,3 °C 11,3 km/h (2 Bft)
02.07.2017 08:19 12,3 °C 12,3 °C 89 % 1016,5 hPa 0,0 mm 12,0 km/h (2 Bft) W 265 ° 0 min 0,000 mm 0,7 UV-I 93 W/m² 10,5 °C 12,3 °C 16,1 km/h (3 Bft)
02.07.2017 08:20 12,3 °C 12,3 °C 90 % 1016,5 hPa 0,0 mm 7,0 km/h (2 Bft) S-SW 200 ° 0 min 0,000 mm 0,6 UV-I 90 W/m² 10,7 °C 12,3 °C 12,9 km/h (3 Bft)
02.07.2017 08:21 12,3 °C 12,3 °C 89 % 1016,5 hPa 0,0 mm 7,9 km/h (2 Bft) W-NW 294 ° 0 min 0,000 mm 0,6 UV-I 90 W/m² 10,5 °C 12,3 °C 16,1 km/h (3 Bft)
02.07.2017 08:22 12,3 °C 12,3 °C 89 % 1016,5 hPa 0,0 mm 5,6 km/h (1 Bft) W 269 ° 0 min 0,000 mm 0,6 UV-I 90 W/m² 10,5 °C 12,3 °C 11,3 km/h (2 Bft)
02.07.2017 08:23 12,3 °C 12,3 °C 89 % 1016,5 hPa 0,0 mm 7,0 km/h (2 Bft) W-SW 255 ° 0 min 0,000 mm 0,7 UV-I 90 W/m² 10,5 °C 12,3 °C 12,9 km/h (3 Bft)
02.07.2017 08:24 12,2 °C 12,3 °C 89 % 1016,5 hPa 0,0 mm 11,1 km/h (2 Bft) W 267 ° 0 min 0,000 mm 0,7 UV-I 90 W/m² 10,4 °C 12,2 °C 19,3 km/h (3 Bft)
02.07.2017 08:25 12,2 °C 12,3 °C 89 % 1016,5 hPa 0,0 mm 7,7 km/h (2 Bft) W 269 ° 0 min 0,000 mm 0,7 UV-I 93 W/m² 10,4 °C 12,2 °C 14,5 km/h (3 Bft)
02.07.2017 08:26 12,2 °C 12,3 °C 89 % 1016,5 hPa 0,0 mm 9,9 km/h (2 Bft) W 259 ° 0 min 0,000 mm 0,7 UV-I 93 W/m² 10,4 °C 12,2 °C 17,7 km/h (3 Bft)
02.07.2017 08:27 12,2 °C 12,3 °C 89 % 1016,5 hPa 0,0 mm 7,4 km/h (2 Bft) W 269 ° 0 min 0,000 mm 0,7 UV-I 93 W/m² 10,4 °C 12,2 °C 11,3 km/h (2 Bft)
02.07.2017 08:28 12,3 °C 12,3 °C 90 % 1016,5 hPa 0,0 mm 6,8 km/h (2 Bft) W 261 ° 0 min 0,000 mm 0,7 UV-I 93 W/m² 10,7 °C 12,3 °C 14,5 km/h (3 Bft)
02.07.2017 08:29 12,3 °C 12,3 °C 90 % 1016,5 hPa 0,0 mm 13,6 km/h (3 Bft) W 264 ° 0 min 0,000 mm 0,7 UV-I 93 W/m² 10,7 °C 12,3 °C 22,5 km/h (4 Bft)
02.07.2017 08:30 12,2 °C 12,3 °C 90 % 1016,5 hPa 0,0 mm 13,4 km/h (3 Bft) W 265 ° 0 min 0,000 mm 0,7 UV-I 97 W/m² 10,6 °C 12,2 °C 19,3 km/h (3 Bft)
02.07.2017 08:31 12,2 °C 12,2 °C 89 % 1016,5 hPa 0,0 mm 7,9 km/h (2 Bft) W-SW 238 ° 0 min 0,000 mm 0,7 UV-I 102 W/m² 10,4 °C 12,2 °C 11,3 km/h (2 Bft)
02.07.2017 08:32 12,2 °C 12,2 °C 90 % 1016,5 hPa 0,0 mm 10,0 km/h (2 Bft) W 261 ° 0 min 0,000 mm 0,8 UV-I 107 W/m² 10,6 °C 12,2 °C 17,7 km/h (3 Bft)
02.07.2017 08:33 12,2 °C 12,2 °C 90 % 1016,6 hPa 0,0 mm 13,6 km/h (3 Bft) W 275 ° 0 min 0,000 mm 0,8 UV-I 113 W/m² 10,6 °C 12,2 °C 20,9 km/h (4 Bft)
02.07.2017 08:34 12,2 °C 12,2 °C 90 % 1016,5 hPa 0,0 mm 12,6 km/h (3 Bft) W-NW 294 ° 0 min 0,000 mm 0,8 UV-I 114 W/m² 10,6 °C 12,2 °C 17,7 km/h (3 Bft)
02.07.2017 08:35 12,2 °C 12,2 °C 90 % 1016,5 hPa 0,0 mm 11,8 km/h (2 Bft) W 266 ° 0 min 0,000 mm 0,8 UV-I 116 W/m² 10,6 °C 12,2 °C 16,1 km/h (3 Bft)
02.07.2017 08:36 12,2 °C 12,2 °C 90 % 1016,6 hPa 0,0 mm 7,2 km/h (2 Bft) W-SW 238 ° 0 min 0,000 mm 0,8 UV-I 114 W/m² 10,6 °C 12,2 °C 11,3 km/h (2 Bft)
02.07.2017 08:37 12,3 °C 12,3 °C 90 % 1016,6 hPa 0,0 mm 11,2 km/h (2 Bft) W 281 ° 0 min 0,000 mm 0,8 UV-I 113 W/m² 10,7 °C 12,3 °C 19,3 km/h (3 Bft)
02.07.2017 08:38 12,2 °C 12,3 °C 90 % 1016,6 hPa 0,0 mm 10,1 km/h (2 Bft) W 279 ° 0 min 0,000 mm 0,8 UV-I 113 W/m² 10,6 °C 12,2 °C 14,5 km/h (3 Bft)
02.07.2017 08:39 12,2 °C 12,2 °C 90 % 1016,6 hPa 0,0 mm 7,3 km/h (2 Bft) W 268 ° 0 min 0,000 mm 0,8 UV-I 111 W/m² 10,6 °C 12,2 °C 11,3 km/h (2 Bft)
02.07.2017 08:40 12,2 °C 12,2 °C 91 % 1016,7 hPa 0,0 mm 12,8 km/h (3 Bft) W-SW 256 ° 0 min 0,000 mm 0,8 UV-I 111 W/m² 10,8 °C 12,2 °C 20,9 km/h (4 Bft)
02.07.2017 08:41 12,2 °C 12,2 °C 90 % 1016,7 hPa 0,0 mm 10,5 km/h (2 Bft) W-NW 282 ° 0 min 0,000 mm 0,8 UV-I 109 W/m² 10,6 °C 12,2 °C 19,3 km/h (3 Bft)
02.07.2017 08:42 12,2 °C 12,2 °C 91 % 1016,7 hPa 0,0 mm 7,8 km/h (2 Bft) W-NW 286 ° 0 min 0,000 mm 0,8 UV-I 109 W/m² 10,8 °C 12,2 °C 11,3 km/h (2 Bft)
02.07.2017 08:43 12,2 °C 12,2 °C 91 % 1016,7 hPa 0,0 mm 12,6 km/h (3 Bft) W-SW 254 ° 0 min 0,000 mm 0,8 UV-I 113 W/m² 10,8 °C 12,2 °C 20,9 km/h (4 Bft)
02.07.2017 08:44 12,2 °C 12,2 °C 91 % 1016,7 hPa 0,0 mm 7,9 km/h (2 Bft) W-SW 242 ° 0 min 0,000 mm 0,8 UV-I 114 W/m² 10,8 °C 12,2 °C 16,1 km/h (3 Bft)
02.07.2017 08:45 12,2 °C 12,2 °C 91 % 1016,7 hPa 0,0 mm 11,3 km/h (2 Bft) W 264 ° 0 min 0,000 mm 0,8 UV-I 114 W/m² 10,8 °C 12,2 °C 17,7 km/h (3 Bft)
02.07.2017 08:46 12,1 °C 12,2 °C 91 % 1016,7 hPa 0,0 mm 10,9 km/h (2 Bft) W 267 ° 0 min 0,000 mm 0,9 UV-I 114 W/m² 10,7 °C 12,1 °C 17,7 km/h (3 Bft)
02.07.2017 08:47 12,1 °C 12,2 °C 91 % 1016,7 hPa 0,0 mm 7,4 km/h (2 Bft) W 270 ° 0 min 0,000 mm 0,9 UV-I 116 W/m² 10,7 °C 12,1 °C 12,9 km/h (3 Bft)
02.07.2017 08:48 12,1 °C 12,1 °C 91 % 1016,7 hPa 0,0 mm 6,6 km/h (2 Bft) W 268 ° 0 min 0,000 mm 0,9 UV-I 118 W/m² 10,7 °C 12,1 °C 14,5 km/h (3 Bft)
02.07.2017 08:49 12,1 °C 12,1 °C 91 % 1016,7 hPa 0,0 mm 4,6 km/h (1 Bft) W-NW 294 ° 0 min 0,000 mm 0,9 UV-I 120 W/m² 10,7 °C 12,1 °C 6,4 km/h (2 Bft)
02.07.2017 08:50 12,1 °C 12,2 °C 91 % 1016,7 hPa 0,0 mm 11,4 km/h (2 Bft) W-NW 288 ° 0 min 0,000 mm 0,9 UV-I 121 W/m² 10,7 °C 12,1 °C 16,1 km/h (3 Bft)
02.07.2017 08:51 12,2 °C 12,2 °C 91 % 1016,7 hPa 0,0 mm 12,1 km/h (2 Bft) W 275 ° 0 min 0,000 mm 0,9 UV-I 127 W/m² 10,8 °C 12,2 °C 17,7 km/h (3 Bft)
02.07.2017 08:52 12,1 °C 12,2 °C 91 % 1016,7 hPa 0,0 mm 6,8 km/h (2 Bft) W-SW 258 ° 0 min 0,000 mm 1,0 UV-I 130 W/m² 10,7 °C 12,1 °C 12,9 km/h (3 Bft)
02.07.2017 08:53 12,1 °C 12,1 °C 91 % 1016,7 hPa 0,0 mm 4,5 km/h (1 Bft) W 273 ° 0 min 0,000 mm 1,0 UV-I 134 W/m² 10,7 °C 12,1 °C 8,0 km/h (2 Bft)
02.07.2017 08:54 12,1 °C 12,1 °C 91 % 1016,7 hPa 0,0 mm 7,6 km/h (2 Bft) SW 221 ° 0 min 0,000 mm 1,0 UV-I 135 W/m² 10,7 °C 12,1 °C 11,3 km/h (2 Bft)
02.07.2017 08:55 12,1 °C 12,1 °C 91 % 1016,7 hPa 0,0 mm 5,2 km/h (1 Bft) W 259 ° 0 min 0,000 mm 1,0 UV-I 132 W/m² 10,7 °C 12,1 °C 11,3 km/h (2 Bft)
02.07.2017 08:56 12,2 °C 12,2 °C 92 % 1016,8 hPa 0,0 mm 11,9 km/h (2 Bft) W 271 ° 0 min 0,000 mm 0,9 UV-I 130 W/m² 10,9 °C 12,2 °C 16,1 km/h (3 Bft)
02.07.2017 08:57 12,2 °C 12,2 °C 92 % 1016,8 hPa 0,0 mm 11,8 km/h (2 Bft) W 264 ° 0 min 0,000 mm 0,9 UV-I 127 W/m² 10,9 °C 12,2 °C 16,1 km/h (3 Bft)
02.07.2017 08:58 12,2 °C 12,2 °C 92 % 1016,8 hPa 0,0 mm 7,5 km/h (2 Bft) W-NW 282 ° 0 min 0,000 mm 0,9 UV-I 125 W/m² 10,9 °C 12,2 °C 14,5 km/h (3 Bft)
02.07.2017 08:59 12,2 °C 12,2 °C 92 % 1016,8 hPa 0,0 mm 7,8 km/h (2 Bft) NW 304 ° 0 min 0,000 mm 0,9 UV-I 121 W/m² 10,9 °C 12,2 °C 14,5 km/h (3 Bft)
02.07.2017 09:00 12,2 °C 12,2 °C 92 % 1016,9 hPa 0,0 mm 3,3 km/h (1 Bft) W-SW 247 ° 0 min 0,051 mm 0,9 UV-I 116 W/m² 10,9 °C 12,2 °C 6,4 km/h (2 Bft)
02.07.2017 09:01 12,2 °C 12,2 °C 91 % 1016,8 hPa 0,0 mm 5,2 km/h (1 Bft) SW 229 ° 0 min 0,000 mm 0,9 UV-I 114 W/m² 10,8 °C 12,2 °C 11,3 km/h (2 Bft)
02.07.2017 09:02 12,2 °C 12,2 °C 92 % 1016,8 hPa 0,2 mm 6,0 km/h (2 Bft) SW 217 ° 0 min 0,000 mm 0,8 UV-I 113 W/m² 10,9 °C 12,2 °C 12,9 km/h (3 Bft)
02.07.2017 09:03 12,2 °C 12,2 °C 92 % 1016,9 hPa 0,0 mm 11,3 km/h (2 Bft) W-SW 246 ° 0 min 0,000 mm 0,8 UV-I 113 W/m² 10,9 °C 12,2 °C 17,7 km/h (3 Bft)
02.07.2017 09:04 12,2 °C 12,2 °C 91 % 1016,8 hPa 0,0 mm 6,0 km/h (2 Bft) W-SW 240 ° 0 min 0,000 mm 0,9 UV-I 113 W/m² 10,8 °C 12,2 °C 9,7 km/h (2 Bft)
02.07.2017 09:05 12,1 °C 12,2 °C 91 % 1016,8 hPa 0,0 mm 6,6 km/h (2 Bft) W-SW 257 ° 0 min 0,000 mm 0,9 UV-I 118 W/m² 10,7 °C 12,1 °C 14,5 km/h (3 Bft)
02.07.2017 09:06 12,1 °C 12,2 °C 92 % 1016,8 hPa 0,0 mm 1,7 km/h (1 Bft) W-SW 254 ° 0 min 0,000 mm 0,9 UV-I 118 W/m² 10,8 °C 12,1 °C 4,8 km/h (1 Bft)
02.07.2017 09:07 12,1 °C 12,1 °C 92 % 1016,8 hPa 0,0 mm 10,3 km/h (2 Bft) W-SW 248 ° 0 min 0,000 mm 0,9 UV-I 116 W/m² 10,8 °C 12,1 °C 17,7 km/h (3 Bft)
02.07.2017 09:08 12,1 °C 12,2 °C 92 % 1016,9 hPa 0,0 mm 8,9 km/h (2 Bft) W-SW 254 ° 0 min 0,000 mm 0,8 UV-I 114 W/m² 10,8 °C 12,1 °C 12,9 km/h (3 Bft)
02.07.2017 09:09 12,2 °C 12,2 °C 92 % 1016,9 hPa 0,0 mm 8,9 km/h (2 Bft) W-SW 254 ° 0 min 0,000 mm 0,8 UV-I 111 W/m² 10,9 °C 12,2 °C 12,9 km/h (3 Bft)
02.07.2017 09:10 12,2 °C 12,2 °C 92 % 1016,8 hPa 0,0 mm 6,7 km/h (2 Bft) W 267 ° 0 min 0,000 mm 0,8 UV-I 105 W/m² 10,9 °C 12,2 °C 9,7 km/h (2 Bft)
02.07.2017 09:11 12,2 °C 12,2 °C 92 % 1016,9 hPa 0,0 mm 8,5 km/h (2 Bft) W-NW 290 ° 0 min 0,000 mm 0,8 UV-I 102 W/m² 10,9 °C 12,2 °C 14,5 km/h (3 Bft)
02.07.2017 09:12 12,2 °C 12,2 °C 92 % 1016,9 hPa 0,0 mm 6,7 km/h (2 Bft) W-SW 246 ° 0 min 0,000 mm 0,7 UV-I 97 W/m² 10,9 °C 12,2 °C 11,3 km/h (2 Bft)
02.07.2017 09:13 12,2 °C 12,2 °C 92 % 1016,8 hPa 0,0 mm 6,4 km/h (2 Bft) W 259 ° 0 min 0,000 mm 0,7 UV-I 98 W/m² 10,9 °C 12,2 °C 12,9 km/h (3 Bft)
02.07.2017 09:14 12,2 °C 12,2 °C 92 % 1016,8 hPa 0,0 mm 6,5 km/h (2 Bft) W-SW 254 ° 0 min 0,000 mm 0,8 UV-I 100 W/m² 10,9 °C 12,2 °C 11,3 km/h (2 Bft)
02.07.2017 09:15 12,2 °C 12,2 °C 92 % 1016,9 hPa 0,0 mm 5,8 km/h (2 Bft) W-SW 257 ° 0 min 0,000 mm 0,8 UV-I 104 W/m² 10,9 °C 12,2 °C 9,7 km/h (2 Bft)
02.07.2017 09:16 12,2 °C 12,2 °C 92 % 1016,8 hPa 0,0 mm 5,6 km/h (1 Bft) W-SW 255 ° 0 min 0,000 mm 0,8 UV-I 104 W/m² 10,9 °C 12,2 °C 11,3 km/h (2 Bft)
02.07.2017 09:17 12,2 °C 12,2 °C 92 % 1016,9 hPa 0,0 mm 11,2 km/h (2 Bft) W 281 ° 0 min 0,000 mm 0,7 UV-I 100 W/m² 10,9 °C 12,2 °C 16,1 km/h (3 Bft)
02.07.2017 09:18 12,2 °C 12,2 °C 92 % 1016,9 hPa 0,0 mm 10,4 km/h (2 Bft) W 271 ° 0 min 0,000 mm 0,7 UV-I 95 W/m² 10,9 °C 12,2 °C 14,5 km/h (3 Bft)
02.07.2017 09:19 12,2 °C 12,2 °C 92 % 1016,9 hPa 0,0 mm 8,1 km/h (2 Bft) W 261 ° 0 min 0,000 mm 0,7 UV-I 95 W/m² 10,9 °C 12,2 °C 11,3 km/h (2 Bft)
02.07.2017 09:20 12,2 °C 12,2 °C 92 % 1016,9 hPa 0,0 mm 7,8 km/h (2 Bft) W 259 ° 0 min 0,000 mm 0,7 UV-I 95 W/m² 10,9 °C 12,2 °C 12,9 km/h (3 Bft)
02.07.2017 09:21 12,2 °C 12,2 °C 92 % 1016,9 hPa 0,0 mm 11,9 km/h (2 Bft) SW 228 ° 0 min 0,000 mm 0,8 UV-I 98 W/m² 10,9 °C 12,2 °C 14,5 km/h (3 Bft)
02.07.2017 09:22 12,2 °C 12,2 °C 92 % 1017,0 hPa 0,0 mm 5,8 km/h (2 Bft) W 279 ° 0 min 0,000 mm 0,8 UV-I 98 W/m² 10,9 °C 12,2 °C 11,3 km/h (2 Bft)
02.07.2017 09:23 12,2 °C 12,2 °C 92 % 1016,9 hPa 0,0 mm 14,0 km/h (3 Bft) W-SW 256 ° 0 min 0,000 mm 0,8 UV-I 111 W/m² 10,9 °C 12,2 °C 20,9 km/h (4 Bft)
02.07.2017 09:24 12,2 °C 12,2 °C 92 % 1017,0 hPa 0,0 mm 6,4 km/h (2 Bft) W-SW 247 ° 0 min 0,000 mm 0,9 UV-I 116 W/m² 10,9 °C 12,2 °C 11,3 km/h (2 Bft)
02.07.2017 09:25 12,2 °C 12,3 °C 92 % 1017,0 hPa 0,0 mm 6,1 km/h (2 Bft) W-SW 250 ° 0 min 0,000 mm 0,9 UV-I 114 W/m² 10,9 °C 12,2 °C 11,3 km/h (2 Bft)
02.07.2017 09:26 12,3 °C 12,3 °C 92 % 1017,0 hPa 0,0 mm 8,9 km/h (2 Bft) W 263 ° 0 min 0,000 mm 0,9 UV-I 116 W/m² 11,0 °C 12,3 °C 16,1 km/h (3 Bft)
02.07.2017 09:27 12,3 °C 12,3 °C 92 % 1017,0 hPa 0,0 mm 10,1 km/h (2 Bft) S-SW 211 ° 0 min 0,000 mm 0,9 UV-I 116 W/m² 11,0 °C 12,3 °C 12,9 km/h (3 Bft)
02.07.2017 09:28 12,3 °C 12,3 °C 92 % 1017,0 hPa 0,2 mm 6,9 km/h (2 Bft) W 279 ° 0 min 0,000 mm 0,9 UV-I 118 W/m² 11,0 °C 12,3 °C 12,9 km/h (3 Bft)
02.07.2017 09:29 12,3 °C 12,3 °C 92 % 1017,0 hPa 0,0 mm 8,7 km/h (2 Bft) W-SW 244 ° 0 min 0,000 mm 1,0 UV-I 121 W/m² 11,0 °C 12,3 °C 12,9 km/h (3 Bft)
02.07.2017 09:30 12,3 °C 12,3 °C 92 % 1017,0 hPa 0,0 mm 5,9 km/h (2 Bft) W 269 ° 0 min 0,000 mm 1,0 UV-I 130 W/m² 11,0 °C 12,3 °C 11,3 km/h (2 Bft)
02.07.2017 09:31 12,3 °C 12,3 °C 92 % 1017,0 hPa 0,0 mm 7,0 km/h (2 Bft) W-NW 284 ° 0 min 0,000 mm 1,1 UV-I 135 W/m² 11,0 °C 12,3 °C 14,5 km/h (3 Bft)
02.07.2017 09:32 12,3 °C 12,3 °C 92 % 1017,0 hPa 0,0 mm 8,1 km/h (2 Bft) W 260 ° 0 min 0,000 mm 1,1 UV-I 139 W/m² 11,0 °C 12,3 °C 16,1 km/h (3 Bft)
02.07.2017 09:33 12,3 °C 12,4 °C 92 % 1017,0 hPa 0,0 mm 7,4 km/h (2 Bft) S 175 ° 0 min 0,000 mm 1,1 UV-I 141 W/m² 11,0 °C 12,3 °C 14,5 km/h (3 Bft)
02.07.2017 09:34 12,4 °C 12,4 °C 92 % 1017,0 hPa 0,0 mm 8,7 km/h (2 Bft) W 259 ° 0 min 0,000 mm 1,1 UV-I 142 W/m² 11,1 °C 12,4 °C 16,1 km/h (3 Bft)
02.07.2017 09:35 12,3 °C 12,4 °C 92 % 1017,0 hPa 0,0 mm 9,9 km/h (2 Bft) W-SW 258 ° 0 min 0,000 mm 1,1 UV-I 142 W/m² 11,0 °C 12,3 °C 14,5 km/h (3 Bft)
02.07.2017 09:36 12,3 °C 12,4 °C 92 % 1017,0 hPa 0,0 mm 3,6 km/h (1 Bft) SW 219 ° 0 min 0,000 mm 1,2 UV-I 144 W/m² 11,0 °C 12,3 °C 9,7 km/h (2 Bft)
02.07.2017 09:37 12,3 °C 12,4 °C 92 % 1017,0 hPa 0,0 mm 6,0 km/h (2 Bft) W 281 ° 0 min 0,000 mm 1,2 UV-I 144 W/m² 11,0 °C 12,3 °C 11,3 km/h (2 Bft)
02.07.2017 09:38 12,4 °C 12,4 °C 92 % 1017,0 hPa 0,0 mm 5,4 km/h (1 Bft) W-SW 255 ° 0 min 0,000 mm 1,2 UV-I 146 W/m² 11,1 °C 12,4 °C 9,7 km/h (2 Bft)
02.07.2017 09:39 12,3 °C 12,4 °C 92 % 1017,0 hPa 0,2 mm 3,6 km/h (1 Bft) S 180 ° 0 min 0,000 mm 1,2 UV-I 148 W/m² 11,0 °C 12,3 °C 6,4 km/h (2 Bft)
02.07.2017 09:40 12,3 °C 12,3 °C 92 % 1017,1 hPa 0,0 mm 3,0 km/h (1 Bft) W 264 ° 0 min 0,000 mm 1,2 UV-I 148 W/m² 11,0 °C 12,3 °C 4,8 km/h (1 Bft)
02.07.2017 09:41 12,4 °C 12,4 °C 92 % 1017,0 hPa 0,0 mm 3,6 km/h (1 Bft) W 259 ° 0 min 0,000 mm 1,2 UV-I 148 W/m² 11,1 °C 12,4 °C 4,8 km/h (1 Bft)
02.07.2017 09:42 12,4 °C 12,4 °C 92 % 1017,1 hPa 0,0 mm 4,7 km/h (1 Bft) SW 236 ° 0 min 0,000 mm 1,2 UV-I 144 W/m² 11,1 °C 12,4 °C 9,7 km/h (2 Bft)
02.07.2017 09:43 12,4 °C 12,4 °C 92 % 1017,0 hPa 0,0 mm 5,6 km/h (1 Bft) W 269 ° 0 min 0,000 mm 1,2 UV-I 141 W/m² 11,1 °C 12,4 °C 9,7 km/h (2 Bft)
02.07.2017 09:44 12,4 °C 12,4 °C 92 % 1017,0 hPa 0,0 mm 6,0 km/h (2 Bft) W 276 ° 0 min 0,000 mm 1,1 UV-I 139 W/m² 11,1 °C 12,4 °C 12,9 km/h (3 Bft)
02.07.2017 09:45 12,4 °C 12,4 °C 92 % 1017,1 hPa 0,0 mm 8,7 km/h (2 Bft) NW 307 ° 0 min 0,000 mm 1,1 UV-I 139 W/m² 11,1 °C 12,4 °C 14,5 km/h (3 Bft)
02.07.2017 09:46 12,4 °C 12,4 °C 92 % 1017,0 hPa 0,0 mm 5,8 km/h (2 Bft) W 259 ° 0 min 0,000 mm 1,1 UV-I 137 W/m² 11,1 °C 12,4 °C 11,3 km/h (2 Bft)
02.07.2017 09:47 12,4 °C 12,4 °C 92 % 1017,0 hPa 0,2 mm 4,6 km/h (1 Bft) W-NW 283 ° 0 min 0,000 mm 1,1 UV-I 134 W/m² 11,1 °C 12,4 °C 9,7 km/h (2 Bft)
02.07.2017 09:48 12,4 °C 12,4 °C 92 % 1017,0 hPa 0,0 mm 11,2 km/h (2 Bft) W-SW 239 ° 0 min 0,000 mm 1,1 UV-I 130 W/m² 11,1 °C 12,4 °C 16,1 km/h (3 Bft)
02.07.2017 09:49 12,4 °C 12,4 °C 92 % 1017,0 hPa 0,0 mm 1,7 km/h (1 Bft) W-NW 292 ° 0 min 0,000 mm 1,0 UV-I 127 W/m² 11,1 °C 12,4 °C 6,4 km/h (2 Bft)
02.07.2017 09:50 12,4 °C 12,4 °C 92 % 1017,0 hPa 0,0 mm 3,6 km/h (1 Bft) W 260 ° 0 min 0,000 mm 1,0 UV-I 123 W/m² 11,1 °C 12,4 °C 6,4 km/h (2 Bft)
02.07.2017 09:51 12,4 °C 12,5 °C 92 % 1017,1 hPa 0,0 mm 3,6 km/h (1 Bft) SW 222 ° 0 min 0,000 mm 0,9 UV-I 120 W/m² 11,1 °C 12,4 °C 6,4 km/h (2 Bft)
02.07.2017 09:52 12,4 °C 12,5 °C 92 % 1017,0 hPa 0,0 mm 7,8 km/h (2 Bft) W-NW 294 ° 0 min 0,000 mm 0,9 UV-I 116 W/m² 11,1 °C 12,4 °C 16,1 km/h (3 Bft)
02.07.2017 09:53 12,4 °C 12,5 °C 92 % 1017,1 hPa 0,0 mm 7,1 km/h (2 Bft) NW 313 ° 0 min 0,000 mm 0,9 UV-I 113 W/m² 11,1 °C 12,4 °C 12,9 km/h (3 Bft)
02.07.2017 09:54 12,4 °C 12,4 °C 92 % 1017,1 hPa 0,0 mm 5,4 km/h (1 Bft) W 273 ° 0 min 0,000 mm 0,9 UV-I 113 W/m² 11,1 °C 12,4 °C 8,0 km/h (2 Bft)
02.07.2017 09:55 12,4 °C 12,4 °C 92 % 1017,1 hPa 0,0 mm 3,4 km/h (1 Bft) W-NW 288 ° 0 min 0,000 mm 0,9 UV-I 113 W/m² 11,1 °C 12,4 °C 4,8 km/h (1 Bft)
02.07.2017 09:56 12,4 °C 12,4 °C 92 % 1017,1 hPa 0,0 mm 4,1 km/h (1 Bft) W 272 ° 0 min 0,000 mm 0,9 UV-I 113 W/m² 11,1 °C 12,4 °C 6,4 km/h (2 Bft)
02.07.2017 09:57 12,4 °C 12,4 °C 92 % 1017,1 hPa 0,2 mm 3,7 km/h (1 Bft) W-NW 294 ° 0 min 0,000 mm 0,9 UV-I 113 W/m² 11,1 °C 12,4 °C 6,4 km/h (2 Bft)
02.07.2017 09:58 12,4 °C 12,4 °C 92 % 1017,1 hPa 0,0 mm 10,7 km/h (2 Bft) W 276 ° 0 min 0,000 mm 0,9 UV-I 113 W/m² 11,1 °C 12,4 °C 16,1 km/h (3 Bft)
02.07.2017 09:59 12,4 °C 12,4 °C 92 % 1017,1 hPa 0,0 mm 7,8 km/h (2 Bft) W 268 ° 0 min 0,000 mm 1,0 UV-I 116 W/m² 11,1 °C 12,4 °C 16,1 km/h (3 Bft)
02.07.2017 10:00 12,4 °C 12,4 °C 92 % 1017,1 hPa 0,0 mm 7,0 km/h (2 Bft) W-SW 252 ° 0 min 0,076 mm 1,0 UV-I 118 W/m² 11,1 °C 12,4 °C 12,9 km/h (3 Bft)
02.07.2017 10:01 12,3 °C 12,4 °C 92 % 1017,1 hPa 0,0 mm 10,5 km/h (2 Bft) W 274 ° 0 min 0,000 mm 1,0 UV-I 118 W/m² 11,0 °C 12,3 °C 20,9 km/h (4 Bft)
02.07.2017 10:02 12,3 °C 12,4 °C 92 % 1017,1 hPa 0,0 mm 8,2 km/h (2 Bft) W-SW 258 ° 0 min 0,000 mm 1,0 UV-I 120 W/m² 11,0 °C 12,3 °C 12,9 km/h (3 Bft)
02.07.2017 10:03 12,3 °C 12,3 °C 92 % 1017,1 hPa 0,0 mm 4,1 km/h (1 Bft) W-NW 287 ° 0 min 0,000 mm 1,0 UV-I 118 W/m² 11,0 °C 12,3 °C 6,4 km/h (2 Bft)
02.07.2017 10:04 12,3 °C 12,3 °C 92 % 1017,1 hPa 0,2 mm 5,3 km/h (1 Bft) W 281 ° 0 min 0,000 mm 1,0 UV-I 116 W/m² 11,0 °C 12,3 °C 9,7 km/h (2 Bft)
02.07.2017 10:05 12,4 °C 12,4 °C 92 % 1017,2 hPa 0,0 mm 5,6 km/h (1 Bft) W 277 ° 0 min 0,000 mm 1,0 UV-I 116 W/m² 11,1 °C 12,4 °C 9,7 km/h (2 Bft)
02.07.2017 10:06 12,4 °C 12,4 °C 93 % 1017,2 hPa 0,0 mm 6,8 km/h (2 Bft) W 265 ° 0 min 0,000 mm 1,0 UV-I 118 W/m² 11,3 °C 12,4 °C 11,3 km/h (2 Bft)
02.07.2017 10:07 12,4 °C 12,4 °C 93 % 1017,2 hPa 0,0 mm 8,0 km/h (2 Bft) W-SW 248 ° 0 min 0,000 mm 1,1 UV-I 125 W/m² 11,3 °C 12,4 °C 14,5 km/h (3 Bft)
02.07.2017 10:08 12,4 °C 12,4 °C 92 % 1017,2 hPa 0,0 mm 10,6 km/h (2 Bft) W-SW 250 ° 0 min 0,000 mm 1,1 UV-I 130 W/m² 11,1 °C 12,4 °C 14,5 km/h (3 Bft)
02.07.2017 10:09 12,3 °C 12,4 °C 92 % 1017,2 hPa 0,0 mm 7,1 km/h (2 Bft) W-NW 282 ° 0 min 0,000 mm 1,2 UV-I 137 W/m² 11,0 °C 12,3 °C 11,3 km/h (2 Bft)
02.07.2017 10:10 12,4 °C 12,4 °C 92 % 1017,2 hPa 0,0 mm 2,4 km/h (1 Bft) W 259 ° 0 min 0,000 mm 1,3 UV-I 148 W/m² 11,1 °C 12,4 °C 4,8 km/h (1 Bft)
02.07.2017 10:11 12,4 °C 12,4 °C 93 % 1017,2 hPa 0,0 mm 8,3 km/h (2 Bft) W-NW 292 ° 0 min 0,000 mm 1,3 UV-I 153 W/m² 11,3 °C 12,4 °C 11,3 km/h (2 Bft)
02.07.2017 10:12 12,4 °C 12,4 °C 92 % 1017,3 hPa 0,0 mm 4,8 km/h (1 Bft) W-NW 286 ° 0 min 0,000 mm 1,3 UV-I 153 W/m² 11,1 °C 12,4 °C 11,3 km/h (2 Bft)
02.07.2017 10:13 12,4 °C 12,4 °C 93 % 1017,3 hPa 0,0 mm 5,6 km/h (1 Bft) W-SW 245 ° 0 min 0,000 mm 1,3 UV-I 149 W/m² 11,3 °C 12,4 °C 8,0 km/h (2 Bft)
02.07.2017 10:14 12,5 °C 12,5 °C 93 % 1017,3 hPa 0,0 mm 5,2 km/h (1 Bft) W-SW 248 ° 0 min 0,000 mm 1,3 UV-I 148 W/m² 11,4 °C 12,5 °C 9,7 km/h (2 Bft)
02.07.2017 10:15 12,5 °C 12,5 °C 93 % 1017,3 hPa 0,0 mm 6,1 km/h (2 Bft) W-NW 282 ° 0 min 0,000 mm 1,3 UV-I 148 W/m² 11,4 °C 12,5 °C 11,3 km/h (2 Bft)
02.07.2017 10:16 12,5 °C 12,6 °C 93 % 1017,3 hPa 0,0 mm 5,6 km/h (1 Bft) W 259 ° 0 min 0,000 mm 1,3 UV-I 146 W/m² 11,4 °C 12,5 °C 9,7 km/h (2 Bft)
02.07.2017 10:17 12,5 °C 12,6 °C 93 % 1017,3 hPa 0,0 mm 6,6 km/h (2 Bft) W 261 ° 0 min 0,000 mm 1,3 UV-I 148 W/m² 11,4 °C 12,5 °C 12,9 km/h (3 Bft)
02.07.2017 10:18 12,5 °C 12,6 °C 93 % 1017,4 hPa 0,0 mm 12,1 km/h (2 Bft) W 261 ° 0 min 0,000 mm 1,3 UV-I 149 W/m² 11,4 °C 12,5 °C 17,7 km/h (3 Bft)
02.07.2017 10:19 12,5 °C 12,5 °C 93 % 1017,3 hPa 0,0 mm 11,3 km/h (2 Bft) W 277 ° 0 min 0,000 mm 1,3 UV-I 153 W/m² 11,4 °C 12,5 °C 16,1 km/h (3 Bft)
02.07.2017 10:20 12,4 °C 12,5 °C 92 % 1017,4 hPa 0,0 mm 8,1 km/h (2 Bft) W-NW 301 ° 0 min 0,000 mm 1,3 UV-I 156 W/m² 11,1 °C 12,4 °C 12,9 km/h (3 Bft)
02.07.2017 10:21 12,4 °C 12,4 °C 93 % 1017,4 hPa 0,0 mm 7,1 km/h (2 Bft) NW 305 ° 0 min 0,000 mm 1,4 UV-I 160 W/m² 11,3 °C 12,4 °C 12,9 km/h (3 Bft)
02.07.2017 10:22 12,4 °C 12,4 °C 93 % 1017,4 hPa 0,0 mm 8,4 km/h (2 Bft) W 272 ° 0 min 0,000 mm 1,4 UV-I 165 W/m² 11,3 °C 12,4 °C 12,9 km/h (3 Bft)
02.07.2017 10:23 12,4 °C 12,4 °C 93 % 1017,4 hPa 0,0 mm 13,1 km/h (3 Bft) NW 315 ° 0 min 0,000 mm 1,4 UV-I 169 W/m² 11,3 °C 12,4 °C 17,7 km/h (3 Bft)
02.07.2017 10:24 12,4 °C 12,4 °C 93 % 1017,4 hPa 0,0 mm 9,3 km/h (2 Bft) W 263 ° 0 min 0,000 mm 1,5 UV-I 172 W/m² 11,3 °C 12,4 °C 12,9 km/h (3 Bft)
02.07.2017 10:25 12,4 °C 12,4 °C 93 % 1017,4 hPa 0,0 mm 8,8 km/h (2 Bft) W-NW 288 ° 0 min 0,000 mm 1,5 UV-I 176 W/m² 11,3 °C 12,4 °C 12,9 km/h (3 Bft)
02.07.2017 10:26 12,5 °C 12,5 °C 93 % 1017,4 hPa 0,0 mm 4,2 km/h (1 Bft) W 265 ° 0 min 0,000 mm 1,5 UV-I 179 W/m² 11,4 °C 12,5 °C 6,4 km/h (2 Bft)
02.07.2017 10:27 12,6 °C 12,6 °C 93 % 1017,4 hPa 0,0 mm 6,9 km/h (2 Bft) W-NW 288 ° 0 min 0,000 mm 1,5 UV-I 181 W/m² 11,5 °C 12,6 °C 9,7 km/h (2 Bft)
02.07.2017 10:28 12,6 °C 12,6 °C 93 % 1017,4 hPa 0,0 mm 6,2 km/h (2 Bft) NW 304 ° 0 min 0,000 mm 1,6 UV-I 183 W/m² 11,5 °C 12,6 °C 9,7 km/h (2 Bft)
02.07.2017 10:29 12,6 °C 12,6 °C 93 % 1017,4 hPa 0,0 mm 9,9 km/h (2 Bft) W-NW 302 ° 0 min 0,000 mm 1,5 UV-I 179 W/m² 11,5 °C 12,6 °C 16,1 km/h (3 Bft)
02.07.2017 10:30 12,6 °C 12,6 °C 93 % 1017,4 hPa 0,0 mm 9,5 km/h (2 Bft) W 271 ° 0 min 0,000 mm 1,5 UV-I 178 W/m² 11,5 °C 12,6 °C 14,5 km/h (3 Bft)
02.07.2017 10:31 12,6 °C 12,6 °C 93 % 1017,5 hPa 0,0 mm 5,2 km/h (1 Bft) NW 322 ° 0 min 0,000 mm 1,5 UV-I 179 W/m² 11,5 °C 12,6 °C 11,3 km/h (2 Bft)
02.07.2017 10:32 12,6 °C 12,6 °C 93 % 1017,4 hPa 0,0 mm 8,2 km/h (2 Bft) W 279 ° 0 min 0,000 mm 1,5 UV-I 179 W/m² 11,5 °C 12,6 °C 11,3 km/h (2 Bft)
02.07.2017 10:33 12,6 °C 12,6 °C 93 % 1017,4 hPa 0,0 mm 7,8 km/h (2 Bft) W 266 ° 0 min 0,000 mm 1,6 UV-I 185 W/m² 11,5 °C 12,6 °C 12,9 km/h (3 Bft)
02.07.2017 10:34 12,7 °C 12,7 °C 93 % 1017,5 hPa 0,0 mm 4,3 km/h (1 Bft) W 268 ° 0 min 0,000 mm 1,6 UV-I 192 W/m² 11,6 °C 12,7 °C 6,4 km/h (2 Bft)
02.07.2017 10:35 12,7 °C 12,7 °C 93 % 1017,4 hPa 0,0 mm 8,5 km/h (2 Bft) W 259 ° 0 min 0,000 mm 1,7 UV-I 195 W/m² 11,6 °C 12,7 °C 12,9 km/h (3 Bft)
02.07.2017 10:36 12,7 °C 12,7 °C 93 % 1017,5 hPa 0,0 mm 5,2 km/h (1 Bft) W-NW 292 ° 0 min 0,000 mm 1,7 UV-I 200 W/m² 11,6 °C 12,7 °C 11,3 km/h (2 Bft)
02.07.2017 10:37 12,7 °C 12,7 °C 93 % 1017,5 hPa 0,0 mm 4,1 km/h (1 Bft) W-NW 291 ° 0 min 0,000 mm 1,7 UV-I 204 W/m² 11,6 °C 12,7 °C 11,3 km/h (2 Bft)
02.07.2017 10:38 12,7 °C 12,7 °C 93 % 1017,5 hPa 0,0 mm 7,4 km/h (2 Bft) W-SW 245 ° 0 min 0,000 mm 1,8 UV-I 209 W/m² 11,6 °C 12,7 °C 14,5 km/h (3 Bft)
02.07.2017 10:39 12,7 °C 12,7 °C 93 % 1017,5 hPa 0,0 mm 6,0 km/h (2 Bft) W 259 ° 0 min 0,000 mm 1,9 UV-I 218 W/m² 11,6 °C 12,7 °C 12,9 km/h (3 Bft)
02.07.2017 10:40 12,7 °C 12,7 °C 93 % 1017,5 hPa 0,0 mm 13,5 km/h (3 Bft) W 275 ° 0 min 0,000 mm 1,9 UV-I 225 W/m² 11,6 °C 12,7 °C 17,7 km/h (3 Bft)
02.07.2017 10:41 12,7 °C 12,7 °C 92 % 1017,5 hPa 0,0 mm 7,6 km/h (2 Bft) W-SW 238 ° 0 min 0,000 mm 2,0 UV-I 234 W/m² 11,4 °C 12,7 °C 11,3 km/h (2 Bft)
02.07.2017 10:42 12,7 °C 12,7 °C 93 % 1017,4 hPa 0,0 mm 3,3 km/h (1 Bft) W 276 ° 0 min 0,000 mm 2,0 UV-I 237 W/m² 11,6 °C 12,7 °C 4,8 km/h (1 Bft)
02.07.2017 10:43 12,7 °C 12,7 °C 93 % 1017,5 hPa 0,0 mm 5,8 km/h (2 Bft) W-SW 257 ° 0 min 0,000 mm 2,0 UV-I 241 W/m² 11,6 °C 12,7 °C 11,3 km/h (2 Bft)
02.07.2017 10:44 12,8 °C 12,8 °C 93 % 1017,4 hPa 0,0 mm 5,2 km/h (1 Bft) W-SW 254 ° 0 min 0,000 mm 2,1 UV-I 244 W/m² 11,7 °C 12,8 °C 9,7 km/h (2 Bft)
02.07.2017 10:45 12,8 °C 12,8 °C 93 % 1017,5 hPa 0,2 mm 10,9 km/h (2 Bft) W-NW 292 ° 0 min 0,000 mm 2,1 UV-I 246 W/m² 11,7 °C 12,8 °C 17,7 km/h (3 Bft)
02.07.2017 10:46 12,8 °C 12,8 °C 93 % 1017,5 hPa 0,0 mm 9,5 km/h (2 Bft) W 279 ° 0 min 0,000 mm 2,1 UV-I 246 W/m² 11,7 °C 12,8 °C 14,5 km/h (3 Bft)
02.07.2017 10:47 12,8 °C 12,8 °C 93 % 1017,5 hPa 0,0 mm 6,1 km/h (2 Bft) W 262 ° 0 min 0,000 mm 2,0 UV-I 243 W/m² 11,7 °C 12,8 °C 12,9 km/h (3 Bft)
02.07.2017 10:48 12,8 °C 12,8 °C 93 % 1017,5 hPa 0,0 mm 9,9 km/h (2 Bft) W-NW 284 ° 0 min 0,000 mm 2,0 UV-I 237 W/m² 11,7 °C 12,8 °C 16,1 km/h (3 Bft)
02.07.2017 10:49 12,8 °C 12,8 °C 93 % 1017,5 hPa 0,0 mm 10,3 km/h (2 Bft) W 269 ° 0 min 0,000 mm 1,9 UV-I 232 W/m² 11,7 °C 12,8 °C 16,1 km/h (3 Bft)
02.07.2017 10:50 12,8 °C 12,8 °C 93 % 1017,5 hPa 0,0 mm 6,8 km/h (2 Bft) W-NW 298 ° 0 min 0,000 mm 1,9 UV-I 225 W/m² 11,7 °C 12,8 °C 11,3 km/h (2 Bft)
02.07.2017 10:51 12,8 °C 12,9 °C 93 % 1017,5 hPa 0,0 mm 4,5 km/h (1 Bft) W 271 ° 0 min 0,000 mm 1,8 UV-I 218 W/m² 11,7 °C 12,8 °C 9,7 km/h (2 Bft)
02.07.2017 10:52 12,9 °C 12,9 °C 93 % 1017,5 hPa 0,0 mm 6,7 km/h (2 Bft) W-NW 286 ° 0 min 0,000 mm 1,9 UV-I 218 W/m² 11,8 °C 12,9 °C 11,3 km/h (2 Bft)
02.07.2017 10:53 12,9 °C 12,9 °C 93 % 1017,5 hPa 0,0 mm 4,2 km/h (1 Bft) W 271 ° 0 min 0,000 mm 1,8 UV-I 213 W/m² 11,8 °C 12,9 °C 6,4 km/h (2 Bft)
02.07.2017 10:54 12,9 °C 12,9 °C 93 % 1017,5 hPa 0,0 mm 6,2 km/h (2 Bft) W-NW 301 ° 0 min 0,000 mm 1,8 UV-I 207 W/m² 11,8 °C 12,9 °C 11,3 km/h (2 Bft)
02.07.2017 10:55 12,9 °C 12,9 °C 93 % 1017,5 hPa 0,0 mm 4,8 km/h (1 Bft) W-SW 237 ° 0 min 0,000 mm 1,8 UV-I 200 W/m² 11,8 °C 12,9 °C 14,5 km/h (3 Bft)
02.07.2017 10:56 12,9 °C 12,9 °C 93 % 1017,5 hPa 0,0 mm 5,7 km/h (1 Bft) W 263 ° 0 min 0,000 mm 1,7 UV-I 193 W/m² 11,8 °C 12,9 °C 11,3 km/h (2 Bft)
02.07.2017 10:57 12,9 °C 12,9 °C 93 % 1017,5 hPa 0,0 mm 7,5 km/h (2 Bft) W 259 ° 0 min 0,000 mm 1,6 UV-I 186 W/m² 11,8 °C 12,9 °C 12,9 km/h (3 Bft)
02.07.2017 10:58 12,9 °C 12,9 °C 93 % 1017,5 hPa 0,0 mm 6,0 km/h (2 Bft) W 272 ° 0 min 0,000 mm 1,6 UV-I 179 W/m² 11,8 °C 12,9 °C 11,3 km/h (2 Bft)
02.07.2017 10:59 12,9 °C 12,9 °C 93 % 1017,6 hPa 0,0 mm 9,3 km/h (2 Bft) W 259 ° 0 min 0,000 mm 1,6 UV-I 179 W/m² 11,8 °C 12,9 °C 14,5 km/h (3 Bft)
02.07.2017 11:00 12,9 °C 12,9 °C 93 % 1017,5 hPa 0,0 mm 8,0 km/h (2 Bft) NW 305 ° 0 min 0,000 mm 1,6 UV-I 179 W/m² 11,8 °C 12,9 °C 11,3 km/h (2 Bft)
02.07.2017 11:01 12,9 °C 12,9 °C 93 % 1017,6 hPa 0,0 mm 7,4 km/h (2 Bft) W-NW 301 ° 0 min 0,102 mm 1,6 UV-I 178 W/m² 11,8 °C 12,9 °C 14,5 km/h (3 Bft)
02.07.2017 11:02 12,9 °C 12,9 °C 93 % 1017,6 hPa 0,0 mm 11,6 km/h (2 Bft) W 272 ° 0 min 0,000 mm 1,6 UV-I 176 W/m² 11,8 °C 12,9 °C 17,7 km/h (3 Bft)
02.07.2017 11:03 12,9 °C 12,9 °C 93 % 1017,6 hPa 0,0 mm 9,1 km/h (2 Bft) W-SW 250 ° 0 min 0,000 mm 1,5 UV-I 176 W/m² 11,8 °C 12,9 °C 14,5 km/h (3 Bft)
02.07.2017 11:04 12,9 °C 12,9 °C 93 % 1017,6 hPa 0,0 mm 6,3 km/h (2 Bft) W-NW 303 ° 0 min 0,000 mm 1,6 UV-I 176 W/m² 11,8 °C 12,9 °C 12,9 km/h (3 Bft)
02.07.2017 11:05 12,8 °C 12,9 °C 93 % 1017,6 hPa 0,0 mm 8,0 km/h (2 Bft) W 261 ° 0 min 0,000 mm 1,6 UV-I 179 W/m² 11,7 °C 12,8 °C 14,5 km/h (3 Bft)
02.07.2017 11:06 12,8 °C 12,8 °C 92 % 1017,6 hPa 0,0 mm 5,7 km/h (1 Bft) W-NW 287 ° 0 min 0,000 mm 1,6 UV-I 181 W/m² 11,5 °C 12,8 °C 6,4 km/h (2 Bft)
02.07.2017 11:07 12,8 °C 12,8 °C 93 % 1017,7 hPa 0,0 mm 9,7 km/h (2 Bft) W 277 ° 0 min 0,000 mm 1,7 UV-I 185 W/m² 11,7 °C 12,8 °C 12,9 km/h (3 Bft)
02.07.2017 11:08 12,8 °C 12,8 °C 93 % 1017,6 hPa 0,0 mm 7,1 km/h (2 Bft) NW 309 ° 0 min 0,000 mm 1,7 UV-I 186 W/m² 11,7 °C 12,8 °C 11,3 km/h (2 Bft)
02.07.2017 11:09 12,9 °C 12,9 °C 93 % 1017,7 hPa 0,0 mm 4,0 km/h (1 Bft) W 270 ° 0 min 0,000 mm 1,7 UV-I 185 W/m² 11,8 °C 12,9 °C 9,7 km/h (2 Bft)
02.07.2017 11:10 12,9 °C 12,9 °C 93 % 1017,7 hPa 0,0 mm 11,0 km/h (2 Bft) W-SW 246 ° 0 min 0,000 mm 1,6 UV-I 179 W/m² 11,8 °C 12,9 °C 14,5 km/h (3 Bft)
02.07.2017 11:11 12,9 °C 12,9 °C 93 % 1017,7 hPa 0,0 mm 9,9 km/h (2 Bft) W-SW 257 ° 0 min 0,000 mm 1,6 UV-I 176 W/m² 11,8 °C 12,9 °C 14,5 km/h (3 Bft)
02.07.2017 11:12 12,8 °C 12,9 °C 93 % 1017,7 hPa 0,0 mm 8,5 km/h (2 Bft) W-SW 258 ° 0 min 0,000 mm 1,6 UV-I 179 W/m² 11,7 °C 12,8 °C 12,9 km/h (3 Bft)
02.07.2017 11:13 12,8 °C 12,9 °C 93 % 1017,7 hPa 0,0 mm 13,4 km/h (3 Bft) W 275 ° 0 min 0,000 mm 1,6 UV-I 179 W/m² 11,7 °C 12,8 °C 16,1 km/h (3 Bft)
02.07.2017 11:14 12,8 °C 12,8 °C 93 % 1017,6 hPa 0,0 mm 9,7 km/h (2 Bft) W-NW 297 ° 0 min 0,000 mm 1,6 UV-I 178 W/m² 11,7 °C 12,8 °C 16,1 km/h (3 Bft)
02.07.2017 11:15 12,8 °C 12,8 °C 93 % 1017,7 hPa 0,0 mm 5,5 km/h (1 Bft) W-NW 287 ° 0 min 0,000 mm 1,6 UV-I 178 W/m² 11,7 °C 12,8 °C 8,0 km/h (2 Bft)
02.07.2017 11:16 12,8 °C 12,8 °C 93 % 1017,6 hPa 0,2 mm 8,1 km/h (2 Bft) W-SW 254 ° 0 min 0,000 mm 1,6 UV-I 178 W/m² 11,7 °C 12,8 °C 14,5 km/h (3 Bft)
02.07.2017 11:17 12,8 °C 12,8 °C 93 % 1017,7 hPa 0,0 mm 9,1 km/h (2 Bft) W 270 ° 0 min 0,000 mm 1,6 UV-I 176 W/m² 11,7 °C 12,8 °C 12,9 km/h (3 Bft)
02.07.2017 11:18 12,8 °C 12,8 °C 93 % 1017,7 hPa 0,0 mm 11,2 km/h (2 Bft) W 269 ° 0 min 0,000 mm 1,7 UV-I 183 W/m² 11,7 °C 12,8 °C 16,1 km/h (3 Bft)
02.07.2017 11:19 12,9 °C 12,9 °C 93 % 1017,7 hPa 0,0 mm 8,2 km/h (2 Bft) W-NW 282 ° 0 min 0,000 mm 1,7 UV-I 188 W/m² 11,8 °C 12,9 °C 11,3 km/h (2 Bft)
02.07.2017 11:20 12,8 °C 12,9 °C 93 % 1017,8 hPa 0,0 mm 13,2 km/h (3 Bft) W 272 ° 0 min 0,000 mm 1,7 UV-I 193 W/m² 11,7 °C 12,8 °C 17,7 km/h (3 Bft)
02.07.2017 11:21 12,8 °C 12,9 °C 93 % 1017,8 hPa 0,0 mm 10,6 km/h (2 Bft) W 274 ° 0 min 0,000 mm 1,8 UV-I 199 W/m² 11,7 °C 12,8 °C 16,1 km/h (3 Bft)
02.07.2017 11:22 12,9 °C 12,9 °C 93 % 1017,7 hPa 0,0 mm 12,0 km/h (2 Bft) W 272 ° 0 min 0,000 mm 1,9 UV-I 204 W/m² 11,8 °C 12,9 °C 19,3 km/h (3 Bft)
02.07.2017 11:23 12,9 °C 12,9 °C 93 % 1017,7 hPa 0,0 mm 11,8 km/h (2 Bft) W 259 ° 0 min 0,000 mm 1,9 UV-I 206 W/m² 11,8 °C 12,9 °C 17,7 km/h (3 Bft)
02.07.2017 11:24 12,9 °C 12,9 °C 93 % 1017,7 hPa 0,0 mm 3,4 km/h (1 Bft) W-SW 253 ° 0 min 0,000 mm 1,8 UV-I 202 W/m² 11,8 °C 12,9 °C 4,8 km/h (1 Bft)
02.07.2017 11:25 13,0 °C 13,0 °C 93 % 1017,8 hPa 0,0 mm 10,5 km/h (2 Bft) SW 222 ° 0 min 0,000 mm 1,8 UV-I 202 W/m² 11,9 °C 13,0 °C 22,5 km/h (4 Bft)
02.07.2017 11:26 13,0 °C 13,0 °C 93 % 1017,8 hPa 0,0 mm 9,7 km/h (2 Bft) W 267 ° 0 min 0,000 mm 1,8 UV-I 202 W/m² 11,9 °C 13,0 °C 16,1 km/h (3 Bft)
02.07.2017 11:27 13,0 °C 13,0 °C 93 % 1017,8 hPa 0,0 mm 9,0 km/h (2 Bft) W-NW 296 ° 0 min 0,000 mm 1,8 UV-I 206 W/m² 11,9 °C 13,0 °C 12,9 km/h (3 Bft)
02.07.2017 11:28 12,9 °C 13,0 °C 93 % 1017,8 hPa 0,0 mm 8,3 km/h (2 Bft) W 273 ° 0 min 0,000 mm 2,0 UV-I 214 W/m² 11,8 °C 12,9 °C 16,1 km/h (3 Bft)
02.07.2017 11:29 13,0 °C 13,0 °C 93 % 1017,8 hPa 0,0 mm 6,1 km/h (2 Bft) W-NW 294 ° 0 min 0,000 mm 1,9 UV-I 214 W/m² 11,9 °C 13,0 °C 9,7 km/h (2 Bft)
02.07.2017 11:30 13,1 °C 13,1 °C 93 % 1017,8 hPa 0,0 mm 5,3 km/h (1 Bft) W-SW 256 ° 0 min 0,000 mm 1,9 UV-I 214 W/m² 12,0 °C 13,1 °C 12,9 km/h (3 Bft)
02.07.2017 11:31 13,1 °C 13,1 °C 93 % 1017,8 hPa 0,0 mm 7,5 km/h (2 Bft) W-SW 249 ° 0 min 0,000 mm 1,9 UV-I 206 W/m² 12,0 °C 13,1 °C 11,3 km/h (2 Bft)
02.07.2017 11:32 13,1 °C 13,1 °C 93 % 1017,8 hPa 0,0 mm 9,2 km/h (2 Bft) W-SW 249 ° 0 min 0,000 mm 1,7 UV-I 190 W/m² 12,0 °C 13,1 °C 12,9 km/h (3 Bft)
02.07.2017 11:33 13,2 °C 13,2 °C 93 % 1017,8 hPa 0,0 mm 5,5 km/h (1 Bft) W-SW 240 ° 0 min 0,000 mm 1,9 UV-I 211 W/m² 12,1 °C 13,2 °C 9,7 km/h (2 Bft)
02.07.2017 11:34 13,2 °C 13,2 °C 93 % 1017,9 hPa 0,0 mm 5,4 km/h (1 Bft) W 269 ° 0 min 0,000 mm 1,9 UV-I 207 W/m² 12,1 °C 13,2 °C 9,7 km/h (2 Bft)
02.07.2017 11:35 13,2 °C 13,2 °C 93 % 1017,8 hPa 0,0 mm 11,2 km/h (2 Bft) W 269 ° 0 min 0,000 mm 1,9 UV-I 206 W/m² 12,1 °C 13,2 °C 19,3 km/h (3 Bft)
02.07.2017 11:36 13,2 °C 13,2 °C 93 % 1017,9 hPa 0,0 mm 10,2 km/h (2 Bft) W-NW 290 ° 0 min 0,000 mm 1,9 UV-I 204 W/m² 12,1 °C 13,2 °C 14,5 km/h (3 Bft)
02.07.2017 11:37 13,2 °C 13,2 °C 93 % 1017,9 hPa 0,0 mm 8,4 km/h (2 Bft) W-SW 252 ° 0 min 0,000 mm 1,8 UV-I 202 W/m² 12,1 °C 13,2 °C 14,5 km/h (3 Bft)
02.07.2017 11:38 13,2 °C 13,2 °C 93 % 1017,9 hPa 0,0 mm 5,0 km/h (1 Bft) SW 232 ° 0 min 0,000 mm 1,8 UV-I 190 W/m² 12,1 °C 13,2 °C 12,9 km/h (3 Bft)
02.07.2017 11:39 13,2 °C 13,2 °C 93 % 1018,0 hPa 0,0 mm 9,1 km/h (2 Bft) W-NW 298 ° 0 min 0,000 mm 1,7 UV-I 181 W/m² 12,1 °C 13,2 °C 16,1 km/h (3 Bft)
02.07.2017 11:40 13,2 °C 13,2 °C 93 % 1017,9 hPa 0,0 mm 13,5 km/h (3 Bft) W 261 ° 0 min 0,000 mm 1,6 UV-I 172 W/m² 12,1 °C 13,2 °C 22,5 km/h (4 Bft)
02.07.2017 11:41 13,1 °C 13,2 °C 92 % 1018,0 hPa 0,0 mm 12,2 km/h (2 Bft) W 259 ° 0 min 0,000 mm 1,6 UV-I 167 W/m² 11,8 °C 13,1 °C 20,9 km/h (4 Bft)
02.07.2017 11:42 13,1 °C 13,1 °C 92 % 1018,0 hPa 0,0 mm 13,0 km/h (3 Bft) W-SW 255 ° 0 min 0,000 mm 1,6 UV-I 163 W/m² 11,8 °C 13,1 °C 19,3 km/h (3 Bft)
02.07.2017 11:43 13,1 °C 13,1 °C 92 % 1018,1 hPa 0,0 mm 5,4 km/h (1 Bft) SW 222 ° 0 min 0,000 mm 1,6 UV-I 165 W/m² 11,8 °C 13,1 °C 9,7 km/h (2 Bft)
02.07.2017 11:44 13,1 °C 13,1 °C 92 % 1018,1 hPa 0,0 mm 10,1 km/h (2 Bft) W-SW 255 ° 0 min 0,000 mm 1,7 UV-I 176 W/m² 11,8 °C 13,1 °C 17,7 km/h (3 Bft)
02.07.2017 11:45 13,1 °C 13,1 °C 92 % 1018,0 hPa 0,0 mm 9,7 km/h (2 Bft) W-NW 287 ° 0 min 0,000 mm 1,8 UV-I 176 W/m² 11,8 °C 13,1 °C 12,9 km/h (3 Bft)
02.07.2017 11:46 13,0 °C 13,1 °C 92 % 1018,1 hPa 0,0 mm 9,9 km/h (2 Bft) W-SW 250 ° 0 min 0,000 mm 1,8 UV-I 181 W/m² 11,7 °C 13,0 °C 12,9 km/h (3 Bft)
02.07.2017 11:47 12,9 °C 13,0 °C 92 % 1018,0 hPa 0,0 mm 9,7 km/h (2 Bft) W 267 ° 0 min 0,000 mm 1,8 UV-I 183 W/m² 11,6 °C 12,9 °C 17,7 km/h (3 Bft)
02.07.2017 11:48 13,0 °C 13,0 °C 92 % 1018,0 hPa 0,0 mm 10,4 km/h (2 Bft) W-NW 286 ° 0 min 0,000 mm 1,9 UV-I 185 W/m² 11,7 °C 13,0 °C 16,1 km/h (3 Bft)
02.07.2017 11:49 13,1 °C 13,1 °C 92 % 1018,0 hPa 0,0 mm 8,8 km/h (2 Bft) W-NW 296 ° 0 min 0,000 mm 1,9 UV-I 185 W/m² 11,8 °C 13,1 °C 17,7 km/h (3 Bft)
02.07.2017 11:50 13,1 °C 13,1 °C 93 % 1018,0 hPa 0,0 mm 8,6 km/h (2 Bft) W 261 ° 0 min 0,000 mm 1,9 UV-I 195 W/m² 12,0 °C 13,1 °C 14,5 km/h (3 Bft)
02.07.2017 11:51 13,1 °C 13,1 °C 92 % 1018,1 hPa 0,0 mm 10,5 km/h (2 Bft) W-NW 283 ° 0 min 0,000 mm 2,0 UV-I 202 W/m² 11,8 °C 13,1 °C 16,1 km/h (3 Bft)
02.07.2017 11:52 13,1 °C 13,1 °C 92 % 1018,0 hPa 0,0 mm 10,0 km/h (2 Bft) W 273 ° 0 min 0,000 mm 2,1 UV-I 213 W/m² 11,8 °C 13,1 °C 16,1 km/h (3 Bft)
02.07.2017 11:53 13,1 °C 13,1 °C 92 % 1018,1 hPa 0,0 mm 11,7 km/h (2 Bft) W-SW 250 ° 0 min 0,000 mm 2,2 UV-I 225 W/m² 11,8 °C 13,1 °C 16,1 km/h (3 Bft)
02.07.2017 11:54 13,1 °C 13,1 °C 92 % 1018,1 hPa 0,0 mm 11,9 km/h (2 Bft) W-NW 285 ° 0 min 0,000 mm 2,4 UV-I 241 W/m² 11,8 °C 13,1 °C 14,5 km/h (3 Bft)
02.07.2017 11:55 13,2 °C 13,2 °C 93 % 1018,1 hPa 0,0 mm 12,5 km/h (3 Bft) W 268 ° 0 min 0,000 mm 2,5 UV-I 257 W/m² 12,1 °C 13,2 °C 19,3 km/h (3 Bft)
02.07.2017 11:56 13,2 °C 13,2 °C 93 % 1018,1 hPa 0,0 mm 13,4 km/h (3 Bft) W 268 ° 0 min 0,000 mm 2,6 UV-I 283 W/m² 12,1 °C 13,2 °C 17,7 km/h (3 Bft)
02.07.2017 11:57 13,2 °C 13,2 °C 92 % 1018,1 hPa 0,0 mm 5,2 km/h (1 Bft) W 273 ° 0 min 0,000 mm 2,7 UV-I 288 W/m² 11,9 °C 13,2 °C 9,7 km/h (2 Bft)
02.07.2017 11:58 13,3 °C 13,3 °C 93 % 1018,0 hPa 0,0 mm 7,1 km/h (2 Bft) W-SW 257 ° 1 min 0,000 mm 2,8 UV-I 301 W/m² 12,2 °C 13,3 °C 12,9 km/h (3 Bft)
02.07.2017 11:59 13,4 °C 13,4 °C 93 % 1018,2 hPa 0,0 mm 8,6 km/h (2 Bft) S-SO 161 ° 1 min 0,000 mm 3,0 UV-I 323 W/m² 12,3 °C 13,4 °C 14,5 km/h (3 Bft)
02.07.2017 12:00 13,4 °C 13,4 °C 92 % 1018,1 hPa 0,0 mm 9,2 km/h (2 Bft) W 259 ° 1 min 0,000 mm 2,7 UV-I 308 W/m² 12,1 °C 13,4 °C 16,1 km/h (3 Bft)
02.07.2017 12:01 13,4 °C 13,5 °C 92 % 1018,1 hPa 0,0 mm 13,1 km/h (3 Bft) W-NW 300 ° 1 min 0,101 mm 2,7 UV-I 295 W/m² 12,1 °C 13,4 °C 17,7 km/h (3 Bft)
02.07.2017 12:02 13,6 °C 13,6 °C 92 % 1018,2 hPa 0,0 mm 14,5 km/h (3 Bft) W-NW 282 ° 1 min 0,000 mm 2,7 UV-I 290 W/m² 12,3 °C 13,6 °C 17,7 km/h (3 Bft)
02.07.2017 12:03 13,6 °C 13,6 °C 92 % 1018,1 hPa 0,0 mm 7,7 km/h (2 Bft) W-NW 300 ° 1 min 0,000 mm 2,6 UV-I 290 W/m² 12,3 °C 13,6 °C 16,1 km/h (3 Bft)
02.07.2017 12:04 13,6 °C 13,6 °C 92 % 1018,1 hPa 0,0 mm 9,1 km/h (2 Bft) W-NW 300 ° 0 min 0,000 mm 2,6 UV-I 288 W/m² 12,3 °C 13,6 °C 17,7 km/h (3 Bft)
02.07.2017 12:05 13,6 °C 13,6 °C 91 % 1018,2 hPa 0,0 mm 10,4 km/h (2 Bft) W 274 ° 0 min 0,000 mm 2,6 UV-I 285 W/m² 12,2 °C 13,6 °C 17,7 km/h (3 Bft)
02.07.2017 12:06 13,5 °C 13,6 °C 91 % 1018,1 hPa 0,0 mm 9,1 km/h (2 Bft) W 278 ° 0 min 0,000 mm 2,6 UV-I 281 W/m² 12,1 °C 13,5 °C 16,1 km/h (3 Bft)
02.07.2017 12:07 13,6 °C 13,6 °C 91 % 1018,2 hPa 0,0 mm 7,9 km/h (2 Bft) W 268 ° 0 min 0,000 mm 2,6 UV-I 278 W/m² 12,2 °C 13,6 °C 17,7 km/h (3 Bft)
02.07.2017 12:08 13,6 °C 13,7 °C 92 % 1018,2 hPa 0,0 mm 12,7 km/h (3 Bft) W-NW 300 ° 0 min 0,000 mm 2,7 UV-I 279 W/m² 12,3 °C 13,6 °C 19,3 km/h (3 Bft)
02.07.2017 12:09 13,6 °C 13,6 °C 91 % 1018,2 hPa 0,0 mm 9,5 km/h (2 Bft) W 278 ° 0 min 0,000 mm 2,8 UV-I 276 W/m² 12,2 °C 13,6 °C 12,9 km/h (3 Bft)
02.07.2017 12:10 13,6 °C 13,6 °C 91 % 1018,2 hPa 0,0 mm 14,5 km/h (3 Bft) W 271 ° 0 min 0,000 mm 2,9 UV-I 278 W/m² 12,2 °C 13,6 °C 20,9 km/h (4 Bft)
02.07.2017 12:11 13,6 °C 13,6 °C 91 % 1018,3 hPa 0,0 mm 15,0 km/h (3 Bft) W-SW 241 ° 0 min 0,000 mm 3,1 UV-I 285 W/m² 12,2 °C 13,6 °C 19,3 km/h (3 Bft)
02.07.2017 12:12 13,6 °C 13,6 °C 91 % 1018,1 hPa 0,0 mm 10,4 km/h (2 Bft) W 281 ° 1 min 0,000 mm 3,2 UV-I 297 W/m² 12,2 °C 13,6 °C 17,7 km/h (3 Bft)
02.07.2017 12:13 13,7 °C 13,7 °C 91 % 1018,1 hPa 0,0 mm 11,3 km/h (2 Bft) W-SW 254 ° 1 min 0,000 mm 3,2 UV-I 306 W/m² 12,3 °C 13,7 °C 19,3 km/h (3 Bft)
02.07.2017 12:14 13,6 °C 13,7 °C 91 % 1018,2 hPa 0,0 mm 7,9 km/h (2 Bft) W-SW 248 ° 1 min 0,000 mm 3,2 UV-I 315 W/m² 12,2 °C 13,6 °C 12,9 km/h (3 Bft)
02.07.2017 12:15 13,7 °C 13,7 °C 91 % 1018,2 hPa 0,0 mm 8,0 km/h (2 Bft) W 277 ° 1 min 0,000 mm 3,2 UV-I 313 W/m² 12,3 °C 13,7 °C 12,9 km/h (3 Bft)
02.07.2017 12:16 13,8 °C 13,8 °C 91 % 1018,1 hPa 0,0 mm 8,1 km/h (2 Bft) W 273 ° 1 min 0,000 mm 3,1 UV-I 299 W/m² 12,4 °C 13,8 °C 14,5 km/h (3 Bft)
02.07.2017 12:17 13,8 °C 13,8 °C 90 % 1018,2 hPa 0,0 mm 15,1 km/h (3 Bft) W 263 ° 0 min 0,000 mm 3,1 UV-I 283 W/m² 12,2 °C 13,8 °C 20,9 km/h (4 Bft)
02.07.2017 12:18 13,8 °C 13,8 °C 91 % 1018,2 hPa 0,0 mm 10,8 km/h (2 Bft) W 266 ° 0 min 0,000 mm 3,1 UV-I 285 W/m² 12,4 °C 13,8 °C 14,5 km/h (3 Bft)
02.07.2017 12:19 13,8 °C 13,8 °C 91 % 1018,2 hPa 0,0 mm 9,7 km/h (2 Bft) W-SW 257 ° 1 min 0,000 mm 3,3 UV-I 315 W/m² 12,4 °C 13,8 °C 14,5 km/h (3 Bft)
02.07.2017 12:20 13,9 °C 13,9 °C 91 % 1018,2 hPa 0,0 mm 10,5 km/h (2 Bft) W-SW 256 ° 1 min 0,000 mm 3,4 UV-I 325 W/m² 12,5 °C 13,9 °C 14,5 km/h (3 Bft)
02.07.2017 12:21 13,9 °C 13,9 °C 91 % 1018,2 hPa 0,0 mm 8,7 km/h (2 Bft) W 275 ° 1 min 0,000 mm 3,4 UV-I 325 W/m² 12,5 °C 13,9 °C 12,9 km/h (3 Bft)
02.07.2017 12:22 14,0 °C 14,0 °C 91 % 1018,2 hPa 0,0 mm 11,0 km/h (2 Bft) W 278 ° 1 min 0,000 mm 3,4 UV-I 315 W/m² 12,6 °C 14,0 °C 14,5 km/h (3 Bft)
02.07.2017 12:23 13,9 °C 14,0 °C 90 % 1018,2 hPa 0,0 mm 5,4 km/h (1 Bft) W 266 ° 1 min 0,000 mm 3,4 UV-I 306 W/m² 12,3 °C 13,9 °C 11,3 km/h (2 Bft)
02.07.2017 12:24 14,0 °C 14,0 °C 91 % 1018,2 hPa 0,0 mm 7,7 km/h (2 Bft) W-NW 286 ° 1 min 0,000 mm 3,5 UV-I 316 W/m² 12,6 °C 14,0 °C 14,5 km/h (3 Bft)
02.07.2017 12:25 14,1 °C 14,1 °C 91 % 1018,2 hPa 0,0 mm 7,5 km/h (2 Bft) W-NW 290 ° 1 min 0,000 mm 3,5 UV-I 343 W/m² 12,7 °C 14,1 °C 11,3 km/h (2 Bft)
02.07.2017 12:26 14,1 °C 14,1 °C 90 % 1018,3 hPa 0,0 mm 12,9 km/h (3 Bft) W 281 ° 1 min 0,000 mm 3,8 UV-I 346 W/m² 12,5 °C 14,1 °C 22,5 km/h (4 Bft)
02.07.2017 12:27 14,1 °C 14,1 °C 90 % 1018,3 hPa 0,0 mm 16,6 km/h (3 Bft) S-SW 208 ° 1 min 0,000 mm 4,1 UV-I 396 W/m² 12,5 °C 14,1 °C 22,5 km/h (4 Bft)
02.07.2017 12:28 14,1 °C 14,1 °C 90 % 1018,3 hPa 0,0 mm 12,2 km/h (2 Bft) W-NW 292 ° 1 min 0,000 mm 4,5 UV-I 480 W/m² 12,5 °C 14,1 °C 19,3 km/h (3 Bft)
02.07.2017 12:29 14,1 °C 14,1 °C 90 % 1018,3 hPa 0,0 mm 11,1 km/h (2 Bft) W-SW 248 ° 1 min 0,000 mm 4,5 UV-I 482 W/m² 12,5 °C 14,1 °C 16,1 km/h (3 Bft)
02.07.2017 12:30 14,3 °C 14,3 °C 91 % 1018,3 hPa 0,0 mm 9,8 km/h (2 Bft) W 272 ° 1 min 0,000 mm 4,9 UV-I 540 W/m² 12,8 °C 14,3 °C 14,5 km/h (3 Bft)
02.07.2017 12:31 14,4 °C 14,4 °C 91 % 1018,3 hPa 0,0 mm 13,6 km/h (3 Bft) SW 214 ° 1 min 0,000 mm 4,4 UV-I 434 W/m² 12,9 °C 14,4 °C 27,4 km/h (4 Bft)
02.07.2017 12:32 14,4 °C 14,4 °C 90 % 1018,3 hPa 0,0 mm 15,3 km/h (3 Bft) W-SW 258 ° 1 min 0,000 mm 4,1 UV-I 403 W/m² 12,8 °C 14,4 °C 22,5 km/h (4 Bft)
02.07.2017 12:33 14,3 °C 14,4 °C 88 % 1018,3 hPa 0,0 mm 15,1 km/h (3 Bft) W 272 ° 1 min 0,000 mm 3,8 UV-I 392 W/m² 12,3 °C 14,3 °C 20,9 km/h (4 Bft)
02.07.2017 12:34 14,3 °C 14,3 °C 89 % 1018,3 hPa 0,0 mm 9,9 km/h (2 Bft) W 268 ° 1 min 0,000 mm 3,8 UV-I 406 W/m² 12,5 °C 14,3 °C 17,7 km/h (3 Bft)
02.07.2017 12:35 14,3 °C 14,3 °C 89 % 1018,3 hPa 0,0 mm 14,1 km/h (3 Bft) W-NW 296 ° 1 min 0,000 mm 4,1 UV-I 439 W/m² 12,5 °C 14,3 °C 19,3 km/h (3 Bft)
02.07.2017 12:36 14,3 °C 14,3 °C 89 % 1018,3 hPa 0,0 mm 12,8 km/h (3 Bft) W 264 ° 1 min 0,000 mm 4,0 UV-I 441 W/m² 12,5 °C 14,3 °C 17,7 km/h (3 Bft)
02.07.2017 12:37 14,3 °C 14,3 °C 89 % 1018,3 hPa 0,0 mm 13,4 km/h (3 Bft) W-NW 286 ° 1 min 0,000 mm 4,0 UV-I 420 W/m² 12,5 °C 14,3 °C 20,9 km/h (4 Bft)
02.07.2017 12:38 14,4 °C 14,4 °C 90 % 1018,3 hPa 0,0 mm 6,2 km/h (2 Bft) W 259 ° 1 min 0,000 mm 3,8 UV-I 399 W/m² 12,8 °C 14,4 °C 9,7 km/h (2 Bft)
02.07.2017 12:39 14,4 °C 14,4 °C 90 % 1018,3 hPa 0,0 mm 9,3 km/h (2 Bft) W 277 ° 1 min 0,000 mm 3,8 UV-I 399 W/m² 12,8 °C 14,4 °C 17,7 km/h (3 Bft)
02.07.2017 12:40 14,4 °C 14,4 °C 89 % 1018,3 hPa 0,0 mm 11,2 km/h (2 Bft) W 277 ° 1 min 0,000 mm 3,9 UV-I 404 W/m² 12,6 °C 14,4 °C 16,1 km/h (3 Bft)
02.07.2017 12:41 14,4 °C 14,4 °C 90 % 1018,4 hPa 0,0 mm 9,6 km/h (2 Bft) W 279 ° 1 min 0,000 mm 3,8 UV-I 388 W/m² 12,8 °C 14,4 °C 16,1 km/h (3 Bft)
02.07.2017 12:42 14,4 °C 14,4 °C 89 % 1018,3 hPa 0,0 mm 8,7 km/h (2 Bft) W 275 ° 1 min 0,000 mm 3,7 UV-I 367 W/m² 12,6 °C 14,4 °C 14,5 km/h (3 Bft)
02.07.2017 12:43 14,4 °C 14,4 °C 90 % 1018,3 hPa 0,0 mm 12,2 km/h (2 Bft) W 274 ° 1 min 0,000 mm 3,7 UV-I 392 W/m² 12,8 °C 14,4 °C 17,7 km/h (3 Bft)
02.07.2017 12:44 14,4 °C 14,4 °C 91 % 1018,3 hPa 0,0 mm 6,8 km/h (2 Bft) W 265 ° 1 min 0,000 mm 3,7 UV-I 399 W/m² 12,9 °C 14,4 °C 14,5 km/h (3 Bft)
02.07.2017 12:45 14,4 °C 14,5 °C 90 % 1018,4 hPa 0,0 mm 10,8 km/h (2 Bft) W-NW 302 ° 1 min 0,000 mm 3,3 UV-I 350 W/m² 12,8 °C 14,4 °C 17,7 km/h (3 Bft)
02.07.2017 12:46 14,4 °C 14,5 °C 89 % 1018,4 hPa 0,0 mm 10,9 km/h (2 Bft) SW 231 ° 1 min 0,000 mm 2,9 UV-I 313 W/m² 12,6 °C 14,4 °C 16,1 km/h (3 Bft)
02.07.2017 12:47 14,4 °C 14,4 °C 89 % 1018,4 hPa 0,0 mm 12,7 km/h (3 Bft) W 278 ° 1 min 0,000 mm 2,7 UV-I 290 W/m² 12,6 °C 14,4 °C 20,9 km/h (4 Bft)
02.07.2017 12:48 14,3 °C 14,4 °C 88 % 1018,4 hPa 0,0 mm 9,8 km/h (2 Bft) W 269 ° 0 min 0,000 mm 2,6 UV-I 274 W/m² 12,3 °C 14,3 °C 14,5 km/h (3 Bft)
02.07.2017 12:49 14,3 °C 14,3 °C 89 % 1018,4 hPa 0,0 mm 6,8 km/h (2 Bft) NW 315 ° 0 min 0,000 mm 2,5 UV-I 274 W/m² 12,5 °C 14,3 °C 11,3 km/h (2 Bft)
02.07.2017 12:50 14,2 °C 14,3 °C 90 % 1018,4 hPa 0,0 mm 9,3 km/h (2 Bft) W-NW 292 ° 0 min 0,000 mm 2,5 UV-I 278 W/m² 12,6 °C 14,2 °C 12,9 km/h (3 Bft)
02.07.2017 12:51 14,2 °C 14,2 °C 90 % 1018,4 hPa 0,0 mm 10,9 km/h (2 Bft) W-SW 258 ° 0 min 0,000 mm 2,4 UV-I 264 W/m² 12,6 °C 14,2 °C 17,7 km/h (3 Bft)
02.07.2017 12:52 14,2 °C 14,2 °C 89 % 1018,4 hPa 0,0 mm 14,1 km/h (3 Bft) W 259 ° 0 min 0,000 mm 2,1 UV-I 264 W/m² 12,4 °C 14,2 °C 17,7 km/h (3 Bft)
02.07.2017 12:53 14,1 °C 14,2 °C 90 % 1018,4 hPa 0,0 mm 11,3 km/h (2 Bft) W 260 ° 0 min 0,000 mm 1,9 UV-I 207 W/m² 12,5 °C 14,1 °C 16,1 km/h (3 Bft)
02.07.2017 12:54 14,1 °C 14,2 °C 90 % 1018,4 hPa 0,0 mm 9,3 km/h (2 Bft) W-NW 290 ° 0 min 0,000 mm 1,8 UV-I 199 W/m² 12,5 °C 14,1 °C 14,5 km/h (3 Bft)
02.07.2017 12:55 14,0 °C 14,1 °C 90 % 1018,4 hPa 0,0 mm 9,6 km/h (2 Bft) W 259 ° 0 min 0,000 mm 2,0 UV-I 243 W/m² 12,4 °C 14,0 °C 12,9 km/h (3 Bft)
02.07.2017 12:56 14,0 °C 14,1 °C 90 % 1018,4 hPa 0,0 mm 8,9 km/h (2 Bft) W 267 ° 0 min 0,000 mm 2,4 UV-I 258 W/m² 12,4 °C 14,0 °C 17,7 km/h (3 Bft)
02.07.2017 12:57 13,9 °C 14,0 °C 90 % 1018,4 hPa 0,0 mm 12,2 km/h (2 Bft) W 262 ° 0 min 0,000 mm 2,5 UV-I 258 W/m² 12,3 °C 13,9 °C 22,5 km/h (4 Bft)
02.07.2017 12:58 13,9 °C 13,9 °C 90 % 1018,3 hPa 0,0 mm 6,9 km/h (2 Bft) W-SW 245 ° 0 min 0,000 mm 2,6 UV-I 285 W/m² 12,3 °C 13,9 °C 11,3 km/h (2 Bft)
02.07.2017 12:59 13,8 °C 13,9 °C 90 % 1018,4 hPa 0,0 mm 4,6 km/h (1 Bft) W-SW 243 ° 1 min 0,000 mm 2,8 UV-I 304 W/m² 12,2 °C 13,8 °C 8,0 km/h (2 Bft)
02.07.2017 13:00 13,9 °C 13,9 °C 90 % 1018,4 hPa 0,0 mm 5,3 km/h (1 Bft) NW 311 ° 1 min 0,000 mm 2,8 UV-I 302 W/m² 12,3 °C 13,9 °C 11,3 km/h (2 Bft)
02.07.2017 13:01 14,0 °C 14,0 °C 91 % 1018,4 hPa 0,0 mm 3,7 km/h (1 Bft) W-NW 284 ° 0 min 0,178 mm 2,6 UV-I 279 W/m² 12,6 °C 14,0 °C 6,4 km/h (2 Bft)
02.07.2017 13:02 14,1 °C 14,1 °C 91 % 1018,4 hPa 0,0 mm 5,3 km/h (1 Bft) W 275 ° 0 min 0,000 mm 2,7 UV-I 285 W/m² 12,7 °C 14,1 °C 6,4 km/h (2 Bft)
02.07.2017 13:03 14,2 °C 14,2 °C 91 % 1018,4 hPa 0,0 mm 1,7 km/h (1 Bft) W-NW 294 ° 1 min 0,000 mm 2,8 UV-I 294 W/m² 12,8 °C 14,2 °C 4,8 km/h (1 Bft)
02.07.2017 13:04 14,3 °C 14,3 °C 90 % 1018,3 hPa 0,0 mm 5,7 km/h (1 Bft) NW 315 ° 1 min 0,000 mm 3,0 UV-I 325 W/m² 12,7 °C 14,3 °C 12,9 km/h (3 Bft)
02.07.2017 13:05 14,3 °C 14,3 °C 90 % 1018,4 hPa 0,0 mm 10,6 km/h (2 Bft) W-NW 287 ° 1 min 0,000 mm 3,0 UV-I 332 W/m² 12,7 °C 14,3 °C 14,5 km/h (3 Bft)
02.07.2017 13:06 14,3 °C 14,3 °C 90 % 1018,4 hPa 0,0 mm 6,6 km/h (2 Bft) W-NW 289 ° 1 min 0,000 mm 2,8 UV-I 313 W/m² 12,7 °C 14,3 °C 14,5 km/h (3 Bft)
02.07.2017 13:07 14,4 °C 14,4 °C 90 % 1018,4 hPa 0,0 mm 9,1 km/h (2 Bft) W 267 ° 1 min 0,000 mm 2,9 UV-I 318 W/m² 12,8 °C 14,4 °C 16,1 km/h (3 Bft)
02.07.2017 13:08 14,3 °C 14,4 °C 89 % 1018,5 hPa 0,0 mm 9,0 km/h (2 Bft) W-NW 301 ° 1 min 0,000 mm 2,7 UV-I 304 W/m² 12,5 °C 14,3 °C 14,5 km/h (3 Bft)
02.07.2017 13:09 14,3 °C 14,3 °C 89 % 1018,4 hPa 0,0 mm 6,9 km/h (2 Bft) W-SW 237 ° 0 min 0,000 mm 2,4 UV-I 274 W/m² 12,5 °C 14,3 °C 11,3 km/h (2 Bft)
02.07.2017 13:10 14,4 °C 14,4 °C 90 % 1018,4 hPa 0,0 mm 4,4 km/h (1 Bft) W 267 ° 0 min 0,000 mm 2,3 UV-I 257 W/m² 12,8 °C 14,4 °C 9,7 km/h (2 Bft)
02.07.2017 13:11 14,4 °C 14,4 °C 90 % 1018,5 hPa 0,0 mm 4,4 km/h (1 Bft) W-SW 256 ° 0 min 0,000 mm 2,4 UV-I 260 W/m² 12,8 °C 14,4 °C 9,7 km/h (2 Bft)
02.07.2017 13:12 14,4 °C 14,4 °C 90 % 1018,5 hPa 0,0 mm 4,4 km/h (1 Bft) W-NW 287 ° 1 min 0,000 mm 2,5 UV-I 294 W/m² 12,8 °C 14,4 °C 12,9 km/h (3 Bft)
02.07.2017 13:13 14,4 °C 14,4 °C 89 % 1018,5 hPa 0,0 mm 10,0 km/h (2 Bft) W 267 ° 1 min 0,000 mm 2,7 UV-I 297 W/m² 12,6 °C 14,4 °C 16,1 km/h (3 Bft)
02.07.2017 13:14 14,4 °C 14,4 °C 89 % 1018,5 hPa 0,0 mm 8,6 km/h (2 Bft) W-SW 254 ° 0 min 0,000 mm 2,5 UV-I 285 W/m² 12,6 °C 14,4 °C 14,5 km/h (3 Bft)
02.07.2017 13:15 14,4 °C 14,4 °C 88 % 1018,6 hPa 0,0 mm 10,1 km/h (2 Bft) W 271 ° 0 min 0,000 mm 2,5 UV-I 285 W/m² 12,4 °C 14,4 °C 17,7 km/h (3 Bft)
02.07.2017 13:16 14,3 °C 14,4 °C 89 % 1018,5 hPa 0,0 mm 8,3 km/h (2 Bft) W 263 ° 1 min 0,000 mm 2,8 UV-I 306 W/m² 12,5 °C 14,3 °C 17,7 km/h (3 Bft)
02.07.2017 13:17 14,3 °C 14,4 °C 88 % 1018,4 hPa 0,0 mm 11,1 km/h (2 Bft) W 274 ° 1 min 0,000 mm 3,1 UV-I 345 W/m² 12,3 °C 14,3 °C 19,3 km/h (3 Bft)
02.07.2017 13:18 14,4 °C 14,4 °C 89 % 1018,5 hPa 0,0 mm 6,4 km/h (2 Bft) W-NW 282 ° 1 min 0,000 mm 3,4 UV-I 360 W/m² 12,6 °C 14,4 °C 9,7 km/h (2 Bft)
02.07.2017 13:19 14,4 °C 14,4 °C 89 % 1018,5 hPa 0,0 mm 8,3 km/h (2 Bft) W-NW 294 ° 1 min 0,000 mm 3,1 UV-I 336 W/m² 12,6 °C 14,4 °C 16,1 km/h (3 Bft)
02.07.2017 13:20 14,5 °C 14,5 °C 89 % 1018,5 hPa 0,0 mm 4,4 km/h (1 Bft) W-NW 284 ° 1 min 0,000 mm 3,0 UV-I 325 W/m² 12,7 °C 14,5 °C 9,7 km/h (2 Bft)
02.07.2017 13:21 14,6 °C 14,6 °C 89 % 1018,5 hPa 0,0 mm 5,2 km/h (1 Bft) W-SW 250 ° 1 min 0,000 mm 2,9 UV-I 311 W/m² 12,8 °C 14,6 °C 11,3 km/h (2 Bft)
02.07.2017 13:22 14,6 °C 14,6 °C 88 % 1018,5 hPa 0,0 mm 9,4 km/h (2 Bft) W-NW 284 ° 0 min 0,000 mm 2,7 UV-I 288 W/m² 12,6 °C 14,6 °C 14,5 km/h (3 Bft)
02.07.2017 13:23 14,4 °C 14,6 °C 88 % 1018,5 hPa 0,0 mm 4,8 km/h (1 Bft) NW 313 ° 0 min 0,000 mm 2,5 UV-I 265 W/m² 12,4 °C 14,4 °C 6,4 km/h (2 Bft)
02.07.2017 13:24 14,5 °C 14,5 °C 89 % 1018,5 hPa 0,0 mm 6,4 km/h (2 Bft) W 281 ° 0 min 0,000 mm 2,3 UV-I 232 W/m² 12,7 °C 14,5 °C 12,9 km/h (3 Bft)
02.07.2017 13:25 14,5 °C 14,6 °C 89 % 1018,6 hPa 0,0 mm 10,3 km/h (2 Bft) W-NW 284 ° 0 min 0,000 mm 2,3 UV-I 251 W/m² 12,7 °C 14,5 °C 12,9 km/h (3 Bft)
02.07.2017 13:26 14,5 °C 14,5 °C 88 % 1018,6 hPa 0,0 mm 8,5 km/h (2 Bft) W 267 ° 1 min 0,000 mm 3,0 UV-I 322 W/m² 12,5 °C 14,5 °C 16,1 km/h (3 Bft)
02.07.2017 13:27 14,5 °C 14,5 °C 89 % 1018,6 hPa 0,0 mm 10,9 km/h (2 Bft) W 263 ° 1 min 0,000 mm 3,5 UV-I 397 W/m² 12,7 °C 14,5 °C 20,9 km/h (4 Bft)
02.07.2017 13:28 14,4 °C 14,5 °C 89 % 1018,6 hPa 0,0 mm 11,2 km/h (2 Bft) NW 325 ° 1 min 0,000 mm 3,3 UV-I 383 W/m² 12,6 °C 14,4 °C 14,5 km/h (3 Bft)
02.07.2017 13:29 14,5 °C 14,5 °C 89 % 1018,6 hPa 0,0 mm 5,5 km/h (1 Bft) W 268 ° 1 min 0,000 mm 3,1 UV-I 359 W/m² 12,7 °C 14,5 °C 9,7 km/h (2 Bft)
02.07.2017 13:30 14,6 °C 14,6 °C 89 % 1018,5 hPa 0,0 mm 7,7 km/h (2 Bft) W 259 ° 1 min 0,000 mm 3,0 UV-I 348 W/m² 12,8 °C 14,6 °C 17,7 km/h (3 Bft)
02.07.2017 13:31 14,6 °C 14,6 °C 89 % 1018,6 hPa 0,0 mm 12,9 km/h (3 Bft) W-SW 249 ° 1 min 0,000 mm 2,8 UV-I 341 W/m² 12,8 °C 14,6 °C 19,3 km/h (3 Bft)
02.07.2017 13:32 14,6 °C 14,6 °C 89 % 1018,6 hPa 0,0 mm 9,4 km/h (2 Bft) W 268 ° 1 min 0,000 mm 2,5 UV-I 302 W/m² 12,8 °C 14,6 °C 14,5 km/h (3 Bft)
02.07.2017 13:33 14,6 °C 14,6 °C 89 % 1018,6 hPa 0,0 mm 8,2 km/h (2 Bft) W-NW 298 ° 1 min 0,000 mm 2,3 UV-I 302 W/m² 12,8 °C 14,6 °C 14,5 km/h (3 Bft)
02.07.2017 13:34 14,6 °C 14,6 °C 88 % 1018,6 hPa 0,0 mm 9,1 km/h (2 Bft) W-NW 286 ° 1 min 0,000 mm 2,5 UV-I 294 W/m² 12,6 °C 14,6 °C 14,5 km/h (3 Bft)
02.07.2017 13:35 14,6 °C 14,6 °C 89 % 1018,6 hPa 0,0 mm 8,7 km/h (2 Bft) W-NW 297 ° 1 min 0,000 mm 2,9 UV-I 381 W/m² 12,8 °C 14,6 °C 12,9 km/h (3 Bft)
02.07.2017 13:36 14,6 °C 14,6 °C 89 % 1018,7 hPa 0,0 mm 13,3 km/h (3 Bft) W 265 ° 1 min 0,000 mm 3,3 UV-I 439 W/m² 12,8 °C 14,6 °C 20,9 km/h (4 Bft)
02.07.2017 13:37 14,6 °C 14,6 °C 88 % 1018,6 hPa 0,0 mm 10,9 km/h (2 Bft) NW 317 ° 1 min 0,000 mm 4,0 UV-I 471 W/m² 12,6 °C 14,6 °C 20,9 km/h (4 Bft)
02.07.2017 13:38 14,6 °C 14,6 °C 89 % 1018,7 hPa 0,0 mm 10,8 km/h (2 Bft) W 263 ° 1 min 0,000 mm 3,7 UV-I 443 W/m² 12,8 °C 14,6 °C 12,9 km/h (3 Bft)
02.07.2017 13:39 14,6 °C 14,6 °C 89 % 1018,7 hPa 0,0 mm 8,8 km/h (2 Bft) W-NW 292 ° 1 min 0,000 mm 3,7 UV-I 429 W/m² 12,8 °C 14,6 °C 14,5 km/h (3 Bft)
02.07.2017 13:40 14,7 °C 14,7 °C 89 % 1018,6 hPa 0,0 mm 10,7 km/h (2 Bft) W-NW 284 ° 1 min 0,000 mm 4,8 UV-I 429 W/m² 12,9 °C 14,7 °C 14,5 km/h (3 Bft)
02.07.2017 13:41 14,8 °C 14,8 °C 89 % 1018,6 hPa 0,0 mm 9,3 km/h (2 Bft) W-NW 284 ° 1 min 0,000 mm 5,1 UV-I 594 W/m² 13,0 °C 14,8 °C 14,5 km/h (3 Bft)
02.07.2017 13:42 14,9 °C 14,9 °C 89 % 1018,6 hPa 0,0 mm 6,1 km/h (2 Bft) W-NW 290 ° 1 min 0,000 mm 4,8 UV-I 594 W/m² 13,1 °C 14,9 °C 9,7 km/h (2 Bft)
02.07.2017 13:43 15,0 °C 15,0 °C 90 % 1018,6 hPa 0,0 mm 11,8 km/h (2 Bft) W-NW 290 ° 1 min 0,000 mm 5,0 UV-I 555 W/m² 13,4 °C 15,0 °C 17,7 km/h (3 Bft)
02.07.2017 13:44 15,1 °C 15,1 °C 90 % 1018,6 hPa 0,0 mm 14,2 km/h (3 Bft) W 259 ° 1 min 0,000 mm 4,4 UV-I 506 W/m² 13,5 °C 15,1 °C 17,7 km/h (3 Bft)
02.07.2017 13:45 15,1 °C 15,1 °C 88 % 1018,6 hPa 0,0 mm 12,5 km/h (3 Bft) NW 306 ° 1 min 0,000 mm 3,6 UV-I 408 W/m² 13,1 °C 15,1 °C 16,1 km/h (3 Bft)
02.07.2017 13:46 15,1 °C 15,1 °C 88 % 1018,6 hPa 0,0 mm 4,5 km/h (1 Bft) NW 312 ° 1 min 0,000 mm 3,1 UV-I 343 W/m² 13,1 °C 15,1 °C 8,0 km/h (2 Bft)
02.07.2017 13:47 15,0 °C 15,1 °C 88 % 1018,6 hPa 0,0 mm 17,2 km/h (3 Bft) W 281 ° 1 min 0,000 mm 3,2 UV-I 374 W/m² 13,0 °C 15,0 °C 27,4 km/h (4 Bft)
02.07.2017 13:48 14,9 °C 15,1 °C 87 % 1018,6 hPa 0,0 mm 12,5 km/h (3 Bft) W-NW 284 ° 1 min 0,000 mm 3,4 UV-I 362 W/m² 12,8 °C 14,9 °C 19,3 km/h (3 Bft)
02.07.2017 13:49 14,8 °C 14,9 °C 87 % 1018,6 hPa 0,0 mm 14,3 km/h (3 Bft) W-SW 253 ° 1 min 0,000 mm 3,8 UV-I 388 W/m² 12,7 °C 14,8 °C 20,9 km/h (4 Bft)
02.07.2017 13:50 14,8 °C 14,8 °C 89 % 1018,6 hPa 0,0 mm 12,8 km/h (3 Bft) W 259 ° 1 min 0,000 mm 4,9 UV-I 468 W/m² 13,0 °C 14,8 °C 17,7 km/h (3 Bft)
02.07.2017 13:51 14,8 °C 14,8 °C 89 % 1018,6 hPa 0,0 mm 16,5 km/h (3 Bft) W 277 ° 1 min 0,000 mm 5,0 UV-I 468 W/m² 13,0 °C 14,8 °C 25,7 km/h (4 Bft)
02.07.2017 13:52 14,8 °C 14,8 °C 89 % 1018,6 hPa 0,0 mm 11,8 km/h (2 Bft) NW 320 ° 1 min 0,000 mm 6,2 UV-I 468 W/m² 13,0 °C 14,8 °C 16,1 km/h (3 Bft)
02.07.2017 13:53 15,0 °C 15,0 °C 89 % 1018,6 hPa 0,0 mm 11,9 km/h (2 Bft) W 262 ° 1 min 0,000 mm 8,0 UV-I 468 W/m² 13,2 °C 15,0 °C 17,7 km/h (3 Bft)
02.07.2017 13:54 15,1 °C 15,1 °C 88 % 1018,6 hPa 0,0 mm 11,5 km/h (2 Bft) W-NW 294 ° 1 min 0,000 mm 4,7 UV-I 550 W/m² 13,1 °C 15,1 °C 16,1 km/h (3 Bft)
02.07.2017 13:55 15,1 °C 15,1 °C 88 % 1018,6 hPa 0,0 mm 15,6 km/h (3 Bft) W 262 ° 1 min 0,000 mm 4,3 UV-I 550 W/m² 13,1 °C 15,1 °C 24,1 km/h (4 Bft)
02.07.2017 13:56 15,1 °C 15,1 °C 88 % 1018,7 hPa 0,0 mm 12,7 km/h (3 Bft) NW 311 ° 1 min 0,000 mm 3,8 UV-I 380 W/m² 13,1 °C 15,1 °C 19,3 km/h (3 Bft)
02.07.2017 13:57 15,0 °C 15,1 °C 87 % 1018,6 hPa 0,0 mm 15,2 km/h (3 Bft) W-NW 297 ° 1 min 0,000 mm 4,2 UV-I 380 W/m² 12,9 °C 15,0 °C 20,9 km/h (4 Bft)
02.07.2017 13:58 15,1 °C 15,1 °C 88 % 1018,6 hPa 0,0 mm 8,0 km/h (2 Bft) W-NW 302 ° 1 min 0,000 mm 4,9 UV-I 380 W/m² 13,1 °C 15,1 °C 12,9 km/h (3 Bft)
02.07.2017 13:59 15,2 °C 15,2 °C 88 % 1018,6 hPa 0,0 mm 7,8 km/h (2 Bft) W-SW 258 ° 1 min 0,000 mm 4,8 UV-I 450 W/m² 13,2 °C 15,2 °C 12,9 km/h (3 Bft)
02.07.2017 14:00 15,2 °C 15,3 °C 88 % 1018,5 hPa 0,0 mm 10,9 km/h (2 Bft) W-NW 289 ° 1 min 0,000 mm 5,4 UV-I 450 W/m² 13,2 °C 15,2 °C 17,7 km/h (3 Bft)
02.07.2017 14:01 15,3 °C 15,3 °C 87 % 1018,5 hPa 0,0 mm 8,5 km/h (2 Bft) NW 306 ° 1 min 0,203 mm 4,3 UV-I 450 W/m² 13,1 °C 15,3 °C 12,9 km/h (3 Bft)
02.07.2017 14:02 15,3 °C 15,3 °C 86 % 1018,6 hPa 0,0 mm 8,0 km/h (2 Bft) NW 312 ° 1 min 0,000 mm 4,3 UV-I 424 W/m² 13,0 °C 15,3 °C 12,9 km/h (3 Bft)
02.07.2017 14:03 15,3 °C 15,3 °C 87 % 1018,5 hPa 0,0 mm 8,3 km/h (2 Bft) W 264 ° 1 min 0,000 mm 5,2 UV-I 424 W/m² 13,1 °C 15,3 °C 12,9 km/h (3 Bft)
02.07.2017 14:04 15,3 °C 15,4 °C 87 % 1018,6 hPa 0,0 mm 10,8 km/h (2 Bft) W 279 ° 1 min 0,000 mm 5,6 UV-I 649 W/m² 13,1 °C 15,3 °C 14,5 km/h (3 Bft)
02.07.2017 14:05 15,4 °C 15,4 °C 87 % 1018,5 hPa 0,0 mm 5,6 km/h (1 Bft) W-NW 282 ° 1 min 0,000 mm 5,3 UV-I 649 W/m² 13,2 °C 15,4 °C 14,5 km/h (3 Bft)
02.07.2017 14:06 15,4 °C 15,4 °C 86 % 1018,6 hPa 0,0 mm 4,6 km/h (1 Bft) W-NW 296 ° 1 min 0,000 mm 7,3 UV-I 649 W/m² 13,1 °C 15,4 °C 11,3 km/h (2 Bft)
02.07.2017 14:07 15,7 °C 15,7 °C 88 % 1018,5 hPa 0,0 mm 12,7 km/h (3 Bft) W 281 ° 1 min 0,000 mm 5,3 UV-I 807 W/m² 13,7 °C 15,7 °C 17,7 km/h (3 Bft)
02.07.2017 14:08 15,9 °C 15,9 °C 88 % 1018,5 hPa 0,0 mm 14,0 km/h (3 Bft) W-NW 285 ° 1 min 0,000 mm 4,9 UV-I 807 W/m² 13,9 °C 15,9 °C 17,7 km/h (3 Bft)
02.07.2017 14:09 16,0 °C 16,0 °C 86 % 1018,5 hPa 0,0 mm 10,1 km/h (2 Bft) W 274 ° 1 min 0,000 mm 4,9 UV-I 547 W/m² 13,7 °C 16,0 °C 16,1 km/h (3 Bft)
02.07.2017 14:10 15,9 °C 16,0 °C 85 % 1018,5 hPa 0,0 mm 8,6 km/h (2 Bft) W 261 ° 1 min 0,000 mm 4,2 UV-I 478 W/m² 13,4 °C 15,9 °C 12,9 km/h (3 Bft)
02.07.2017 14:11 15,8 °C 15,9 °C 84 % 1018,5 hPa 0,0 mm 6,7 km/h (2 Bft) W 269 ° 1 min 0,000 mm 5,3 UV-I 478 W/m² 13,1 °C 15,8 °C 9,7 km/h (2 Bft)
02.07.2017 14:12 15,7 °C 15,8 °C 84 % 1018,6 hPa 0,0 mm 5,3 km/h (1 Bft) W 269 ° 1 min 0,000 mm 4,3 UV-I 473 W/m² 13,0 °C 15,7 °C 9,7 km/h (2 Bft)
02.07.2017 14:13 15,7 °C 15,7 °C 85 % 1018,5 hPa 0,0 mm 4,6 km/h (1 Bft) W-NW 288 ° 1 min 0,000 mm 4,2 UV-I 475 W/m² 13,2 °C 15,7 °C 6,4 km/h (2 Bft)
02.07.2017 14:14 15,7 °C 15,7 °C 86 % 1018,7 hPa 0,0 mm 5,7 km/h (1 Bft) NW 306 ° 1 min 0,000 mm 4,2 UV-I 489 W/m² 13,4 °C 15,7 °C 11,3 km/h (2 Bft)
02.07.2017 14:15 15,7 °C 15,8 °C 85 % 1018,6 hPa 0,0 mm 10,4 km/h (2 Bft) W 259 ° 1 min 0,000 mm 5,3 UV-I 489 W/m² 13,2 °C 15,7 °C 16,1 km/h (3 Bft)
02.07.2017 14:16 15,9 °C 15,9 °C 88 % 1018,6 hPa 0,0 mm 5,0 km/h (1 Bft) W-SW 251 ° 1 min 0,000 mm 3,7 UV-I 489 W/m² 13,9 °C 15,9 °C 9,7 km/h (2 Bft)
02.07.2017 14:17 15,9 °C 15,9 °C 85 % 1018,5 hPa 0,0 mm 8,8 km/h (2 Bft) W 266 ° 1 min 0,000 mm 3,4 UV-I 373 W/m² 13,4 °C 15,9 °C 17,7 km/h (3 Bft)
02.07.2017 14:18 15,8 °C 15,9 °C 84 % 1018,6 hPa 0,0 mm 7,6 km/h (2 Bft) NW 305 ° 1 min 0,000 mm 3,8 UV-I 443 W/m² 13,1 °C 15,8 °C 12,9 km/h (3 Bft)
02.07.2017 14:19 15,7 °C 15,8 °C 84 % 1018,5 hPa 0,0 mm 11,1 km/h (2 Bft) NW 315 ° 1 min 0,000 mm 3,6 UV-I 417 W/m² 13,0 °C 15,7 °C 16,1 km/h (3 Bft)
02.07.2017 14:20 15,7 °C 15,8 °C 85 % 1018,6 hPa 0,0 mm 15,5 km/h (3 Bft) W 279 ° 1 min 0,000 mm 4,2 UV-I 417 W/m² 13,2 °C 15,7 °C 22,5 km/h (4 Bft)
02.07.2017 14:21 15,7 °C 15,7 °C 85 % 1018,6 hPa 0,0 mm 11,7 km/h (2 Bft) S 183 ° 1 min 0,000 mm 3,2 UV-I 417 W/m² 13,2 °C 15,7 °C 17,7 km/h (3 Bft)
02.07.2017 14:22 15,7 °C 15,7 °C 85 % 1018,6 hPa 0,0 mm 13,9 km/h (3 Bft) W 265 ° 1 min 0,000 mm 3,2 UV-I 371 W/m² 13,2 °C 15,7 °C 25,7 km/h (4 Bft)
02.07.2017 14:23 15,7 °C 15,7 °C 85 % 1018,6 hPa 0,0 mm 8,4 km/h (2 Bft) NW 310 ° 1 min 0,000 mm 3,4 UV-I 338 W/m² 13,2 °C 15,7 °C 12,9 km/h (3 Bft)
02.07.2017 14:24 15,7 °C 15,7 °C 85 % 1018,6 hPa 0,0 mm 9,7 km/h (2 Bft) W 265 ° 0 min 0,000 mm 2,3 UV-I 281 W/m² 13,2 °C 15,7 °C 17,7 km/h (3 Bft)
02.07.2017 14:25 15,7 °C 15,7 °C 85 % 1018,6 hPa 0,0 mm 4,0 km/h (1 Bft) W-NW 292 ° 0 min 0,000 mm 2,2 UV-I 260 W/m² 13,2 °C 15,7 °C 11,3 km/h (2 Bft)
02.07.2017 14:26 15,7 °C 15,7 °C 84 % 1018,6 hPa 0,0 mm 6,6 km/h (2 Bft) W 267 ° 0 min 0,000 mm 2,3 UV-I 267 W/m² 13,0 °C 15,7 °C 11,3 km/h (2 Bft)
02.07.2017 14:27 15,6 °C 15,7 °C 85 % 1018,6 hPa 0,0 mm 7,9 km/h (2 Bft) W-SW 252 ° 0 min 0,000 mm 2,3 UV-I 279 W/m² 13,1 °C 15,6 °C 11,3 km/h (2 Bft)
02.07.2017 14:28 15,7 °C 15,7 °C 85 % 1018,6 hPa 0,0 mm 15,4 km/h (3 Bft) W-NW 298 ° 1 min 0,000 mm 2,4 UV-I 304 W/m² 13,2 °C 15,7 °C 20,9 km/h (4 Bft)
02.07.2017 14:29 15,6 °C 15,7 °C 85 % 1018,6 hPa 0,0 mm 7,1 km/h (2 Bft) NW 309 ° 1 min 0,000 mm 2,6 UV-I 292 W/m² 13,1 °C 15,6 °C 14,5 km/h (3 Bft)
02.07.2017 14:30 15,6 °C 15,7 °C 85 % 1018,6 hPa 0,0 mm 8,4 km/h (2 Bft) W 278 ° 1 min 0,000 mm 2,6 UV-I 332 W/m² 13,1 °C 15,6 °C 14,5 km/h (3 Bft)
02.07.2017 14:31 15,7 °C 15,7 °C 85 % 1018,6 hPa 0,0 mm 5,4 km/h (1 Bft) NW 318 ° 1 min 0,000 mm 3,8 UV-I 417 W/m² 13,2 °C 15,7 °C 6,4 km/h (2 Bft)
02.07.2017 14:32 15,7 °C 15,7 °C 85 % 1018,5 hPa 0,0 mm 5,6 km/h (1 Bft) W 265 ° 1 min 0,000 mm 3,7 UV-I 413 W/m² 13,2 °C 15,7 °C 8,0 km/h (2 Bft)
02.07.2017 14:33 15,7 °C 15,7 °C 84 % 1018,7 hPa 0,0 mm 7,9 km/h (2 Bft) W-NW 285 ° 1 min 0,000 mm 3,7 UV-I 380 W/m² 13,0 °C 15,7 °C 12,9 km/h (3 Bft)
02.07.2017 14:34 15,7 °C 15,7 °C 85 % 1018,6 hPa 0,0 mm 9,9 km/h (2 Bft) W-NW 282 ° 1 min 0,000 mm 3,6 UV-I 357 W/m² 13,2 °C 15,7 °C 17,7 km/h (3 Bft)
02.07.2017 14:35 15,8 °C 15,8 °C 84 % 1018,5 hPa 0,0 mm 13,9 km/h (3 Bft) W 267 ° 1 min 0,000 mm 4,5 UV-I 420 W/m² 13,1 °C 15,8 °C 19,3 km/h (3 Bft)
02.07.2017 14:36 15,8 °C 15,8 °C 84 % 1018,7 hPa 0,0 mm 9,0 km/h (2 Bft) W 260 ° 1 min 0,000 mm 4,0 UV-I 397 W/m² 13,1 °C 15,8 °C 17,7 km/h (3 Bft)
02.07.2017 14:37 15,9 °C 15,9 °C 84 % 1018,6 hPa 0,0 mm 11,2 km/h (2 Bft) W-NW 284 ° 1 min 0,000 mm 4,2 UV-I 401 W/m² 13,2 °C 15,9 °C 16,1 km/h (3 Bft)
02.07.2017 14:38 15,8 °C 15,9 °C 83 % 1018,7 hPa 0,0 mm 9,9 km/h (2 Bft) W-NW 292 ° 1 min 0,000 mm 4,4 UV-I 448 W/m² 12,9 °C 15,8 °C 17,7 km/h (3 Bft)
02.07.2017 14:39 15,8 °C 15,8 °C 83 % 1018,6 hPa 0,0 mm 10,3 km/h (2 Bft) W-SW 244 ° 1 min 0,000 mm 4,4 UV-I 404 W/m² 12,9 °C 15,8 °C 17,7 km/h (3 Bft)
02.07.2017 14:40 15,9 °C 15,9 °C 84 % 1018,6 hPa 0,0 mm 6,2 km/h (2 Bft) W-SW 238 ° 1 min 0,000 mm 4,2 UV-I 490 W/m² 13,2 °C 15,9 °C 12,9 km/h (3 Bft)
02.07.2017 14:41 15,9 °C 15,9 °C 85 % 1018,6 hPa 0,0 mm 4,4 km/h (1 Bft) W-SW 241 ° 1 min 0,000 mm 4,3 UV-I 446 W/m² 13,4 °C 15,9 °C 11,3 km/h (2 Bft)
02.07.2017 14:42 16,1 °C 16,1 °C 85 % 1018,7 hPa 0,0 mm 7,5 km/h (2 Bft) NW 308 ° 1 min 0,000 mm 4,3 UV-I 441 W/m² 13,6 °C 16,1 °C 12,9 km/h (3 Bft)
02.07.2017 14:43 16,1 °C 16,1 °C 84 % 1018,7 hPa 0,0 mm 9,9 km/h (2 Bft) W-NW 303 ° 1 min 0,000 mm 4,2 UV-I 443 W/m² 13,4 °C 16,1 °C 12,9 km/h (3 Bft)
02.07.2017 14:44 16,2 °C 16,2 °C 85 % 1018,6 hPa 0,0 mm 7,6 km/h (2 Bft) W-NW 302 ° 1 min 0,000 mm 4,6 UV-I 492 W/m² 13,7 °C 16,2 °C 11,3 km/h (2 Bft)
02.07.2017 14:45 16,3 °C 16,3 °C 85 % 1018,7 hPa 0,0 mm 6,5 km/h (2 Bft) NW 320 ° 1 min 0,000 mm 4,2 UV-I 441 W/m² 13,8 °C 16,3 °C 17,7 km/h (3 Bft)
02.07.2017 14:46 16,4 °C 16,4 °C 83 % 1018,6 hPa 0,0 mm 8,7 km/h (2 Bft) W 261 ° 1 min 0,000 mm 4,9 UV-I 524 W/m² 13,5 °C 16,4 °C 17,7 km/h (3 Bft)
02.07.2017 14:47 16,4 °C 16,4 °C 84 % 1018,6 hPa 0,0 mm 12,7 km/h (3 Bft) W 259 ° 1 min 0,000 mm 4,3 UV-I 524 W/m² 13,7 °C 16,4 °C 17,7 km/h (3 Bft)
02.07.2017 14:48 16,3 °C 16,4 °C 82 % 1018,7 hPa 0,0 mm 13,6 km/h (3 Bft) W-SW 256 ° 1 min 0,000 mm 3,8 UV-I 524 W/m² 13,2 °C 16,3 °C 22,5 km/h (4 Bft)
02.07.2017 14:49 16,3 °C 16,3 °C 83 % 1018,7 hPa 0,0 mm 11,4 km/h (2 Bft) W-SW 258 ° 1 min 0,000 mm 3,4 UV-I 369 W/m² 13,4 °C 16,3 °C 17,7 km/h (3 Bft)
02.07.2017 14:50 16,2 °C 16,3 °C 82 % 1018,7 hPa 0,0 mm 11,7 km/h (2 Bft) W 279 ° 1 min 0,000 mm 3,3 UV-I 350 W/m² 13,1 °C 16,2 °C 17,7 km/h (3 Bft)
02.07.2017 14:51 16,2 °C 16,2 °C 82 % 1018,7 hPa 0,0 mm 9,7 km/h (2 Bft) W 264 ° 1 min 0,000 mm 3,3 UV-I 353 W/m² 13,1 °C 16,2 °C 14,5 km/h (3 Bft)
02.07.2017 14:52 16,1 °C 16,2 °C 82 % 1018,7 hPa 0,0 mm 6,5 km/h (2 Bft) W 272 ° 0 min 0,000 mm 3,0 UV-I 272 W/m² 13,0 °C 16,1 °C 11,3 km/h (2 Bft)
02.07.2017 14:53 16,1 °C 16,1 °C 83 % 1018,7 hPa 0,0 mm 10,3 km/h (2 Bft) W-SW 244 ° 0 min 0,000 mm 2,4 UV-I 257 W/m² 13,2 °C 16,1 °C 12,9 km/h (3 Bft)
02.07.2017 14:54 16,1 °C 16,1 °C 84 % 1018,7 hPa 0,0 mm 9,0 km/h (2 Bft) NW 311 ° 0 min 0,000 mm 2,7 UV-I 271 W/m² 13,4 °C 16,1 °C 16,1 km/h (3 Bft)
02.07.2017 14:55 16,1 °C 16,1 °C 82 % 1018,7 hPa 0,0 mm 13,1 km/h (3 Bft) W 266 ° 1 min 0,000 mm 3,0 UV-I 309 W/m² 13,0 °C 16,1 °C 24,1 km/h (4 Bft)
02.07.2017 14:56 16,1 °C 16,1 °C 83 % 1018,8 hPa 0,0 mm 15,0 km/h (3 Bft) W 267 ° 1 min 0,000 mm 2,9 UV-I 308 W/m² 13,2 °C 16,1 °C 19,3 km/h (3 Bft)
02.07.2017 14:57 16,0 °C 16,1 °C 83 % 1018,8 hPa 0,0 mm 9,8 km/h (2 Bft) NW 315 ° 0 min 0,000 mm 2,5 UV-I 276 W/m² 13,1 °C 16,0 °C 12,9 km/h (3 Bft)
02.07.2017 14:58 15,9 °C 16,0 °C 83 % 1018,7 hPa 0,0 mm 8,3 km/h (2 Bft) W 263 ° 0 min 0,000 mm 2,2 UV-I 216 W/m² 13,0 °C 15,9 °C 17,7 km/h (3 Bft)
02.07.2017 14:59 15,8 °C 15,9 °C 83 % 1018,8 hPa 0,0 mm 9,8 km/h (2 Bft) W 263 ° 0 min 0,000 mm 1,8 UV-I 202 W/m² 12,9 °C 15,8 °C 16,1 km/h (3 Bft)
02.07.2017 15:00 15,7 °C 15,8 °C 83 % 1018,8 hPa 0,0 mm 8,3 km/h (2 Bft) W 262 ° 0 min 0,000 mm 1,8 UV-I 200 W/m² 12,8 °C 15,7 °C 11,3 km/h (2 Bft)
02.07.2017 15:01 15,7 °C 15,7 °C 83 % 1018,8 hPa 0,0 mm 9,7 km/h (2 Bft) W 271 ° 0 min 0,229 mm 1,7 UV-I 197 W/m² 12,8 °C 15,7 °C 12,9 km/h (3 Bft)
02.07.2017 15:02 15,6 °C 15,7 °C 83 % 1018,8 hPa 0,0 mm 14,6 km/h (3 Bft) W 259 ° 0 min 0,000 mm 1,6 UV-I 186 W/m² 12,7 °C 15,6 °C 20,9 km/h (4 Bft)
02.07.2017 15:03 15,5 °C 15,6 °C 83 % 1018,8 hPa 0,0 mm 12,2 km/h (2 Bft) W-SW 257 ° 0 min 0,000 mm 1,6 UV-I 179 W/m² 12,6 °C 15,5 °C 14,5 km/h (3 Bft)
02.07.2017 15:04 15,4 °C 15,5 °C 84 % 1018,7 hPa 0,0 mm 13,8 km/h (3 Bft) W 273 ° 0 min 0,000 mm 1,7 UV-I 190 W/m² 12,7 °C 15,4 °C 17,7 km/h (3 Bft)
02.07.2017 15:05 15,4 °C 15,4 °C 84 % 1018,7 hPa 0,0 mm 8,3 km/h (2 Bft) W 264 ° 0 min 0,000 mm 1,8 UV-I 200 W/m² 12,7 °C 15,4 °C 12,9 km/h (3 Bft)
02.07.2017 15:06 15,4 °C 15,4 °C 84 % 1018,8 hPa 0,0 mm 5,6 km/h (1 Bft) W 267 ° 0 min 0,000 mm 2,0 UV-I 218 W/m² 12,7 °C 15,4 °C 9,7 km/h (2 Bft)
02.07.2017 15:07 15,4 °C 15,4 °C 84 % 1018,7 hPa 0,0 mm 9,5 km/h (2 Bft) W-NW 292 ° 0 min 0,000 mm 2,2 UV-I 237 W/m² 12,7 °C 15,4 °C 17,7 km/h (3 Bft)
02.07.2017 15:08 15,4 °C 15,4 °C 85 % 1018,7 hPa 0,0 mm 8,9 km/h (2 Bft) W-SW 254 ° 0 min 0,000 mm 2,3 UV-I 244 W/m² 12,9 °C 15,4 °C 12,9 km/h (3 Bft)
02.07.2017 15:09 15,5 °C 15,5 °C 85 % 1018,7 hPa 0,0 mm 10,5 km/h (2 Bft) W 267 ° 0 min 0,000 mm 2,2 UV-I 232 W/m² 13,0 °C 15,5 °C 14,5 km/h (3 Bft)
02.07.2017 15:10 15,5 °C 15,5 °C 85 % 1018,7 hPa 0,0 mm 10,7 km/h (2 Bft) W-SW 257 ° 0 min 0,000 mm 2,1 UV-I 229 W/m² 13,0 °C 15,5 °C 14,5 km/h (3 Bft)
02.07.2017 15:11 15,6 °C 15,6 °C 85 % 1018,7 hPa 0,0 mm 7,4 km/h (2 Bft) W-SW 252 ° 0 min 0,000 mm 2,1 UV-I 225 W/m² 13,1 °C 15,6 °C 9,7 km/h (2 Bft)
02.07.2017 15:12 15,6 °C 15,6 °C 85 % 1018,7 hPa 0,0 mm 8,2 km/h (2 Bft) W 267 ° 0 min 0,000 mm 2,3 UV-I 251 W/m² 13,1 °C 15,6 °C 12,9 km/h (3 Bft)
02.07.2017 15:13 15,6 °C 15,6 °C 85 % 1018,7 hPa 0,0 mm 10,1 km/h (2 Bft) W-NW 288 ° 1 min 0,000 mm 2,7 UV-I 294 W/m² 13,1 °C 15,6 °C 12,9 km/h (3 Bft)
02.07.2017 15:14 15,7 °C 15,7 °C 85 % 1018,7 hPa 0,0 mm 9,7 km/h (2 Bft) W 279 ° 1 min 0,000 mm 2,9 UV-I 318 W/m² 13,2 °C 15,7 °C 12,9 km/h (3 Bft)
02.07.2017 15:15 15,7 °C 15,7 °C 85 % 1018,7 hPa 0,0 mm 8,6 km/h (2 Bft) W 269 ° 1 min 0,000 mm 3,1 UV-I 345 W/m² 13,2 °C 15,7 °C 14,5 km/h (3 Bft)
02.07.2017 15:16 15,8 °C 15,8 °C 83 % 1018,7 hPa 0,0 mm 4,8 km/h (1 Bft) W 269 ° 1 min 0,000 mm 3,3 UV-I 350 W/m² 12,9 °C 15,8 °C 12,9 km/h (3 Bft)
02.07.2017 15:17 15,8 °C 15,8 °C 84 % 1018,7 hPa 0,0 mm 9,9 km/h (2 Bft) W-NW 299 ° 1 min 0,000 mm 3,3 UV-I 343 W/m² 13,1 °C 15,8 °C 12,9 km/h (3 Bft)
02.07.2017 15:18 15,9 °C 15,9 °C 85 % 1018,6 hPa 0,0 mm 9,4 km/h (2 Bft) W 281 ° 1 min 0,000 mm 3,3 UV-I 334 W/m² 13,4 °C 15,9 °C 14,5 km/h (3 Bft)
02.07.2017 15:19 15,9 °C 15,9 °C 84 % 1018,6 hPa 0,0 mm 9,1 km/h (2 Bft) NW 310 ° 1 min 0,000 mm 3,2 UV-I 327 W/m² 13,2 °C 15,9 °C 12,9 km/h (3 Bft)
02.07.2017 15:20 15,9 °C 15,9 °C 83 % 1018,7 hPa 0,0 mm 10,6 km/h (2 Bft) W 265 ° 1 min 0,000 mm 3,1 UV-I 316 W/m² 13,0 °C 15,9 °C 19,3 km/h (3 Bft)
02.07.2017 15:21 16,0 °C 16,0 °C 83 % 1018,6 hPa 0,0 mm 11,3 km/h (2 Bft) W 262 ° 1 min 0,000 mm 3,0 UV-I 301 W/m² 13,1 °C 16,0 °C 17,7 km/h (3 Bft)
02.07.2017 15:22 16,0 °C 16,0 °C 84 % 1018,6 hPa 0,0 mm 9,3 km/h (2 Bft) W 277 ° 1 min 0,000 mm 2,8 UV-I 290 W/m² 13,3 °C 16,0 °C 14,5 km/h (3 Bft)
02.07.2017 15:23 16,0 °C 16,0 °C 82 % 1018,6 hPa 0,0 mm 8,6 km/h (2 Bft) W-NW 283 ° 0 min 0,000 mm 2,7 UV-I 283 W/m² 12,9 °C 16,0 °C 14,5 km/h (3 Bft)
02.07.2017 15:24 16,1 °C 16,1 °C 84 % 1018,6 hPa 0,0 mm 5,6 km/h (1 Bft) W-NW 297 ° 0 min 0,000 mm 2,7 UV-I 281 W/m² 13,4 °C 16,1 °C 9,7 km/h (2 Bft)
02.07.2017 15:25 16,1 °C 16,1 °C 84 % 1018,6 hPa 0,0 mm 7,4 km/h (2 Bft) W 267 ° 0 min 0,000 mm 2,7 UV-I 285 W/m² 13,4 °C 16,1 °C 9,7 km/h (2 Bft)
02.07.2017 15:26 16,1 °C 16,1 °C 85 % 1018,6 hPa 0,0 mm 8,4 km/h (2 Bft) W 281 ° 1 min 0,000 mm 2,8 UV-I 292 W/m² 13,6 °C 16,1 °C 12,9 km/h (3 Bft)
02.07.2017 15:27 16,1 °C 16,2 °C 83 % 1018,6 hPa 0,0 mm 7,1 km/h (2 Bft) W-NW 286 ° 1 min 0,000 mm 2,8 UV-I 295 W/m² 13,2 °C 16,1 °C 11,3 km/h (2 Bft)
02.07.2017 15:28 16,1 °C 16,1 °C 82 % 1018,7 hPa 0,0 mm 5,2 km/h (1 Bft) W-NW 288 ° 1 min 0,000 mm 2,8 UV-I 297 W/m² 13,0 °C 16,1 °C 9,7 km/h (2 Bft)
02.07.2017 15:29 16,1 °C 16,1 °C 82 % 1018,6 hPa 0,0 mm 4,8 km/h (1 Bft) W-NW 290 ° 1 min 0,000 mm 2,9 UV-I 302 W/m² 13,0 °C 16,1 °C 6,4 km/h (2 Bft)
02.07.2017 15:30 16,1 °C 16,1 °C 85 % 1018,7 hPa 0,0 mm 6,0 km/h (2 Bft) W 266 ° 1 min 0,000 mm 2,9 UV-I 309 W/m² 13,6 °C 16,1 °C 9,7 km/h (2 Bft)
02.07.2017 15:31 16,2 °C 16,2 °C 83 % 1018,6 hPa 0,0 mm 11,5 km/h (2 Bft) NW 310 ° 1 min 0,000 mm 2,9 UV-I 313 W/m² 13,3 °C 16,2 °C 16,1 km/h (3 Bft)
02.07.2017 15:32 16,2 °C 16,2 °C 83 % 1018,6 hPa 0,0 mm 6,2 km/h (2 Bft) W-SW 250 ° 1 min 0,000 mm 2,9 UV-I 311 W/m² 13,3 °C 16,2 °C 11,3 km/h (2 Bft)
02.07.2017 15:33 16,2 °C 16,2 °C 82 % 1018,7 hPa 0,0 mm 4,8 km/h (1 Bft) W-NW 286 ° 1 min 0,000 mm 2,9 UV-I 306 W/m² 13,1 °C 16,2 °C 11,3 km/h (2 Bft)
02.07.2017 15:34 16,2 °C 16,2 °C 83 % 1018,6 hPa 0,0 mm 11,8 km/h (2 Bft) W-NW 302 ° 1 min 0,000 mm 2,9 UV-I 302 W/m² 13,3 °C 16,2 °C 16,1 km/h (3 Bft)
02.07.2017 15:35 16,2 °C 16,3 °C 81 % 1018,6 hPa 0,0 mm 10,1 km/h (2 Bft) W-NW 298 ° 1 min 0,000 mm 2,8 UV-I 297 W/m² 12,9 °C 16,2 °C 16,1 km/h (3 Bft)
02.07.2017 15:36 16,2 °C 16,2 °C 82 % 1018,6 hPa 0,0 mm 7,3 km/h (2 Bft) W 274 ° 1 min 0,000 mm 2,8 UV-I 290 W/m² 13,1 °C 16,2 °C 16,1 km/h (3 Bft)
02.07.2017 15:37 16,2 °C 16,2 °C 81 % 1018,6 hPa 0,0 mm 12,5 km/h (3 Bft) NW 323 ° 0 min 0,000 mm 2,6 UV-I 278 W/m² 12,9 °C 16,2 °C 16,1 km/h (3 Bft)
02.07.2017 15:38 16,1 °C 16,2 °C 82 % 1018,6 hPa 0,0 mm 8,3 km/h (2 Bft) W-NW 297 ° 0 min 0,000 mm 2,4 UV-I 227 W/m² 13,0 °C 16,1 °C 14,5 km/h (3 Bft)
02.07.2017 15:39 16,1 °C 16,2 °C 82 % 1018,6 hPa 0,0 mm 9,6 km/h (2 Bft) W-NW 282 ° 0 min 0,000 mm 2,1 UV-I 199 W/m² 13,0 °C 16,1 °C 14,5 km/h (3 Bft)
02.07.2017 15:40 16,1 °C 16,1 °C 81 % 1018,6 hPa 0,0 mm 13,1 km/h (3 Bft) W-NW 286 ° 0 min 0,000 mm 1,8 UV-I 188 W/m² 12,8 °C 16,1 °C 16,1 km/h (3 Bft)
02.07.2017 15:41 16,0 °C 16,1 °C 81 % 1018,6 hPa 0,0 mm 11,3 km/h (2 Bft) W-NW 297 ° 0 min 0,000 mm 1,8 UV-I 188 W/m² 12,7 °C 16,0 °C 16,1 km/h (3 Bft)
02.07.2017 15:42 15,9 °C 16,0 °C 81 % 1018,6 hPa 0,0 mm 11,0 km/h (2 Bft) W-NW 298 ° 0 min 0,000 mm 1,7 UV-I 186 W/m² 12,6 °C 15,9 °C 16,1 km/h (3 Bft)
02.07.2017 15:43 15,9 °C 15,9 °C 81 % 1018,6 hPa 0,0 mm 3,7 km/h (1 Bft) W 278 ° 0 min 0,000 mm 1,7 UV-I 178 W/m² 12,6 °C 15,9 °C 6,4 km/h (2 Bft)
02.07.2017 15:44 15,9 °C 15,9 °C 82 % 1018,6 hPa 0,0 mm 6,1 km/h (2 Bft) W-NW 285 ° 0 min 0,000 mm 1,5 UV-I 165 W/m² 12,8 °C 15,9 °C 11,3 km/h (2 Bft)
02.07.2017 15:45 15,9 °C 15,9 °C 82 % 1018,6 hPa 0,0 mm 6,5 km/h (2 Bft) W-NW 301 ° 0 min 0,000 mm 1,3 UV-I 153 W/m² 12,8 °C 15,9 °C 9,7 km/h (2 Bft)
02.07.2017 15:46 15,8 °C 15,9 °C 83 % 1018,6 hPa 0,0 mm 6,1 km/h (2 Bft) W-NW 296 ° 0 min 0,000 mm 1,2 UV-I 130 W/m² 12,9 °C 15,8 °C 11,3 km/h (2 Bft)
02.07.2017 15:47 15,8 °C 15,9 °C 83 % 1018,6 hPa 0,0 mm 7,3 km/h (2 Bft) W-NW 300 ° 0 min 0,000 mm 1,1 UV-I 123 W/m² 12,9 °C 15,8 °C 11,3 km/h (2 Bft)
02.07.2017 15:48 15,8 °C 15,9 °C 83 % 1018,6 hPa 0,0 mm 8,3 km/h (2 Bft) W-NW 292 ° 0 min 0,000 mm 1,1 UV-I 120 W/m² 12,9 °C 15,8 °C 12,9 km/h (3 Bft)
02.07.2017 15:49 15,8 °C 15,8 °C 81 % 1018,6 hPa 0,0 mm 8,6 km/h (2 Bft) W-NW 288 ° 0 min 0,000 mm 1,1 UV-I 120 W/m² 12,5 °C 15,8 °C 12,9 km/h (3 Bft)
02.07.2017 15:50 15,8 °C 15,8 °C 82 % 1018,6 hPa 0,0 mm 7,1 km/h (2 Bft) NW 305 ° 0 min 0,000 mm 1,2 UV-I 130 W/m² 12,7 °C 15,8 °C 12,9 km/h (3 Bft)
02.07.2017 15:51 15,8 °C 15,8 °C 82 % 1018,5 hPa 0,0 mm 8,8 km/h (2 Bft) W 272 ° 0 min 0,000 mm 1,3 UV-I 137 W/m² 12,7 °C 15,8 °C 14,5 km/h (3 Bft)
02.07.2017 15:52 15,7 °C 15,8 °C 83 % 1018,6 hPa 0,0 mm 11,3 km/h (2 Bft) W-NW 287 ° 0 min 0,000 mm 1,3 UV-I 139 W/m² 12,8 °C 15,7 °C 14,5 km/h (3 Bft)
02.07.2017 15:53 15,7 °C 15,7 °C 83 % 1018,6 hPa 0,0 mm 6,6 km/h (2 Bft) W 269 ° 0 min 0,000 mm 1,3 UV-I 139 W/m² 12,8 °C 15,7 °C 9,7 km/h (2 Bft)
02.07.2017 15:54 15,7 °C 15,7 °C 83 % 1018,6 hPa 0,0 mm 4,5 km/h (1 Bft) NW 325 ° 0 min 0,000 mm 1,3 UV-I 137 W/m² 12,8 °C 15,7 °C 6,4 km/h (2 Bft)
02.07.2017 15:55 15,7 °C 15,7 °C 83 % 1018,6 hPa 0,0 mm 5,0 km/h (1 Bft) W 276 ° 0 min 0,000 mm 1,3 UV-I 137 W/m² 12,8 °C 15,7 °C 8,0 km/h (2 Bft)
02.07.2017 15:56 15,7 °C 15,7 °C 83 % 1018,6 hPa 0,0 mm 5,2 km/h (1 Bft) W-NW 298 ° 0 min 0,000 mm 1,3 UV-I 130 W/m² 12,8 °C 15,7 °C 8,0 km/h (2 Bft)
02.07.2017 15:57 15,7 °C 15,7 °C 83 % 1018,6 hPa 0,0 mm 5,2 km/h (1 Bft) W-NW 298 ° 0 min 0,000 mm 1,3 UV-I 130 W/m² 12,8 °C 15,7 °C 11,3 km/h (2 Bft)
02.07.2017 15:58 15,7 °C 15,7 °C 84 % 1018,6 hPa 0,0 mm 7,8 km/h (2 Bft) W-SW 256 ° 0 min 0,000 mm 1,3 UV-I 135 W/m² 13,0 °C 15,7 °C 16,1 km/h (3 Bft)
02.07.2017 15:59 15,7 °C 15,7 °C 83 % 1018,6 hPa 0,0 mm 5,7 km/h (1 Bft) W-NW 299 ° 0 min 0,000 mm 1,3 UV-I 146 W/m² 12,8 °C 15,7 °C 16,1 km/h (3 Bft)
02.07.2017 16:00 15,7 °C 15,7 °C 82 % 1018,6 hPa 0,0 mm 7,6 km/h (2 Bft) W-NW 285 ° 0 min 0,000 mm 1,6 UV-I 146 W/m² 12,6 °C 15,7 °C 14,5 km/h (3 Bft)
02.07.2017 16:01 15,7 °C 15,7 °C 83 % 1018,6 hPa 0,0 mm 9,4 km/h (2 Bft) W 279 ° 0 min 0,152 mm 1,6 UV-I 163 W/m² 12,8 °C 15,7 °C 14,5 km/h (3 Bft)
02.07.2017 16:02 15,7 °C 15,7 °C 83 % 1018,6 hPa 0,0 mm 6,4 km/h (2 Bft) W-NW 294 ° 0 min 0,000 mm 1,6 UV-I 162 W/m² 12,8 °C 15,7 °C 9,7 km/h (2 Bft)
02.07.2017 16:03 15,7 °C 15,7 °C 83 % 1018,6 hPa 0,0 mm 6,6 km/h (2 Bft) W 267 ° 0 min 0,000 mm 1,5 UV-I 158 W/m² 12,8 °C 15,7 °C 11,3 km/h (2 Bft)
02.07.2017 16:04 15,7 °C 15,7 °C 84 % 1018,7 hPa 0,0 mm 7,1 km/h (2 Bft) W 281 ° 0 min 0,000 mm 1,5 UV-I 156 W/m² 13,0 °C 15,7 °C 11,3 km/h (2 Bft)
02.07.2017 16:05 15,7 °C 15,7 °C 83 % 1018,7 hPa 0,0 mm 11,6 km/h (2 Bft) NW 311 ° 0 min 0,000 mm 1,5 UV-I 158 W/m² 12,8 °C 15,7 °C 20,9 km/h (4 Bft)
02.07.2017 16:06 15,7 °C 15,7 °C 83 % 1018,7 hPa 0,0 mm 9,8 km/h (2 Bft) W-NW 294 ° 0 min 0,000 mm 1,7 UV-I 165 W/m² 12,8 °C 15,7 °C 14,5 km/h (3 Bft)
02.07.2017 16:07 15,6 °C 15,7 °C 83 % 1018,7 hPa 0,0 mm 7,8 km/h (2 Bft) W-NW 288 ° 0 min 0,000 mm 1,7 UV-I 174 W/m² 12,7 °C 15,6 °C 16,1 km/h (3 Bft)
02.07.2017 16:08 15,6 °C 15,6 °C 83 % 1018,7 hPa 0,0 mm 8,1 km/h (2 Bft) W-SW 252 ° 0 min 0,000 mm 1,8 UV-I 190 W/m² 12,7 °C 15,6 °C 17,7 km/h (3 Bft)
02.07.2017 16:09 15,6 °C 15,6 °C 82 % 1018,7 hPa 0,0 mm 15,4 km/h (3 Bft) W-NW 296 ° 0 min 0,000 mm 1,9 UV-I 200 W/m² 12,5 °C 15,6 °C 22,5 km/h (4 Bft)
02.07.2017 16:10 15,5 °C 15,6 °C 82 % 1018,7 hPa 0,0 mm 11,6 km/h (2 Bft) W-NW 302 ° 0 min 0,000 mm 1,9 UV-I 204 W/m² 12,4 °C 15,5 °C 19,3 km/h (3 Bft)
02.07.2017 16:11 15,5 °C 15,5 °C 83 % 1018,7 hPa 0,0 mm 12,5 km/h (3 Bft) W 261 ° 0 min 0,000 mm 1,9 UV-I 206 W/m² 12,6 °C 15,5 °C 20,9 km/h (4 Bft)
02.07.2017 16:12 15,5 °C 15,5 °C 83 % 1018,7 hPa 0,0 mm 8,7 km/h (2 Bft) N-NW 327 ° 0 min 0,000 mm 1,9 UV-I 207 W/m² 12,6 °C 15,5 °C 17,7 km/h (3 Bft)
02.07.2017 16:13 15,5 °C 15,5 °C 83 % 1018,7 hPa 0,0 mm 9,2 km/h (2 Bft) NW 325 ° 0 min 0,000 mm 1,8 UV-I 207 W/m² 12,6 °C 15,5 °C 12,9 km/h (3 Bft)
02.07.2017 16:14 15,5 °C 15,5 °C 84 % 1018,7 hPa 0,0 mm 12,1 km/h (2 Bft) W-NW 286 ° 0 min 0,000 mm 1,8 UV-I 199 W/m² 12,8 °C 15,5 °C 16,1 km/h (3 Bft)
02.07.2017 16:15 15,5 °C 15,5 °C 84 % 1018,7 hPa 0,0 mm 13,0 km/h (3 Bft) W 276 ° 0 min 0,000 mm 1,7 UV-I 195 W/m² 12,8 °C 15,5 °C 19,3 km/h (3 Bft)
02.07.2017 16:16 15,4 °C 15,5 °C 83 % 1018,7 hPa 0,0 mm 13,9 km/h (3 Bft) N-NW 329 ° 0 min 0,000 mm 1,7 UV-I 193 W/m² 12,5 °C 15,4 °C 24,1 km/h (4 Bft)
02.07.2017 16:17 15,4 °C 15,4 °C 84 % 1018,7 hPa 0,0 mm 10,4 km/h (2 Bft) NW 309 ° 0 min 0,000 mm 1,7 UV-I 193 W/m² 12,7 °C 15,4 °C 16,1 km/h (3 Bft)
02.07.2017 16:18 15,4 °C 15,4 °C 84 % 1018,7 hPa 0,0 mm 10,1 km/h (2 Bft) W-NW 292 ° 0 min 0,000 mm 1,7 UV-I 193 W/m² 12,7 °C 15,4 °C 16,1 km/h (3 Bft)
02.07.2017 16:19 15,3 °C 15,4 °C 85 % 1018,8 hPa 0,0 mm 8,0 km/h (2 Bft) W-SW 258 ° 0 min 0,000 mm 1,7 UV-I 197 W/m² 12,8 °C 15,3 °C 11,3 km/h (2 Bft)
02.07.2017 16:20 15,3 °C 15,4 °C 83 % 1018,8 hPa 0,0 mm 9,4 km/h (2 Bft) W-NW 290 ° 0 min 0,000 mm 1,7 UV-I 202 W/m² 12,4 °C 15,3 °C 17,7 km/h (3 Bft)
02.07.2017 16:21 15,3 °C 15,3 °C 83 % 1018,7 hPa 0,0 mm 12,6 km/h (3 Bft) W-NW 300 ° 0 min 0,000 mm 1,7 UV-I 206 W/m² 12,4 °C 15,3 °C 17,7 km/h (3 Bft)
02.07.2017 16:22 15,2 °C 15,3 °C 84 % 1018,8 hPa 0,0 mm 12,8 km/h (3 Bft) W 274 ° 0 min 0,000 mm 1,8 UV-I 213 W/m² 12,5 °C 15,2 °C 19,3 km/h (3 Bft)
02.07.2017 16:23 15,1 °C 15,2 °C 84 % 1018,8 hPa 0,0 mm 12,6 km/h (3 Bft) NW 304 ° 0 min 0,000 mm 1,8 UV-I 213 W/m² 12,4 °C 15,1 °C 19,3 km/h (3 Bft)
02.07.2017 16:24 15,1 °C 15,2 °C 84 % 1018,8 hPa 0,0 mm 14,2 km/h (3 Bft) W-NW 283 ° 0 min 0,000 mm 1,8 UV-I 216 W/m² 12,4 °C 15,1 °C 19,3 km/h (3 Bft)
02.07.2017 16:25 15,0 °C 15,1 °C 86 % 1018,9 hPa 0,0 mm 10,5 km/h (2 Bft) W-NW 290 ° 0 min 0,000 mm 1,7 UV-I 202 W/m² 12,7 °C 15,0 °C 14,5 km/h (3 Bft)
02.07.2017 16:26 15,0 °C 15,0 °C 86 % 1018,8 hPa 0,0 mm 11,6 km/h (2 Bft) W 277 ° 0 min 0,000 mm 1,7 UV-I 193 W/m² 12,7 °C 15,0 °C 14,5 km/h (3 Bft)
02.07.2017 16:27 14,9 °C 15,0 °C 86 % 1018,8 hPa 0,0 mm 6,8 km/h (2 Bft) NW 309 ° 0 min 0,000 mm 1,6 UV-I 188 W/m² 12,6 °C 14,9 °C 12,9 km/h (3 Bft)
02.07.2017 16:28 14,9 °C 14,9 °C 86 % 1018,9 hPa 0,0 mm 3,6 km/h (1 Bft) NW 309 ° 0 min 0,000 mm 1,6 UV-I 185 W/m² 12,6 °C 14,9 °C 6,4 km/h (2 Bft)
02.07.2017 16:29 14,9 °C 14,9 °C 87 % 1018,8 hPa 0,0 mm 10,2 km/h (2 Bft) W-NW 285 ° 0 min 0,000 mm 1,6 UV-I 183 W/m² 12,8 °C 14,9 °C 12,9 km/h (3 Bft)
02.07.2017 16:30 14,8 °C 14,9 °C 86 % 1018,8 hPa 0,0 mm 6,9 km/h (2 Bft) W 267 ° 0 min 0,000 mm 1,6 UV-I 179 W/m² 12,5 °C 14,8 °C 12,9 km/h (3 Bft)
02.07.2017 16:31 14,8 °C 14,9 °C 86 % 1018,8 hPa 0,0 mm 11,7 km/h (2 Bft) W-NW 293 ° 0 min 0,000 mm 1,5 UV-I 163 W/m² 12,5 °C 14,8 °C 16,1 km/h (3 Bft)
02.07.2017 16:32 14,8 °C 14,8 °C 86 % 1018,8 hPa 0,0 mm 5,8 km/h (2 Bft) W-NW 292 ° 0 min 0,000 mm 1,4 UV-I 155 W/m² 12,5 °C 14,8 °C 11,3 km/h (2 Bft)
02.07.2017 16:33 14,8 °C 14,9 °C 86 % 1018,8 hPa 0,0 mm 12,7 km/h (3 Bft) NW 319 ° 0 min 0,000 mm 1,3 UV-I 144 W/m² 12,5 °C 14,8 °C 20,9 km/h (4 Bft)
02.07.2017 16:34 14,8 °C 14,9 °C 87 % 1018,9 hPa 0,0 mm 8,1 km/h (2 Bft) W-NW 286 ° 0 min 0,000 mm 1,2 UV-I 132 W/m² 12,7 °C 14,8 °C 14,5 km/h (3 Bft)
02.07.2017 16:35 14,8 °C 14,8 °C 86 % 1018,8 hPa 0,0 mm 12,4 km/h (3 Bft) W-NW 286 ° 0 min 0,000 mm 1,1 UV-I 121 W/m² 12,5 °C 14,8 °C 19,3 km/h (3 Bft)
02.07.2017 16:36 14,8 °C 14,8 °C 85 % 1018,8 hPa 0,0 mm 11,2 km/h (2 Bft) W 264 ° 0 min 0,000 mm 1,0 UV-I 114 W/m² 12,3 °C 14,8 °C 19,3 km/h (3 Bft)
02.07.2017 16:37 14,8 °C 14,8 °C 86 % 1018,9 hPa 0,0 mm 11,3 km/h (2 Bft) W-NW 286 ° 0 min 0,000 mm 1,0 UV-I 109 W/m² 12,5 °C 14,8 °C 16,1 km/h (3 Bft)
02.07.2017 16:38 14,8 °C 14,8 °C 86 % 1018,8 hPa 0,0 mm 6,9 km/h (2 Bft) NW 306 ° 0 min 0,000 mm 1,0 UV-I 111 W/m² 12,5 °C 14,8 °C 11,3 km/h (2 Bft)
02.07.2017 16:39 14,8 °C 14,8 °C 86 % 1018,8 hPa 0,0 mm 10,5 km/h (2 Bft) W 274 ° 0 min 0,000 mm 1,0 UV-I 113 W/m² 12,5 °C 14,8 °C 16,1 km/h (3 Bft)
02.07.2017 16:40 14,7 °C 14,8 °C 86 % 1018,8 hPa 0,0 mm 11,9 km/h (2 Bft) NW 316 ° 0 min 0,000 mm 1,0 UV-I 114 W/m² 12,4 °C 14,7 °C 17,7 km/h (3 Bft)
02.07.2017 16:41 14,7 °C 14,7 °C 86 % 1018,8 hPa 0,0 mm 9,8 km/h (2 Bft) W-SW 254 ° 0 min 0,000 mm 1,0 UV-I 118 W/m² 12,4 °C 14,7 °C 14,5 km/h (3 Bft)
02.07.2017 16:42 14,8 °C 14,8 °C 87 % 1018,8 hPa 0,0 mm 6,6 km/h (2 Bft) W-NW 291 ° 0 min 0,000 mm 1,1 UV-I 120 W/m² 12,7 °C 14,8 °C 11,3 km/h (2 Bft)
02.07.2017 16:43 14,7 °C 14,8 °C 87 % 1018,9 hPa 0,0 mm 9,0 km/h (2 Bft) W 275 ° 0 min 0,000 mm 1,1 UV-I 118 W/m² 12,6 °C 14,7 °C 12,9 km/h (3 Bft)
02.07.2017 16:44 14,7 °C 14,8 °C 87 % 1018,9 hPa 0,0 mm 9,0 km/h (2 Bft) W 279 ° 0 min 0,000 mm 1,0 UV-I 114 W/m² 12,6 °C 14,7 °C 16,1 km/h (3 Bft)
02.07.2017 16:45 14,8 °C 14,8 °C 87 % 1018,8 hPa 0,0 mm 8,4 km/h (2 Bft) NW 304 ° 0 min 0,000 mm 1,0 UV-I 109 W/m² 12,7 °C 14,8 °C 12,9 km/h (3 Bft)
02.07.2017 16:46 14,8 °C 14,8 °C 87 % 1018,8 hPa 0,0 mm 8,2 km/h (2 Bft) W-SW 244 ° 0 min 0,000 mm 0,9 UV-I 105 W/m² 12,7 °C 14,8 °C 12,9 km/h (3 Bft)
02.07.2017 16:47 14,8 °C 14,8 °C 87 % 1018,8 hPa 0,0 mm 7,7 km/h (2 Bft) W 264 ° 0 min 0,000 mm 0,9 UV-I 107 W/m² 12,7 °C 14,8 °C 9,7 km/h (2 Bft)
02.07.2017 16:48 14,8 °C 14,8 °C 87 % 1018,8 hPa 0,0 mm 7,7 km/h (2 Bft) W-SW 246 ° 0 min 0,000 mm 1,0 UV-I 111 W/m² 12,7 °C 14,8 °C 12,9 km/h (3 Bft)
02.07.2017 16:49 14,8 °C 14,8 °C 87 % 1018,8 hPa 0,0 mm 7,2 km/h (2 Bft) W-NW 298 ° 0 min 0,000 mm 1,0 UV-I 114 W/m² 12,7 °C 14,8 °C 11,3 km/h (2 Bft)
02.07.2017 16:50 14,8 °C 14,8 °C 87 % 1018,8 hPa 0,0 mm 9,1 km/h (2 Bft) W 272 ° 0 min 0,000 mm 0,9 UV-I 109 W/m² 12,7 °C 14,8 °C 12,9 km/h (3 Bft)
02.07.2017 16:51 14,8 °C 14,8 °C 87 % 1018,8 hPa 0,0 mm 6,5 km/h (2 Bft) W 276 ° 0 min 0,000 mm 0,8 UV-I 97 W/m² 12,7 °C 14,8 °C 11,3 km/h (2 Bft)
02.07.2017 16:52 14,8 °C 14,8 °C 88 % 1018,9 hPa 0,0 mm 7,4 km/h (2 Bft) W 261 ° 0 min 0,000 mm 0,7 UV-I 84 W/m² 12,8 °C 14,8 °C 14,5 km/h (3 Bft)
02.07.2017 16:53 14,8 °C 14,8 °C 86 % 1018,9 hPa 0,0 mm 10,1 km/h (2 Bft) NW 311 ° 0 min 0,000 mm 0,6 UV-I 77 W/m² 12,5 °C 14,8 °C 14,5 km/h (3 Bft)
02.07.2017 16:54 14,8 °C 14,8 °C 87 % 1018,8 hPa 0,0 mm 8,4 km/h (2 Bft) W 269 ° 0 min 0,000 mm 0,6 UV-I 81 W/m² 12,7 °C 14,8 °C 12,9 km/h (3 Bft)
02.07.2017 16:55 14,7 °C 14,8 °C 86 % 1018,8 hPa 0,0 mm 5,9 km/h (2 Bft) W-NW 290 ° 0 min 0,000 mm 0,8 UV-I 104 W/m² 12,4 °C 14,7 °C 11,3 km/h (2 Bft)
02.07.2017 16:56 14,7 °C 14,8 °C 87 % 1018,8 hPa 0,0 mm 5,5 km/h (1 Bft) W 273 ° 0 min 0,000 mm 0,9 UV-I 105 W/m² 12,6 °C 14,7 °C 11,3 km/h (2 Bft)
02.07.2017 16:57 14,7 °C 14,8 °C 87 % 1018,8 hPa 0,0 mm 6,2 km/h (2 Bft) W 267 ° 0 min 0,000 mm 0,9 UV-I 111 W/m² 12,6 °C 14,7 °C 11,3 km/h (2 Bft)
02.07.2017 16:58 14,7 °C 14,8 °C 88 % 1018,8 hPa 0,0 mm 6,0 km/h (2 Bft) W-NW 300 ° 0 min 0,000 mm 1,0 UV-I 116 W/m² 12,7 °C 14,7 °C 8,0 km/h (2 Bft)
02.07.2017 16:59 14,8 °C 14,8 °C 88 % 1018,8 hPa 0,0 mm 5,6 km/h (1 Bft) W 273 ° 0 min 0,000 mm 0,9 UV-I 114 W/m² 12,8 °C 14,8 °C 11,3 km/h (2 Bft)
02.07.2017 17:00 14,8 °C 14,8 °C 87 % 1018,8 hPa 0,0 mm 7,1 km/h (2 Bft) W 271 ° 0 min 0,000 mm 0,9 UV-I 109 W/m² 12,7 °C 14,8 °C 12,9 km/h (3 Bft)
02.07.2017 17:01 14,8 °C 14,8 °C 87 % 1018,8 hPa 0,0 mm 6,1 km/h (2 Bft) W-NW 288 ° 0 min 0,102 mm 0,8 UV-I 98 W/m² 12,7 °C 14,8 °C 9,7 km/h (2 Bft)
02.07.2017 17:02 14,8 °C 14,8 °C 86 % 1018,8 hPa 0,0 mm 7,9 km/h (2 Bft) W 281 ° 0 min 0,000 mm 0,7 UV-I 93 W/m² 12,5 °C 14,8 °C 12,9 km/h (3 Bft)
02.07.2017 17:03 14,8 °C 14,8 °C 87 % 1018,9 hPa 0,0 mm 5,8 km/h (2 Bft) W 267 ° 0 min 0,000 mm 0,7 UV-I 86 W/m² 12,7 °C 14,8 °C 6,4 km/h (2 Bft)
02.07.2017 17:04 14,8 °C 14,8 °C 87 % 1018,8 hPa 0,0 mm 2,7 km/h (1 Bft) W 275 ° 0 min 0,000 mm 0,6 UV-I 79 W/m² 12,7 °C 14,8 °C 4,8 km/h (1 Bft)
02.07.2017 17:05 14,8 °C 14,8 °C 87 % 1018,8 hPa 0,0 mm 6,4 km/h (2 Bft) W-SW 253 ° 0 min 0,000 mm 0,6 UV-I 79 W/m² 12,7 °C 14,8 °C 9,7 km/h (2 Bft)
02.07.2017 17:06 14,8 °C 14,8 °C 86 % 1018,8 hPa 0,0 mm 8,4 km/h (2 Bft) W 269 ° 0 min 0,000 mm 0,5 UV-I 67 W/m² 12,5 °C 14,8 °C 9,7 km/h (2 Bft)
02.07.2017 17:07 14,8 °C 14,8 °C 87 % 1018,8 hPa 0,0 mm 3,0 km/h (1 Bft) W-NW 301 ° 0 min 0,000 mm 0,5 UV-I 63 W/m² 12,7 °C 14,8 °C 8,0 km/h (2 Bft)
02.07.2017 17:08 14,8 °C 14,8 °C 87 % 1018,9 hPa 0,0 mm 4,5 km/h (1 Bft) W 271 ° 0 min 0,000 mm 0,0 UV-I 62 W/m² 12,7 °C 14,8 °C 6,4 km/h (2 Bft)
02.07.2017 17:09 14,8 °C 14,8 °C 87 % 1018,9 hPa 0,0 mm 5,2 km/h (1 Bft) W-SW 257 ° 0 min 0,000 mm 0,0 UV-I 60 W/m² 12,7 °C 14,8 °C 6,4 km/h (2 Bft)
02.07.2017 17:10 14,8 °C 14,9 °C 87 % 1018,8 hPa 0,0 mm 8,5 km/h (2 Bft) W-NW 289 ° 0 min 0,000 mm 0,0 UV-I 60 W/m² 12,7 °C 14,8 °C 11,3 km/h (2 Bft)
02.07.2017 17:11 14,8 °C 14,8 °C 87 % 1018,8 hPa 0,0 mm 6,4 km/h (2 Bft) W-NW 291 ° 0 min 0,000 mm 0,0 UV-I 54 W/m² 12,7 °C 14,8 °C 9,7 km/h (2 Bft)
02.07.2017 17:12 14,8 °C 14,8 °C 88 % 1018,9 hPa 0,0 mm 3,4 km/h (1 Bft) W-NW 296 ° 0 min 0,000 mm 0,0 UV-I 62 W/m² 12,8 °C 14,8 °C 4,8 km/h (1 Bft)
02.07.2017 17:13 14,8 °C 14,8 °C 88 % 1018,9 hPa 0,0 mm 5,8 km/h (2 Bft) W-NW 292 ° 0 min 0,000 mm 0,5 UV-I 72 W/m² 12,8 °C 14,8 °C 9,7 km/h (2 Bft)
02.07.2017 17:14 14,8 °C 14,8 °C 88 % 1018,9 hPa 0,0 mm 4,3 km/h (1 Bft) W-NW 293 ° 0 min 0,000 mm 0,8 UV-I 90 W/m² 12,8 °C 14,8 °C 6,4 km/h (2 Bft)
02.07.2017 17:15 14,8 °C 14,8 °C 89 % 1018,9 hPa 0,0 mm 4,3 km/h (1 Bft) W 276 ° 0 min 0,000 mm 1,1 UV-I 113 W/m² 13,0 °C 14,8 °C 6,4 km/h (2 Bft)
02.07.2017 17:16 14,8 °C 14,8 °C 88 % 1018,9 hPa 0,0 mm 4,3 km/h (1 Bft) W 271 ° 0 min 0,000 mm 1,3 UV-I 135 W/m² 12,8 °C 14,8 °C 6,4 km/h (2 Bft)
02.07.2017 17:17 14,8 °C 14,8 °C 88 % 1018,8 hPa 0,0 mm 4,7 km/h (1 Bft) W 261 ° 0 min 0,000 mm 1,3 UV-I 144 W/m² 12,8 °C 14,8 °C 6,4 km/h (2 Bft)
02.07.2017 17:18 14,8 °C 14,8 °C 89 % 1018,9 hPa 0,0 mm 4,4 km/h (1 Bft) W 279 ° 0 min 0,000 mm 1,2 UV-I 116 W/m² 13,0 °C 14,8 °C 6,4 km/h (2 Bft)
02.07.2017 17:19 14,8 °C 14,8 °C 89 % 1018,9 hPa 0,0 mm 6,9 km/h (2 Bft) W-NW 288 ° 0 min 0,000 mm 1,0 UV-I 109 W/m² 13,0 °C 14,8 °C 12,9 km/h (3 Bft)
02.07.2017 17:20 14,8 °C 14,8 °C 89 % 1018,9 hPa 0,0 mm 6,3 km/h (2 Bft) NW 315 ° 0 min 0,000 mm 0,9 UV-I 105 W/m² 13,0 °C 14,8 °C 9,7 km/h (2 Bft)
02.07.2017 17:21 14,8 °C 14,8 °C 89 % 1018,9 hPa 0,0 mm 4,3 km/h (1 Bft) W-NW 294 ° 0 min 0,000 mm 0,9 UV-I 107 W/m² 13,0 °C 14,8 °C 6,4 km/h (2 Bft)
02.07.2017 17:22 14,8 °C 14,8 °C 89 % 1018,9 hPa 0,0 mm 2,0 km/h (1 Bft) W-NW 294 ° 0 min 0,000 mm 0,9 UV-I 113 W/m² 13,0 °C 14,8 °C 3,2 km/h (1 Bft)
02.07.2017 17:23 14,9 °C 14,9 °C 89 % 1018,9 hPa 0,0 mm 3,6 km/h (1 Bft) W 267 ° 0 min 0,000 mm 1,0 UV-I 121 W/m² 13,1 °C 14,9 °C 6,4 km/h (2 Bft)
02.07.2017 17:24 14,9 °C 14,9 °C 89 % 1018,9 hPa 0,0 mm 7,2 km/h (2 Bft) W 265 ° 0 min 0,000 mm 1,0 UV-I 127 W/m² 13,1 °C 14,9 °C 11,3 km/h (2 Bft)
02.07.2017 17:25 14,9 °C 14,9 °C 89 % 1018,9 hPa 0,0 mm 3,7 km/h (1 Bft) W-NW 289 ° 0 min 0,000 mm 1,0 UV-I 123 W/m² 13,1 °C 14,9 °C 6,4 km/h (2 Bft)
02.07.2017 17:26 14,9 °C 14,9 °C 89 % 1018,9 hPa 0,0 mm 2,6 km/h (1 Bft) W-NW 289 ° 0 min 0,000 mm 0,9 UV-I 120 W/m² 13,1 °C 14,9 °C 3,2 km/h (1 Bft)
02.07.2017 17:27 14,9 °C 14,9 °C 89 % 1018,9 hPa 0,0 mm 6,7 km/h (2 Bft) W-SW 253 ° 0 min 0,000 mm 0,9 UV-I 116 W/m² 13,1 °C 14,9 °C 11,3 km/h (2 Bft)
02.07.2017 17:28 14,9 °C 14,9 °C 88 % 1018,9 hPa 0,0 mm 9,6 km/h (2 Bft) W 281 ° 0 min 0,000 mm 0,9 UV-I 118 W/m² 12,9 °C 14,9 °C 12,9 km/h (3 Bft)
02.07.2017 17:29 14,9 °C 14,9 °C 88 % 1018,9 hPa 0,0 mm 5,9 km/h (2 Bft) W-NW 288 ° 0 min 0,000 mm 0,9 UV-I 125 W/m² 12,9 °C 14,9 °C 8,0 km/h (2 Bft)
02.07.2017 17:30 14,9 °C 14,9 °C 88 % 1018,9 hPa 0,0 mm 5,3 km/h (1 Bft) W-NW 286 ° 0 min 0,000 mm 1,0 UV-I 146 W/m² 12,9 °C 14,9 °C 8,0 km/h (2 Bft)
02.07.2017 17:31 14,9 °C 14,9 °C 88 % 1019,0 hPa 0,0 mm 6,0 km/h (2 Bft) W-SW 258 ° 0 min 0,000 mm 1,1 UV-I 160 W/m² 12,9 °C 14,9 °C 11,3 km/h (2 Bft)
02.07.2017 17:32 14,9 °C 14,9 °C 87 % 1019,0 hPa 0,0 mm 5,5 km/h (1 Bft) W 277 ° 0 min 0,000 mm 1,1 UV-I 169 W/m² 12,8 °C 14,9 °C 11,3 km/h (2 Bft)
02.07.2017 17:33 14,9 °C 15,0 °C 88 % 1019,0 hPa 0,0 mm 3,6 km/h (1 Bft) W 276 ° 0 min 0,000 mm 1,2 UV-I 178 W/m² 12,9 °C 14,9 °C 6,4 km/h (2 Bft)
02.07.2017 17:34 15,0 °C 15,0 °C 87 % 1019,0 hPa 0,0 mm 4,0 km/h (1 Bft) W-NW 294 ° 0 min 0,000 mm 1,3 UV-I 190 W/m² 12,9 °C 15,0 °C 6,4 km/h (2 Bft)
02.07.2017 17:35 15,0 °C 15,0 °C 87 % 1019,0 hPa 0,0 mm 7,8 km/h (2 Bft) W 270 ° 0 min 0,000 mm 1,3 UV-I 199 W/m² 12,9 °C 15,0 °C 11,3 km/h (2 Bft)
02.07.2017 17:36 15,1 °C 15,1 °C 87 % 1019,0 hPa 0,0 mm 4,7 km/h (1 Bft) W-NW 288 ° 0 min 0,000 mm 1,4 UV-I 190 W/m² 13,0 °C 15,1 °C 6,4 km/h (2 Bft)
02.07.2017 17:37 15,1 °C 15,1 °C 87 % 1019,0 hPa 0,0 mm 3,2 km/h (1 Bft) NW 318 ° 0 min 0,000 mm 1,3 UV-I 176 W/m² 13,0 °C 15,1 °C 6,4 km/h (2 Bft)
02.07.2017 17:38 15,1 °C 15,2 °C 87 % 1019,0 hPa 0,0 mm 4,4 km/h (1 Bft) W 277 ° 0 min 0,000 mm 1,2 UV-I 169 W/m² 13,0 °C 15,1 °C 6,4 km/h (2 Bft)
02.07.2017 17:39 15,2 °C 15,2 °C 87 % 1019,0 hPa 0,0 mm 4,7 km/h (1 Bft) W-NW 294 ° 0 min 0,000 mm 1,1 UV-I 162 W/m² 13,0 °C 15,2 °C 11,3 km/h (2 Bft)
02.07.2017 17:40 15,2 °C 15,2 °C 87 % 1019,0 hPa 0,0 mm 6,4 km/h (2 Bft) W-NW 292 ° 0 min 0,000 mm 1,1 UV-I 156 W/m² 13,0 °C 15,2 °C 11,3 km/h (2 Bft)
02.07.2017 17:41 15,2 °C 15,2 °C 86 % 1019,0 hPa 0,0 mm 7,0 km/h (2 Bft) W 272 ° 0 min 0,000 mm 1,0 UV-I 144 W/m² 12,9 °C 15,2 °C 12,9 km/h (3 Bft)
02.07.2017 17:42 15,3 °C 15,3 °C 86 % 1019,0 hPa 0,0 mm 10,9 km/h (2 Bft) W 281 ° 0 min 0,000 mm 0,9 UV-I 113 W/m² 13,0 °C 15,3 °C 17,7 km/h (3 Bft)
02.07.2017 17:43 15,3 °C 15,3 °C 86 % 1019,0 hPa 0,0 mm 11,3 km/h (2 Bft) W-SW 247 ° 0 min 0,000 mm 0,8 UV-I 109 W/m² 13,0 °C 15,3 °C 17,7 km/h (3 Bft)
02.07.2017 17:44 15,2 °C 15,3 °C 85 % 1018,9 hPa 0,0 mm 8,7 km/h (2 Bft) W 279 ° 0 min 0,000 mm 0,9 UV-I 118 W/m² 12,7 °C 15,2 °C 14,5 km/h (3 Bft)
02.07.2017 17:45 15,2 °C 15,3 °C 86 % 1019,0 hPa 0,0 mm 9,2 km/h (2 Bft) W-SW 254 ° 0 min 0,000 mm 1,0 UV-I 139 W/m² 12,9 °C 15,2 °C 11,3 km/h (2 Bft)
02.07.2017 17:46 15,2 °C 15,2 °C 85 % 1018,9 hPa 0,0 mm 8,7 km/h (2 Bft) W-SW 257 ° 0 min 0,000 mm 1,1 UV-I 165 W/m² 12,7 °C 15,2 °C 17,7 km/h (3 Bft)
02.07.2017 17:47 15,3 °C 15,3 °C 86 % 1019,0 hPa 0,0 mm 7,4 km/h (2 Bft) W-NW 292 ° 0 min 0,000 mm 1,3 UV-I 186 W/m² 13,0 °C 15,3 °C 12,9 km/h (3 Bft)
02.07.2017 17:48 15,3 °C 15,3 °C 86 % 1018,9 hPa 0,0 mm 4,4 km/h (1 Bft) W-SW 244 ° 0 min 0,000 mm 1,4 UV-I 183 W/m² 13,0 °C 15,3 °C 8,0 km/h (2 Bft)
02.07.2017 17:49 15,3 °C 15,3 °C 85 % 1019,0 hPa 0,0 mm 5,5 km/h (1 Bft) W 263 ° 0 min 0,000 mm 1,5 UV-I 171 W/m² 12,8 °C 15,3 °C 12,9 km/h (3 Bft)
02.07.2017 17:50 15,4 °C 15,4 °C 85 % 1018,9 hPa 0,0 mm 7,2 km/h (2 Bft) W-NW 296 ° 0 min 0,000 mm 1,5 UV-I 158 W/m² 12,9 °C 15,4 °C 11,3 km/h (2 Bft)
02.07.2017 17:51 15,4 °C 15,4 °C 85 % 1019,0 hPa 0,0 mm 4,4 km/h (1 Bft) W 277 ° 0 min 0,000 mm 1,5 UV-I 142 W/m² 12,9 °C 15,4 °C 8,0 km/h (2 Bft)
02.07.2017 17:52 15,4 °C 15,4 °C 85 % 1019,0 hPa 0,0 mm 5,3 km/h (1 Bft) W-NW 288 ° 0 min 0,000 mm 1,4 UV-I 127 W/m² 12,9 °C 15,4 °C 8,0 km/h (2 Bft)
02.07.2017 17:53 15,4 °C 15,4 °C 85 % 1019,0 hPa 0,0 mm 6,4 km/h (2 Bft) W 264 ° 0 min 0,000 mm 1,4 UV-I 114 W/m² 12,9 °C 15,4 °C 11,3 km/h (2 Bft)
02.07.2017 17:54 15,4 °C 15,4 °C 86 % 1019,0 hPa 0,0 mm 5,6 km/h (1 Bft) W 264 ° 0 min 0,000 mm 1,3 UV-I 114 W/m² 13,1 °C 15,4 °C 14,5 km/h (3 Bft)
02.07.2017 17:55 15,3 °C 15,4 °C 84 % 1018,9 hPa 0,0 mm 10,1 km/h (2 Bft) W-SW 252 ° 0 min 0,000 mm 1,3 UV-I 116 W/m² 12,6 °C 15,3 °C 16,1 km/h (3 Bft)
02.07.2017 17:56 15,3 °C 15,4 °C 85 % 1019,0 hPa 0,0 mm 7,4 km/h (2 Bft) W 262 ° 0 min 0,000 mm 1,2 UV-I 116 W/m² 12,8 °C 15,3 °C 14,5 km/h (3 Bft)
02.07.2017 17:57 15,3 °C 15,3 °C 84 % 1019,0 hPa 0,0 mm 7,0 km/h (2 Bft) W 271 ° 0 min 0,000 mm 1,1 UV-I 118 W/m² 12,6 °C 15,3 °C 11,3 km/h (2 Bft)
02.07.2017 17:58 15,3 °C 15,3 °C 84 % 1019,0 hPa 0,0 mm 9,8 km/h (2 Bft) W-NW 303 ° 0 min 0,000 mm 1,1 UV-I 120 W/m² 12,6 °C 15,3 °C 14,5 km/h (3 Bft)
02.07.2017 17:59 15,2 °C 15,3 °C 84 % 1019,0 hPa 0,0 mm 8,6 km/h (2 Bft) NW 313 ° 0 min 0,000 mm 1,1 UV-I 123 W/m² 12,5 °C 15,2 °C 12,9 km/h (3 Bft)
02.07.2017 18:00 15,2 °C 15,2 °C 85 % 1019,0 hPa 0,0 mm 8,2 km/h (2 Bft) W-NW 288 ° 0 min 0,000 mm 0,9 UV-I 121 W/m² 12,7 °C 15,2 °C 12,9 km/h (3 Bft)
02.07.2017 18:01 15,2 °C 15,2 °C 85 % 1019,0 hPa 0,0 mm 7,0 km/h (2 Bft) W-NW 288 ° 0 min 0,076 mm 0,9 UV-I 120 W/m² 12,7 °C 15,2 °C 12,9 km/h (3 Bft)
02.07.2017 18:02 15,2 °C 15,2 °C 85 % 1019,0 hPa 0,0 mm 8,9 km/h (2 Bft) W-NW 297 ° 0 min 0,000 mm 0,9 UV-I 123 W/m² 12,7 °C 15,2 °C 11,3 km/h (2 Bft)
02.07.2017 18:03 15,2 °C 15,2 °C 85 % 1019,0 hPa 0,0 mm 5,8 km/h (2 Bft) W-NW 285 ° 0 min 0,000 mm 0,9 UV-I 132 W/m² 12,7 °C 15,2 °C 9,7 km/h (2 Bft)
02.07.2017 18:04 15,2 °C 15,2 °C 85 % 1019,0 hPa 0,0 mm 6,4 km/h (2 Bft) W-NW 294 ° 0 min 0,000 mm 0,9 UV-I 134 W/m² 12,7 °C 15,2 °C 11,3 km/h (2 Bft)
02.07.2017 18:05 15,2 °C 15,2 °C 85 % 1019,0 hPa 0,0 mm 8,7 km/h (2 Bft) W-NW 290 ° 0 min 0,000 mm 0,9 UV-I 139 W/m² 12,7 °C 15,2 °C 14,5 km/h (3 Bft)
02.07.2017 18:06 15,2 °C 15,2 °C 85 % 1019,0 hPa 0,0 mm 6,4 km/h (2 Bft) W-NW 288 ° 0 min 0,000 mm 0,9 UV-I 139 W/m² 12,7 °C 15,2 °C 12,9 km/h (3 Bft)
02.07.2017 18:07 15,2 °C 15,2 °C 85 % 1019,0 hPa 0,0 mm 10,3 km/h (2 Bft) SW 225 ° 0 min 0,000 mm 0,9 UV-I 134 W/m² 12,7 °C 15,2 °C 16,1 km/h (3 Bft)
02.07.2017 18:08 15,2 °C 15,2 °C 85 % 1019,0 hPa 0,0 mm 11,6 km/h (2 Bft) W-NW 288 ° 0 min 0,000 mm 0,9 UV-I 127 W/m² 12,7 °C 15,2 °C 17,7 km/h (3 Bft)
02.07.2017 18:09 15,2 °C 15,2 °C 84 % 1019,0 hPa 0,0 mm 7,8 km/h (2 Bft) W-NW 294 ° 0 min 0,000 mm 0,9 UV-I 120 W/m² 12,5 °C 15,2 °C 11,3 km/h (2 Bft)
02.07.2017 18:10 15,2 °C 15,2 °C 85 % 1019,0 hPa 0,0 mm 8,0 km/h (2 Bft) W 277 ° 0 min 0,000 mm 0,8 UV-I 114 W/m² 12,7 °C 15,2 °C 11,3 km/h (2 Bft)
02.07.2017 18:11 15,2 °C 15,2 °C 85 % 1019,0 hPa 0,0 mm 9,7 km/h (2 Bft) W 267 ° 0 min 0,000 mm 0,8 UV-I 114 W/m² 12,7 °C 15,2 °C 16,1 km/h (3 Bft)
02.07.2017 18:12 15,2 °C 15,2 °C 85 % 1019,0 hPa 0,0 mm 11,8 km/h (2 Bft) W 263 ° 0 min 0,000 mm 0,9 UV-I 118 W/m² 12,7 °C 15,2 °C 16,1 km/h (3 Bft)
02.07.2017 18:13 15,2 °C 15,2 °C 85 % 1019,0 hPa 0,0 mm 9,7 km/h (2 Bft) W-NW 283 ° 0 min 0,000 mm 0,9 UV-I 121 W/m² 12,7 °C 15,2 °C 14,5 km/h (3 Bft)
02.07.2017 18:14 15,2 °C 15,2 °C 85 % 1019,0 hPa 0,0 mm 6,0 km/h (2 Bft) W 259 ° 0 min 0,000 mm 0,9 UV-I 123 W/m² 12,7 °C 15,2 °C 14,5 km/h (3 Bft)
02.07.2017 18:15 15,2 °C 15,2 °C 85 % 1019,0 hPa 0,0 mm 6,0 km/h (2 Bft) W 269 ° 0 min 0,000 mm 0,9 UV-I 125 W/m² 12,7 °C 15,2 °C 11,3 km/h (2 Bft)
02.07.2017 18:16 15,2 °C 15,2 °C 86 % 1019,0 hPa 0,0 mm 6,8 km/h (2 Bft) W-NW 299 ° 0 min 0,000 mm 0,9 UV-I 127 W/m² 12,9 °C 15,2 °C 9,7 km/h (2 Bft)
02.07.2017 18:17 15,2 °C 15,2 °C 86 % 1019,1 hPa 0,0 mm 6,4 km/h (2 Bft) W-NW 290 ° 0 min 0,000 mm 0,9 UV-I 141 W/m² 12,9 °C 15,2 °C 8,0 km/h (2 Bft)
02.07.2017 18:18 15,2 °C 15,2 °C 86 % 1019,0 hPa 0,0 mm 5,9 km/h (2 Bft) W-NW 290 ° 0 min 0,000 mm 1,0 UV-I 151 W/m² 12,9 °C 15,2 °C 8,0 km/h (2 Bft)
02.07.2017 18:19 15,3 °C 15,3 °C 86 % 1019,0 hPa 0,0 mm 4,0 km/h (1 Bft) W-NW 289 ° 0 min 0,000 mm 1,0 UV-I 160 W/m² 13,0 °C 15,3 °C 6,4 km/h (2 Bft)
02.07.2017 18:20 15,3 °C 15,3 °C 85 % 1019,0 hPa 0,0 mm 2,0 km/h (1 Bft) NW 304 ° 0 min 0,000 mm 1,1 UV-I 167 W/m² 12,8 °C 15,3 °C 4,8 km/h (1 Bft)
02.07.2017 18:21 15,3 °C 15,3 °C 86 % 1019,0 hPa 0,0 mm 6,8 km/h (2 Bft) W-NW 284 ° 0 min 0,000 mm 1,1 UV-I 172 W/m² 13,0 °C 15,3 °C 16,1 km/h (3 Bft)
02.07.2017 18:22 15,3 °C 15,3 °C 85 % 1019,0 hPa 0,0 mm 12,0 km/h (2 Bft) W-NW 296 ° 0 min 0,000 mm 1,1 UV-I 178 W/m² 12,8 °C 15,3 °C 17,7 km/h (3 Bft)
02.07.2017 18:23 15,3 °C 15,3 °C 85 % 1019,0 hPa 0,0 mm 8,2 km/h (2 Bft) W-NW 290 ° 0 min 0,000 mm 1,1 UV-I 178 W/m² 12,8 °C 15,3 °C 14,5 km/h (3 Bft)
02.07.2017 18:24 15,3 °C 15,3 °C 85 % 1019,1 hPa 0,0 mm 5,2 km/h (1 Bft) W 268 ° 0 min 0,000 mm 1,1 UV-I 174 W/m² 12,8 °C 15,3 °C 9,7 km/h (2 Bft)
02.07.2017 18:25 15,3 °C 15,3 °C 85 % 1019,1 hPa 0,0 mm 4,8 km/h (1 Bft) W 259 ° 0 min 0,000 mm 1,1 UV-I 167 W/m² 12,8 °C 15,3 °C 9,7 km/h (2 Bft)
02.07.2017 18:26 15,4 °C 15,4 °C 86 % 1019,1 hPa 0,0 mm 6,2 km/h (2 Bft) W-SW 252 ° 0 min 0,000 mm 1,0 UV-I 163 W/m² 13,1 °C 15,4 °C 11,3 km/h (2 Bft)
02.07.2017 18:27 15,4 °C 15,4 °C 85 % 1019,1 hPa 0,0 mm 8,2 km/h (2 Bft) W-SW 247 ° 0 min 0,000 mm 1,0 UV-I 158 W/m² 12,9 °C 15,4 °C 12,9 km/h (3 Bft)
02.07.2017 18:28 15,3 °C 15,4 °C 85 % 1019,1 hPa 0,0 mm 11,0 km/h (2 Bft) SW 217 ° 0 min 0,000 mm 1,0 UV-I 155 W/m² 12,8 °C 15,3 °C 14,5 km/h (3 Bft)
02.07.2017 18:29 15,3 °C 15,4 °C 85 % 1019,1 hPa 0,0 mm 7,3 km/h (2 Bft) W 275 ° 0 min 0,000 mm 1,0 UV-I 156 W/m² 12,8 °C 15,3 °C 11,3 km/h (2 Bft)
02.07.2017 18:30 15,4 °C 15,4 °C 86 % 1019,1 hPa 0,0 mm 4,5 km/h (1 Bft) W-SW 257 ° 0 min 0,000 mm 1,0 UV-I 160 W/m² 13,1 °C 15,4 °C 9,7 km/h (2 Bft)
02.07.2017 18:31 15,4 °C 15,4 °C 86 % 1019,2 hPa 0,0 mm 6,2 km/h (2 Bft) W 268 ° 0 min 0,000 mm 1,0 UV-I 156 W/m² 13,1 °C 15,4 °C 11,3 km/h (2 Bft)
02.07.2017 18:32 15,4 °C 15,4 °C 85 % 1019,2 hPa 0,0 mm 11,2 km/h (2 Bft) NW 312 ° 0 min 0,000 mm 0,9 UV-I 148 W/m² 12,9 °C 15,4 °C 16,1 km/h (3 Bft)
02.07.2017 18:33 15,4 °C 15,4 °C 85 % 1019,1 hPa 0,0 mm 10,0 km/h (2 Bft) W-NW 296 ° 0 min 0,000 mm 0,9 UV-I 137 W/m² 12,9 °C 15,4 °C 16,1 km/h (3 Bft)
02.07.2017 18:34 15,3 °C 15,4 °C 85 % 1019,2 hPa 0,0 mm 6,0 km/h (2 Bft) W-NW 294 ° 0 min 0,000 mm 0,8 UV-I 125 W/m² 12,8 °C 15,3 °C 9,7 km/h (2 Bft)
02.07.2017 18:35 15,3 °C 15,3 °C 85 % 1019,2 hPa 0,0 mm 8,6 km/h (2 Bft) W 271 ° 0 min 0,000 mm 0,7 UV-I 120 W/m² 12,8 °C 15,3 °C 14,5 km/h (3 Bft)
02.07.2017 18:36 15,3 °C 15,3 °C 85 % 1019,2 hPa 0,0 mm 11,7 km/h (2 Bft) W-NW 284 ° 0 min 0,000 mm 0,7 UV-I 113 W/m² 12,8 °C 15,3 °C 16,1 km/h (3 Bft)
02.07.2017 18:37 15,3 °C 15,3 °C 85 % 1019,2 hPa 0,0 mm 8,0 km/h (2 Bft) W 271 ° 0 min 0,000 mm 0,6 UV-I 113 W/m² 12,8 °C 15,3 °C 14,5 km/h (3 Bft)
02.07.2017 18:38 15,2 °C 15,3 °C 86 % 1019,2 hPa 0,0 mm 8,3 km/h (2 Bft) W 261 ° 0 min 0,000 mm 0,6 UV-I 102 W/m² 12,9 °C 15,2 °C 14,5 km/h (3 Bft)
02.07.2017 18:39 15,2 °C 15,2 °C 86 % 1019,2 hPa 0,0 mm 9,2 km/h (2 Bft) W 277 ° 0 min 0,000 mm 0,6 UV-I 97 W/m² 12,9 °C 15,2 °C 12,9 km/h (3 Bft)
02.07.2017 18:40 15,2 °C 15,2 °C 86 % 1019,2 hPa 0,0 mm 8,4 km/h (2 Bft) W 263 ° 0 min 0,000 mm 0,6 UV-I 97 W/m² 12,9 °C 15,2 °C 14,5 km/h (3 Bft)
02.07.2017 18:41 15,2 °C 15,2 °C 85 % 1019,2 hPa 0,0 mm 7,7 km/h (2 Bft) W-NW 288 ° 0 min 0,000 mm 0,6 UV-I 104 W/m² 12,7 °C 15,2 °C 12,9 km/h (3 Bft)
02.07.2017 18:42 15,2 °C 15,2 °C 86 % 1019,2 hPa 0,0 mm 10,8 km/h (2 Bft) W-SW 244 ° 0 min 0,000 mm 0,7 UV-I 113 W/m² 12,9 °C 15,2 °C 14,5 km/h (3 Bft)
02.07.2017 18:43 15,2 °C 15,2 °C 86 % 1019,2 hPa 0,0 mm 10,9 km/h (2 Bft) W 281 ° 0 min 0,000 mm 0,7 UV-I 113 W/m² 12,9 °C 15,2 °C 12,9 km/h (3 Bft)
02.07.2017 18:44 15,2 °C 15,2 °C 85 % 1019,2 hPa 0,0 mm 7,9 km/h (2 Bft) W-NW 284 ° 0 min 0,000 mm 0,8 UV-I 120 W/m² 12,7 °C 15,2 °C 11,3 km/h (2 Bft)
02.07.2017 18:45 15,2 °C 15,2 °C 86 % 1019,2 hPa 0,0 mm 8,5 km/h (2 Bft) W 259 ° 0 min 0,000 mm 0,8 UV-I 127 W/m² 12,9 °C 15,2 °C 14,5 km/h (3 Bft)
02.07.2017 18:46 15,2 °C 15,2 °C 85 % 1019,2 hPa 0,0 mm 10,3 km/h (2 Bft) W 280 ° 0 min 0,000 mm 0,9 UV-I 135 W/m² 12,7 °C 15,2 °C 14,5 km/h (3 Bft)
02.07.2017 18:47 15,2 °C 15,2 °C 85 % 1019,1 hPa 0,0 mm 4,0 km/h (1 Bft) W-NW 290 ° 0 min 0,000 mm 0,9 UV-I 139 W/m² 12,7 °C 15,2 °C 6,4 km/h (2 Bft)
02.07.2017 18:48 15,2 °C 15,2 °C 86 % 1019,2 hPa 0,0 mm 6,9 km/h (2 Bft) W-NW 293 ° 0 min 0,000 mm 1,0 UV-I 144 W/m² 12,9 °C 15,2 °C 12,9 km/h (3 Bft)
02.07.2017 18:49 15,2 °C 15,2 °C 86 % 1019,2 hPa 0,0 mm 6,7 km/h (2 Bft) W 273 ° 0 min 0,000 mm 1,0 UV-I 148 W/m² 12,9 °C 15,2 °C 11,3 km/h (2 Bft)
02.07.2017 18:50 15,3 °C 15,3 °C 85 % 1019,2 hPa 0,0 mm 12,2 km/h (2 Bft) W-NW 287 ° 0 min 0,000 mm 1,0 UV-I 146 W/m² 12,8 °C 15,3 °C 14,5 km/h (3 Bft)
02.07.2017 18:51 15,2 °C 15,3 °C 85 % 1019,2 hPa 0,0 mm 9,8 km/h (2 Bft) S-SW 211 ° 0 min 0,000 mm 0,9 UV-I 141 W/m² 12,7 °C 15,2 °C 14,5 km/h (3 Bft)
02.07.2017 18:52 15,2 °C 15,3 °C 85 % 1019,2 hPa 0,0 mm 7,2 km/h (2 Bft) W 260 ° 0 min 0,000 mm 0,9 UV-I 121 W/m² 12,7 °C 15,2 °C 12,9 km/h (3 Bft)
02.07.2017 18:53 15,2 °C 15,2 °C 85 % 1019,2 hPa 0,0 mm 4,0 km/h (1 Bft) W-SW 238 ° 0 min 0,000 mm 0,8 UV-I 109 W/m² 12,7 °C 15,2 °C 6,4 km/h (2 Bft)
02.07.2017 18:54 15,2 °C 15,3 °C 85 % 1019,2 hPa 0,0 mm 1,5 km/h (1 Bft) W 268 ° 0 min 0,000 mm 0,8 UV-I 100 W/m² 12,7 °C 15,2 °C 3,2 km/h (1 Bft)
02.07.2017 18:55 15,2 °C 15,2 °C 85 % 1019,3 hPa 0,0 mm 1,9 km/h (1 Bft) W-SW 256 ° 0 min 0,000 mm 0,7 UV-I 95 W/m² 12,7 °C 15,2 °C 6,4 km/h (2 Bft)
02.07.2017 18:56 15,2 °C 15,2 °C 86 % 1019,3 hPa 0,0 mm 4,4 km/h (1 Bft) W-SW 254 ° 0 min 0,000 mm 0,7 UV-I 91 W/m² 12,9 °C 15,2 °C 11,3 km/h (2 Bft)
02.07.2017 18:57 15,2 °C 15,2 °C 85 % 1019,3 hPa 0,0 mm 8,0 km/h (2 Bft) W 275 ° 0 min 0,000 mm 0,7 UV-I 90 W/m² 12,7 °C 15,2 °C 11,3 km/h (2 Bft)
02.07.2017 18:58 15,2 °C 15,2 °C 85 % 1019,3 hPa 0,0 mm 9,3 km/h (2 Bft) W-NW 295 ° 0 min 0,000 mm 0,7 UV-I 88 W/m² 12,7 °C 15,2 °C 14,5 km/h (3 Bft)
02.07.2017 18:59 15,2 °C 15,2 °C 85 % 1019,3 hPa 0,0 mm 12,7 km/h (3 Bft) NW 304 ° 0 min 0,000 mm 0,6 UV-I 86 W/m² 12,7 °C 15,2 °C 16,1 km/h (3 Bft)
02.07.2017 19:00 15,2 °C 15,2 °C 85 % 1019,3 hPa 0,0 mm 5,1 km/h (1 Bft) W 281 ° 0 min 0,000 mm 0,5 UV-I 81 W/m² 12,7 °C 15,2 °C 11,3 km/h (2 Bft)
02.07.2017 19:01 15,2 °C 15,2 °C 85 % 1019,3 hPa 0,0 mm 7,4 km/h (2 Bft) W 260 ° 0 min 0,076 mm 0,5 UV-I 76 W/m² 12,7 °C 15,2 °C 11,3 km/h (2 Bft)
02.07.2017 19:02 15,2 °C 15,2 °C 86 % 1019,4 hPa 0,0 mm 6,2 km/h (2 Bft) W 276 ° 0 min 0,000 mm 0,5 UV-I 72 W/m² 12,9 °C 15,2 °C 12,9 km/h (3 Bft)
02.07.2017 19:03 15,2 °C 15,2 °C 86 % 1019,3 hPa 0,0 mm 3,9 km/h (1 Bft) W 266 ° 0 min 0,000 mm 0,0 UV-I 67 W/m² 12,9 °C 15,2 °C 9,7 km/h (2 Bft)
02.07.2017 19:04 15,1 °C 15,2 °C 86 % 1019,4 hPa 0,0 mm 8,0 km/h (2 Bft) W-SW 254 ° 0 min 0,000 mm 0,0 UV-I 63 W/m² 12,8 °C 15,1 °C 17,7 km/h (3 Bft)
02.07.2017 19:05 15,1 °C 15,1 °C 85 % 1019,4 hPa 0,0 mm 14,0 km/h (3 Bft) W 269 ° 0 min 0,000 mm 0,0 UV-I 58 W/m² 12,6 °C 15,1 °C 19,3 km/h (3 Bft)
02.07.2017 19:06 15,1 °C 15,1 °C 85 % 1019,4 hPa 0,0 mm 8,2 km/h (2 Bft) SW 232 ° 0 min 0,000 mm 0,0 UV-I 54 W/m² 12,6 °C 15,1 °C 14,5 km/h (3 Bft)
02.07.2017 19:07 15,1 °C 15,1 °C 85 % 1019,3 hPa 0,0 mm 9,0 km/h (2 Bft) W 267 ° 0 min 0,000 mm 0,0 UV-I 54 W/m² 12,6 °C 15,1 °C 11,3 km/h (2 Bft)
02.07.2017 19:08 15,1 °C 15,1 °C 86 % 1019,3 hPa 0,0 mm 8,0 km/h (2 Bft) W 269 ° 0 min 0,000 mm 0,0 UV-I 49 W/m² 12,8 °C 15,1 °C 12,9 km/h (3 Bft)
02.07.2017 19:09 15,0 °C 15,1 °C 85 % 1019,3 hPa 0,0 mm 6,6 km/h (2 Bft) W 277 ° 0 min 0,000 mm 0,0 UV-I 42 W/m² 12,5 °C 15,0 °C 11,3 km/h (2 Bft)
02.07.2017 19:10 15,0 °C 15,0 °C 85 % 1019,4 hPa 0,0 mm 7,6 km/h (2 Bft) W-SW 250 ° 0 min 0,000 mm 0,0 UV-I 49 W/m² 12,5 °C 15,0 °C 12,9 km/h (3 Bft)
02.07.2017 19:11 14,9 °C 15,0 °C 85 % 1019,3 hPa 0,0 mm 8,6 km/h (2 Bft) W-NW 296 ° 0 min 0,000 mm 0,0 UV-I 54 W/m² 12,4 °C 14,9 °C 14,5 km/h (3 Bft)
02.07.2017 19:12 14,9 °C 15,0 °C 85 % 1019,4 hPa 0,0 mm 5,6 km/h (1 Bft) W 264 ° 0 min 0,000 mm 0,0 UV-I 54 W/m² 12,4 °C 14,9 °C 9,7 km/h (2 Bft)
02.07.2017 19:13 14,9 °C 14,9 °C 86 % 1019,4 hPa 0,0 mm 7,6 km/h (2 Bft) W 274 ° 0 min 0,000 mm 0,0 UV-I 54 W/m² 12,6 °C 14,9 °C 12,9 km/h (3 Bft)
02.07.2017 19:14 14,9 °C 14,9 °C 85 % 1019,4 hPa 0,0 mm 8,6 km/h (2 Bft) W 280 ° 0 min 0,000 mm 0,0 UV-I 53 W/m² 12,4 °C 14,9 °C 14,5 km/h (3 Bft)
02.07.2017 19:15 14,9 °C 14,9 °C 85 % 1019,4 hPa 0,0 mm 5,2 km/h (1 Bft) NW 307 ° 0 min 0,000 mm 0,0 UV-I 51 W/m² 12,4 °C 14,9 °C 8,0 km/h (2 Bft)
02.07.2017 19:16 14,9 °C 14,9 °C 85 % 1019,4 hPa 0,0 mm 9,7 km/h (2 Bft) W 271 ° 0 min 0,000 mm 0,0 UV-I 49 W/m² 12,4 °C 14,9 °C 14,5 km/h (3 Bft)
02.07.2017 19:17 14,9 °C 14,9 °C 85 % 1019,4 hPa 0,0 mm 14,1 km/h (3 Bft) W-NW 285 ° 0 min 0,000 mm 0,0 UV-I 49 W/m² 12,4 °C 14,9 °C 19,3 km/h (3 Bft)
02.07.2017 19:18 14,9 °C 14,9 °C 85 % 1019,4 hPa 0,0 mm 6,4 km/h (2 Bft) W 266 ° 0 min 0,000 mm 0,0 UV-I 49 W/m² 12,4 °C 14,9 °C 11,3 km/h (2 Bft)
02.07.2017 19:19 14,9 °C 14,9 °C 86 % 1019,5 hPa 0,0 mm 7,9 km/h (2 Bft) W 263 ° 0 min 0,000 mm 0,0 UV-I 51 W/m² 12,6 °C 14,9 °C 12,9 km/h (3 Bft)
02.07.2017 19:20 14,8 °C 14,9 °C 86 % 1019,4 hPa 0,0 mm 9,3 km/h (2 Bft) W-SW 255 ° 0 min 0,000 mm 0,0 UV-I 49 W/m² 12,5 °C 14,8 °C 16,1 km/h (3 Bft)
02.07.2017 19:21 14,8 °C 14,9 °C 85 % 1019,4 hPa 0,0 mm 8,9 km/h (2 Bft) W-NW 296 ° 0 min 0,000 mm 0,0 UV-I 42 W/m² 12,3 °C 14,8 °C 14,5 km/h (3 Bft)
02.07.2017 19:22 14,8 °C 14,8 °C 85 % 1019,4 hPa 0,0 mm 6,1 km/h (2 Bft) W-SW 251 ° 0 min 0,000 mm 0,0 UV-I 40 W/m² 12,3 °C 14,8 °C 9,7 km/h (2 Bft)
02.07.2017 19:23 14,8 °C 14,8 °C 86 % 1019,5 hPa 0,0 mm 9,3 km/h (2 Bft) W 274 ° 0 min 0,000 mm 0,0 UV-I 40 W/m² 12,5 °C 14,8 °C 12,9 km/h (3 Bft)
02.07.2017 19:24 14,8 °C 14,8 °C 86 % 1019,5 hPa 0,0 mm 10,9 km/h (2 Bft) W 261 ° 0 min 0,000 mm 0,0 UV-I 40 W/m² 12,5 °C 14,8 °C 14,5 km/h (3 Bft)
02.07.2017 19:25 14,7 °C 14,8 °C 86 % 1019,4 hPa 0,0 mm 10,9 km/h (2 Bft) W 269 ° 0 min 0,000 mm 0,0 UV-I 42 W/m² 12,4 °C 14,7 °C 14,5 km/h (3 Bft)
02.07.2017 19:26 14,7 °C 14,7 °C 87 % 1019,5 hPa 0,0 mm 7,0 km/h (2 Bft) W-NW 284 ° 0 min 0,000 mm 0,0 UV-I 44 W/m² 12,6 °C 14,7 °C 14,5 km/h (3 Bft)
02.07.2017 19:27 14,6 °C 14,7 °C 87 % 1019,5 hPa 0,0 mm 4,2 km/h (1 Bft) W 269 ° 0 min 0,000 mm 0,0 UV-I 44 W/m² 12,5 °C 14,6 °C 6,4 km/h (2 Bft)
02.07.2017 19:28 14,6 °C 14,6 °C 87 % 1019,5 hPa 0,0 mm 6,2 km/h (2 Bft) W-NW 284 ° 0 min 0,000 mm 0,0 UV-I 40 W/m² 12,5 °C 14,6 °C 11,3 km/h (2 Bft)
02.07.2017 19:29 14,6 °C 14,6 °C 87 % 1019,6 hPa 0,0 mm 3,9 km/h (1 Bft) W-SW 255 ° 0 min 0,000 mm 0,0 UV-I 37 W/m² 12,5 °C 14,6 °C 6,4 km/h (2 Bft)
02.07.2017 19:30 14,5 °C 14,6 °C 87 % 1019,6 hPa 0,0 mm 8,6 km/h (2 Bft) W 269 ° 0 min 0,000 mm 0,0 UV-I 33 W/m² 12,4 °C 14,5 °C 12,9 km/h (3 Bft)
02.07.2017 19:31 14,6 °C 14,6 °C 87 % 1019,6 hPa 0,0 mm 6,2 km/h (2 Bft) SW 230 ° 0 min 0,000 mm 0,0 UV-I 30 W/m² 12,5 °C 14,6 °C 9,7 km/h (2 Bft)
02.07.2017 19:32 14,5 °C 14,6 °C 87 % 1019,6 hPa 0,0 mm 7,2 km/h (2 Bft) W-SW 242 ° 0 min 0,000 mm 0,0 UV-I 28 W/m² 12,4 °C 14,5 °C 16,1 km/h (3 Bft)
02.07.2017 19:33 14,4 °C 14,5 °C 87 % 1019,6 hPa 0,0 mm 10,8 km/h (2 Bft) W 273 ° 0 min 0,000 mm 0,0 UV-I 25 W/m² 12,3 °C 14,4 °C 14,5 km/h (3 Bft)
02.07.2017 19:34 14,4 °C 14,4 °C 86 % 1019,6 hPa 0,0 mm 4,5 km/h (1 Bft) SW 227 ° 0 min 0,000 mm 0,0 UV-I 25 W/m² 12,1 °C 14,4 °C 6,4 km/h (2 Bft)
02.07.2017 19:35 14,4 °C 14,4 °C 86 % 1019,6 hPa 0,0 mm 2,4 km/h (1 Bft) W-SW 243 ° 0 min 0,000 mm 0,0 UV-I 25 W/m² 12,1 °C 14,4 °C 4,8 km/h (1 Bft)
02.07.2017 19:36 14,4 °C 14,4 °C 87 % 1019,6 hPa 0,0 mm 11,1 km/h (2 Bft) W-NW 286 ° 0 min 0,000 mm 0,0 UV-I 23 W/m² 12,3 °C 14,4 °C 12,9 km/h (3 Bft)
02.07.2017 19:37 14,4 °C 14,4 °C 87 % 1019,6 hPa 0,0 mm 5,5 km/h (1 Bft) W-NW 290 ° 0 min 0,000 mm 0,0 UV-I 23 W/m² 12,3 °C 14,4 °C 9,7 km/h (2 Bft)
02.07.2017 19:38 14,4 °C 14,4 °C 87 % 1019,6 hPa 0,0 mm 9,3 km/h (2 Bft) W-SW 250 ° 0 min 0,000 mm 0,0 UV-I 23 W/m² 12,3 °C 14,4 °C 14,5 km/h (3 Bft)
02.07.2017 19:39 14,4 °C 14,4 °C 87 % 1019,7 hPa 0,0 mm 7,2 km/h (2 Bft) NW 310 ° 0 min 0,000 mm 0,0 UV-I 25 W/m² 12,3 °C 14,4 °C 12,9 km/h (3 Bft)
02.07.2017 19:40 14,4 °C 14,4 °C 87 % 1019,7 hPa 0,0 mm 3,7 km/h (1 Bft) W-NW 283 ° 0 min 0,000 mm 0,0 UV-I 25 W/m² 12,3 °C 14,4 °C 9,7 km/h (2 Bft)
02.07.2017 19:41 14,4 °C 14,4 °C 88 % 1019,7 hPa 0,0 mm 8,5 km/h (2 Bft) W-NW 286 ° 0 min 0,000 mm 0,0 UV-I 28 W/m² 12,4 °C 14,4 °C 14,5 km/h (3 Bft)
02.07.2017 19:42 14,3 °C 14,4 °C 88 % 1019,7 hPa 0,0 mm 6,3 km/h (2 Bft) W 268 ° 0 min 0,000 mm 0,0 UV-I 32 W/m² 12,3 °C 14,3 °C 9,7 km/h (2 Bft)
02.07.2017 19:43 14,3 °C 14,3 °C 88 % 1019,7 hPa 0,0 mm 10,2 km/h (2 Bft) W 278 ° 0 min 0,000 mm 0,0 UV-I 33 W/m² 12,3 °C 14,3 °C 16,1 km/h (3 Bft)
02.07.2017 19:44 14,3 °C 14,3 °C 88 % 1019,7 hPa 0,0 mm 5,7 km/h (1 Bft) SW 227 ° 0 min 0,000 mm 0,0 UV-I 35 W/m² 12,3 °C 14,3 °C 9,7 km/h (2 Bft)
02.07.2017 19:45 14,2 °C 14,3 °C 88 % 1019,7 hPa 0,0 mm 9,9 km/h (2 Bft) W-NW 292 ° 0 min 0,000 mm 0,0 UV-I 35 W/m² 12,2 °C 14,2 °C 17,7 km/h (3 Bft)
02.07.2017 19:46 14,2 °C 14,2 °C 88 % 1019,7 hPa 0,0 mm 10,3 km/h (2 Bft) W 260 ° 0 min 0,000 mm 0,0 UV-I 33 W/m² 12,2 °C 14,2 °C 12,9 km/h (3 Bft)
02.07.2017 19:47 14,2 °C 14,2 °C 88 % 1019,7 hPa 0,0 mm 4,8 km/h (1 Bft) W 272 ° 0 min 0,000 mm 0,0 UV-I 30 W/m² 12,2 °C 14,2 °C 9,7 km/h (2 Bft)
02.07.2017 19:48 14,2 °C 14,2 °C 89 % 1019,7 hPa 0,0 mm 5,8 km/h (2 Bft) W-SW 258 ° 0 min 0,000 mm 0,0 UV-I 26 W/m² 12,4 °C 14,2 °C 11,3 km/h (2 Bft)
02.07.2017 19:49 14,1 °C 14,2 °C 89 % 1019,7 hPa 0,0 mm 9,5 km/h (2 Bft) W-SW 254 ° 0 min 0,000 mm 0,0 UV-I 25 W/m² 12,3 °C 14,1 °C 14,5 km/h (3 Bft)
02.07.2017 19:50 14,1 °C 14,1 °C 89 % 1019,7 hPa 0,0 mm 9,1 km/h (2 Bft) W 264 ° 0 min 0,000 mm 0,0 UV-I 21 W/m² 12,3 °C 14,1 °C 11,3 km/h (2 Bft)
02.07.2017 19:51 14,1 °C 14,1 °C 89 % 1019,7 hPa 0,0 mm 10,2 km/h (2 Bft) W-NW 283 ° 0 min 0,000 mm 0,0 UV-I 19 W/m² 12,3 °C 14,1 °C 12,9 km/h (3 Bft)
02.07.2017 19:52 14,1 °C 14,1 °C 89 % 1019,7 hPa 0,0 mm 6,1 km/h (2 Bft) W-SW 242 ° 0 min 0,000 mm 0,0 UV-I 18 W/m² 12,3 °C 14,1 °C 11,3 km/h (2 Bft)
02.07.2017 19:53 14,1 °C 14,1 °C 89 % 1019,7 hPa 0,0 mm 7,2 km/h (2 Bft) W-SW 237 ° 0 min 0,000 mm 0,0 UV-I 16 W/m² 12,3 °C 14,1 °C 12,9 km/h (3 Bft)
02.07.2017 19:54 14,0 °C 14,1 °C 89 % 1019,7 hPa 0,0 mm 5,2 km/h (1 Bft) W 270 ° 0 min 0,000 mm 0,0 UV-I 16 W/m² 12,2 °C 14,0 °C 9,7 km/h (2 Bft)
02.07.2017 19:55 14,0 °C 14,0 °C 89 % 1019,7 hPa 0,0 mm 6,0 km/h (2 Bft) W-NW 283 ° 0 min 0,000 mm 0,0 UV-I 16 W/m² 12,2 °C 14,0 °C 11,3 km/h (2 Bft)
02.07.2017 19:56 14,0 °C 14,0 °C 90 % 1019,8 hPa 0,0 mm 8,4 km/h (2 Bft) W 265 ° 0 min 0,000 mm 0,0 UV-I 21 W/m² 12,4 °C 14,0 °C 11,3 km/h (2 Bft)
02.07.2017 19:57 14,0 °C 14,0 °C 90 % 1019,7 hPa 0,0 mm 7,3 km/h (2 Bft) W-SW 244 ° 0 min 0,000 mm 0,0 UV-I 21 W/m² 12,4 °C 14,0 °C 11,3 km/h (2 Bft)
02.07.2017 19:58 13,9 °C 14,0 °C 90 % 1019,7 hPa 0,0 mm 3,6 km/h (1 Bft) W 278 ° 0 min 0,000 mm 0,0 UV-I 23 W/m² 12,3 °C 13,9 °C 11,3 km/h (2 Bft)
02.07.2017 19:59 13,9 °C 14,0 °C 90 % 1019,7 hPa 0,0 mm 5,0 km/h (1 Bft) S-SW 202 ° 0 min 0,000 mm 0,0 UV-I 23 W/m² 12,3 °C 13,9 °C 9,7 km/h (2 Bft)
02.07.2017 20:00 13,9 °C 13,9 °C 90 % 1019,7 hPa 0,0 mm 2,7 km/h (1 Bft) W-SW 253 ° 0 min 0,026 mm 0,0 UV-I 25 W/m² 12,3 °C 13,9 °C 6,4 km/h (2 Bft)
02.07.2017 20:01 13,9 °C 13,9 °C 90 % 1019,7 hPa 0,0 mm 6,0 km/h (2 Bft) W-SW 244 ° 0 min 0,000 mm 0,0 UV-I 26 W/m² 12,3 °C 13,9 °C 8,0 km/h (2 Bft)
02.07.2017 20:02 13,9 °C 13,9 °C 90 % 1019,8 hPa 0,0 mm 7,4 km/h (2 Bft) W-SW 245 ° 0 min 0,000 mm 0,0 UV-I 26 W/m² 12,3 °C 13,9 °C 12,9 km/h (3 Bft)
02.07.2017 20:03 13,9 °C 13,9 °C 90 % 1019,8 hPa 0,0 mm 5,0 km/h (1 Bft) W 279 ° 0 min 0,000 mm 0,0 UV-I 26 W/m² 12,3 °C 13,9 °C 11,3 km/h (2 Bft)
02.07.2017 20:04 13,9 °C 13,9 °C 90 % 1019,8 hPa 0,0 mm 10,3 km/h (2 Bft) W-SW 258 ° 0 min 0,000 mm 0,0 UV-I 25 W/m² 12,3 °C 13,9 °C 14,5 km/h (3 Bft)
02.07.2017 20:05 13,9 °C 13,9 °C 90 % 1019,8 hPa 0,0 mm 7,3 km/h (2 Bft) SW 224 ° 0 min 0,000 mm 0,0 UV-I 23 W/m² 12,3 °C 13,9 °C 12,9 km/h (3 Bft)
02.07.2017 20:06 13,9 °C 13,9 °C 90 % 1019,7 hPa 0,0 mm 4,6 km/h (1 Bft) W 279 ° 0 min 0,000 mm 0,0 UV-I 21 W/m² 12,3 °C 13,9 °C 12,9 km/h (3 Bft)
02.07.2017 20:07 13,9 °C 13,9 °C 90 % 1019,7 hPa 0,0 mm 4,6 km/h (1 Bft) W-NW 282 ° 0 min 0,000 mm 0,0 UV-I 19 W/m² 12,3 °C 13,9 °C 8,0 km/h (2 Bft)
02.07.2017 20:08 13,8 °C 13,9 °C 90 % 1019,7 hPa 0,0 mm 4,5 km/h (1 Bft) SW 234 ° 0 min 0,000 mm 0,0 UV-I 18 W/m² 12,2 °C 13,8 °C 11,3 km/h (2 Bft)
02.07.2017 20:09 13,8 °C 13,8 °C 90 % 1019,8 hPa 0,0 mm 5,0 km/h (1 Bft) W 267 ° 0 min 0,000 mm 0,0 UV-I 16 W/m² 12,2 °C 13,8 °C 11,3 km/h (2 Bft)
02.07.2017 20:10 13,8 °C 13,8 °C 90 % 1019,8 hPa 0,0 mm 9,0 km/h (2 Bft) W-SW 246 ° 0 min 0,000 mm 0,0 UV-I 16 W/m² 12,2 °C 13,8 °C 14,5 km/h (3 Bft)
02.07.2017 20:11 13,8 °C 13,8 °C 90 % 1019,8 hPa 0,0 mm 5,5 km/h (1 Bft) W 259 ° 0 min 0,000 mm 0,0 UV-I 16 W/m² 12,2 °C 13,8 °C 8,0 km/h (2 Bft)
02.07.2017 20:12 13,8 °C 13,8 °C 90 % 1019,8 hPa 0,0 mm 6,1 km/h (2 Bft) W 274 ° 0 min 0,000 mm 0,0 UV-I 14 W/m² 12,2 °C 13,8 °C 14,5 km/h (3 Bft)
02.07.2017 20:13 13,8 °C 13,8 °C 90 % 1019,8 hPa 0,0 mm 7,6 km/h (2 Bft) W-SW 250 ° 0 min 0,000 mm 0,0 UV-I 14 W/m² 12,2 °C 13,8 °C 12,9 km/h (3 Bft)
02.07.2017 20:14 13,8 °C 13,8 °C 90 % 1019,8 hPa 0,0 mm 8,2 km/h (2 Bft) SW 236 ° 0 min 0,000 mm 0,0 UV-I 16 W/m² 12,2 °C 13,8 °C 12,9 km/h (3 Bft)
02.07.2017 20:15 13,8 °C 13,9 °C 90 % 1019,8 hPa 0,0 mm 5,0 km/h (1 Bft) W-SW 240 ° 0 min 0,000 mm 0,0 UV-I 14 W/m² 12,2 °C 13,8 °C 8,0 km/h (2 Bft)
02.07.2017 20:16 13,8 °C 13,8 °C 90 % 1019,9 hPa 0,0 mm 12,7 km/h (3 Bft) W-SW 252 ° 0 min 0,000 mm 0,0 UV-I 14 W/m² 12,2 °C 13,8 °C 14,5 km/h (3 Bft)
02.07.2017 20:17 13,8 °C 13,8 °C 90 % 1019,8 hPa 0,0 mm 7,2 km/h (2 Bft) W-NW 303 ° 0 min 0,000 mm 0,0 UV-I 14 W/m² 12,2 °C 13,8 °C 14,5 km/h (3 Bft)
02.07.2017 20:18 13,8 °C 13,8 °C 90 % 1019,9 hPa 0,0 mm 8,7 km/h (2 Bft) W 269 ° 0 min 0,000 mm 0,0 UV-I 14 W/m² 12,2 °C 13,8 °C 14,5 km/h (3 Bft)
02.07.2017 20:19 13,8 °C 13,8 °C 90 % 1019,9 hPa 0,0 mm 4,9 km/h (1 Bft) W 272 ° 0 min 0,000 mm 0,0 UV-I 14 W/m² 12,2 °C 13,8 °C 14,5 km/h (3 Bft)
02.07.2017 20:20 13,8 °C 13,8 °C 90 % 1019,9 hPa 0,0 mm 8,6 km/h (2 Bft) W-SW 254 ° 0 min 0,000 mm 0,0 UV-I 12 W/m² 12,2 °C 13,8 °C 14,5 km/h (3 Bft)
02.07.2017 20:21 13,8 °C 13,8 °C 90 % 1019,9 hPa 0,0 mm 6,9 km/h (2 Bft) W 260 ° 0 min 0,000 mm 0,0 UV-I 12 W/m² 12,2 °C 13,8 °C 11,3 km/h (2 Bft)
02.07.2017 20:22 13,8 °C 13,8 °C 90 % 1019,9 hPa 0,0 mm 4,2 km/h (1 Bft) W 264 ° 0 min 0,000 mm 0,0 UV-I 12 W/m² 12,2 °C 13,8 °C 11,3 km/h (2 Bft)
02.07.2017 20:23 13,8 °C 13,8 °C 91 % 1019,9 hPa 0,0 mm 8,3 km/h (2 Bft) W 261 ° 0 min 0,000 mm 0,0 UV-I 12 W/m² 12,4 °C 13,8 °C 14,5 km/h (3 Bft)
02.07.2017 20:24 13,7 °C 13,8 °C 91 % 1019,9 hPa 0,0 mm 7,4 km/h (2 Bft) W-SW 254 ° 0 min 0,000 mm 0,0 UV-I 11 W/m² 12,3 °C 13,7 °C 12,9 km/h (3 Bft)
02.07.2017 20:25 13,7 °C 13,7 °C 91 % 1019,9 hPa 0,0 mm 4,9 km/h (1 Bft) W-SW 255 ° 0 min 0,000 mm 0,0 UV-I 11 W/m² 12,3 °C 13,7 °C 8,0 km/h (2 Bft)
02.07.2017 20:26 13,6 °C 13,7 °C 91 % 1019,9 hPa 0,0 mm 4,8 km/h (1 Bft) W 277 ° 0 min 0,000 mm 0,0 UV-I 11 W/m² 12,2 °C 13,6 °C 9,7 km/h (2 Bft)
02.07.2017 20:27 13,6 °C 13,6 °C 91 % 1019,9 hPa 0,0 mm 6,2 km/h (2 Bft) W-SW 258 ° 0 min 0,000 mm 0,0 UV-I 11 W/m² 12,2 °C 13,6 °C 11,3 km/h (2 Bft)
02.07.2017 20:28 13,5 °C 13,6 °C 91 % 1019,9 hPa 0,0 mm 8,5 km/h (2 Bft) S-SW 201 ° 0 min 0,000 mm 0,0 UV-I 11 W/m² 12,1 °C 13,5 °C 12,9 km/h (3 Bft)
02.07.2017 20:29 13,4 °C 13,5 °C 90 % 1019,9 hPa 0,0 mm 3,9 km/h (1 Bft) SW 225 ° 0 min 0,000 mm 0,0 UV-I 11 W/m² 11,8 °C 13,4 °C 6,4 km/h (2 Bft)
02.07.2017 20:30 13,4 °C 13,4 °C 91 % 1019,9 hPa 0,0 mm 4,6 km/h (1 Bft) S 190 ° 0 min 0,000 mm 0,0 UV-I 9 W/m² 12,0 °C 13,4 °C 6,4 km/h (2 Bft)
02.07.2017 20:31 13,4 °C 13,4 °C 91 % 1019,9 hPa 0,0 mm 5,1 km/h (1 Bft) W-SW 240 ° 0 min 0,000 mm 0,0 UV-I 9 W/m² 12,0 °C 13,4 °C 8,0 km/h (2 Bft)
02.07.2017 20:32 13,3 °C 13,4 °C 91 % 1020,0 hPa 0,0 mm 3,1 km/h (1 Bft) SW 223 ° 0 min 0,000 mm 0,0 UV-I 7 W/m² 11,9 °C 13,3 °C 6,4 km/h (2 Bft)
02.07.2017 20:33 13,3 °C 13,3 °C 91 % 1020,0 hPa 0,0 mm 3,2 km/h (1 Bft) W 266 ° 0 min 0,000 mm 0,0 UV-I 7 W/m² 11,9 °C 13,3 °C 6,4 km/h (2 Bft)
02.07.2017 20:34 13,3 °C 13,3 °C 91 % 1020,0 hPa 0,0 mm 6,0 km/h (2 Bft) W-SW 255 ° 0 min 0,000 mm 0,0 UV-I 7 W/m² 11,9 °C 13,3 °C 14,5 km/h (3 Bft)
02.07.2017 20:35 13,3 °C 13,3 °C 91 % 1020,1 hPa 0,0 mm 8,0 km/h (2 Bft) W 276 ° 0 min 0,000 mm 0,0 UV-I 7 W/m² 11,9 °C 13,3 °C 12,9 km/h (3 Bft)
02.07.2017 20:36 13,3 °C 13,3 °C 91 % 1020,1 hPa 0,0 mm 6,5 km/h (2 Bft) S-SW 212 ° 0 min 0,000 mm 0,0 UV-I 7 W/m² 11,9 °C 13,3 °C 9,7 km/h (2 Bft)
02.07.2017 20:37 13,3 °C 13,3 °C 92 % 1020,1 hPa 0,0 mm 4,3 km/h (1 Bft) S-SO 156 ° 0 min 0,000 mm 0,0 UV-I 5 W/m² 12,0 °C 13,3 °C 6,4 km/h (2 Bft)
02.07.2017 20:38 13,2 °C 13,3 °C 91 % 1020,1 hPa 0,0 mm 3,2 km/h (1 Bft) W 277 ° 0 min 0,000 mm 0,0 UV-I 5 W/m² 11,8 °C 13,2 °C 6,4 km/h (2 Bft)
02.07.2017 20:39 13,2 °C 13,2 °C 91 % 1020,1 hPa 0,0 mm 4,8 km/h (1 Bft) SW 232 ° 0 min 0,000 mm 0,0 UV-I 5 W/m² 11,8 °C 13,2 °C 11,3 km/h (2 Bft)
02.07.2017 20:40 13,2 °C 13,2 °C 91 % 1020,1 hPa 0,0 mm 7,8 km/h (2 Bft) W-SW 245 ° 0 min 0,000 mm 0,0 UV-I 5 W/m² 11,8 °C 13,2 °C 14,5 km/h (3 Bft)
02.07.2017 20:41 13,1 °C 13,2 °C 91 % 1020,1 hPa 0,0 mm 4,8 km/h (1 Bft) W 263 ° 0 min 0,000 mm 0,0 UV-I 5 W/m² 11,7 °C 13,1 °C 9,7 km/h (2 Bft)
02.07.2017 20:42 13,1 °C 13,1 °C 91 % 1020,1 hPa 0,0 mm 6,0 km/h (2 Bft) W-SW 244 ° 0 min 0,000 mm 0,0 UV-I 5 W/m² 11,7 °C 13,1 °C 11,3 km/h (2 Bft)
02.07.2017 20:43 13,1 °C 13,1 °C 91 % 1020,1 hPa 0,0 mm 5,5 km/h (1 Bft) W 273 ° 0 min 0,000 mm 0,0 UV-I 5 W/m² 11,7 °C 13,1 °C 9,7 km/h (2 Bft)
02.07.2017 20:44 13,1 °C 13,1 °C 91 % 1020,1 hPa 0,0 mm 5,8 km/h (2 Bft) S-SW 213 ° 0 min 0,000 mm 0,0 UV-I 5 W/m² 11,7 °C 13,1 °C 12,9 km/h (3 Bft)
02.07.2017 20:45 13,0 °C 13,1 °C 91 % 1020,2 hPa 0,0 mm 3,9 km/h (1 Bft) W-SW 248 ° 0 min 0,000 mm 0,0 UV-I 5 W/m² 11,6 °C 13,0 °C 9,7 km/h (2 Bft)
02.07.2017 20:46 12,9 °C 13,0 °C 91 % 1020,1 hPa 0,0 mm 3,3 km/h (1 Bft) W 267 ° 0 min 0,000 mm 0,0 UV-I 5 W/m² 11,5 °C 12,9 °C 4,8 km/h (1 Bft)
02.07.2017 20:47 12,9 °C 13,0 °C 91 % 1020,2 hPa 0,0 mm 2,9 km/h (1 Bft) W 261 ° 0 min 0,000 mm 0,0 UV-I 5 W/m² 11,5 °C 12,9 °C 6,4 km/h (2 Bft)
02.07.2017 20:48 12,9 °C 12,9 °C 91 % 1020,2 hPa 0,0 mm 3,4 km/h (1 Bft) W 272 ° 0 min 0,000 mm 0,0 UV-I 5 W/m² 11,5 °C 12,9 °C 11,3 km/h (2 Bft)
02.07.2017 20:49 12,9 °C 12,9 °C 91 % 1020,3 hPa 0,0 mm 8,0 km/h (2 Bft) W 269 ° 0 min 0,000 mm 0,0 UV-I 5 W/m² 11,5 °C 12,9 °C 12,9 km/h (3 Bft)
02.07.2017 20:50 12,9 °C 12,9 °C 91 % 1020,3 hPa 0,0 mm 5,2 km/h (1 Bft) W 259 ° 0 min 0,000 mm 0,0 UV-I 5 W/m² 11,5 °C 12,9 °C 6,4 km/h (2 Bft)
02.07.2017 20:51 12,9 °C 12,9 °C 91 % 1020,3 hPa 0,0 mm 4,6 km/h (1 Bft) W-SW 253 ° 0 min 0,000 mm 0,0 UV-I 0 W/m² 11,5 °C 12,9 °C 8,0 km/h (2 Bft)
02.07.2017 20:52 12,9 °C 12,9 °C 91 % 1020,3 hPa 0,0 mm 4,3 km/h (1 Bft) W-NW 297 ° 0 min 0,000 mm 0,0 UV-I 0 W/m² 11,5 °C 12,9 °C 6,4 km/h (2 Bft)
02.07.2017 20:53 12,9 °C 12,9 °C 91 % 1020,3 hPa 0,0 mm 3,9 km/h (1 Bft) W-SW 244 ° 0 min 0,000 mm 0,0 UV-I 0 W/m² 11,5 °C 12,9 °C 6,4 km/h (2 Bft)
02.07.2017 20:54 12,9 °C 12,9 °C 91 % 1020,3 hPa 0,0 mm 6,2 km/h (2 Bft) W 268 ° 0 min 0,000 mm 0,0 UV-I 0 W/m² 11,5 °C 12,9 °C 8,0 km/h (2 Bft)
02.07.2017 20:55 12,8 °C 12,9 °C 91 % 1020,3 hPa 0,0 mm 9,2 km/h (2 Bft) W-SW 246 ° 0 min 0,000 mm 0,0 UV-I 0 W/m² 11,4 °C 12,8 °C 14,5 km/h (3 Bft)
02.07.2017 20:56 12,8 °C 12,9 °C 91 % 1020,3 hPa 0,0 mm 4,9 km/h (1 Bft) SW 228 ° 0 min 0,000 mm 0,0 UV-I 0 W/m² 11,4 °C 12,8 °C 9,7 km/h (2 Bft)
02.07.2017 20:57 12,8 °C 12,8 °C 91 % 1020,3 hPa 0,0 mm 6,2 km/h (2 Bft) W 271 ° 0 min 0,000 mm 0,0 UV-I 0 W/m² 11,4 °C 12,8 °C 11,3 km/h (2 Bft)
02.07.2017 20:58 12,8 °C 12,8 °C 91 % 1020,3 hPa 0,0 mm 7,1 km/h (2 Bft) SW 234 ° 0 min 0,000 mm 0,0 UV-I 0 W/m² 11,4 °C 12,8 °C 12,9 km/h (3 Bft)
02.07.2017 20:59 12,8 °C 12,8 °C 91 % 1020,3 hPa 0,0 mm 4,6 km/h (1 Bft) W 267 ° 0 min 0,000 mm 0,0 UV-I 0 W/m² 11,4 °C 12,8 °C 8,0 km/h (2 Bft)
02.07.2017 21:00 12,8 °C 12,8 °C 91 % 1020,3 hPa 0,0 mm 5,0 km/h (1 Bft) SW 233 ° 0 min 0,000 mm 0,0 UV-I 0 W/m² 11,4 °C 12,8 °C 9,7 km/h (2 Bft)
02.07.2017 21:01 12,8 °C 12,8 °C 91 % 1020,3 hPa 0,0 mm 6,6 km/h (2 Bft) W-SW 256 ° 0 min 0,025 mm 0,0 UV-I 0 W/m² 11,4 °C 12,8 °C 11,3 km/h (2 Bft)
02.07.2017 21:02 12,8 °C 12,8 °C 91 % 1020,3 hPa 0,0 mm 5,2 km/h (1 Bft) SW 227 ° 0 min 0,000 mm 0,0 UV-I 0 W/m² 11,4 °C 12,8 °C 9,7 km/h (2 Bft)
02.07.2017 21:03 12,8 °C 12,8 °C 91 % 1020,3 hPa 0,0 mm 6,2 km/h (2 Bft) W-SW 249 ° 0 min 0,000 mm 0,0 UV-I 0 W/m² 11,4 °C 12,8 °C 9,7 km/h (2 Bft)
02.07.2017 21:04 12,8 °C 12,8 °C 91 % 1020,3 hPa 0,0 mm 8,5 km/h (2 Bft) W-SW 250 ° 0 min 0,000 mm 0,0 UV-I 0 W/m² 11,4 °C 12,8 °C 14,5 km/h (3 Bft)
02.07.2017 21:05 12,8 °C 12,8 °C 91 % 1020,3 hPa 0,0 mm 6,2 km/h (2 Bft) W 269 ° 0 min 0,000 mm 0,0 UV-I 0 W/m² 11,4 °C 12,8 °C 9,7 km/h (2 Bft)
02.07.2017 21:06 12,8 °C 12,8 °C 91 % 1020,3 hPa 0,0 mm 5,2 km/h (1 Bft) W 267 ° 0 min 0,000 mm 0,0 UV-I 0 W/m² 11,4 °C 12,8 °C 11,3 km/h (2 Bft)
02.07.2017 21:07 12,8 °C 12,8 °C 91 % 1020,4 hPa 0,0 mm 8,6 km/h (2 Bft) W 264 ° 0 min 0,000 mm 0,0 UV-I 0 W/m² 11,4 °C 12,8 °C 12,9 km/h (3 Bft)
02.07.2017 21:08 12,8 °C 12,8 °C 91 % 1020,4 hPa 0,0 mm 5,8 km/h (2 Bft) W-SW 255 ° 0 min 0,000 mm 0,0 UV-I 0 W/m² 11,4 °C 12,8 °C 8,0 km/h (2 Bft)
02.07.2017 21:09 12,8 °C 12,8 °C 91 % 1020,4 hPa 0,0 mm 5,2 km/h (1 Bft) W-SW 250 ° 0 min 0,000 mm 0,0 UV-I 0 W/m² 11,4 °C 12,8 °C 8,0 km/h (2 Bft)
02.07.2017 21:10 12,8 °C 12,8 °C 92 % 1020,4 hPa 0,0 mm 3,5 km/h (1 Bft) W 275 ° 0 min 0,000 mm 0,0 UV-I 0 W/m² 11,5 °C 12,8 °C 4,8 km/h (1 Bft)
02.07.2017 21:11 12,8 °C 12,8 °C 92 % 1020,4 hPa 0,0 mm 3,4 km/h (1 Bft) W-SW 244 ° 0 min 0,000 mm 0,0 UV-I 0 W/m² 11,5 °C 12,8 °C 4,8 km/h (1 Bft)
02.07.2017 21:12 12,8 °C 12,8 °C 92 % 1020,4 hPa 0,0 mm 8,3 km/h (2 Bft) SW 229 ° 0 min 0,000 mm 0,0 UV-I 0 W/m² 11,5 °C 12,8 °C 14,5 km/h (3 Bft)
02.07.2017 21:13 12,8 °C 12,8 °C 92 % 1020,4 hPa 0,0 mm 4,2 km/h (1 Bft) W 264 ° 0 min 0,000 mm 0,0 UV-I 0 W/m² 11,5 °C 12,8 °C 6,4 km/h (2 Bft)
02.07.2017 21:14 12,8 °C 12,9 °C 92 % 1020,4 hPa 0,0 mm 3,5 km/h (1 Bft) W 261 ° 0 min 0,000 mm 0,0 UV-I 0 W/m² 11,5 °C 12,8 °C 4,8 km/h (1 Bft)
02.07.2017 21:15 12,8 °C 12,9 °C 91 % 1020,4 hPa 0,0 mm 2,4 km/h (1 Bft) W 261 ° 0 min 0,000 mm 0,0 UV-I 0 W/m² 11,4 °C 12,8 °C 4,8 km/h (1 Bft)
02.07.2017 21:16 12,8 °C 12,8 °C 92 % 1020,5 hPa 0,0 mm 5,5 km/h (1 Bft) W-SW 252 ° 0 min 0,000 mm 0,0 UV-I 0 W/m² 11,5 °C 12,8 °C 9,7 km/h (2 Bft)
02.07.2017 21:17 12,9 °C 12,9 °C 91 % 1020,5 hPa 0,0 mm 4,8 km/h (1 Bft) W-SW 246 ° 0 min 0,000 mm 0,0 UV-I 0 W/m² 11,5 °C 12,9 °C 8,0 km/h (2 Bft)
02.07.2017 21:18 12,9 °C 12,9 °C 92 % 1020,4 hPa 0,0 mm 5,8 km/h (2 Bft) W 271 ° 0 min 0,000 mm 0,0 UV-I 0 W/m² 11,6 °C 12,9 °C 9,7 km/h (2 Bft)
02.07.2017 21:19 12,9 °C 12,9 °C 91 % 1020,4 hPa 0,0 mm 5,3 km/h (1 Bft) W-SW 250 ° 0 min 0,000 mm 0,0 UV-I 0 W/m² 11,5 °C 12,9 °C 8,0 km/h (2 Bft)
02.07.2017 21:20 12,9 °C 12,9 °C 92 % 1020,4 hPa 0,0 mm 6,6 km/h (2 Bft) W 270 ° 0 min 0,000 mm 0,0 UV-I 0 W/m² 11,6 °C 12,9 °C 11,3 km/h (2 Bft)
02.07.2017 21:21 12,9 °C 12,9 °C 91 % 1020,5 hPa 0,0 mm 8,4 km/h (2 Bft) W 274 ° 0 min 0,000 mm 0,0 UV-I 0 W/m² 11,5 °C 12,9 °C 11,3 km/h (2 Bft)
02.07.2017 21:22 12,9 °C 12,9 °C 91 % 1020,5 hPa 0,0 mm 9,7 km/h (2 Bft) W 259 ° 0 min 0,000 mm 0,0 UV-I 0 W/m² 11,5 °C 12,9 °C 19,3 km/h (3 Bft)
02.07.2017 21:23 12,9 °C 12,9 °C 91 % 1020,5 hPa 0,0 mm 4,4 km/h (1 Bft) W-SW 252 ° 0 min 0,000 mm 0,0 UV-I 0 W/m² 11,5 °C 12,9 °C 9,7 km/h (2 Bft)
02.07.2017 21:24 12,9 °C 12,9 °C 91 % 1020,4 hPa 0,0 mm 6,9 km/h (2 Bft) O-SO 109 ° 0 min 0,000 mm 0,0 UV-I 0 W/m² 11,5 °C 12,9 °C 16,1 km/h (3 Bft)
02.07.2017 21:25 12,9 °C 12,9 °C 91 % 1020,4 hPa 0,0 mm 4,4 km/h (1 Bft) W-SW 257 ° 0 min 0,000 mm 0,0 UV-I 0 W/m² 11,5 °C 12,9 °C 9,7 km/h (2 Bft)
02.07.2017 21:26 12,9 °C 12,9 °C 91 % 1020,4 hPa 0,0 mm 4,8 km/h (1 Bft) W 277 ° 0 min 0,000 mm 0,0 UV-I 0 W/m² 11,5 °C 12,9 °C 8,0 km/h (2 Bft)
02.07.2017 21:27 12,9 °C 12,9 °C 91 % 1020,5 hPa 0,0 mm 6,8 km/h (2 Bft) W-SW 257 ° 0 min 0,000 mm 0,0 UV-I 0 W/m² 11,5 °C 12,9 °C 12,9 km/h (3 Bft)
02.07.2017 21:28 12,9 °C 12,9 °C 91 % 1020,4 hPa 0,0 mm 5,3 km/h (1 Bft) W 260 ° 0 min 0,000 mm 0,0 UV-I 0 W/m² 11,5 °C 12,9 °C 11,3 km/h (2 Bft)
02.07.2017 21:29 12,9 °C 12,9 °C 91 % 1020,5 hPa 0,0 mm 7,0 km/h (2 Bft) W-SW 246 ° 0 min 0,000 mm 0,0 UV-I 0 W/m² 11,5 °C 12,9 °C 11,3 km/h (2 Bft)
02.07.2017 21:30 12,9 °C 12,9 °C 91 % 1020,5 hPa 0,0 mm 5,9 km/h (2 Bft) W-SW 247 ° 0 min 0,000 mm 0,0 UV-I 0 W/m² 11,5 °C 12,9 °C 11,3 km/h (2 Bft)
02.07.2017 21:31 12,9 °C 12,9 °C 91 % 1020,4 hPa 0,0 mm 7,9 km/h (2 Bft) SW 224 ° 0 min 0,000 mm 0,0 UV-I 0 W/m² 11,5 °C 12,9 °C 12,9 km/h (3 Bft)
02.07.2017 21:32 12,9 °C 12,9 °C 91 % 1020,5 hPa 0,0 mm 10,3 km/h (2 Bft) W 272 ° 0 min 0,000 mm 0,0 UV-I 0 W/m² 11,5 °C 12,9 °C 16,1 km/h (3 Bft)
02.07.2017 21:33 12,9 °C 12,9 °C 91 % 1020,5 hPa 0,0 mm 8,8 km/h (2 Bft) W 267 ° 0 min 0,000 mm 0,0 UV-I 0 W/m² 11,5 °C 12,9 °C 14,5 km/h (3 Bft)
02.07.2017 21:34 12,9 °C 12,9 °C 91 % 1020,5 hPa 0,0 mm 7,0 km/h (2 Bft) W-SW 250 ° 0 min 0,000 mm 0,0 UV-I 0 W/m² 11,5 °C 12,9 °C 11,3 km/h (2 Bft)
02.07.2017 21:35 12,9 °C 12,9 °C 91 % 1020,6 hPa 0,0 mm 10,1 km/h (2 Bft) SW 230 ° 0 min 0,000 mm 0,0 UV-I 0 W/m² 11,5 °C 12,9 °C 16,1 km/h (3 Bft)
02.07.2017 21:36 12,9 °C 12,9 °C 91 % 1020,5 hPa 0,0 mm 6,0 km/h (2 Bft) S-SW 211 ° 0 min 0,000 mm 0,0 UV-I 0 W/m² 11,5 °C 12,9 °C 9,7 km/h (2 Bft)
02.07.2017 21:37 12,9 °C 12,9 °C 91 % 1020,5 hPa 0,0 mm 4,9 km/h (1 Bft) W 262 ° 0 min 0,000 mm 0,0 UV-I 0 W/m² 11,5 °C 12,9 °C 9,7 km/h (2 Bft)
02.07.2017 21:38 12,9 °C 12,9 °C 91 % 1020,5 hPa 0,0 mm 6,9 km/h (2 Bft) NW 307 ° 0 min 0,000 mm 0,0 UV-I 0 W/m² 11,5 °C 12,9 °C 11,3 km/h (2 Bft)
02.07.2017 21:39 12,9 °C 12,9 °C 91 % 1020,5 hPa 0,0 mm 10,0 km/h (2 Bft) W 259 ° 0 min 0,000 mm 0,0 UV-I 0 W/m² 11,5 °C 12,9 °C 16,1 km/h (3 Bft)
02.07.2017 21:40 12,9 °C 12,9 °C 91 % 1020,6 hPa 0,0 mm 3,8 km/h (1 Bft) W-SW 248 ° 0 min 0,000 mm 0,0 UV-I 0 W/m² 11,5 °C 12,9 °C 6,4 km/h (2 Bft)
02.07.2017 21:41 12,9 °C 12,9 °C 91 % 1020,6 hPa 0,0 mm 6,0 km/h (2 Bft) W-SW 257 ° 0 min 0,000 mm 0,0 UV-I 0 W/m² 11,5 °C 12,9 °C 9,7 km/h (2 Bft)
02.07.2017 21:42 12,9 °C 12,9 °C 91 % 1020,5 hPa 0,0 mm 6,4 km/h (2 Bft) W 262 ° 0 min 0,000 mm 0,0 UV-I 0 W/m² 11,5 °C 12,9 °C 11,3 km/h (2 Bft)
02.07.2017 21:43 12,9 °C 12,9 °C 91 % 1020,6 hPa 0,0 mm 5,6 km/h (1 Bft) SW 234 ° 0 min 0,000 mm 0,0 UV-I 0 W/m² 11,5 °C 12,9 °C 11,3 km/h (2 Bft)
02.07.2017 21:44 12,9 °C 12,9 °C 91 % 1020,6 hPa 0,0 mm 6,1 km/h (2 Bft) W 260 ° 0 min 0,000 mm 0,0 UV-I 0 W/m² 11,5 °C 12,9 °C 14,5 km/h (3 Bft)
02.07.2017 21:45 12,9 °C 12,9 °C 91 % 1020,6 hPa 0,0 mm 4,8 km/h (1 Bft) W-NW 285 ° 0 min 0,000 mm 0,0 UV-I 0 W/m² 11,5 °C 12,9 °C 8,0 km/h (2 Bft)
02.07.2017 21:46 12,9 °C 12,9 °C 91 % 1020,6 hPa 0,0 mm 9,5 km/h (2 Bft) W-SW 242 ° 0 min 0,000 mm 0,0 UV-I 0 W/m² 11,5 °C 12,9 °C 12,9 km/h (3 Bft)
02.07.2017 21:47 12,9 °C 12,9 °C 91 % 1020,6 hPa 0,0 mm 7,0 km/h (2 Bft) W 279 ° 0 min 0,000 mm 0,0 UV-I 0 W/m² 11,5 °C 12,9 °C 11,3 km/h (2 Bft)
02.07.2017 21:48 12,9 °C 12,9 °C 91 % 1020,5 hPa 0,0 mm 8,8 km/h (2 Bft) W 266 ° 0 min 0,000 mm 0,0 UV-I 0 W/m² 11,5 °C 12,9 °C 12,9 km/h (3 Bft)
02.07.2017 21:49 12,9 °C 12,9 °C 91 % 1020,6 hPa 0,0 mm 4,5 km/h (1 Bft) W 261 ° 0 min 0,000 mm 0,0 UV-I 0 W/m² 11,5 °C 12,9 °C 9,7 km/h (2 Bft)
02.07.2017 21:50 12,9 °C 12,9 °C 91 % 1020,6 hPa 0,0 mm 8,1 km/h (2 Bft) W-SW 255 ° 0 min 0,000 mm 0,0 UV-I 0 W/m² 11,5 °C 12,9 °C 12,9 km/h (3 Bft)
02.07.2017 21:51 12,9 °C 12,9 °C 91 % 1020,6 hPa 0,0 mm 8,4 km/h (2 Bft) W-SW 242 ° 0 min 0,000 mm 0,0 UV-I 0 W/m² 11,5 °C 12,9 °C 14,5 km/h (3 Bft)
02.07.2017 21:52 12,9 °C 12,9 °C 91 % 1020,6 hPa 0,0 mm 5,9 km/h (2 Bft) W 277 ° 0 min 0,000 mm 0,0 UV-I 0 W/m² 11,5 °C 12,9 °C 12,9 km/h (3 Bft)
02.07.2017 21:53 12,9 °C 12,9 °C 91 % 1020,6 hPa 0,0 mm 7,4 km/h (2 Bft) W-SW 257 ° 0 min 0,000 mm 0,0 UV-I 0 W/m² 11,5 °C 12,9 °C 12,9 km/h (3 Bft)
02.07.2017 21:54 12,9 °C 12,9 °C 91 % 1020,6 hPa 0,0 mm 8,0 km/h (2 Bft) W 266 ° 0 min 0,000 mm 0,0 UV-I 0 W/m² 11,5 °C 12,9 °C 12,9 km/h (3 Bft)
02.07.2017 21:55 12,9 °C 12,9 °C 91 % 1020,6 hPa 0,0 mm 7,4 km/h (2 Bft) W 266 ° 0 min 0,000 mm 0,0 UV-I 0 W/m² 11,5 °C 12,9 °C 11,3 km/h (2 Bft)
02.07.2017 21:56 12,9 °C 12,9 °C 91 % 1020,6 hPa 0,0 mm 4,8 km/h (1 Bft) W-SW 248 ° 0 min 0,000 mm 0,0 UV-I 0 W/m² 11,5 °C 12,9 °C 11,3 km/h (2 Bft)
02.07.2017 21:57 12,9 °C 12,9 °C 91 % 1020,6 hPa 0,0 mm 4,4 km/h (1 Bft) W-SW 238 ° 0 min 0,000 mm 0,0 UV-I 0 W/m² 11,5 °C 12,9 °C 9,7 km/h (2 Bft)
02.07.2017 21:58 13,0 °C 13,0 °C 91 % 1020,6 hPa 0,0 mm 6,1 km/h (2 Bft) W-SW 238 ° 0 min 0,000 mm 0,0 UV-I 0 W/m² 11,6 °C 13,0 °C 9,7 km/h (2 Bft)
02.07.2017 21:59 12,9 °C 13,0 °C 91 % 1020,6 hPa 0,0 mm 5,3 km/h (1 Bft) W-SW 248 ° 0 min 0,000 mm 0,0 UV-I 0 W/m² 11,5 °C 12,9 °C 11,3 km/h (2 Bft)
02.07.2017 22:00 12,9 °C 13,0 °C 91 % 1020,6 hPa 0,0 mm 3,9 km/h (1 Bft) W-SW 258 ° 0 min 0,000 mm 0,0 UV-I 0 W/m² 11,5 °C 12,9 °C 6,4 km/h (2 Bft)
02.07.2017 22:01 13,0 °C 13,0 °C 91 % 1020,6 hPa 0,0 mm 5,0 km/h (1 Bft) W-NW 285 ° 0 min 0,000 mm 0,0 UV-I 0 W/m² 11,6 °C 13,0 °C 8,0 km/h (2 Bft)
02.07.2017 22:02 13,0 °C 13,0 °C 91 % 1020,6 hPa 0,0 mm 6,2 km/h (2 Bft) W-SW 242 ° 0 min 0,000 mm 0,0 UV-I 0 W/m² 11,6 °C 13,0 °C 11,3 km/h (2 Bft)
02.07.2017 22:03 13,1 °C 13,1 °C 91 % 1020,6 hPa 0,0 mm 6,2 km/h (2 Bft) W-SW 241 ° 0 min 0,000 mm 0,0 UV-I 0 W/m² 11,7 °C 13,1 °C 9,7 km/h (2 Bft)
02.07.2017 22:04 13,0 °C 13,1 °C 91 % 1020,7 hPa 0,0 mm 2,0 km/h (1 Bft) W-SW 242 ° 0 min 0,000 mm 0,0 UV-I 0 W/m² 11,6 °C 13,0 °C 4,8 km/h (1 Bft)
02.07.2017 22:05 13,1 °C 13,1 °C 91 % 1020,7 hPa 0,0 mm 4,8 km/h (1 Bft) W 262 ° 0 min 0,000 mm 0,0 UV-I 0 W/m² 11,7 °C 13,1 °C 9,7 km/h (2 Bft)
02.07.2017 22:06 13,1 °C 13,1 °C 91 % 1020,7 hPa 0,0 mm 6,1 km/h (2 Bft) W-SW 240 ° 0 min 0,000 mm 0,0 UV-I 0 W/m² 11,7 °C 13,1 °C 9,7 km/h (2 Bft)
02.07.2017 22:07 13,0 °C 13,1 °C 91 % 1020,7 hPa 0,0 mm 6,1 km/h (2 Bft) W 263 ° 0 min 0,000 mm 0,0 UV-I 0 W/m² 11,6 °C 13,0 °C 9,7 km/h (2 Bft)
02.07.2017 22:08 13,0 °C 13,1 °C 91 % 1020,8 hPa 0,0 mm 6,6 km/h (2 Bft) W 281 ° 0 min 0,000 mm 0,0 UV-I 0 W/m² 11,6 °C 13,0 °C 11,3 km/h (2 Bft)
02.07.2017 22:09 13,0 °C 13,1 °C 91 % 1020,7 hPa 0,0 mm 9,3 km/h (2 Bft) W 273 ° 0 min 0,000 mm 0,0 UV-I 0 W/m² 11,6 °C 13,0 °C 14,5 km/h (3 Bft)
02.07.2017 22:10 13,1 °C 13,1 °C 91 % 1020,7 hPa 0,0 mm 7,0 km/h (2 Bft) W-SW 255 ° 0 min 0,000 mm 0,0 UV-I 0 W/m² 11,7 °C 13,1 °C 12,9 km/h (3 Bft)
02.07.2017 22:11 13,1 °C 13,1 °C 91 % 1020,7 hPa 0,0 mm 4,4 km/h (1 Bft) W 264 ° 0 min 0,000 mm 0,0 UV-I 0 W/m² 11,7 °C 13,1 °C 6,4 km/h (2 Bft)
02.07.2017 22:12 13,0 °C 13,1 °C 91 % 1020,8 hPa 0,0 mm 4,7 km/h (1 Bft) W-SW 258 ° 0 min 0,000 mm 0,0 UV-I 0 W/m² 11,6 °C 13,0 °C 9,7 km/h (2 Bft)
02.07.2017 22:13 13,1 °C 13,1 °C 91 % 1020,8 hPa 0,0 mm 7,1 km/h (2 Bft) W-NW 284 ° 0 min 0,000 mm 0,0 UV-I 0 W/m² 11,7 °C 13,1 °C 12,9 km/h (3 Bft)
02.07.2017 22:14 13,1 °C 13,1 °C 91 % 1020,8 hPa 0,0 mm 5,3 km/h (1 Bft) W 261 ° 0 min 0,000 mm 0,0 UV-I 0 W/m² 11,7 °C 13,1 °C 6,4 km/h (2 Bft)
02.07.2017 22:15 13,1 °C 13,1 °C 91 % 1020,8 hPa 0,0 mm 5,6 km/h (1 Bft) W 275 ° 0 min 0,000 mm 0,0 UV-I 0 W/m² 11,7 °C 13,1 °C 11,3 km/h (2 Bft)
02.07.2017 22:16 13,1 °C 13,1 °C 91 % 1020,8 hPa 0,0 mm 4,8 km/h (1 Bft) W-SW 248 ° 0 min 0,000 mm 0,0 UV-I 0 W/m² 11,7 °C 13,1 °C 9,7 km/h (2 Bft)
02.07.2017 22:17 13,0 °C 13,1 °C 91 % 1020,8 hPa 0,0 mm 5,9 km/h (2 Bft) W 267 ° 0 min 0,000 mm 0,0 UV-I 0 W/m² 11,6 °C 13,0 °C 9,7 km/h (2 Bft)
02.07.2017 22:18 13,1 °C 13,1 °C 91 % 1020,8 hPa 0,0 mm 4,8 km/h (1 Bft) W-SW 256 ° 0 min 0,000 mm 0,0 UV-I 0 W/m² 11,7 °C 13,1 °C 6,4 km/h (2 Bft)
02.07.2017 22:19 13,1 °C 13,1 °C 91 % 1020,8 hPa 0,0 mm 7,1 km/h (2 Bft) W-SW 257 ° 0 min 0,000 mm 0,0 UV-I 0 W/m² 11,7 °C 13,1 °C 12,9 km/h (3 Bft)
02.07.2017 22:20 13,0 °C 13,1 °C 91 % 1020,8 hPa 0,0 mm 7,3 km/h (2 Bft) W-SW 244 ° 0 min 0,000 mm 0,0 UV-I 0 W/m² 11,6 °C 13,0 °C 14,5 km/h (3 Bft)
02.07.2017 22:21 13,1 °C 13,1 °C 91 % 1020,8 hPa 0,0 mm 12,6 km/h (3 Bft) W 260 ° 0 min 0,000 mm 0,0 UV-I 0 W/m² 11,7 °C 13,1 °C 16,1 km/h (3 Bft)
02.07.2017 22:22 13,0 °C 13,1 °C 91 % 1020,8 hPa 0,0 mm 6,9 km/h (2 Bft) W-SW 254 ° 0 min 0,000 mm 0,0 UV-I 0 W/m² 11,6 °C 13,0 °C 12,9 km/h (3 Bft)
02.07.2017 22:23 13,0 °C 13,0 °C 91 % 1020,8 hPa 0,0 mm 5,9 km/h (2 Bft) W-NW 283 ° 0 min 0,000 mm 0,0 UV-I 0 W/m² 11,6 °C 13,0 °C 11,3 km/h (2 Bft)
02.07.2017 22:24 13,0 °C 13,1 °C 91 % 1020,8 hPa 0,0 mm 2,7 km/h (1 Bft) W-SW 251 ° 0 min 0,000 mm 0,0 UV-I 0 W/m² 11,6 °C 13,0 °C 6,4 km/h (2 Bft)
02.07.2017 22:25 13,0 °C 13,1 °C 91 % 1020,8 hPa 0,0 mm 2,1 km/h (1 Bft) W-SW 251 ° 0 min 0,000 mm 0,0 UV-I 0 W/m² 11,6 °C 13,0 °C 3,2 km/h (1 Bft)
02.07.2017 22:26 13,0 °C 13,0 °C 91 % 1020,8 hPa 0,0 mm 4,6 km/h (1 Bft) W 263 ° 0 min 0,000 mm 0,0 UV-I 0 W/m² 11,6 °C 13,0 °C 8,0 km/h (2 Bft)
02.07.2017 22:27 13,0 °C 13,0 °C 91 % 1020,8 hPa 0,0 mm 6,2 km/h (2 Bft) W-SW 257 ° 0 min 0,000 mm 0,0 UV-I 0 W/m² 11,6 °C 13,0 °C 9,7 km/h (2 Bft)
02.07.2017 22:28 12,9 °C 13,0 °C 91 % 1020,8 hPa 0,0 mm 5,5 km/h (1 Bft) W 272 ° 0 min 0,000 mm 0,0 UV-I 0 W/m² 11,5 °C 12,9 °C 11,3 km/h (2 Bft)
02.07.2017 22:29 12,9 °C 13,0 °C 91 % 1020,8 hPa 0,0 mm 3,6 km/h (1 Bft) W-SW 248 ° 0 min 0,000 mm 0,0 UV-I 0 W/m² 11,5 °C 12,9 °C 6,4 km/h (2 Bft)
02.07.2017 22:30 12,9 °C 13,0 °C 91 % 1020,8 hPa 0,0 mm 7,6 km/h (2 Bft) W-NW 283 ° 0 min 0,000 mm 0,0 UV-I 0 W/m² 11,5 °C 12,9 °C 14,5 km/h (3 Bft)
02.07.2017 22:31 12,9 °C 13,0 °C 91 % 1020,8 hPa 0,0 mm 6,2 km/h (2 Bft) W 281 ° 0 min 0,000 mm 0,0 UV-I 0 W/m² 11,5 °C 12,9 °C 11,3 km/h (2 Bft)
02.07.2017 22:32 12,9 °C 12,9 °C 91 % 1020,8 hPa 0,0 mm 4,4 km/h (1 Bft) W-NW 285 ° 0 min 0,000 mm 0,0 UV-I 0 W/m² 11,5 °C 12,9 °C 9,7 km/h (2 Bft)
02.07.2017 22:33 12,9 °C 12,9 °C 91 % 1020,9 hPa 0,0 mm 4,2 km/h (1 Bft) W 279 ° 0 min 0,000 mm 0,0 UV-I 0 W/m² 11,5 °C 12,9 °C 6,4 km/h (2 Bft)
02.07.2017 22:34 12,9 °C 12,9 °C 91 % 1020,9 hPa 0,0 mm 5,2 km/h (1 Bft) W-NW 284 ° 0 min 0,000 mm 0,0 UV-I 0 W/m² 11,5 °C 12,9 °C 6,4 km/h (2 Bft)
02.07.2017 22:35 12,9 °C 12,9 °C 91 % 1020,8 hPa 0,0 mm 3,1 km/h (1 Bft) W-NW 299 ° 0 min 0,000 mm 0,0 UV-I 0 W/m² 11,5 °C 12,9 °C 4,8 km/h (1 Bft)
02.07.2017 22:36 12,9 °C 12,9 °C 91 % 1020,8 hPa 0,0 mm 3,4 km/h (1 Bft) W 270 ° 0 min 0,000 mm 0,0 UV-I 0 W/m² 11,5 °C 12,9 °C 4,8 km/h (1 Bft)
02.07.2017 22:37 12,9 °C 12,9 °C 91 % 1020,8 hPa 0,0 mm 9,2 km/h (2 Bft) W-NW 289 ° 0 min 0,000 mm 0,0 UV-I 0 W/m² 11,5 °C 12,9 °C 14,5 km/h (3 Bft)
02.07.2017 22:38 12,9 °C 12,9 °C 91 % 1020,8 hPa 0,0 mm 6,6 km/h (2 Bft) W-SW 248 ° 0 min 0,000 mm 0,0 UV-I 0 W/m² 11,5 °C 12,9 °C 9,7 km/h (2 Bft)
02.07.2017 22:39 12,9 °C 12,9 °C 91 % 1020,9 hPa 0,0 mm 7,8 km/h (2 Bft) W-NW 289 ° 0 min 0,000 mm 0,0 UV-I 0 W/m² 11,5 °C 12,9 °C 12,9 km/h (3 Bft)
02.07.2017 22:40 12,9 °C 12,9 °C 91 % 1020,9 hPa 0,0 mm 5,1 km/h (1 Bft) W-NW 285 ° 0 min 0,000 mm 0,0 UV-I 0 W/m² 11,5 °C 12,9 °C 9,7 km/h (2 Bft)
02.07.2017 22:41 12,8 °C 12,9 °C 91 % 1020,9 hPa 0,0 mm 4,0 km/h (1 Bft) W-SW 248 ° 0 min 0,000 mm 0,0 UV-I 0 W/m² 11,4 °C 12,8 °C 8,0 km/h (2 Bft)
02.07.2017 22:42 12,8 °C 12,9 °C 91 % 1020,9 hPa 0,2 mm 3,3 km/h (1 Bft) W 271 ° 0 min 0,000 mm 0,0 UV-I 0 W/m² 11,4 °C 12,8 °C 11,3 km/h (2 Bft)
02.07.2017 22:43 12,8 °C 12,8 °C 92 % 1020,9 hPa 0,0 mm 9,8 km/h (2 Bft) W 265 ° 0 min 0,000 mm 0,0 UV-I 0 W/m² 11,5 °C 12,8 °C 14,5 km/h (3 Bft)
02.07.2017 22:44 12,8 °C 12,8 °C 92 % 1020,9 hPa 0,0 mm 3,4 km/h (1 Bft) W 279 ° 0 min 0,000 mm 0,0 UV-I 0 W/m² 11,5 °C 12,8 °C 4,8 km/h (1 Bft)
02.07.2017 22:45 12,8 °C 12,8 °C 92 % 1020,9 hPa 0,0 mm 5,9 km/h (2 Bft) W 281 ° 0 min 0,000 mm 0,0 UV-I 0 W/m² 11,5 °C 12,8 °C 8,0 km/h (2 Bft)
02.07.2017 22:46 12,8 °C 12,8 °C 92 % 1020,9 hPa 0,0 mm 4,8 km/h (1 Bft) W 265 ° 0 min 0,000 mm 0,0 UV-I 0 W/m² 11,5 °C 12,8 °C 9,7 km/h (2 Bft)
02.07.2017 22:47 12,8 °C 12,8 °C 92 % 1020,9 hPa 0,0 mm 5,5 km/h (1 Bft) W-NW 296 ° 0 min 0,000 mm 0,0 UV-I 0 W/m² 11,5 °C 12,8 °C 11,3 km/h (2 Bft)
02.07.2017 22:48 12,7 °C 12,8 °C 92 % 1020,9 hPa 0,0 mm 4,2 km/h (1 Bft) W-NW 290 ° 0 min 0,000 mm 0,0 UV-I 0 W/m² 11,4 °C 12,7 °C 6,4 km/h (2 Bft)
02.07.2017 22:49 12,7 °C 12,7 °C 92 % 1020,9 hPa 0,0 mm 4,0 km/h (1 Bft) W 263 ° 0 min 0,000 mm 0,0 UV-I 0 W/m² 11,4 °C 12,7 °C 6,4 km/h (2 Bft)
02.07.2017 22:50 12,7 °C 12,7 °C 92 % 1020,9 hPa 0,0 mm 2,1 km/h (1 Bft) W-SW 252 ° 0 min 0,000 mm 0,0 UV-I 0 W/m² 11,4 °C 12,7 °C 4,8 km/h (1 Bft)
02.07.2017 22:51 12,7 °C 12,7 °C 92 % 1020,9 hPa 0,0 mm 3,6 km/h (1 Bft) W 266 ° 0 min 0,000 mm 0,0 UV-I 0 W/m² 11,4 °C 12,7 °C 9,7 km/h (2 Bft)
02.07.2017 22:52 12,7 °C 12,7 °C 92 % 1020,8 hPa 0,0 mm 8,4 km/h (2 Bft) W 259 ° 0 min 0,000 mm 0,0 UV-I 0 W/m² 11,4 °C 12,7 °C 11,3 km/h (2 Bft)
02.07.2017 22:53 12,6 °C 12,7 °C 92 % 1020,8 hPa 0,0 mm 5,6 km/h (1 Bft) W-SW 248 ° 0 min 0,000 mm 0,0 UV-I 0 W/m² 11,3 °C 12,6 °C 11,3 km/h (2 Bft)
02.07.2017 22:54 12,7 °C 12,7 °C 93 % 1020,9 hPa 0,0 mm 3,5 km/h (1 Bft) S-SW 210 ° 0 min 0,000 mm 0,0 UV-I 0 W/m² 11,6 °C 12,7 °C 8,0 km/h (2 Bft)
02.07.2017 22:55 12,6 °C 12,7 °C 92 % 1020,9 hPa 0,0 mm 7,0 km/h (2 Bft) W-NW 287 ° 0 min 0,000 mm 0,0 UV-I 0 W/m² 11,3 °C 12,6 °C 11,3 km/h (2 Bft)
02.07.2017 22:56 12,6 °C 12,6 °C 93 % 1020,9 hPa 0,0 mm 4,6 km/h (1 Bft) W 278 ° 0 min 0,000 mm 0,0 UV-I 0 W/m² 11,5 °C 12,6 °C 8,0 km/h (2 Bft)
02.07.2017 22:57 12,6 °C 12,7 °C 93 % 1020,9 hPa 0,0 mm 2,7 km/h (1 Bft) W 277 ° 0 min 0,000 mm 0,0 UV-I 0 W/m² 11,5 °C 12,6 °C 4,8 km/h (1 Bft)
02.07.2017 22:58 12,6 °C 12,6 °C 93 % 1020,8 hPa 0,0 mm 4,5 km/h (1 Bft) W 267 ° 0 min 0,000 mm 0,0 UV-I 0 W/m² 11,5 °C 12,6 °C 6,4 km/h (2 Bft)
02.07.2017 22:59 12,7 °C 12,7 °C 93 % 1020,9 hPa 0,0 mm 2,7 km/h (1 Bft) W-SW 253 ° 0 min 0,000 mm 0,0 UV-I 0 W/m² 11,6 °C 12,7 °C 4,8 km/h (1 Bft)
02.07.2017 23:00 12,6 °C 12,7 °C 93 % 1020,9 hPa 0,0 mm 8,2 km/h (2 Bft) W-SW 250 ° 0 min 0,000 mm 0,0 UV-I 0 W/m² 11,5 °C 12,6 °C 12,9 km/h (3 Bft)
02.07.2017 23:01 12,6 °C 12,7 °C 93 % 1020,9 hPa 0,0 mm 6,7 km/h (2 Bft) W 261 ° 0 min 0,000 mm 0,0 UV-I 0 W/m² 11,5 °C 12,6 °C 9,7 km/h (2 Bft)
02.07.2017 23:02 12,7 °C 12,7 °C 93 % 1020,9 hPa 0,0 mm 10,7 km/h (2 Bft) W 262 ° 0 min 0,000 mm 0,0 UV-I 0 W/m² 11,6 °C 12,7 °C 14,5 km/h (3 Bft)
02.07.2017 23:03 12,6 °C 12,7 °C 93 % 1020,9 hPa 0,0 mm 8,8 km/h (2 Bft) W-SW 244 ° 0 min 0,000 mm 0,0 UV-I 0 W/m² 11,5 °C 12,6 °C 14,5 km/h (3 Bft)
02.07.2017 23:04 12,6 °C 12,7 °C 93 % 1020,9 hPa 0,0 mm 6,5 km/h (2 Bft) SW 224 ° 0 min 0,000 mm 0,0 UV-I 0 W/m² 11,5 °C 12,6 °C 9,7 km/h (2 Bft)
02.07.2017 23:05 12,7 °C 12,7 °C 93 % 1020,9 hPa 0,0 mm 8,0 km/h (2 Bft) W 259 ° 0 min 0,000 mm 0,0 UV-I 0 W/m² 11,6 °C 12,7 °C 12,9 km/h (3 Bft)
02.07.2017 23:06 12,6 °C 12,7 °C 93 % 1020,9 hPa 0,0 mm 4,8 km/h (1 Bft) W-NW 300 ° 0 min 0,000 mm 0,0 UV-I 0 W/m² 11,5 °C 12,6 °C 8,0 km/h (2 Bft)
02.07.2017 23:07 12,6 °C 12,6 °C 93 % 1020,9 hPa 0,0 mm 5,9 km/h (2 Bft) W 267 ° 0 min 0,000 mm 0,0 UV-I 0 W/m² 11,5 °C 12,6 °C 11,3 km/h (2 Bft)
02.07.2017 23:08 12,6 °C 12,6 °C 93 % 1020,9 hPa 0,0 mm 4,1 km/h (1 Bft) W 264 ° 0 min 0,000 mm 0,0 UV-I 0 W/m² 11,5 °C 12,6 °C 8,0 km/h (2 Bft)
02.07.2017 23:09 12,6 °C 12,6 °C 93 % 1020,9 hPa 0,2 mm 4,8 km/h (1 Bft) W-NW 286 ° 0 min 0,000 mm 0,0 UV-I 0 W/m² 11,5 °C 12,6 °C 11,3 km/h (2 Bft)
02.07.2017 23:10 12,6 °C 12,6 °C 93 % 1020,9 hPa 0,0 mm 8,2 km/h (2 Bft) W 260 ° 0 min 0,000 mm 0,0 UV-I 0 W/m² 11,5 °C 12,6 °C 11,3 km/h (2 Bft)
02.07.2017 23:11 12,6 °C 12,6 °C 93 % 1020,9 hPa 0,0 mm 9,5 km/h (2 Bft) W-NW 284 ° 0 min 0,000 mm 0,0 UV-I 0 W/m² 11,5 °C 12,6 °C 16,1 km/h (3 Bft)
02.07.2017 23:12 12,6 °C 12,6 °C 93 % 1020,9 hPa 0,0 mm 6,2 km/h (2 Bft) W-NW 290 ° 0 min 0,000 mm 0,0 UV-I 0 W/m² 11,5 °C 12,6 °C 11,3 km/h (2 Bft)
02.07.2017 23:13 12,6 °C 12,6 °C 93 % 1020,9 hPa 0,0 mm 5,5 km/h (1 Bft) W 281 ° 0 min 0,000 mm 0,0 UV-I 0 W/m² 11,5 °C 12,6 °C 11,3 km/h (2 Bft)
02.07.2017 23:14 12,6 °C 12,6 °C 93 % 1020,9 hPa 0,0 mm 7,5 km/h (2 Bft) W 277 ° 0 min 0,000 mm 0,0 UV-I 0 W/m² 11,5 °C 12,6 °C 9,7 km/h (2 Bft)
02.07.2017 23:15 12,6 °C 12,6 °C 93 % 1020,9 hPa 0,0 mm 5,6 km/h (1 Bft) W 265 ° 0 min 0,000 mm 0,0 UV-I 0 W/m² 11,5 °C 12,6 °C 8,0 km/h (2 Bft)
02.07.2017 23:16 12,6 °C 12,6 °C 93 % 1021,0 hPa 0,0 mm 6,6 km/h (2 Bft) W 271 ° 0 min 0,000 mm 0,0 UV-I 0 W/m² 11,5 °C 12,6 °C 12,9 km/h (3 Bft)
02.07.2017 23:17 12,6 °C 12,6 °C 93 % 1021,0 hPa 0,0 mm 6,9 km/h (2 Bft) SW 227 ° 0 min 0,000 mm 0,0 UV-I 0 W/m² 11,5 °C 12,6 °C 12,9 km/h (3 Bft)
02.07.2017 23:18 12,6 °C 12,6 °C 93 % 1021,0 hPa 0,2 mm 6,0 km/h (2 Bft) W-NW 288 ° 0 min 0,000 mm 0,0 UV-I 0 W/m² 11,5 °C 12,6 °C 11,3 km/h (2 Bft)
02.07.2017 23:19 12,6 °C 12,6 °C 93 % 1021,0 hPa 0,0 mm 6,8 km/h (2 Bft) W-NW 289 ° 0 min 0,000 mm 0,0 UV-I 0 W/m² 11,5 °C 12,6 °C 11,3 km/h (2 Bft)
02.07.2017 23:20 12,6 °C 12,6 °C 93 % 1021,0 hPa 0,0 mm 4,0 km/h (1 Bft) W-NW 284 ° 0 min 0,000 mm 0,0 UV-I 0 W/m² 11,5 °C 12,6 °C 8,0 km/h (2 Bft)
02.07.2017 23:21 12,6 °C 12,6 °C 93 % 1021,1 hPa 0,0 mm 5,2 km/h (1 Bft) W-NW 288 ° 0 min 0,000 mm 0,0 UV-I 0 W/m² 11,5 °C 12,6 °C 8,0 km/h (2 Bft)
02.07.2017 23:22 12,6 °C 12,6 °C 93 % 1021,1 hPa 0,0 mm 5,9 km/h (2 Bft) W-NW 292 ° 0 min 0,000 mm 0,0 UV-I 0 W/m² 11,5 °C 12,6 °C 9,7 km/h (2 Bft)
02.07.2017 23:23 12,6 °C 12,6 °C 93 % 1021,1 hPa 0,0 mm 4,5 km/h (1 Bft) W-NW 289 ° 0 min 0,000 mm 0,0 UV-I 0 W/m² 11,5 °C 12,6 °C 6,4 km/h (2 Bft)
02.07.2017 23:24 12,6 °C 12,6 °C 93 % 1021,2 hPa 0,0 mm 4,1 km/h (1 Bft) W-NW 288 ° 0 min 0,000 mm 0,0 UV-I 0 W/m² 11,5 °C 12,6 °C 6,4 km/h (2 Bft)
02.07.2017 23:25 12,6 °C 12,6 °C 93 % 1021,1 hPa 0,0 mm 3,3 km/h (1 Bft) NW 308 ° 0 min 0,000 mm 0,0 UV-I 0 W/m² 11,5 °C 12,6 °C 4,8 km/h (1 Bft)
02.07.2017 23:26 12,6 °C 12,6 °C 93 % 1021,2 hPa 0,0 mm 4,6 km/h (1 Bft) W-NW 286 ° 0 min 0,000 mm 0,0 UV-I 0 W/m² 11,5 °C 12,6 °C 6,4 km/h (2 Bft)
02.07.2017 23:27 12,6 °C 12,6 °C 93 % 1021,1 hPa 0,0 mm 1,8 km/h (1 Bft) W-NW 288 ° 0 min 0,000 mm 0,0 UV-I 0 W/m² 11,5 °C 12,6 °C 3,2 km/h (1 Bft)
02.07.2017 23:28 12,6 °C 12,6 °C 93 % 1021,2 hPa 0,0 mm 4,2 km/h (1 Bft) NW 306 ° 0 min 0,000 mm 0,0 UV-I 0 W/m² 11,5 °C 12,6 °C 6,4 km/h (2 Bft)
02.07.2017 23:29 12,6 °C 12,6 °C 93 % 1021,2 hPa 0,0 mm 4,4 km/h (1 Bft) NW 320 ° 0 min 0,000 mm 0,0 UV-I 0 W/m² 11,5 °C 12,6 °C 8,0 km/h (2 Bft)
02.07.2017 23:30 12,5 °C 12,6 °C 93 % 1021,2 hPa 0,2 mm 3,4 km/h (1 Bft) NW 304 ° 0 min 0,000 mm 0,0 UV-I 0 W/m² 11,4 °C 12,5 °C 6,4 km/h (2 Bft)
02.07.2017 23:31 12,6 °C 12,6 °C 93 % 1021,2 hPa 0,0 mm 5,4 km/h (1 Bft) W 273 ° 0 min 0,000 mm 0,0 UV-I 0 W/m² 11,5 °C 12,6 °C 9,7 km/h (2 Bft)
02.07.2017 23:32 12,6 °C 12,6 °C 93 % 1021,2 hPa 0,2 mm 8,9 km/h (2 Bft) W 272 ° 0 min 0,000 mm 0,0 UV-I 0 W/m² 11,5 °C 12,6 °C 12,9 km/h (3 Bft)
02.07.2017 23:33 12,5 °C 12,6 °C 93 % 1021,1 hPa 0,2 mm 8,9 km/h (2 Bft) W 277 ° 0 min 0,000 mm 0,0 UV-I 0 W/m² 11,4 °C 12,5 °C 14,5 km/h (3 Bft)
02.07.2017 23:34 12,5 °C 12,5 °C 93 % 1021,2 hPa 0,0 mm 4,8 km/h (1 Bft) NW 309 ° 0 min 0,000 mm 0,0 UV-I 0 W/m² 11,4 °C 12,5 °C 6,4 km/h (2 Bft)
02.07.2017 23:35 12,5 °C 12,5 °C 93 % 1021,2 hPa 0,0 mm 3,2 km/h (1 Bft) W-NW 302 ° 0 min 0,000 mm 0,0 UV-I 0 W/m² 11,4 °C 12,5 °C 4,8 km/h (1 Bft)
02.07.2017 23:36 12,4 °C 12,5 °C 93 % 1021,2 hPa 0,0 mm 5,2 km/h (1 Bft) W-NW 285 ° 0 min 0,000 mm 0,0 UV-I 0 W/m² 11,3 °C 12,4 °C 9,7 km/h (2 Bft)
02.07.2017 23:37 12,4 °C 12,5 °C 93 % 1021,2 hPa 0,0 mm 9,7 km/h (2 Bft) W 277 ° 0 min 0,000 mm 0,0 UV-I 0 W/m² 11,3 °C 12,4 °C 16,1 km/h (3 Bft)
02.07.2017 23:38 12,4 °C 12,4 °C 93 % 1021,2 hPa 0,2 mm 9,4 km/h (2 Bft) W-SW 241 ° 0 min 0,000 mm 0,0 UV-I 0 W/m² 11,3 °C 12,4 °C 16,1 km/h (3 Bft)
02.07.2017 23:39 12,4 °C 12,4 °C 93 % 1021,2 hPa 0,0 mm 8,4 km/h (2 Bft) W 271 ° 0 min 0,000 mm 0,0 UV-I 0 W/m² 11,3 °C 12,4 °C 12,9 km/h (3 Bft)
02.07.2017 23:40 12,4 °C 12,4 °C 93 % 1021,2 hPa 0,0 mm 5,8 km/h (2 Bft) W-NW 285 ° 0 min 0,000 mm 0,0 UV-I 0 W/m² 11,3 °C 12,4 °C 9,7 km/h (2 Bft)
02.07.2017 23:41 12,4 °C 12,4 °C 93 % 1021,2 hPa 0,0 mm 4,1 km/h (1 Bft) NW 306 ° 0 min 0,000 mm 0,0 UV-I 0 W/m² 11,3 °C 12,4 °C 6,4 km/h (2 Bft)
02.07.2017 23:42 12,4 °C 12,4 °C 93 % 1021,2 hPa 0,0 mm 4,1 km/h (1 Bft) W-NW 300 ° 0 min 0,000 mm 0,0 UV-I 0 W/m² 11,3 °C 12,4 °C 6,4 km/h (2 Bft)
02.07.2017 23:43 12,4 °C 12,4 °C 93 % 1021,3 hPa 0,0 mm 3,3 km/h (1 Bft) NW 315 ° 0 min 0,000 mm 0,0 UV-I 0 W/m² 11,3 °C 12,4 °C 4,8 km/h (1 Bft)
02.07.2017 23:44 12,4 °C 12,4 °C 93 % 1021,3 hPa 0,0 mm 3,0 km/h (1 Bft) W-NW 287 ° 0 min 0,000 mm 0,0 UV-I 0 W/m² 11,3 °C 12,4 °C 4,8 km/h (1 Bft)
02.07.2017 23:45 12,3 °C 12,4 °C 93 % 1021,2 hPa 0,0 mm 3,3 km/h (1 Bft) W 281 ° 0 min 0,000 mm 0,0 UV-I 0 W/m² 11,2 °C 12,3 °C 9,7 km/h (2 Bft)
02.07.2017 23:46 12,3 °C 12,3 °C 93 % 1021,3 hPa 0,2 mm 5,1 km/h (1 Bft) W 265 ° 0 min 0,000 mm 0,0 UV-I 0 W/m² 11,2 °C 12,3 °C 6,4 km/h (2 Bft)
02.07.2017 23:47 12,3 °C 12,3 °C 93 % 1021,3 hPa 0,0 mm 3,2 km/h (1 Bft) W 261 ° 0 min 0,000 mm 0,0 UV-I 0 W/m² 11,2 °C 12,3 °C 6,4 km/h (2 Bft)
02.07.2017 23:48 12,3 °C 12,3 °C 93 % 1021,3 hPa 0,0 mm 3,3 km/h (1 Bft) W-NW 285 ° 0 min 0,000 mm 0,0 UV-I 0 W/m² 11,2 °C 12,3 °C 4,8 km/h (1 Bft)
02.07.2017 23:49 12,3 °C 12,3 °C 93 % 1021,3 hPa 0,0 mm 2,4 km/h (1 Bft) W-NW 284 ° 0 min 0,000 mm 0,0 UV-I 0 W/m² 11,2 °C 12,3 °C 4,8 km/h (1 Bft)
02.07.2017 23:50 12,3 °C 12,3 °C 93 % 1021,3 hPa 0,2 mm 4,6 km/h (1 Bft) W-NW 288 ° 0 min 0,000 mm 0,0 UV-I 0 W/m² 11,2 °C 12,3 °C 9,7 km/h (2 Bft)
02.07.2017 23:51 12,3 °C 12,3 °C 93 % 1021,3 hPa 0,0 mm 2,1 km/h (1 Bft) W-NW 289 ° 0 min 0,000 mm 0,0 UV-I 0 W/m² 11,2 °C 12,3 °C 3,2 km/h (1 Bft)
02.07.2017 23:52 12,2 °C 12,3 °C 93 % 1021,3 hPa 0,2 mm 4,8 km/h (1 Bft) W-NW 291 ° 0 min 0,000 mm 0,0 UV-I 0 W/m² 11,1 °C 12,2 °C 6,4 km/h (2 Bft)
02.07.2017 23:53 12,2 °C 12,2 °C 93 % 1021,3 hPa 0,0 mm 3,0 km/h (1 Bft) W-SW 250 ° 0 min 0,000 mm 0,0 UV-I 0 W/m² 11,1 °C 12,2 °C 4,8 km/h (1 Bft)
02.07.2017 23:54 12,2 °C 12,3 °C 93 % 1021,4 hPa 0,0 mm 3,2 km/h (1 Bft) W-SW 246 ° 0 min 0,000 mm 0,0 UV-I 0 W/m² 11,1 °C 12,2 °C 4,8 km/h (1 Bft)
02.07.2017 23:55 12,2 °C 12,2 °C 93 % 1021,3 hPa 0,0 mm 3,7 km/h (1 Bft) W-NW 282 ° 0 min 0,000 mm 0,0 UV-I 0 W/m² 11,1 °C 12,2 °C 4,8 km/h (1 Bft)
02.07.2017 23:56 12,2 °C 12,2 °C 93 % 1021,3 hPa 0,2 mm 3,9 km/h (1 Bft) W-NW 288 ° 0 min 0,000 mm 0,0 UV-I 0 W/m² 11,1 °C 12,2 °C 6,4 km/h (2 Bft)
02.07.2017 23:57 12,2 °C 12,2 °C 93 % 1021,4 hPa 0,0 mm 2,9 km/h (1 Bft) W-NW 302 ° 0 min 0,000 mm 0,0 UV-I 0 W/m² 11,1 °C 12,2 °C 6,4 km/h (2 Bft)
02.07.2017 23:58 12,2 °C 12,2 °C 94 % 1021,3 hPa 0,0 mm 1,4 km/h (1 Bft) W-NW 302 ° 0 min 0,000 mm 0,0 UV-I 0 W/m² 11,3 °C 12,2 °C 3,2 km/h (1 Bft)
02.07.2017 23:59 12,2 °C 12,2 °C 93 % 1021,3 hPa 0,0 mm 4,6 km/h (1 Bft) W-NW 286 ° 0 min 0,000 mm 0,0 UV-I 0 W/m² 11,1 °C 12,2 °C 11,3 km/h (2 Bft)
_ Min-Zeit 04:41 05:11 00:18 01:49 - 06:11 - - - - - - 00:13 04:41 06:11
Minimum _ 11,2 °C 11,3 °C 78 % 1014,9 hPa - 0,0 km/h (0 Bft) - - - - - - 9,4 °C 11,2 °C 0,0 km/h (0 Bft)
_ Max-Zeit 14:47 14:48 23:58 23:57 23:56 13:47 - - 15:36 15:01 13:53 14:08 14:16 14:47 13:47
Maximum _ 16,4 °C 16,4 °C 94 % 1021,4 hPa 0,2 mm 17,2 km/h
W (3 Bft)
- - 1 min 0,229 mm 8,0 UV-I 807 W/m² 13,9 °C 16,4 °C 27,4 km/h
W (4 Bft)
Durchschnitt _ 13,2 °C 13,3 °C 89 % 1017,7 hPa #4,2 mm 6,9 km/h (2 Bft) W - #2:41 h #1,524 mm 1,9 UV-I 104 W/m² 11,4 °C 13,2 °C 11,6 km/h (2 Bft)